<?xml version='1.0' encoding='UTF-8'?><gpx version="1.1" creator="JPX - https://github.com/jenetics/jpx" xmlns="http://www.topografix.com/GPX/1/1"><trk><trkseg><trkpt lat="45.53546371684024" lon="11.291699337365529"><ele>154.0</ele><time>2026-04-03T13:23:14.998Z</time></trkpt><trkpt lat="45.535549639120255" lon="11.291580114904523"><ele>154.0</ele><time>2026-04-03T13:23:16.998Z</time></trkpt><trkpt lat="45.535602376794515" lon="11.291506189582808"><ele>154.0</ele><time>2026-04-03T13:23:17.998Z</time></trkpt><trkpt lat="45.53565326929349" lon="11.291431302987318"><ele>154.0</ele><time>2026-04-03T13:23:18.998Z</time></trkpt><trkpt lat="45.535731466886006" lon="11.291401857009168"><ele>154.0</ele><time>2026-04-03T13:23:19.998Z</time></trkpt><trkpt lat="45.53578973995508" lon="11.291321190119202"><ele>154.0</ele><time>2026-04-03T13:23:20.998Z</time></trkpt><trkpt lat="45.53585301903674" lon="11.291231818143007"><ele>154.16666666666669</ele><time>2026-04-03T13:23:21.998Z</time></trkpt><trkpt lat="45.53591418564816" lon="11.291145318933266"><ele>154.33333333333334</ele><time>2026-04-03T13:23:22.998Z</time></trkpt><trkpt lat="45.53596290595938" lon="11.291076420680964"><ele>154.5</ele><time>2026-04-03T13:23:23.998Z</time></trkpt><trkpt lat="45.53603136487056" lon="11.290986216250571"><ele>154.66666666666666</ele><time>2026-04-03T13:23:25.998Z</time></trkpt><trkpt lat="45.53612778840799" lon="11.290983503960238"><ele>154.83333333333331</ele><time>2026-04-03T13:23:28.997Z</time></trkpt><trkpt lat="45.536160328652535" lon="11.291095210173996"><ele>155.0</ele><time>2026-04-03T13:23:29.997Z</time></trkpt><trkpt lat="45.53622570074579" lon="11.29119207408576"><ele>155.0</ele><time>2026-04-03T13:23:30.997Z</time></trkpt><trkpt lat="45.53629663625121" lon="11.291306739503874"><ele>155.0</ele><time>2026-04-03T13:23:31.997Z</time></trkpt><trkpt lat="45.5363896602081" lon="11.291418275462933"><ele>155.0</ele><time>2026-04-03T13:23:32.997Z</time></trkpt><trkpt lat="45.53647069315665" lon="11.291546780781447"><ele>155.0</ele><time>2026-04-03T13:23:33.997Z</time></trkpt><trkpt lat="45.536549950620625" lon="11.291663844611332"><ele>154.8</ele><time>2026-04-03T13:23:34.997Z</time></trkpt><trkpt lat="45.536624042221966" lon="11.291773278358328"><ele>154.6</ele><time>2026-04-03T13:23:35.997Z</time></trkpt><trkpt lat="45.53669518980558" lon="11.29184708737385"><ele>154.4</ele><time>2026-04-03T13:23:36.997Z</time></trkpt><trkpt lat="45.53674769508386" lon="11.291933258118203"><ele>154.2</ele><time>2026-04-03T13:23:37.997Z</time></trkpt><trkpt lat="45.53683176947107" lon="11.292042778488971"><ele>154.0</ele><time>2026-04-03T13:23:40Z</time></trkpt><trkpt lat="45.53687476282928" lon="11.292164668745352"><ele>154.0</ele><time>2026-04-03T13:23:42Z</time></trkpt><trkpt lat="45.536850736684414" lon="11.292261286559858"><ele>154.0</ele><time>2026-04-03T13:23:43Z</time></trkpt><trkpt lat="45.5367979364337" lon="11.292366575768126"><ele>154.0</ele><time>2026-04-03T13:23:44Z</time></trkpt><trkpt lat="45.536730651350894" lon="11.292481902165504"><ele>154.0</ele><time>2026-04-03T13:23:45Z</time></trkpt><trkpt lat="45.53666192644449" lon="11.29262571046943"><ele>154.0</ele><time>2026-04-03T13:23:46Z</time></trkpt><trkpt lat="45.536591072896556" lon="11.292788428522622"><ele>154.0</ele><time>2026-04-03T13:23:47Z</time></trkpt><trkpt lat="45.53651948249696" lon="11.29297079188788"><ele>154.0</ele><time>2026-04-03T13:23:48Z</time></trkpt><trkpt lat="45.53644928601709" lon="11.293160607847772"><ele>154.0</ele><time>2026-04-03T13:23:49Z</time></trkpt><trkpt lat="45.53636896182459" lon="11.29336569312317"><ele>154.0</ele><time>2026-04-03T13:23:50Z</time></trkpt><trkpt lat="45.53628049049248" lon="11.293577542945231"><ele>154.0</ele><time>2026-04-03T13:23:51Z</time></trkpt><trkpt lat="45.53618819806041" lon="11.293783653728726"><ele>154.0</ele><time>2026-04-03T13:23:52Z</time></trkpt><trkpt lat="45.53609541375185" lon="11.29399207232237"><ele>154.33333333333334</ele><time>2026-04-03T13:23:53Z</time></trkpt><trkpt lat="45.53599684841223" lon="11.29420322104146"><ele>154.66666666666666</ele><time>2026-04-03T13:23:54Z</time></trkpt><trkpt lat="45.53588546035693" lon="11.294397620777069"><ele>155.0</ele><time>2026-04-03T13:23:55Z</time></trkpt><trkpt lat="45.53575953150331" lon="11.294573798746356"><ele>155.0</ele><time>2026-04-03T13:23:56Z</time></trkpt><trkpt lat="45.535621602248334" lon="11.294730144404406"><ele>155.0</ele><time>2026-04-03T13:23:57Z</time></trkpt><trkpt lat="45.53547895381977" lon="11.294871373785874"><ele>155.0</ele><time>2026-04-03T13:23:58Z</time></trkpt><trkpt lat="45.5353361388453" lon="11.295007654141187"><ele>154.0</ele><time>2026-04-03T13:23:59Z</time></trkpt><trkpt lat="45.5351907903481" lon="11.2951510263192"><ele>153.0</ele><time>2026-04-03T13:24:00Z</time></trkpt><trkpt lat="45.5350482756881" lon="11.295295788926362"><ele>152.0</ele><time>2026-04-03T13:24:01Z</time></trkpt><trkpt lat="45.534901913371975" lon="11.295444420414595"><ele>151.66666666666666</ele><time>2026-04-03T13:24:02Z</time></trkpt><trkpt lat="45.53475365024305" lon="11.295589416860095"><ele>151.33333333333334</ele><time>2026-04-03T13:24:03Z</time></trkpt><trkpt lat="45.53460029668466" lon="11.295729949542018"><ele>151.0</ele><time>2026-04-03T13:24:04Z</time></trkpt><trkpt lat="45.534445841405095" lon="11.29587069162823"><ele>151.0</ele><time>2026-04-03T13:24:04.999Z</time></trkpt><trkpt lat="45.5342942388829" lon="11.296015373887888"><ele>151.0</ele><time>2026-04-03T13:24:05.999Z</time></trkpt><trkpt lat="45.53414036909918" lon="11.29616210897204"><ele>151.0</ele><time>2026-04-03T13:24:06.999Z</time></trkpt><trkpt lat="45.53398581465529" lon="11.296310219662892"><ele>150.33333333333334</ele><time>2026-04-03T13:24:07.999Z</time></trkpt><trkpt lat="45.533836712633146" lon="11.296453587485184"><ele>149.66666666666666</ele><time>2026-04-03T13:24:08.999Z</time></trkpt><trkpt lat="45.53368863550263" lon="11.296593214522947"><ele>149.0</ele><time>2026-04-03T13:24:09.999Z</time></trkpt><trkpt lat="45.53353977574934" lon="11.296726696765905"><ele>149.0</ele><time>2026-04-03T13:24:10.999Z</time></trkpt><trkpt lat="45.533384970692346" lon="11.29684960644823"><ele>149.0</ele><time>2026-04-03T13:24:11.999Z</time></trkpt><trkpt lat="45.53323073687056" lon="11.296963434834892"><ele>149.0</ele><time>2026-04-03T13:24:12.999Z</time></trkpt><trkpt lat="45.53307499810429" lon="11.29708908467035"><ele>149.0</ele><time>2026-04-03T13:24:13.999Z</time></trkpt><trkpt lat="45.53293289345658" lon="11.297219189035962"><ele>149.0</ele><time>2026-04-03T13:24:14.999Z</time></trkpt><trkpt lat="45.53279450813532" lon="11.297338741873274"><ele>149.0</ele><time>2026-04-03T13:24:15.999Z</time></trkpt><trkpt lat="45.532666729203356" lon="11.29744499483621"><ele>149.5</ele><time>2026-04-03T13:24:16.999Z</time></trkpt><trkpt lat="45.53253298853202" lon="11.297532604155647"><ele>150.0</ele><time>2026-04-03T13:24:17.999Z</time></trkpt><trkpt lat="45.53241258871144" lon="11.297606757877414"><ele>150.5</ele><time>2026-04-03T13:24:18.999Z</time></trkpt><trkpt lat="45.53230089736909" lon="11.297663704359548"><ele>151.0</ele><time>2026-04-03T13:24:19.999Z</time></trkpt><trkpt lat="45.53220602186569" lon="11.297738092998028"><ele>151.0</ele><time>2026-04-03T13:24:20.999Z</time></trkpt><trkpt lat="45.53212996260324" lon="11.297851888787577"><ele>151.0</ele><time>2026-04-03T13:24:21.999Z</time></trkpt><trkpt lat="45.53209098525649" lon="11.298012287362646"><ele>151.0</ele><time>2026-04-03T13:24:22.999Z</time></trkpt><trkpt lat="45.53210876383726" lon="11.298198314708145"><ele>151.0</ele><time>2026-04-03T13:24:23.999Z</time></trkpt><trkpt lat="45.53209878373875" lon="11.298391239499333"><ele>150.5</ele><time>2026-04-03T13:24:24.999Z</time></trkpt><trkpt lat="45.532114723485144" lon="11.298582066729669"><ele>150.0</ele><time>2026-04-03T13:24:25.999Z</time></trkpt><trkpt lat="45.53214813612638" lon="11.298760807305412"><ele>149.5</ele><time>2026-04-03T13:24:26.999Z</time></trkpt><trkpt lat="45.53220878650482" lon="11.298928081642998"><ele>149.0</ele><time>2026-04-03T13:24:27.999Z</time></trkpt><trkpt lat="45.53230450455236" lon="11.29906068042069"><ele>149.0</ele><time>2026-04-03T13:24:28.999Z</time></trkpt><trkpt lat="45.532396508950946" lon="11.299206306854199"><ele>149.0</ele><time>2026-04-03T13:24:29.999Z</time></trkpt><trkpt lat="45.532513813369455" lon="11.29932526335096"><ele>149.0</ele><time>2026-04-03T13:24:30.999Z</time></trkpt><trkpt lat="45.532628415477035" lon="11.299451034214156"><ele>149.0</ele><time>2026-04-03T13:24:31.999Z</time></trkpt><trkpt lat="45.5327375904443" lon="11.29958318965173"><ele>149.0</ele><time>2026-04-03T13:24:32.999Z</time></trkpt><trkpt lat="45.532834258087554" lon="11.299704624908513"><ele>149.0</ele><time>2026-04-03T13:24:33.999Z</time></trkpt><trkpt lat="45.53291890758582" lon="11.299815991145481"><ele>149.0</ele><time>2026-04-03T13:24:34.999Z</time></trkpt><trkpt lat="45.53298966890126" lon="11.299930044914577"><ele>149.0</ele><time>2026-04-03T13:24:35.999Z</time></trkpt><trkpt lat="45.53303136201243" lon="11.300051281022556"><ele>149.0</ele><time>2026-04-03T13:24:36.999Z</time></trkpt><trkpt lat="45.53304934284198" lon="11.300173902328561"><ele>148.6</ele><time>2026-04-03T13:24:37.999Z</time></trkpt><trkpt lat="45.533033846224114" lon="11.300294931436285"><ele>148.2</ele><time>2026-04-03T13:24:38.999Z</time></trkpt><trkpt lat="45.53298587850927" lon="11.30040893217427"><ele>147.79999999999998</ele><time>2026-04-03T13:24:39.999Z</time></trkpt><trkpt lat="45.532909747073155" lon="11.300500374092273"><ele>147.4</ele><time>2026-04-03T13:24:40.999Z</time></trkpt><trkpt lat="45.53281233068138" lon="11.300563392691743"><ele>147.0</ele><time>2026-04-03T13:24:41.999Z</time></trkpt><trkpt lat="45.53269518671089" lon="11.300571822744919"><ele>146.75</ele><time>2026-04-03T13:24:42.999Z</time></trkpt><trkpt lat="45.532582328476266" lon="11.30064435406761"><ele>146.5</ele><time>2026-04-03T13:24:43.999Z</time></trkpt><trkpt lat="45.532457314587106" lon="11.300712318981764"><ele>146.25</ele><time>2026-04-03T13:24:44.999Z</time></trkpt><trkpt lat="45.532334947069714" lon="11.30085190507136"><ele>146.0</ele><time>2026-04-03T13:24:45.999Z</time></trkpt><trkpt lat="45.532204215872476" lon="11.30100503613454"><ele>146.0</ele><time>2026-04-03T13:24:46.999Z</time></trkpt><trkpt lat="45.53207210664181" lon="11.301171177644047"><ele>146.0</ele><time>2026-04-03T13:24:47.999Z</time></trkpt><trkpt lat="45.53194618076855" lon="11.301342348318279"><ele>146.0</ele><time>2026-04-03T13:24:48.999Z</time></trkpt><trkpt lat="45.53181996707686" lon="11.301513053476198"><ele>144.66666666666666</ele><time>2026-04-03T13:24:49.999Z</time></trkpt><trkpt lat="45.53170011863361" lon="11.301695002964324"><ele>143.33333333333334</ele><time>2026-04-03T13:24:50.999Z</time></trkpt><trkpt lat="45.53158619510438" lon="11.301874612411982"><ele>142.0</ele><time>2026-04-03T13:24:51.999Z</time></trkpt><trkpt lat="45.53146594028003" lon="11.302059275855136"><ele>142.0</ele><time>2026-04-03T13:24:52.999Z</time></trkpt><trkpt lat="45.53134828360684" lon="11.302235500182261"><ele>142.0</ele><time>2026-04-03T13:24:53.999Z</time></trkpt><trkpt lat="45.53123308786771" lon="11.302409760855591"><ele>142.0</ele><time>2026-04-03T13:24:54.998Z</time></trkpt><trkpt lat="45.53112454786099" lon="11.302575876845847"><ele>141.66666666666669</ele><time>2026-04-03T13:24:55.998Z</time></trkpt><trkpt lat="45.53102641655435" lon="11.30273094259104"><ele>141.33333333333334</ele><time>2026-04-03T13:24:56.998Z</time></trkpt><trkpt lat="45.5309073459514" lon="11.302900402723669"><ele>141.0</ele><time>2026-04-03T13:24:57.998Z</time></trkpt><trkpt lat="45.5307824945661" lon="11.303103173432945"><ele>140.66666666666666</ele><time>2026-04-03T13:24:58.998Z</time></trkpt><trkpt lat="45.530675943425145" lon="11.303343569868064"><ele>140.33333333333331</ele><time>2026-04-03T13:24:59.998Z</time></trkpt><trkpt lat="45.53055050969209" lon="11.303551470118606"><ele>140.0</ele><time>2026-04-03T13:25:00.998Z</time></trkpt><trkpt lat="45.53043924999189" lon="11.303784545467904"><ele>139.33333333333331</ele><time>2026-04-03T13:25:01.998Z</time></trkpt><trkpt lat="45.530348370488994" lon="11.304033460678902"><ele>138.66666666666666</ele><time>2026-04-03T13:25:02.998Z</time></trkpt><trkpt lat="45.53026344207355" lon="11.304293292096988"><ele>138.0</ele><time>2026-04-03T13:25:03.998Z</time></trkpt><trkpt lat="45.53018161249128" lon="11.304549037813759"><ele>137.66666666666666</ele><time>2026-04-03T13:25:04.998Z</time></trkpt><trkpt lat="45.53010523855065" lon="11.304799637412263"><ele>137.33333333333331</ele><time>2026-04-03T13:25:05.998Z</time></trkpt><trkpt lat="45.53003401364438" lon="11.305046903734032"><ele>137.0</ele><time>2026-04-03T13:25:06.998Z</time></trkpt><trkpt lat="45.529968726206405" lon="11.30529082781498"><ele>137.0</ele><time>2026-04-03T13:25:07.998Z</time></trkpt><trkpt lat="45.52990341665288" lon="11.305531873676184"><ele>137.0</ele><time>2026-04-03T13:25:08.998Z</time></trkpt><trkpt lat="45.529840107137645" lon="11.305745119579024"><ele>137.0</ele><time>2026-04-03T13:25:09.998Z</time></trkpt><trkpt lat="45.52978453339795" lon="11.30595138077074"><ele>137.25</ele><time>2026-04-03T13:25:10.998Z</time></trkpt><trkpt lat="45.52973820033626" lon="11.3061375242516"><ele>137.5</ele><time>2026-04-03T13:25:11.998Z</time></trkpt><trkpt lat="45.529712979189526" lon="11.306306995889763"><ele>137.75</ele><time>2026-04-03T13:25:12.998Z</time></trkpt><trkpt lat="45.52973009701247" lon="11.30647623141118"><ele>138.0</ele><time>2026-04-03T13:25:13.998Z</time></trkpt><trkpt lat="45.5297824992722" lon="11.306662830084521"><ele>138.0</ele><time>2026-04-03T13:25:14.998Z</time></trkpt><trkpt lat="45.52986896112231" lon="11.306852638095524"><ele>138.0</ele><time>2026-04-03T13:25:15.998Z</time></trkpt><trkpt lat="45.5299830383286" lon="11.30702188423976"><ele>138.0</ele><time>2026-04-03T13:25:16.998Z</time></trkpt><trkpt lat="45.53011712087557" lon="11.307184840235987"><ele>138.0</ele><time>2026-04-03T13:25:17.998Z</time></trkpt><trkpt lat="45.53023843045179" lon="11.307334036815725"><ele>138.0</ele><time>2026-04-03T13:25:18.998Z</time></trkpt><trkpt lat="45.53033460333869" lon="11.307475842410803"><ele>138.0</ele><time>2026-04-03T13:25:19.998Z</time></trkpt><trkpt lat="45.53042881290027" lon="11.307604719945337"><ele>138.0</ele><time>2026-04-03T13:25:20.998Z</time></trkpt><trkpt lat="45.53051727358147" lon="11.307719002389007"><ele>138.0</ele><time>2026-04-03T13:25:21.998Z</time></trkpt><trkpt lat="45.53058888559084" lon="11.307813251475391"><ele>138.0</ele><time>2026-04-03T13:25:22.998Z</time></trkpt><trkpt lat="45.53065692542403" lon="11.307887807938013"><ele>138.0</ele><time>2026-04-03T13:25:23.998Z</time></trkpt><trkpt lat="45.53071787524451" lon="11.30793898734461"><ele>138.0</ele><time>2026-04-03T13:25:24.998Z</time></trkpt><trkpt lat="45.53086666046803" lon="11.308002877812049"><ele>138.0</ele><time>2026-04-03T13:25:33.998Z</time></trkpt><trkpt lat="45.53086855761535" lon="11.308120199470855"><ele>137.6</ele><time>2026-04-03T13:25:34.998Z</time></trkpt><trkpt lat="45.53089090811803" lon="11.308291722247487"><ele>137.20000000000002</ele><time>2026-04-03T13:25:36.998Z</time></trkpt><trkpt lat="45.53087634619617" lon="11.308403911703767"><ele>136.8</ele><time>2026-04-03T13:25:37.998Z</time></trkpt><trkpt lat="45.530838059853124" lon="11.308526304397034"><ele>136.4</ele><time>2026-04-03T13:25:38.998Z</time></trkpt><trkpt lat="45.53077668656091" lon="11.308672134410275"><ele>136.0</ele><time>2026-04-03T13:25:39.998Z</time></trkpt><trkpt lat="45.53070399544671" lon="11.308842358672239"><ele>136.33333333333334</ele><time>2026-04-03T13:25:40.998Z</time></trkpt><trkpt lat="45.53060606381658" lon="11.309073860674472"><ele>136.66666666666666</ele><time>2026-04-03T13:25:41.997Z</time></trkpt><trkpt lat="45.53047770397517" lon="11.309368696595527"><ele>137.0</ele><time>2026-04-03T13:25:42.997Z</time></trkpt><trkpt lat="45.53034163792482" lon="11.309718928990634"><ele>137.0</ele><time>2026-04-03T13:25:43.997Z</time></trkpt><trkpt lat="45.53019764136564" lon="11.310070236960394"><ele>137.0</ele><time>2026-04-03T13:25:45.999Z</time></trkpt><trkpt lat="45.5300980939489" lon="11.310335052015766"><ele>137.33333333333331</ele><time>2026-04-03T13:25:46.999Z</time></trkpt><trkpt lat="45.53000915851749" lon="11.310576860285396"><ele>137.66666666666666</ele><time>2026-04-03T13:25:47.999Z</time></trkpt><trkpt lat="45.529916569005586" lon="11.310828603918207"><ele>138.0</ele><time>2026-04-03T13:25:48.999Z</time></trkpt><trkpt lat="45.529830455969375" lon="11.311060279960172"><ele>138.0</ele><time>2026-04-03T13:25:49.999Z</time></trkpt><trkpt lat="45.529750089947335" lon="11.311276052905372"><ele>138.0</ele><time>2026-04-03T13:25:50.999Z</time></trkpt><trkpt lat="45.52968487102041" lon="11.311451576134825"><ele>138.0</ele><time>2026-04-03T13:25:51.999Z</time></trkpt><trkpt lat="45.52961917353136" lon="11.311628362411213"><ele>137.33333333333334</ele><time>2026-04-03T13:25:52.999Z</time></trkpt><trkpt lat="45.52954358359475" lon="11.31183177026398"><ele>136.66666666666669</ele><time>2026-04-03T13:25:53.999Z</time></trkpt><trkpt lat="45.52946999648538" lon="11.312029788525379"><ele>136.0</ele><time>2026-04-03T13:25:54.999Z</time></trkpt><trkpt lat="45.5293987716247" lon="11.31222386177547"><ele>135.75</ele><time>2026-04-03T13:25:55.999Z</time></trkpt><trkpt lat="45.52934418996158" lon="11.31241500228163"><ele>135.5</ele><time>2026-04-03T13:25:56.999Z</time></trkpt><trkpt lat="45.52927975457458" lon="11.312594730955517"><ele>135.25</ele><time>2026-04-03T13:25:57.999Z</time></trkpt><trkpt lat="45.5291997038034" lon="11.31276024392319"><ele>135.0</ele><time>2026-04-03T13:25:58.999Z</time></trkpt><trkpt lat="45.529141295522564" lon="11.312917623111746"><ele>136.25</ele><time>2026-04-03T13:25:59.999Z</time></trkpt><trkpt lat="45.5290809768951" lon="11.31308014993208"><ele>137.5</ele><time>2026-04-03T13:26:00.999Z</time></trkpt><trkpt lat="45.52901838808012" lon="11.313245348025152"><ele>138.75</ele><time>2026-04-03T13:26:01.999Z</time></trkpt><trkpt lat="45.52895440883499" lon="11.31341225715731"><ele>140.0</ele><time>2026-04-03T13:26:02.999Z</time></trkpt><trkpt lat="45.5288996496519" lon="11.313553464670994"><ele>140.0</ele><time>2026-04-03T13:26:03.999Z</time></trkpt><trkpt lat="45.52883791130832" lon="11.31371070170084"><ele>140.0</ele><time>2026-04-03T13:26:04.999Z</time></trkpt><trkpt lat="45.52877040571225" lon="11.31387606952976"><ele>140.0</ele><time>2026-04-03T13:26:05.999Z</time></trkpt><trkpt lat="45.5287050580679" lon="11.314031384849292"><ele>140.0</ele><time>2026-04-03T13:26:06.999Z</time></trkpt><trkpt lat="45.52864197535215" lon="11.314180450869113"><ele>139.0</ele><time>2026-04-03T13:26:07.999Z</time></trkpt><trkpt lat="45.528574232957524" lon="11.31436882082729"><ele>138.0</ele><time>2026-04-03T13:26:08.999Z</time></trkpt><trkpt lat="45.52850921437685" lon="11.31453744152252"><ele>137.0</ele><time>2026-04-03T13:26:09.999Z</time></trkpt><trkpt lat="45.528417962435135" lon="11.3147145536319"><ele>136.0</ele><time>2026-04-03T13:26:10.999Z</time></trkpt><trkpt lat="45.528328343607775" lon="11.31493145633555"><ele>136.0</ele><time>2026-04-03T13:26:11.999Z</time></trkpt><trkpt lat="45.52823535759745" lon="11.315154533468686"><ele>136.0</ele><time>2026-04-03T13:26:12.999Z</time></trkpt><trkpt lat="45.528164766951" lon="11.315360009313366"><ele>136.0</ele><time>2026-04-03T13:26:13.999Z</time></trkpt><trkpt lat="45.52808590713856" lon="11.315550731393204"><ele>136.33333333333334</ele><time>2026-04-03T13:26:14.999Z</time></trkpt><trkpt lat="45.528003329239915" lon="11.315737504773683"><ele>136.66666666666666</ele><time>2026-04-03T13:26:15.999Z</time></trkpt><trkpt lat="45.52792256683054" lon="11.315921485261944"><ele>137.0</ele><time>2026-04-03T13:26:16.999Z</time></trkpt><trkpt lat="45.527842561031235" lon="11.316093851618232"><ele>134.0</ele><time>2026-04-03T13:26:17.999Z</time></trkpt><trkpt lat="45.52776624621042" lon="11.31625756925579"><ele>131.0</ele><time>2026-04-03T13:26:18.999Z</time></trkpt><trkpt lat="45.5276875616014" lon="11.31644716735578"><ele>128.0</ele><time>2026-04-03T13:26:19.999Z</time></trkpt><trkpt lat="45.527597387909665" lon="11.316690975902999"><ele>128.0</ele><time>2026-04-03T13:26:20.999Z</time></trkpt><trkpt lat="45.52749025666792" lon="11.316975838911357"><ele>128.0</ele><time>2026-04-03T13:26:21.999Z</time></trkpt><trkpt lat="45.52739254696267" lon="11.317214877271999"><ele>128.0</ele><time>2026-04-03T13:26:22.999Z</time></trkpt><trkpt lat="45.527314334743316" lon="11.317399961494521"><ele>128.25</ele><time>2026-04-03T13:26:23.999Z</time></trkpt><trkpt lat="45.52724730581664" lon="11.317559322141541"><ele>128.5</ele><time>2026-04-03T13:26:24.999Z</time></trkpt><trkpt lat="45.527178554409936" lon="11.317714084352165"><ele>128.75</ele><time>2026-04-03T13:26:25.999Z</time></trkpt><trkpt lat="45.527109709152505" lon="11.317867948907447"><ele>129.0</ele><time>2026-04-03T13:26:26.999Z</time></trkpt><trkpt lat="45.52704422153285" lon="11.318021996149293"><ele>128.5</ele><time>2026-04-03T13:26:27.999Z</time></trkpt><trkpt lat="45.52697982544632" lon="11.318183599534864"><ele>128.0</ele><time>2026-04-03T13:26:28.999Z</time></trkpt><trkpt lat="45.52691945337085" lon="11.318354318918711"><ele>127.5</ele><time>2026-04-03T13:26:29.999Z</time></trkpt><trkpt lat="45.52686089392696" lon="11.318516771629486"><ele>127.0</ele><time>2026-04-03T13:26:30.999Z</time></trkpt><trkpt lat="45.526810476359884" lon="11.318677287398588"><ele>127.0</ele><time>2026-04-03T13:26:31.998Z</time></trkpt><trkpt lat="45.52675727969711" lon="11.318840867750433"><ele>127.0</ele><time>2026-04-03T13:26:32.998Z</time></trkpt><trkpt lat="45.52670374570935" lon="11.319022371275002"><ele>127.0</ele><time>2026-04-03T13:26:33.998Z</time></trkpt><trkpt lat="45.52664700793341" lon="11.319213326316197"><ele>127.0</ele><time>2026-04-03T13:26:34.998Z</time></trkpt><trkpt lat="45.5265867541019" lon="11.319423173652371"><ele>127.0</ele><time>2026-04-03T13:26:35.998Z</time></trkpt><trkpt lat="45.526518446217715" lon="11.319645277851311"><ele>127.0</ele><time>2026-04-03T13:26:36.998Z</time></trkpt><trkpt lat="45.52645922035695" lon="11.319852872935764"><ele>127.0</ele><time>2026-04-03T13:26:37.998Z</time></trkpt><trkpt lat="45.52639698024208" lon="11.320054802145153"><ele>127.25</ele><time>2026-04-03T13:26:38.998Z</time></trkpt><trkpt lat="45.526340515878296" lon="11.320222060337283"><ele>127.5</ele><time>2026-04-03T13:26:39.998Z</time></trkpt><trkpt lat="45.526290686031984" lon="11.320372298196684"><ele>127.75</ele><time>2026-04-03T13:26:40.998Z</time></trkpt><trkpt lat="45.526244049850014" lon="11.32050879290543"><ele>128.0</ele><time>2026-04-03T13:26:41.998Z</time></trkpt><trkpt lat="45.52619716413722" lon="11.320632446587663"><ele>127.60000000000001</ele><time>2026-04-03T13:26:42.998Z</time></trkpt><trkpt lat="45.52615112558374" lon="11.32074705798504"><ele>127.20000000000002</ele><time>2026-04-03T13:26:43.998Z</time></trkpt><trkpt lat="45.52610405358736" lon="11.320861693664888"><ele>126.8</ele><time>2026-04-03T13:26:44.998Z</time></trkpt><trkpt lat="45.52605778998294" lon="11.320977941581408"><ele>126.4</ele><time>2026-04-03T13:26:45.998Z</time></trkpt><trkpt lat="45.52601189434149" lon="11.321092228590706"><ele>126.0</ele><time>2026-04-03T13:26:46.998Z</time></trkpt><trkpt lat="45.52595451999489" lon="11.321213401059623"><ele>126.0</ele><time>2026-04-03T13:26:47.998Z</time></trkpt><trkpt lat="45.52589488566194" lon="11.321332053101292"><ele>126.0</ele><time>2026-04-03T13:26:48.998Z</time></trkpt><trkpt lat="45.525833743769056" lon="11.321454240127983"><ele>126.0</ele><time>2026-04-03T13:26:49.998Z</time></trkpt><trkpt lat="45.52577224743821" lon="11.321572558308517"><ele>126.0</ele><time>2026-04-03T13:26:50.998Z</time></trkpt><trkpt lat="45.52571184235473" lon="11.321693988639034"><ele>126.0</ele><time>2026-04-03T13:26:51.998Z</time></trkpt><trkpt lat="45.525643995864776" lon="11.32181282544135"><ele>126.19999999999999</ele><time>2026-04-03T13:26:52.998Z</time></trkpt><trkpt lat="45.525582588325946" lon="11.321927240247469"><ele>126.39999999999999</ele><time>2026-04-03T13:26:53.998Z</time></trkpt><trkpt lat="45.52551984169457" lon="11.322037544280208"><ele>126.6</ele><time>2026-04-03T13:26:54.998Z</time></trkpt><trkpt lat="45.52545553049552" lon="11.322147100754252"><ele>126.8</ele><time>2026-04-03T13:26:55.998Z</time></trkpt><trkpt lat="45.525391781392884" lon="11.322262613763234"><ele>127.0</ele><time>2026-04-03T13:26:56.998Z</time></trkpt><trkpt lat="45.52533046878107" lon="11.32236362447927"><ele>126.66666666666667</ele><time>2026-04-03T13:26:57.998Z</time></trkpt><trkpt lat="45.52526957852576" lon="11.322460132487217"><ele>126.33333333333334</ele><time>2026-04-03T13:26:58.998Z</time></trkpt><trkpt lat="45.525208633756755" lon="11.32254598225637"><ele>126.0</ele><time>2026-04-03T13:26:59.998Z</time></trkpt><trkpt lat="45.52515006725561" lon="11.322629233180853"><ele>125.66666666666666</ele><time>2026-04-03T13:27:00.998Z</time></trkpt><trkpt lat="45.525089015779514" lon="11.322710298084603"><ele>125.33333333333333</ele><time>2026-04-03T13:27:01.998Z</time></trkpt><trkpt lat="45.52503109347069" lon="11.32277616498248"><ele>125.0</ele><time>2026-04-03T13:27:02.998Z</time></trkpt><trkpt lat="45.524972005358876" lon="11.32283816016287"><ele>124.99999999999999</ele><time>2026-04-03T13:27:03.998Z</time></trkpt><trkpt lat="45.52490918443617" lon="11.32288634461193"><ele>125.0</ele><time>2026-04-03T13:27:04.998Z</time></trkpt><trkpt lat="45.52484450505311" lon="11.322934020794255"><ele>125.0</ele><time>2026-04-03T13:27:05.998Z</time></trkpt><trkpt lat="45.524785650657584" lon="11.32297198581221"><ele>125.0</ele><time>2026-04-03T13:27:06.998Z</time></trkpt><trkpt lat="45.524666666860654" lon="11.323012786696818"><ele>124.99999999999999</ele><time>2026-04-03T13:27:08.998Z</time></trkpt><trkpt lat="45.52459970268976" lon="11.323002556627877"><ele>125.0</ele><time>2026-04-03T13:27:09.998Z</time></trkpt><trkpt lat="45.52453326855024" lon="11.322963145188915"><ele>124.66666666666666</ele><time>2026-04-03T13:27:10.998Z</time></trkpt><trkpt lat="45.52447605453619" lon="11.322886471201365"><ele>124.33333333333333</ele><time>2026-04-03T13:27:11.998Z</time></trkpt><trkpt lat="45.524407559521904" lon="11.32284659036817"><ele>124.0</ele><time>2026-04-03T13:27:12.998Z</time></trkpt><trkpt lat="45.52433089389855" lon="11.32283502540483"><ele>123.66666666666666</ele><time>2026-04-03T13:27:13.998Z</time></trkpt><trkpt lat="45.52425544667928" lon="11.322865277937114"><ele>123.33333333333333</ele><time>2026-04-03T13:27:14.998Z</time></trkpt><trkpt lat="45.52420497820503" lon="11.322953176766818"><ele>123.0</ele><time>2026-04-03T13:27:15.998Z</time></trkpt><trkpt lat="45.5240875555257" lon="11.322999642634333"><ele>123.0</ele><time>2026-04-03T13:27:17.998Z</time></trkpt><trkpt lat="45.5240181488036" lon="11.322990490006022"><ele>123.0</ele><time>2026-04-03T13:27:18.998Z</time></trkpt><trkpt lat="45.523950479062016" lon="11.322947529641304"><ele>123.0</ele><time>2026-04-03T13:27:19.998Z</time></trkpt><trkpt lat="45.52387444165843" lon="11.32288003634819"><ele>123.0</ele><time>2026-04-03T13:27:20.998Z</time></trkpt><trkpt lat="45.5237978642382" lon="11.322804990517325"><ele>123.0</ele><time>2026-04-03T13:27:21.997Z</time></trkpt><trkpt lat="45.52371268250518" lon="11.322724085338129"><ele>123.0</ele><time>2026-04-03T13:27:22.997Z</time></trkpt><trkpt lat="45.52363646083972" lon="11.322621525751106"><ele>123.0</ele><time>2026-04-03T13:27:23.997Z</time></trkpt><trkpt lat="45.52355051171302" lon="11.322536496111594"><ele>123.0</ele><time>2026-04-03T13:27:24.997Z</time></trkpt><trkpt lat="45.52347192508016" lon="11.32248236821516"><ele>123.0</ele><time>2026-04-03T13:27:25.997Z</time></trkpt><trkpt lat="45.52340948151586" lon="11.322421470218835"><ele>123.0</ele><time>2026-04-03T13:27:26.997Z</time></trkpt><trkpt lat="45.52335552729789" lon="11.322360514300302"><ele>123.0</ele><time>2026-04-03T13:27:27.997Z</time></trkpt><trkpt lat="45.52329467699918" lon="11.322309497852538"><ele>123.0</ele><time>2026-04-03T13:27:28.997Z</time></trkpt><trkpt lat="45.52322847680847" lon="11.322245317248898"><ele>123.0</ele><time>2026-04-03T13:27:29.997Z</time></trkpt><trkpt lat="45.52316167235363" lon="11.322182622556891"><ele>123.00000000000001</ele><time>2026-04-03T13:27:30.997Z</time></trkpt><trkpt lat="45.523089875025256" lon="11.32212051008775"><ele>123.00000000000001</ele><time>2026-04-03T13:27:31.997Z</time></trkpt><trkpt lat="45.522999421503094" lon="11.322020596891427"><ele>123.0</ele><time>2026-04-03T13:27:32.997Z</time></trkpt><trkpt lat="45.52287560674177" lon="11.32197491351201"><ele>123.0</ele><time>2026-04-03T13:27:33.997Z</time></trkpt><trkpt lat="45.52277060381609" lon="11.321927211587065"><ele>123.0</ele><time>2026-04-03T13:27:34.997Z</time></trkpt><trkpt lat="45.52269331822595" lon="11.321904604180238"><ele>123.0</ele><time>2026-04-03T13:27:35.997Z</time></trkpt><trkpt lat="45.52262604469002" lon="11.321875021924027"><ele>123.0</ele><time>2026-04-03T13:27:36.997Z</time></trkpt><trkpt lat="45.522560939863375" lon="11.321814466236372"><ele>123.0</ele><time>2026-04-03T13:27:37.997Z</time></trkpt><trkpt lat="45.522495657022226" lon="11.321737681018403"><ele>123.0</ele><time>2026-04-03T13:27:38.997Z</time></trkpt><trkpt lat="45.5224172909271" lon="11.321714962661353"><ele>123.0</ele><time>2026-04-03T13:27:39.997Z</time></trkpt><trkpt lat="45.52233507956034" lon="11.321737801612413"><ele>123.0</ele><time>2026-04-03T13:27:40.997Z</time></trkpt><trkpt lat="45.52227214306253" lon="11.321868310784707"><ele>123.0</ele><time>2026-04-03T13:27:41.997Z</time></trkpt><trkpt lat="45.52222238509627" lon="11.322006007853279"><ele>123.0</ele><time>2026-04-03T13:27:42.997Z</time></trkpt><trkpt lat="45.52216516075577" lon="11.322153082318597"><ele>123.0</ele><time>2026-04-03T13:27:43.997Z</time></trkpt><trkpt lat="45.52209811349683" lon="11.32228452621153"><ele>122.75</ele><time>2026-04-03T13:27:44.997Z</time></trkpt><trkpt lat="45.52202068312341" lon="11.322413850134671"><ele>122.5</ele><time>2026-04-03T13:27:45.997Z</time></trkpt><trkpt lat="45.52194520197109" lon="11.322538755862455"><ele>122.25</ele><time>2026-04-03T13:27:46.997Z</time></trkpt><trkpt lat="45.5218691997631" lon="11.322669944195944"><ele>122.0</ele><time>2026-04-03T13:27:47.997Z</time></trkpt><trkpt lat="45.52179212536421" lon="11.322805361578766"><ele>122.0</ele><time>2026-04-03T13:27:48.997Z</time></trkpt><trkpt lat="45.5217177625331" lon="11.322931294693976"><ele>122.0</ele><time>2026-04-03T13:27:49.997Z</time></trkpt><trkpt lat="45.52164628510733" lon="11.323057303490657"><ele>122.0</ele><time>2026-04-03T13:27:50.999Z</time></trkpt><trkpt lat="45.52156756852229" lon="11.323189507449325"><ele>122.0</ele><time>2026-04-03T13:27:51.999Z</time></trkpt><trkpt lat="45.5214930799703" lon="11.323325042833352"><ele>122.0</ele><time>2026-04-03T13:27:52.999Z</time></trkpt><trkpt lat="45.52141685686723" lon="11.323456510574474"><ele>122.0</ele><time>2026-04-03T13:27:53.999Z</time></trkpt><trkpt lat="45.521332311673426" lon="11.323592393203587"><ele>122.0</ele><time>2026-04-03T13:27:54.999Z</time></trkpt><trkpt lat="45.52124852066453" lon="11.32372568220927"><ele>122.0</ele><time>2026-04-03T13:27:55.999Z</time></trkpt><trkpt lat="45.52116836444387" lon="11.323871947465843"><ele>121.5</ele><time>2026-04-03T13:27:56.999Z</time></trkpt><trkpt lat="45.521087370064436" lon="11.324021502632409"><ele>121.0</ele><time>2026-04-03T13:27:57.999Z</time></trkpt><trkpt lat="45.52100622436928" lon="11.324164948077422"><ele>120.5</ele><time>2026-04-03T13:27:58.999Z</time></trkpt><trkpt lat="45.52092776061237" lon="11.324307440996352"><ele>120.0</ele><time>2026-04-03T13:27:59.999Z</time></trkpt><trkpt lat="45.520849164814365" lon="11.324451949994726"><ele>120.0</ele><time>2026-04-03T13:28:00.999Z</time></trkpt><trkpt lat="45.52077303898866" lon="11.324593213938183"><ele>120.0</ele><time>2026-04-03T13:28:01.999Z</time></trkpt><trkpt lat="45.52069474321258" lon="11.32473607247829"><ele>120.0</ele><time>2026-04-03T13:28:02.999Z</time></trkpt><trkpt lat="45.52061764341142" lon="11.324879820104716"><ele>120.0</ele><time>2026-04-03T13:28:03.999Z</time></trkpt><trkpt lat="45.52054034793874" lon="11.32502040850277"><ele>120.0</ele><time>2026-04-03T13:28:04.999Z</time></trkpt><trkpt lat="45.52046744170507" lon="11.325158042924382"><ele>120.0</ele><time>2026-04-03T13:28:05.999Z</time></trkpt><trkpt lat="45.52039578039186" lon="11.325285799927396"><ele>120.0</ele><time>2026-04-03T13:28:06.999Z</time></trkpt><trkpt lat="45.520327092102455" lon="11.325417685464167"><ele>120.0</ele><time>2026-04-03T13:28:07.999Z</time></trkpt><trkpt lat="45.52025020909128" lon="11.325562265522008"><ele>120.0</ele><time>2026-04-03T13:28:08.999Z</time></trkpt><trkpt lat="45.520171657678254" lon="11.325702698148007"><ele>120.0</ele><time>2026-04-03T13:28:09.999Z</time></trkpt><trkpt lat="45.5200962997164" lon="11.325839980281213"><ele>120.0</ele><time>2026-04-03T13:28:10.999Z</time></trkpt><trkpt lat="45.52002405674836" lon="11.325970984337538"><ele>120.0</ele><time>2026-04-03T13:28:11.999Z</time></trkpt><trkpt lat="45.51995008913088" lon="11.326104360060908"><ele>120.0</ele><time>2026-04-03T13:28:12.999Z</time></trkpt><trkpt lat="45.519884872868964" lon="11.326235156093775"><ele>120.0</ele><time>2026-04-03T13:28:13.999Z</time></trkpt><trkpt lat="45.51981893039514" lon="11.32637251006618"><ele>120.0</ele><time>2026-04-03T13:28:14.999Z</time></trkpt><trkpt lat="45.51975105659926" lon="11.326498365910922"><ele>120.0</ele><time>2026-04-03T13:28:15.999Z</time></trkpt><trkpt lat="45.51968682634804" lon="11.326628486329177"><ele>119.8</ele><time>2026-04-03T13:28:16.999Z</time></trkpt><trkpt lat="45.51962216192827" lon="11.326764041804308"><ele>119.6</ele><time>2026-04-03T13:28:17.999Z</time></trkpt><trkpt lat="45.51954848474163" lon="11.326899786785692"><ele>119.4</ele><time>2026-04-03T13:28:18.999Z</time></trkpt><trkpt lat="45.51948594784765" lon="11.32702194426371"><ele>119.2</ele><time>2026-04-03T13:28:19.999Z</time></trkpt><trkpt lat="45.51943364296804" lon="11.327117955844628"><ele>119.0</ele><time>2026-04-03T13:28:20.999Z</time></trkpt><trkpt lat="45.51937403724841" lon="11.327219185959732"><ele>118.5</ele><time>2026-04-03T13:28:22.999Z</time></trkpt><trkpt lat="45.51934287415581" lon="11.327337837195444"><ele>118.0</ele><time>2026-04-03T13:28:39.999Z</time></trkpt><trkpt lat="45.51929983932198" lon="11.327479175364754"><ele>117.5</ele><time>2026-04-03T13:28:40.999Z</time></trkpt><trkpt lat="45.519235079743574" lon="11.327646355783521"><ele>117.0</ele><time>2026-04-03T13:28:41.999Z</time></trkpt><trkpt lat="45.51916458182149" lon="11.327835581178872"><ele>117.0</ele><time>2026-04-03T13:28:42.999Z</time></trkpt><trkpt lat="45.51908711955356" lon="11.328040011469316"><ele>117.0</ele><time>2026-04-03T13:28:43.999Z</time></trkpt><trkpt lat="45.51900752886245" lon="11.328256321436298"><ele>117.0</ele><time>2026-04-03T13:28:44.999Z</time></trkpt><trkpt lat="45.518929592949135" lon="11.328464450416089"><ele>117.0</ele><time>2026-04-03T13:28:45.999Z</time></trkpt><trkpt lat="45.51885656192848" lon="11.328666525189995"><ele>117.0</ele><time>2026-04-03T13:28:46.999Z</time></trkpt><trkpt lat="45.518777393017224" lon="11.328885569036933"><ele>117.0</ele><time>2026-04-03T13:28:47.999Z</time></trkpt><trkpt lat="45.518692937003244" lon="11.329120939506856"><ele>116.33333333333334</ele><time>2026-04-03T13:28:48.999Z</time></trkpt><trkpt lat="45.518607411444485" lon="11.329338652077466"><ele>115.66666666666667</ele><time>2026-04-03T13:28:49.999Z</time></trkpt><trkpt lat="45.518526043691715" lon="11.32954178638993"><ele>115.0</ele><time>2026-04-03T13:28:50.999Z</time></trkpt><trkpt lat="45.518443961770096" lon="11.329756683923437"><ele>115.0</ele><time>2026-04-03T13:28:51.999Z</time></trkpt><trkpt lat="45.51835746304847" lon="11.3299806465166"><ele>115.0</ele><time>2026-04-03T13:28:52.999Z</time></trkpt><trkpt lat="45.518270778501616" lon="11.33020285287977"><ele>115.0</ele><time>2026-04-03T13:28:53.999Z</time></trkpt><trkpt lat="45.51818553853168" lon="11.330423837752779"><ele>115.66666666666667</ele><time>2026-04-03T13:28:54.999Z</time></trkpt><trkpt lat="45.51811592394462" lon="11.330631817212048"><ele>116.33333333333334</ele><time>2026-04-03T13:28:55.999Z</time></trkpt><trkpt lat="45.51803851724767" lon="11.33082933895893"><ele>117.0</ele><time>2026-04-03T13:28:56.999Z</time></trkpt><trkpt lat="45.51796427413922" lon="11.331025027229217"><ele>117.25</ele><time>2026-04-03T13:28:57.999Z</time></trkpt><trkpt lat="45.51789579143011" lon="11.331217310809269"><ele>117.5</ele><time>2026-04-03T13:28:58.999Z</time></trkpt><trkpt lat="45.51782893122073" lon="11.331404218990007"><ele>117.75</ele><time>2026-04-03T13:28:59.999Z</time></trkpt><trkpt lat="45.51777036966103" lon="11.331580659874684"><ele>118.0</ele><time>2026-04-03T13:29:00.999Z</time></trkpt><trkpt lat="45.51771197903419" lon="11.331757579971633"><ele>118.0</ele><time>2026-04-03T13:29:01.999Z</time></trkpt><trkpt lat="45.51765351866087" lon="11.331936694371358"><ele>118.0</ele><time>2026-04-03T13:29:02.999Z</time></trkpt><trkpt lat="45.517597281979185" lon="11.332135122047747"><ele>118.0</ele><time>2026-04-03T13:29:03.999Z</time></trkpt><trkpt lat="45.51753466902879" lon="11.332364562818839"><ele>117.33333333333334</ele><time>2026-04-03T13:29:04.999Z</time></trkpt><trkpt lat="45.5174595388323" lon="11.332591056408251"><ele>116.66666666666666</ele><time>2026-04-03T13:29:05.999Z</time></trkpt><trkpt lat="45.517389570235906" lon="11.332798739526297"><ele>116.0</ele><time>2026-04-03T13:29:06.999Z</time></trkpt><trkpt lat="45.51732235484344" lon="11.332984537530695"><ele>115.6</ele><time>2026-04-03T13:29:07.999Z</time></trkpt><trkpt lat="45.51726353708999" lon="11.333154968899743"><ele>115.19999999999999</ele><time>2026-04-03T13:29:08.999Z</time></trkpt><trkpt lat="45.51722052560072" lon="11.333309166264314"><ele>114.80000000000001</ele><time>2026-04-03T13:29:09.999Z</time></trkpt><trkpt lat="45.51718113946664" lon="11.333429789231086"><ele>114.4</ele><time>2026-04-03T13:29:10.999Z</time></trkpt><trkpt lat="45.51715065055883" lon="11.333525465382165"><ele>114.0</ele><time>2026-04-03T13:29:11.999Z</time></trkpt><trkpt lat="45.517125838491275" lon="11.333611644274606"><ele>114.0</ele><time>2026-04-03T13:29:12.999Z</time></trkpt><trkpt lat="45.517095859508665" lon="11.333716926032578"><ele>114.0</ele><time>2026-04-03T13:29:14.999Z</time></trkpt><trkpt lat="45.51706773768957" lon="11.333805714112126"><ele>114.0</ele><time>2026-04-03T13:29:17.998Z</time></trkpt><trkpt lat="45.517034234861235" lon="11.33392297367931"><ele>114.0</ele><time>2026-04-03T13:29:19.998Z</time></trkpt><trkpt lat="45.516997245165385" lon="11.334001961925205"><ele>114.0</ele><time>2026-04-03T13:29:20.998Z</time></trkpt><trkpt lat="45.51695174313513" lon="11.334087977921808"><ele>114.0</ele><time>2026-04-03T13:29:21.998Z</time></trkpt><trkpt lat="45.51692570845395" lon="11.334191077149299"><ele>113.6</ele><time>2026-04-03T13:29:22.998Z</time></trkpt><trkpt lat="45.51692324587389" lon="11.334305971540031"><ele>113.2</ele><time>2026-04-03T13:29:23.998Z</time></trkpt><trkpt lat="45.516907390687976" lon="11.334435573519068"><ele>112.79999999999998</ele><time>2026-04-03T13:29:24.998Z</time></trkpt><trkpt lat="45.5168797078709" lon="11.334560762315819"><ele>112.39999999999999</ele><time>2026-04-03T13:29:25.998Z</time></trkpt><trkpt lat="45.516842470051294" lon="11.334687333427162"><ele>112.0</ele><time>2026-04-03T13:29:26.998Z</time></trkpt><trkpt lat="45.516808083327405" lon="11.334819972206843"><ele>112.0</ele><time>2026-04-03T13:29:27.998Z</time></trkpt><trkpt lat="45.51677246565405" lon="11.334945298451935"><ele>111.99999999999999</ele><time>2026-04-03T13:29:28.998Z</time></trkpt><trkpt lat="45.51673854598795" lon="11.335075444621191"><ele>111.99999999999999</ele><time>2026-04-03T13:29:29.998Z</time></trkpt><trkpt lat="45.516703182780674" lon="11.335215867837663"><ele>112.0</ele><time>2026-04-03T13:29:30.998Z</time></trkpt><trkpt lat="45.516660503624095" lon="11.33536900367771"><ele>112.0</ele><time>2026-04-03T13:29:31.998Z</time></trkpt><trkpt lat="45.51661605963379" lon="11.33553359765065"><ele>111.75</ele><time>2026-04-03T13:29:32.998Z</time></trkpt><trkpt lat="45.51656797820936" lon="11.335711328505749"><ele>111.5</ele><time>2026-04-03T13:29:33.998Z</time></trkpt><trkpt lat="45.516516522384556" lon="11.335893112026156"><ele>111.25</ele><time>2026-04-03T13:29:34.998Z</time></trkpt><trkpt lat="45.51646657188623" lon="11.33607699222751"><ele>111.0</ele><time>2026-04-03T13:29:35.998Z</time></trkpt><trkpt lat="45.51641409626834" lon="11.336256362435309"><ele>111.0</ele><time>2026-04-03T13:29:36.998Z</time></trkpt><trkpt lat="45.51636126178573" lon="11.33644003243831"><ele>111.0</ele><time>2026-04-03T13:29:37.998Z</time></trkpt><trkpt lat="45.516305614116185" lon="11.336622105465992"><ele>111.0</ele><time>2026-04-03T13:29:38.998Z</time></trkpt><trkpt lat="45.516249050451606" lon="11.336787121892641"><ele>111.0</ele><time>2026-04-03T13:29:39.998Z</time></trkpt><trkpt lat="45.51619494398361" lon="11.336930851891182"><ele>111.0</ele><time>2026-04-03T13:29:40.998Z</time></trkpt><trkpt lat="45.51613953345997" lon="11.337082704294582"><ele>111.0</ele><time>2026-04-03T13:29:41.998Z</time></trkpt><trkpt lat="45.51607730672035" lon="11.33723693494702"><ele>111.0</ele><time>2026-04-03T13:29:42.998Z</time></trkpt><trkpt lat="45.51601311991189" lon="11.337395215175835"><ele>111.0</ele><time>2026-04-03T13:29:43.998Z</time></trkpt><trkpt lat="45.51594592986821" lon="11.337552388562473"><ele>111.0</ele><time>2026-04-03T13:29:44.998Z</time></trkpt><trkpt lat="45.515878318769225" lon="11.337715623708892"><ele>111.0</ele><time>2026-04-03T13:29:45.998Z</time></trkpt><trkpt lat="45.515809043687945" lon="11.3378797635027"><ele>111.0</ele><time>2026-04-03T13:29:46.998Z</time></trkpt><trkpt lat="45.515738784717755" lon="11.338041625427957"><ele>111.0</ele><time>2026-04-03T13:29:47.998Z</time></trkpt><trkpt lat="45.515669827704166" lon="11.338195875835176"><ele>110.5</ele><time>2026-04-03T13:29:48.998Z</time></trkpt><trkpt lat="45.515608644900794" lon="11.338339865913367"><ele>110.0</ele><time>2026-04-03T13:29:49.998Z</time></trkpt><trkpt lat="45.51554495435101" lon="11.338491283670633"><ele>109.5</ele><time>2026-04-03T13:29:50.998Z</time></trkpt><trkpt lat="45.515482623762075" lon="11.33864917947791"><ele>109.0</ele><time>2026-04-03T13:29:51.998Z</time></trkpt><trkpt lat="45.5154186358152" lon="11.338801164943966"><ele>108.75</ele><time>2026-04-03T13:29:52.998Z</time></trkpt><trkpt lat="45.51535744360961" lon="11.338945360603173"><ele>108.5</ele><time>2026-04-03T13:29:53.998Z</time></trkpt><trkpt lat="45.515296568257895" lon="11.339081875571043"><ele>108.25</ele><time>2026-04-03T13:29:54.998Z</time></trkpt><trkpt lat="45.51523934358356" lon="11.339220455934248"><ele>108.0</ele><time>2026-04-03T13:29:55.998Z</time></trkpt><trkpt lat="45.51518145421117" lon="11.339356919390907"><ele>108.0</ele><time>2026-04-03T13:29:57Z</time></trkpt><trkpt lat="45.51511946795182" lon="11.339493312154598"><ele>108.0</ele><time>2026-04-03T13:29:58Z</time></trkpt><trkpt lat="45.515054071575" lon="11.339635415324226"><ele>108.0</ele><time>2026-04-03T13:29:59Z</time></trkpt><trkpt lat="45.51498716734108" lon="11.339783351188842"><ele>108.0</ele><time>2026-04-03T13:30:00Z</time></trkpt><trkpt lat="45.51491918458187" lon="11.339938637257093"><ele>108.25</ele><time>2026-04-03T13:30:01Z</time></trkpt><trkpt lat="45.514850220494" lon="11.340100057447176"><ele>108.5</ele><time>2026-04-03T13:30:02Z</time></trkpt><trkpt lat="45.514779906602065" lon="11.340260189269431"><ele>108.75</ele><time>2026-04-03T13:30:03Z</time></trkpt><trkpt lat="45.514709149065204" lon="11.340419613604823"><ele>109.0</ele><time>2026-04-03T13:30:04Z</time></trkpt><trkpt lat="45.514638634774904" lon="11.34058241029528"><ele>109.0</ele><time>2026-04-03T13:30:05Z</time></trkpt><trkpt lat="45.51456535641223" lon="11.340749209495458"><ele>109.0</ele><time>2026-04-03T13:30:06Z</time></trkpt><trkpt lat="45.51449571685674" lon="11.340910500564974"><ele>109.0</ele><time>2026-04-03T13:30:07Z</time></trkpt><trkpt lat="45.514424110291046" lon="11.34107299589423"><ele>109.0</ele><time>2026-04-03T13:30:08Z</time></trkpt><trkpt lat="45.514352403964786" lon="11.341239245736698"><ele>108.25</ele><time>2026-04-03T13:30:09Z</time></trkpt><trkpt lat="45.51427865966206" lon="11.341403713826395"><ele>107.5</ele><time>2026-04-03T13:30:10Z</time></trkpt><trkpt lat="45.51420379530351" lon="11.341569620235935"><ele>106.75</ele><time>2026-04-03T13:30:11Z</time></trkpt><trkpt lat="45.514127686133726" lon="11.341738803152476"><ele>106.0</ele><time>2026-04-03T13:30:12Z</time></trkpt><trkpt lat="45.51405164598017" lon="11.341908310728044"><ele>106.0</ele><time>2026-04-03T13:30:13Z</time></trkpt><trkpt lat="45.51397549730928" lon="11.342079136895187"><ele>106.0</ele><time>2026-04-03T13:30:14Z</time></trkpt><trkpt lat="45.51390269892257" lon="11.342244499917342"><ele>106.0</ele><time>2026-04-03T13:30:15Z</time></trkpt><trkpt lat="45.51382665124751" lon="11.342403279550956"><ele>106.0</ele><time>2026-04-03T13:30:16Z</time></trkpt><trkpt lat="45.51375185023456" lon="11.342576178159627"><ele>106.0</ele><time>2026-04-03T13:30:17Z</time></trkpt><trkpt lat="45.51367447246119" lon="11.342747863867439"><ele>106.0</ele><time>2026-04-03T13:30:18Z</time></trkpt><trkpt lat="45.513595521159914" lon="11.342919242691423"><ele>106.0</ele><time>2026-04-03T13:30:19Z</time></trkpt><trkpt lat="45.513523296043786" lon="11.343087273174925"><ele>106.0</ele><time>2026-04-03T13:30:20Z</time></trkpt><trkpt lat="45.5134509704832" lon="11.343256297576525"><ele>105.75</ele><time>2026-04-03T13:30:21Z</time></trkpt><trkpt lat="45.513378167713434" lon="11.34342218861515"><ele>105.5</ele><time>2026-04-03T13:30:22Z</time></trkpt><trkpt lat="45.51330277428247" lon="11.343593139945062"><ele>105.25</ele><time>2026-04-03T13:30:23Z</time></trkpt><trkpt lat="45.51322517692124" lon="11.34377100512011"><ele>105.0</ele><time>2026-04-03T13:30:24Z</time></trkpt><trkpt lat="45.513151355101975" lon="11.343936595646156"><ele>105.0</ele><time>2026-04-03T13:30:25Z</time></trkpt><trkpt lat="45.51308648804803" lon="11.344082487673084"><ele>105.0</ele><time>2026-04-03T13:30:26Z</time></trkpt><trkpt lat="45.51302744985667" lon="11.34422375818274"><ele>105.0</ele><time>2026-04-03T13:30:27Z</time></trkpt><trkpt lat="45.51296752654346" lon="11.344353404921623"><ele>105.0</ele><time>2026-04-03T13:30:28Z</time></trkpt><trkpt lat="45.51290671966321" lon="11.344491290478098"><ele>104.4</ele><time>2026-04-03T13:30:29Z</time></trkpt><trkpt lat="45.51284487323647" lon="11.34462419926171"><ele>103.8</ele><time>2026-04-03T13:30:30Z</time></trkpt><trkpt lat="45.51278685129779" lon="11.344753191701296"><ele>103.19999999999999</ele><time>2026-04-03T13:30:30.999Z</time></trkpt><trkpt lat="45.512738929969245" lon="11.34487050573324"><ele>102.6</ele><time>2026-04-03T13:30:31.999Z</time></trkpt><trkpt lat="45.512680966219335" lon="11.344991485762401"><ele>102.0</ele><time>2026-04-03T13:30:32.999Z</time></trkpt><trkpt lat="45.512621248619915" lon="11.345122301510225"><ele>102.0</ele><time>2026-04-03T13:30:33.999Z</time></trkpt><trkpt lat="45.51255568475678" lon="11.345265583179406"><ele>102.0</ele><time>2026-04-03T13:30:34.999Z</time></trkpt><trkpt lat="45.512485721320544" lon="11.345412591867426"><ele>102.0</ele><time>2026-04-03T13:30:35.999Z</time></trkpt><trkpt lat="45.51241253603794" lon="11.345571550922342"><ele>102.0</ele><time>2026-04-03T13:30:36.999Z</time></trkpt><trkpt lat="45.51234327407292" lon="11.345734012658717"><ele>101.75</ele><time>2026-04-03T13:30:37.999Z</time></trkpt><trkpt lat="45.51227527496324" lon="11.345884415080768"><ele>101.5</ele><time>2026-04-03T13:30:38.999Z</time></trkpt><trkpt lat="45.51221595390872" lon="11.346029308160203"><ele>101.25</ele><time>2026-04-03T13:30:39.999Z</time></trkpt><trkpt lat="45.51215499581147" lon="11.346176800990392"><ele>101.0</ele><time>2026-04-03T13:30:40.999Z</time></trkpt><trkpt lat="45.51209308566309" lon="11.346324628433317"><ele>101.0</ele><time>2026-04-03T13:30:41.999Z</time></trkpt><trkpt lat="45.51202843472796" lon="11.346472237696542"><ele>101.0</ele><time>2026-04-03T13:30:42.999Z</time></trkpt><trkpt lat="45.51196747512368" lon="11.346604975905324"><ele>101.0</ele><time>2026-04-03T13:30:43.999Z</time></trkpt><trkpt lat="45.511914355602194" lon="11.34673125655942"><ele>101.0</ele><time>2026-04-03T13:30:44.999Z</time></trkpt><trkpt lat="45.51186712000028" lon="11.346842219626524"><ele>101.0</ele><time>2026-04-03T13:30:45.999Z</time></trkpt><trkpt lat="45.51182086387217" lon="11.346944121973463"><ele>101.0</ele><time>2026-04-03T13:30:46.999Z</time></trkpt><trkpt lat="45.51176776696703" lon="11.347031743686191"><ele>101.0</ele><time>2026-04-03T13:30:47.999Z</time></trkpt><trkpt lat="45.51169598640604" lon="11.347074002270192"><ele>101.0</ele><time>2026-04-03T13:30:48.999Z</time></trkpt><trkpt lat="45.51158379706784" lon="11.347123879298502"><ele>101.0</ele><time>2026-04-03T13:30:50.999Z</time></trkpt><trkpt lat="45.51151238277946" lon="11.347126348959774"><ele>101.0</ele><time>2026-04-03T13:30:52.999Z</time></trkpt><trkpt lat="45.511376410610104" lon="11.347166675009257"><ele>101.0</ele><time>2026-04-03T13:30:54.999Z</time></trkpt><trkpt lat="45.511249518240604" lon="11.347158742206613"><ele>101.0</ele><time>2026-04-03T13:30:55.999Z</time></trkpt><trkpt lat="45.51110319705604" lon="11.347149594902929"><ele>101.0</ele><time>2026-04-03T13:30:56.999Z</time></trkpt><trkpt lat="45.51094778431908" lon="11.347140010478823"><ele>101.0</ele><time>2026-04-03T13:30:57.999Z</time></trkpt><trkpt lat="45.51080493391425" lon="11.347127581364767"><ele>100.75</ele><time>2026-04-03T13:30:58.999Z</time></trkpt><trkpt lat="45.51067458259702" lon="11.34713229083975"><ele>100.5</ele><time>2026-04-03T13:30:59.999Z</time></trkpt><trkpt lat="45.510560550064476" lon="11.347149232281629"><ele>100.25</ele><time>2026-04-03T13:31:00.999Z</time></trkpt><trkpt lat="45.51046623347907" lon="11.34730881088573"><ele>100.0</ele><time>2026-04-03T13:31:01.999Z</time></trkpt><trkpt lat="45.510411120880995" lon="11.347477151123863"><ele>99.33333333333334</ele><time>2026-04-03T13:31:02.999Z</time></trkpt><trkpt lat="45.51037571368392" lon="11.347673340023645"><ele>98.66666666666666</ele><time>2026-04-03T13:31:03.999Z</time></trkpt><trkpt lat="45.51033413821476" lon="11.34790716382056"><ele>98.0</ele><time>2026-04-03T13:31:04.999Z</time></trkpt><trkpt lat="45.510298928004715" lon="11.348144233187547"><ele>98.0</ele><time>2026-04-03T13:31:05.999Z</time></trkpt><trkpt lat="45.51027280960323" lon="11.348380032181652"><ele>98.0</ele><time>2026-04-03T13:31:06.999Z</time></trkpt><trkpt lat="45.51023653463037" lon="11.348582592643226"><ele>98.0</ele><time>2026-04-03T13:31:07.999Z</time></trkpt><trkpt lat="45.51020558326718" lon="11.348765208104854"><ele>98.0</ele><time>2026-04-03T13:31:08.999Z</time></trkpt><trkpt lat="45.51019451552037" lon="11.348923893621143"><ele>98.0</ele><time>2026-04-03T13:31:09.999Z</time></trkpt><trkpt lat="45.51022690797486" lon="11.349077645741954"><ele>98.0</ele><time>2026-04-03T13:31:10.999Z</time></trkpt><trkpt lat="45.51030520747997" lon="11.349202106707796"><ele>98.0</ele><time>2026-04-03T13:31:11.999Z</time></trkpt><trkpt lat="45.510416458181915" lon="11.349279744527148"><ele>98.0</ele><time>2026-04-03T13:31:12.999Z</time></trkpt><trkpt lat="45.51053349128825" lon="11.349292298588264"><ele>98.66666666666666</ele><time>2026-04-03T13:31:13.999Z</time></trkpt><trkpt lat="45.510660635332734" lon="11.3492561837861"><ele>99.33333333333334</ele><time>2026-04-03T13:31:14.999Z</time></trkpt><trkpt lat="45.51081319901821" lon="11.34921726758927"><ele>100.0</ele><time>2026-04-03T13:31:15.999Z</time></trkpt><trkpt lat="45.51098216793609" lon="11.349210977425546"><ele>100.0</ele><time>2026-04-03T13:31:16.999Z</time></trkpt><trkpt lat="45.51114023685688" lon="11.349230756546287"><ele>100.0</ele><time>2026-04-03T13:31:17.999Z</time></trkpt><trkpt lat="45.51124827785518" lon="11.349219986390642"><ele>100.0</ele><time>2026-04-03T13:31:18.999Z</time></trkpt><trkpt lat="45.511351095449754" lon="11.349301816008493"><ele>100.0</ele><time>2026-04-03T13:31:19.999Z</time></trkpt><trkpt lat="45.51144428671498" lon="11.349369575742262"><ele>99.75</ele><time>2026-04-03T13:31:20.999Z</time></trkpt><trkpt lat="45.51151317427101" lon="11.349474562629098"><ele>99.5</ele><time>2026-04-03T13:31:21.999Z</time></trkpt><trkpt lat="45.511590542117915" lon="11.349552617890193"><ele>99.25</ele><time>2026-04-03T13:31:22.999Z</time></trkpt><trkpt lat="45.51155468615758" lon="11.349859780588604"><ele>99.0</ele><time>2026-04-03T13:31:23.999Z</time></trkpt><trkpt lat="45.51158197746151" lon="11.350103900485845"><ele>99.0</ele><time>2026-04-03T13:31:24.999Z</time></trkpt><trkpt lat="45.511602824850286" lon="11.350393262638105"><ele>99.0</ele><time>2026-04-03T13:31:25.999Z</time></trkpt><trkpt lat="45.51161992563174" lon="11.35070437725224"><ele>99.0</ele><time>2026-04-03T13:31:26.999Z</time></trkpt><trkpt lat="45.511646642195615" lon="11.3510529937261"><ele>99.0</ele><time>2026-04-03T13:31:27.999Z</time></trkpt><trkpt lat="45.511671258073065" lon="11.351427396531752"><ele>99.0</ele><time>2026-04-03T13:31:28.999Z</time></trkpt><trkpt lat="45.5116860815127" lon="11.351819476975098"><ele>98.5</ele><time>2026-04-03T13:31:29.999Z</time></trkpt><trkpt lat="45.51170729713403" lon="11.35222840561672"><ele>98.0</ele><time>2026-04-03T13:31:30.998Z</time></trkpt><trkpt lat="45.51173795403427" lon="11.352649996887399"><ele>98.0</ele><time>2026-04-03T13:31:31.998Z</time></trkpt><trkpt lat="45.51176895165674" lon="11.353067110882492"><ele>98.0</ele><time>2026-04-03T13:31:32.998Z</time></trkpt><trkpt lat="45.511800219590846" lon="11.353489471476134"><ele>98.0</ele><time>2026-04-03T13:31:33.998Z</time></trkpt><trkpt lat="45.511830520954845" lon="11.35390901760147"><ele>98.0</ele><time>2026-04-03T13:31:34.998Z</time></trkpt><trkpt lat="45.51185495632602" lon="11.354323293344654"><ele>97.5</ele><time>2026-04-03T13:31:35.998Z</time></trkpt><trkpt lat="45.511882327082425" lon="11.354732664671944"><ele>97.0</ele><time>2026-04-03T13:31:36.998Z</time></trkpt><trkpt lat="45.51190903965939" lon="11.355131808919351"><ele>97.0</ele><time>2026-04-03T13:31:37.998Z</time></trkpt><trkpt lat="45.51194210517254" lon="11.355519644111483"><ele>97.0</ele><time>2026-04-03T13:31:38.998Z</time></trkpt><trkpt lat="45.5119851470815" lon="11.355919865802806"><ele>97.0</ele><time>2026-04-03T13:31:39.998Z</time></trkpt><trkpt lat="45.512058524953886" lon="11.35629602806371"><ele>97.0</ele><time>2026-04-03T13:31:40.998Z</time></trkpt><trkpt lat="45.51214341411808" lon="11.356657684267924"><ele>97.0</ele><time>2026-04-03T13:31:41.998Z</time></trkpt><trkpt lat="45.51224641151229" lon="11.357012246148624"><ele>97.0</ele><time>2026-04-03T13:31:42.998Z</time></trkpt><trkpt lat="45.5123509660482" lon="11.357354007162176"><ele>97.0</ele><time>2026-04-03T13:31:43.998Z</time></trkpt><trkpt lat="45.51243928588926" lon="11.357665156667418"><ele>97.0</ele><time>2026-04-03T13:31:44.998Z</time></trkpt><trkpt lat="45.51251809682286" lon="11.357954848188935"><ele>96.0</ele><time>2026-04-03T13:31:45.998Z</time></trkpt><trkpt lat="45.51259540780445" lon="11.358232936758464"><ele>95.0</ele><time>2026-04-03T13:31:46.998Z</time></trkpt><trkpt lat="45.512671937422596" lon="11.35849524015447"><ele>94.0</ele><time>2026-04-03T13:31:47.998Z</time></trkpt><trkpt lat="45.512747814375274" lon="11.358745740435563"><ele>94.0</ele><time>2026-04-03T13:31:48.998Z</time></trkpt><trkpt lat="45.512814544640904" lon="11.358975174034155"><ele>94.0</ele><time>2026-04-03T13:31:49.998Z</time></trkpt><trkpt lat="45.51287976070953" lon="11.35920235268193"><ele>94.0</ele><time>2026-04-03T13:31:50.998Z</time></trkpt><trkpt lat="45.51294115102228" lon="11.359410793594241"><ele>94.25</ele><time>2026-04-03T13:31:51.998Z</time></trkpt><trkpt lat="45.512999100643746" lon="11.359610394040786"><ele>94.5</ele><time>2026-04-03T13:31:52.998Z</time></trkpt><trkpt lat="45.51305468636686" lon="11.359795065048415"><ele>94.75</ele><time>2026-04-03T13:31:53.998Z</time></trkpt><trkpt lat="45.51311104036395" lon="11.359972217859195"><ele>95.0</ele><time>2026-04-03T13:31:54.998Z</time></trkpt><trkpt lat="45.51316206514627" lon="11.360129187126574"><ele>95.14285714285714</ele><time>2026-04-03T13:31:55.998Z</time></trkpt><trkpt lat="45.51320428570024" lon="11.360253999906556"><ele>95.28571428571429</ele><time>2026-04-03T13:31:56.998Z</time></trkpt><trkpt lat="45.51323011255323" lon="11.360340265292752"><ele>95.42857142857142</ele><time>2026-04-03T13:31:57.998Z</time></trkpt><trkpt lat="45.51324885136979" lon="11.360429073307762"><ele>95.57142857142857</ele><time>2026-04-03T13:31:58.998Z</time></trkpt><trkpt lat="45.51326602312832" lon="11.360517887651772"><ele>95.71428571428571</ele><time>2026-04-03T13:31:59.998Z</time></trkpt><trkpt lat="45.513282887953885" lon="11.360624141651861"><ele>95.85714285714285</ele><time>2026-04-03T13:32:00.998Z</time></trkpt><trkpt lat="45.51331529808169" lon="11.360725989988131"><ele>96.0</ele><time>2026-04-03T13:32:01.998Z</time></trkpt><trkpt lat="45.51335218279245" lon="11.360830223108728"><ele>95.6</ele><time>2026-04-03T13:32:03Z</time></trkpt><trkpt lat="45.513382241550495" lon="11.36092417679857"><ele>95.19999999999999</ele><time>2026-04-03T13:32:04Z</time></trkpt><trkpt lat="45.51340810869769" lon="11.361048121622408"><ele>94.80000000000001</ele><time>2026-04-03T13:32:05Z</time></trkpt><trkpt lat="45.51342418247663" lon="11.361208805142098"><ele>94.4</ele><time>2026-04-03T13:32:06Z</time></trkpt><trkpt lat="45.51342397938996" lon="11.361400689873568"><ele>94.0</ele><time>2026-04-03T13:32:07Z</time></trkpt><trkpt lat="45.51341932187893" lon="11.361611795958327"><ele>94.0</ele><time>2026-04-03T13:32:08Z</time></trkpt><trkpt lat="45.51341707355554" lon="11.3618340199563"><ele>94.0</ele><time>2026-04-03T13:32:09Z</time></trkpt><trkpt lat="45.513417280749856" lon="11.362063621872947"><ele>94.0</ele><time>2026-04-03T13:32:10Z</time></trkpt><trkpt lat="45.513424652309276" lon="11.362279103561255"><ele>93.5</ele><time>2026-04-03T13:32:11Z</time></trkpt><trkpt lat="45.51342884112456" lon="11.3624717743105"><ele>93.0</ele><time>2026-04-03T13:32:12Z</time></trkpt><trkpt lat="45.513431835029465" lon="11.362650047647772"><ele>92.5</ele><time>2026-04-03T13:32:13Z</time></trkpt><trkpt lat="45.51343002749871" lon="11.362809796636679"><ele>92.0</ele><time>2026-04-03T13:32:14Z</time></trkpt><trkpt lat="45.5134366962176" lon="11.362960331948958"><ele>92.0</ele><time>2026-04-03T13:32:15Z</time></trkpt><trkpt lat="45.513442521141684" lon="11.363103002399287"><ele>92.0</ele><time>2026-04-03T13:32:16Z</time></trkpt><trkpt lat="45.513458333772284" lon="11.363224516125259"><ele>92.0</ele><time>2026-04-03T13:32:17Z</time></trkpt><trkpt lat="45.51349583078167" lon="11.36337993288351"><ele>92.0</ele><time>2026-04-03T13:32:19Z</time></trkpt><trkpt lat="45.51345827535601" lon="11.36356830883717"><ele>92.0</ele><time>2026-04-03T13:32:21Z</time></trkpt><trkpt lat="45.513419990840795" lon="11.363678275171962"><ele>92.0</ele><time>2026-04-03T13:32:22Z</time></trkpt><trkpt lat="45.513404972090974" lon="11.363829211220555"><ele>92.0</ele><time>2026-04-03T13:32:23Z</time></trkpt><trkpt lat="45.513471502710985" lon="11.363986894253"><ele>92.0</ele><time>2026-04-03T13:32:24Z</time></trkpt><trkpt lat="45.51348874809383" lon="11.364206133023002"><ele>92.0</ele><time>2026-04-03T13:32:25Z</time></trkpt><trkpt lat="45.51349549836533" lon="11.364432476519713"><ele>91.33333333333334</ele><time>2026-04-03T13:32:26Z</time></trkpt><trkpt lat="45.51348927574479" lon="11.36465986535543"><ele>90.66666666666667</ele><time>2026-04-03T13:32:27Z</time></trkpt><trkpt lat="45.51349160089723" lon="11.364899441764312"><ele>90.0</ele><time>2026-04-03T13:32:28Z</time></trkpt><trkpt lat="45.513506552844916" lon="11.365141912435918"><ele>89.66666666666667</ele><time>2026-04-03T13:32:29Z</time></trkpt><trkpt lat="45.51351707928491" lon="11.365385959682294"><ele>89.33333333333334</ele><time>2026-04-03T13:32:30Z</time></trkpt><trkpt lat="45.513519748408875" lon="11.365609249281006"><ele>89.0</ele><time>2026-04-03T13:32:31Z</time></trkpt><trkpt lat="45.51352541402329" lon="11.365819580177403"><ele>88.75</ele><time>2026-04-03T13:32:32Z</time></trkpt><trkpt lat="45.51353020020391" lon="11.366009544314108"><ele>88.5</ele><time>2026-04-03T13:32:33Z</time></trkpt><trkpt lat="45.513533134333166" lon="11.366187153418073"><ele>88.25</ele><time>2026-04-03T13:32:34Z</time></trkpt><trkpt lat="45.51353727751925" lon="11.36636401508588"><ele>88.0</ele><time>2026-04-03T13:32:35Z</time></trkpt><trkpt lat="45.51354323935548" lon="11.366559858620933"><ele>87.33333333333333</ele><time>2026-04-03T13:32:36Z</time></trkpt><trkpt lat="45.51355514358749" lon="11.366783974231502"><ele>86.66666666666667</ele><time>2026-04-03T13:32:37Z</time></trkpt><trkpt lat="45.51356383691109" lon="11.367030609490605"><ele>86.0</ele><time>2026-04-03T13:32:38Z</time></trkpt><trkpt lat="45.51356838563599" lon="11.367286937027698"><ele>85.66666666666667</ele><time>2026-04-03T13:32:39Z</time></trkpt><trkpt lat="45.51357114279739" lon="11.367543606894213"><ele>85.33333333333333</ele><time>2026-04-03T13:32:40Z</time></trkpt><trkpt lat="45.51357697105385" lon="11.367796663795259"><ele>85.0</ele><time>2026-04-03T13:32:41Z</time></trkpt><trkpt lat="45.51358031637204" lon="11.368070380980758"><ele>84.33333333333333</ele><time>2026-04-03T13:32:42Z</time></trkpt><trkpt lat="45.51358156395445" lon="11.368350564000478"><ele>83.66666666666667</ele><time>2026-04-03T13:32:42.999Z</time></trkpt><trkpt lat="45.51358668449359" lon="11.368627989969355"><ele>83.0</ele><time>2026-04-03T13:32:43.999Z</time></trkpt><trkpt lat="45.51359672085962" lon="11.368898514249853"><ele>83.0</ele><time>2026-04-03T13:32:44.999Z</time></trkpt><trkpt lat="45.5136022097525" lon="11.369162027991319"><ele>83.0</ele><time>2026-04-03T13:32:45.999Z</time></trkpt><trkpt lat="45.51360849834546" lon="11.369430027462611"><ele>83.0</ele><time>2026-04-03T13:32:46.999Z</time></trkpt><trkpt lat="45.51361848542527" lon="11.369728188584123"><ele>83.0</ele><time>2026-04-03T13:32:47.999Z</time></trkpt><trkpt lat="45.513635349818124" lon="11.370057435433088"><ele>83.0</ele><time>2026-04-03T13:32:48.999Z</time></trkpt><trkpt lat="45.51362658069806" lon="11.37040494885382"><ele>82.33333333333334</ele><time>2026-04-03T13:32:49.999Z</time></trkpt><trkpt lat="45.51364870289684" lon="11.370733985811844"><ele>81.66666666666667</ele><time>2026-04-03T13:32:50.999Z</time></trkpt><trkpt lat="45.513649167582116" lon="11.37103287207429"><ele>81.0</ele><time>2026-04-03T13:32:51.999Z</time></trkpt><trkpt lat="45.51364275483549" lon="11.3713116286941"><ele>80.66666666666667</ele><time>2026-04-03T13:32:52.999Z</time></trkpt><trkpt lat="45.51362846257161" lon="11.371575819717586"><ele>80.33333333333334</ele><time>2026-04-03T13:32:53.999Z</time></trkpt><trkpt lat="45.513605994782964" lon="11.371811944547902"><ele>80.0</ele><time>2026-04-03T13:32:54.999Z</time></trkpt><trkpt lat="45.51357304410136" lon="11.372033276608967"><ele>80.0</ele><time>2026-04-03T13:32:55.999Z</time></trkpt><trkpt lat="45.51349902394289" lon="11.37222925776353"><ele>80.0</ele><time>2026-04-03T13:32:56.999Z</time></trkpt><trkpt lat="45.51341782686534" lon="11.372457691417097"><ele>80.0</ele><time>2026-04-03T13:32:57.999Z</time></trkpt><trkpt lat="45.51331913351618" lon="11.372715233237182"><ele>80.0</ele><time>2026-04-03T13:32:58.999Z</time></trkpt><trkpt lat="45.51321581215046" lon="11.372973418729734"><ele>80.0</ele><time>2026-04-03T13:32:59.999Z</time></trkpt><trkpt lat="45.51311894184842" lon="11.373206002112585"><ele>80.0</ele><time>2026-04-03T13:33:00.999Z</time></trkpt><trkpt lat="45.51303439027008" lon="11.373402632337347"><ele>80.0</ele><time>2026-04-03T13:33:01.999Z</time></trkpt><trkpt lat="45.512954866735676" lon="11.373584797786982"><ele>80.0</ele><time>2026-04-03T13:33:02.999Z</time></trkpt><trkpt lat="45.512881021135435" lon="11.373752585925041"><ele>80.0</ele><time>2026-04-03T13:33:03.999Z</time></trkpt><trkpt lat="45.51281093114636" lon="11.37391184049754"><ele>80.0</ele><time>2026-04-03T13:33:04.999Z</time></trkpt><trkpt lat="45.51273815338591" lon="11.374077534417161"><ele>80.75</ele><time>2026-04-03T13:33:05.999Z</time></trkpt><trkpt lat="45.51266964775305" lon="11.374236488727067"><ele>81.5</ele><time>2026-04-03T13:33:06.999Z</time></trkpt><trkpt lat="45.51260715339008" lon="11.374381495248283"><ele>82.25</ele><time>2026-04-03T13:33:07.999Z</time></trkpt><trkpt lat="45.51253897547051" lon="11.374539689416553"><ele>83.0</ele><time>2026-04-03T13:33:08.999Z</time></trkpt><trkpt lat="45.51246465849749" lon="11.374713461406385"><ele>83.5</ele><time>2026-04-03T13:33:09.999Z</time></trkpt><trkpt lat="45.5123919429475" lon="11.37489496966548"><ele>84.0</ele><time>2026-04-03T13:33:10.999Z</time></trkpt><trkpt lat="45.51232711861109" lon="11.375075760440824"><ele>84.5</ele><time>2026-04-03T13:33:11.999Z</time></trkpt><trkpt lat="45.51227563864677" lon="11.37525737146218"><ele>85.0</ele><time>2026-04-03T13:33:12.999Z</time></trkpt><trkpt lat="45.51224992121569" lon="11.375444946368571"><ele>84.75</ele><time>2026-04-03T13:33:13.999Z</time></trkpt><trkpt lat="45.51222496224202" lon="11.375612133300178"><ele>84.5</ele><time>2026-04-03T13:33:14.999Z</time></trkpt><trkpt lat="45.51220225203071" lon="11.375782899150963"><ele>84.25</ele><time>2026-04-03T13:33:15.999Z</time></trkpt><trkpt lat="45.51217897926187" lon="11.375955698304807"><ele>84.0</ele><time>2026-04-03T13:33:16.999Z</time></trkpt><trkpt lat="45.51215375916637" lon="11.376128433747526"><ele>84.0</ele><time>2026-04-03T13:33:17.999Z</time></trkpt><trkpt lat="45.512117708529274" lon="11.3763056006973"><ele>84.0</ele><time>2026-04-03T13:33:18.999Z</time></trkpt><trkpt lat="45.51205538701271" lon="11.376476007200392"><ele>84.0</ele><time>2026-04-03T13:33:19.999Z</time></trkpt><trkpt lat="45.51199750911641" lon="11.376652334033597"><ele>84.0</ele><time>2026-04-03T13:33:20.999Z</time></trkpt><trkpt lat="45.51193063559017" lon="11.376830284285163"><ele>84.0</ele><time>2026-04-03T13:33:21.999Z</time></trkpt><trkpt lat="45.51186489146448" lon="11.377000280980115"><ele>84.0</ele><time>2026-04-03T13:33:22.999Z</time></trkpt><trkpt lat="45.51179982317458" lon="11.377168698116739"><ele>84.0</ele><time>2026-04-03T13:33:23.999Z</time></trkpt><trkpt lat="45.51173875114713" lon="11.377332605324911"><ele>84.0</ele><time>2026-04-03T13:33:24.999Z</time></trkpt><trkpt lat="45.511675295701764" lon="11.37750290921321"><ele>84.25</ele><time>2026-04-03T13:33:25.999Z</time></trkpt><trkpt lat="45.511611546415395" lon="11.377674001690533"><ele>84.5</ele><time>2026-04-03T13:33:26.999Z</time></trkpt><trkpt lat="45.51154623223105" lon="11.377848042945905"><ele>84.75</ele><time>2026-04-03T13:33:27.999Z</time></trkpt><trkpt lat="45.51148104335792" lon="11.378019373711505"><ele>85.0</ele><time>2026-04-03T13:33:28.999Z</time></trkpt><trkpt lat="45.51141893636851" lon="11.378182121709964"><ele>84.25</ele><time>2026-04-03T13:33:29.999Z</time></trkpt><trkpt lat="45.5113544279587" lon="11.37835114960036"><ele>83.5</ele><time>2026-04-03T13:33:30.999Z</time></trkpt><trkpt lat="45.51129089485163" lon="11.378517621870621"><ele>82.75</ele><time>2026-04-03T13:33:31.999Z</time></trkpt><trkpt lat="45.511226023175354" lon="11.378687601539278"><ele>82.0</ele><time>2026-04-03T13:33:32.999Z</time></trkpt><trkpt lat="45.511151872223955" lon="11.378881775687603"><ele>81.0</ele><time>2026-04-03T13:33:33.999Z</time></trkpt><trkpt lat="45.511069456958595" lon="11.379097156930484"><ele>80.0</ele><time>2026-04-03T13:33:34.999Z</time></trkpt><trkpt lat="45.510982387177194" lon="11.379324702347972"><ele>79.0</ele><time>2026-04-03T13:33:35.999Z</time></trkpt><trkpt lat="45.51089269405175" lon="11.379566067471009"><ele>81.0</ele><time>2026-04-03T13:33:36.999Z</time></trkpt><trkpt lat="45.51078681320152" lon="11.379855911995488"><ele>83.0</ele><time>2026-04-03T13:33:37.999Z</time></trkpt><trkpt lat="45.51068627850819" lon="11.38015616565146"><ele>83.0</ele><time>2026-04-03T13:33:38.999Z</time></trkpt><trkpt lat="45.51061631130022" lon="11.380446413363002"><ele>83.0</ele><time>2026-04-03T13:33:39.999Z</time></trkpt><trkpt lat="45.51054446474815" lon="11.380700766577332"><ele>83.0</ele><time>2026-04-03T13:33:40.999Z</time></trkpt><trkpt lat="45.510496900819156" lon="11.380937370835124"><ele>82.75</ele><time>2026-04-03T13:33:41.999Z</time></trkpt><trkpt lat="45.51045444009855" lon="11.381150389133376"><ele>82.5</ele><time>2026-04-03T13:33:42.999Z</time></trkpt><trkpt lat="45.5104161358147" lon="11.381342306149934"><ele>82.25</ele><time>2026-04-03T13:33:43.998Z</time></trkpt><trkpt lat="45.51037801808154" lon="11.381517016816412"><ele>82.0</ele><time>2026-04-03T13:33:44.998Z</time></trkpt><trkpt lat="45.510338478693775" lon="11.381691838290793"><ele>81.75</ele><time>2026-04-03T13:33:45.998Z</time></trkpt><trkpt lat="45.510299131617266" lon="11.381879282274253"><ele>81.5</ele><time>2026-04-03T13:33:46.998Z</time></trkpt><trkpt lat="45.510261050715066" lon="11.382065039447863"><ele>81.25</ele><time>2026-04-03T13:33:47.998Z</time></trkpt><trkpt lat="45.51022082801506" lon="11.382258068395794"><ele>81.0</ele><time>2026-04-03T13:33:48.998Z</time></trkpt><trkpt lat="45.510177705909605" lon="11.382455059913063"><ele>81.0</ele><time>2026-04-03T13:33:49.998Z</time></trkpt><trkpt lat="45.510135642921455" lon="11.382647970969817"><ele>81.0</ele><time>2026-04-03T13:33:50.998Z</time></trkpt><trkpt lat="45.51009398533494" lon="11.382837689722878"><ele>81.0</ele><time>2026-04-03T13:33:51.998Z</time></trkpt><trkpt lat="45.51005819010404" lon="11.383007957753032"><ele>81.0</ele><time>2026-04-03T13:33:52.998Z</time></trkpt><trkpt lat="45.51002190882398" lon="11.383184059071576"><ele>80.5</ele><time>2026-04-03T13:33:53.998Z</time></trkpt><trkpt lat="45.509982703975005" lon="11.383360283835685"><ele>80.0</ele><time>2026-04-03T13:33:54.998Z</time></trkpt><trkpt lat="45.509941006344" lon="11.383554605667138"><ele>79.5</ele><time>2026-04-03T13:33:55.998Z</time></trkpt><trkpt lat="45.509900647947546" lon="11.383747787201564"><ele>79.0</ele><time>2026-04-03T13:33:56.998Z</time></trkpt><trkpt lat="45.50986084842244" lon="11.383935841925515"><ele>79.0</ele><time>2026-04-03T13:33:57.998Z</time></trkpt><trkpt lat="45.50981479238061" lon="11.384123360967074"><ele>79.0</ele><time>2026-04-03T13:33:58.998Z</time></trkpt><trkpt lat="45.50977071050001" lon="11.384314572394016"><ele>79.0</ele><time>2026-04-03T13:33:59.998Z</time></trkpt><trkpt lat="45.509731415287355" lon="11.384514021488084"><ele>79.0</ele><time>2026-04-03T13:34:00.998Z</time></trkpt><trkpt lat="45.50968681007574" lon="11.38471124627916"><ele>79.5</ele><time>2026-04-03T13:34:01.998Z</time></trkpt><trkpt lat="45.509642412796524" lon="11.38490707275567"><ele>80.0</ele><time>2026-04-03T13:34:02.998Z</time></trkpt><trkpt lat="45.509609093580885" lon="11.38509846103613"><ele>80.5</ele><time>2026-04-03T13:34:03.998Z</time></trkpt><trkpt lat="45.50956684492568" lon="11.38529107060247"><ele>81.0</ele><time>2026-04-03T13:34:04.998Z</time></trkpt><trkpt lat="45.50952953024471" lon="11.385480971789816"><ele>81.0</ele><time>2026-04-03T13:34:05.998Z</time></trkpt><trkpt lat="45.50949002814807" lon="11.38567215767049"><ele>81.0</ele><time>2026-04-03T13:34:06.998Z</time></trkpt><trkpt lat="45.509452808851016" lon="11.385861894892905"><ele>81.0</ele><time>2026-04-03T13:34:07.998Z</time></trkpt><trkpt lat="45.50941863711759" lon="11.38605566384827"><ele>81.0</ele><time>2026-04-03T13:34:09Z</time></trkpt><trkpt lat="45.50938884124077" lon="11.38624861485801"><ele>80.5</ele><time>2026-04-03T13:34:10Z</time></trkpt><trkpt lat="45.50936767120677" lon="11.38643187269881"><ele>80.0</ele><time>2026-04-03T13:34:11Z</time></trkpt><trkpt lat="45.50935282615898" lon="11.386604208690192"><ele>79.5</ele><time>2026-04-03T13:34:12Z</time></trkpt><trkpt lat="45.50934756745414" lon="11.386777319523805"><ele>79.0</ele><time>2026-04-03T13:34:13Z</time></trkpt><trkpt lat="45.509346055472946" lon="11.38693356048336"><ele>79.0</ele><time>2026-04-03T13:34:14Z</time></trkpt><trkpt lat="45.5093542117049" lon="11.387086076151272"><ele>79.0</ele><time>2026-04-03T13:34:15Z</time></trkpt><trkpt lat="45.509366755076144" lon="11.387225685794087"><ele>79.0</ele><time>2026-04-03T13:34:16Z</time></trkpt><trkpt lat="45.50937628765926" lon="11.387344106511444"><ele>79.0</ele><time>2026-04-03T13:34:17Z</time></trkpt><trkpt lat="45.50938055252516" lon="11.387448999248562"><ele>79.0</ele><time>2026-04-03T13:34:18Z</time></trkpt><trkpt lat="45.50937204897056" lon="11.387539684409667"><ele>79.0</ele><time>2026-04-03T13:34:19Z</time></trkpt><trkpt lat="45.509353414309984" lon="11.387634812325357"><ele>78.60000000000001</ele><time>2026-04-03T13:34:20Z</time></trkpt><trkpt lat="45.50932109873418" lon="11.38773839150968"><ele>78.2</ele><time>2026-04-03T13:34:21Z</time></trkpt><trkpt lat="45.50927151764832" lon="11.387853760264198"><ele>77.80000000000001</ele><time>2026-04-03T13:34:22Z</time></trkpt><trkpt lat="45.50921945983301" lon="11.387960915329906"><ele>77.4</ele><time>2026-04-03T13:34:23Z</time></trkpt><trkpt lat="45.50916280636988" lon="11.3880738166367"><ele>77.0</ele><time>2026-04-03T13:34:24Z</time></trkpt><trkpt lat="45.50910446922123" lon="11.388201124780997"><ele>77.0</ele><time>2026-04-03T13:34:25Z</time></trkpt><trkpt lat="45.5090544367116" lon="11.388336098723482"><ele>77.0</ele><time>2026-04-03T13:34:26Z</time></trkpt><trkpt lat="45.50902514237913" lon="11.388472167748905"><ele>77.0</ele><time>2026-04-03T13:34:27Z</time></trkpt><trkpt lat="45.50901003599618" lon="11.388683458565474"><ele>77.0</ele><time>2026-04-03T13:34:28Z</time></trkpt><trkpt lat="45.50901793770667" lon="11.388913186909607"><ele>77.0</ele><time>2026-04-03T13:34:29Z</time></trkpt><trkpt lat="45.50906365497353" lon="11.389134374002651"><ele>77.0</ele><time>2026-04-03T13:34:30Z</time></trkpt><trkpt lat="45.50913630484129" lon="11.389350569674322"><ele>77.0</ele><time>2026-04-03T13:34:31Z</time></trkpt><trkpt lat="45.509236839019756" lon="11.38953013078993"><ele>77.0</ele><time>2026-04-03T13:34:32Z</time></trkpt><trkpt lat="45.509369156408106" lon="11.389646721811827"><ele>77.0</ele><time>2026-04-03T13:34:33Z</time></trkpt><trkpt lat="45.50951528540036" lon="11.389721154352987"><ele>77.0</ele><time>2026-04-03T13:34:34Z</time></trkpt><trkpt lat="45.509658804438715" lon="11.389757698108516"><ele>76.75</ele><time>2026-04-03T13:34:35Z</time></trkpt><trkpt lat="45.5097696273792" lon="11.389871566470143"><ele>76.5</ele><time>2026-04-03T13:34:36Z</time></trkpt><trkpt lat="45.50986636163964" lon="11.389985343013034"><ele>76.25</ele><time>2026-04-03T13:34:37Z</time></trkpt><trkpt lat="45.50994998807538" lon="11.390141070141167"><ele>76.0</ele><time>2026-04-03T13:34:38Z</time></trkpt><trkpt lat="45.51002421212424" lon="11.390337249385142"><ele>77.0</ele><time>2026-04-03T13:34:39Z</time></trkpt><trkpt lat="45.51004700650312" lon="11.390588772915786"><ele>78.0</ele><time>2026-04-03T13:34:40Z</time></trkpt><trkpt lat="45.5100852854049" lon="11.390856810589296"><ele>79.0</ele><time>2026-04-03T13:34:41Z</time></trkpt><trkpt lat="45.51015021646548" lon="11.391127869715978"><ele>78.66666666666666</ele><time>2026-04-03T13:34:42Z</time></trkpt><trkpt lat="45.51022220697203" lon="11.391392697440004"><ele>78.33333333333333</ele><time>2026-04-03T13:34:43Z</time></trkpt><trkpt lat="45.510285712980064" lon="11.391678698189189"><ele>78.0</ele><time>2026-04-03T13:34:44Z</time></trkpt><trkpt lat="45.51034758087204" lon="11.392003790703097"><ele>78.33333333333333</ele><time>2026-04-03T13:34:45Z</time></trkpt><trkpt lat="45.51042907203514" lon="11.392387099321478"><ele>78.66666666666666</ele><time>2026-04-03T13:34:46Z</time></trkpt><trkpt lat="45.51046438437061" lon="11.39251398121273"><ele>79.0</ele><time>2026-04-03T13:34:47Z</time></trkpt><trkpt lat="45.510514577137435" lon="11.392756850481895"><ele>79.0</ele><time>2026-04-03T13:34:48Z</time></trkpt><trkpt lat="45.51056311731526" lon="11.39298673388166"><ele>79.0</ele><time>2026-04-03T13:34:49Z</time></trkpt><trkpt lat="45.51061375349028" lon="11.393207958319971"><ele>79.0</ele><time>2026-04-03T13:34:50Z</time></trkpt><trkpt lat="45.51066013724606" lon="11.393439396170026"><ele>79.33333333333333</ele><time>2026-04-03T13:34:51Z</time></trkpt><trkpt lat="45.510676407245626" lon="11.39368712294474"><ele>79.66666666666667</ele><time>2026-04-03T13:34:52Z</time></trkpt><trkpt lat="45.510727137121265" lon="11.393899193949366"><ele>80.0</ele><time>2026-04-03T13:34:52.999Z</time></trkpt><trkpt lat="45.5107498148605" lon="11.39409166337124"><ele>80.0</ele><time>2026-04-03T13:34:53.999Z</time></trkpt><trkpt lat="45.51075303861268" lon="11.394246642454757"><ele>80.0</ele><time>2026-04-03T13:34:54.999Z</time></trkpt><trkpt lat="45.5107396084243" lon="11.394384573755136"><ele>80.0</ele><time>2026-04-03T13:34:55.999Z</time></trkpt><trkpt lat="45.51070190120536" lon="11.394539245318477"><ele>80.0</ele><time>2026-04-03T13:34:56.999Z</time></trkpt><trkpt lat="45.51064937891072" lon="11.394707010498632"><ele>80.0</ele><time>2026-04-03T13:34:57.999Z</time></trkpt><trkpt lat="45.51060028227026" lon="11.39486326122208"><ele>80.0</ele><time>2026-04-03T13:34:58.999Z</time></trkpt><trkpt lat="45.51055966490649" lon="11.39499669932004"><ele>80.0</ele><time>2026-04-03T13:34:59.999Z</time></trkpt><trkpt lat="45.510520660702106" lon="11.395116680993052"><ele>80.0</ele><time>2026-04-03T13:35:00.999Z</time></trkpt><trkpt lat="45.510476384325166" lon="11.39524113596093"><ele>80.0</ele><time>2026-04-03T13:35:01.999Z</time></trkpt><trkpt lat="45.51042682406266" lon="11.395352982609591"><ele>79.66666666666667</ele><time>2026-04-03T13:35:02.999Z</time></trkpt><trkpt lat="45.510360748502094" lon="11.39542064649798"><ele>79.33333333333334</ele><time>2026-04-03T13:35:03.999Z</time></trkpt><trkpt lat="45.51030817771171" lon="11.395516024930982"><ele>79.0</ele><time>2026-04-03T13:35:04.999Z</time></trkpt><trkpt lat="45.51023694331732" lon="11.395593830275617"><ele>78.66666666666667</ele><time>2026-04-03T13:35:05.999Z</time></trkpt><trkpt lat="45.510167414622295" lon="11.395679724769968"><ele>78.33333333333333</ele><time>2026-04-03T13:35:06.999Z</time></trkpt><trkpt lat="45.510099916901346" lon="11.395766397722136"><ele>78.0</ele><time>2026-04-03T13:35:07.999Z</time></trkpt><trkpt lat="45.51003304350015" lon="11.395863043127116"><ele>77.8</ele><time>2026-04-03T13:35:08.999Z</time></trkpt><trkpt lat="45.50996610154259" lon="11.395940348656259"><ele>77.6</ele><time>2026-04-03T13:35:09.999Z</time></trkpt><trkpt lat="45.509893913259276" lon="11.39603776002786"><ele>77.4</ele><time>2026-04-03T13:35:10.999Z</time></trkpt><trkpt lat="45.50982015716907" lon="11.396130884112779"><ele>77.2</ele><time>2026-04-03T13:35:11.999Z</time></trkpt><trkpt lat="45.50975643900201" lon="11.396220320294988"><ele>77.0</ele><time>2026-04-03T13:35:12.999Z</time></trkpt><trkpt lat="45.50969432570049" lon="11.396298365787517"><ele>77.2</ele><time>2026-04-03T13:35:13.999Z</time></trkpt><trkpt lat="45.50962829042719" lon="11.396389667168389"><ele>77.4</ele><time>2026-04-03T13:35:14.999Z</time></trkpt><trkpt lat="45.50955985800032" lon="11.396477669883778"><ele>77.6</ele><time>2026-04-03T13:35:15.999Z</time></trkpt><trkpt lat="45.509493535249895" lon="11.396568973894315"><ele>77.8</ele><time>2026-04-03T13:35:16.999Z</time></trkpt><trkpt lat="45.509423541749115" lon="11.396664740823734"><ele>78.0</ele><time>2026-04-03T13:35:17.999Z</time></trkpt><trkpt lat="45.50935180698196" lon="11.396757081131847"><ele>78.0</ele><time>2026-04-03T13:35:18.999Z</time></trkpt><trkpt lat="45.50928536646256" lon="11.396843469750111"><ele>78.0</ele><time>2026-04-03T13:35:19.999Z</time></trkpt><trkpt lat="45.509222372276874" lon="11.396926936762258"><ele>78.0</ele><time>2026-04-03T13:35:20.999Z</time></trkpt><trkpt lat="45.509150920810164" lon="11.396994737038915"><ele>78.0</ele><time>2026-04-03T13:35:21.999Z</time></trkpt><trkpt lat="45.5090685135033" lon="11.397013681921615"><ele>78.0</ele><time>2026-04-03T13:35:22.999Z</time></trkpt><trkpt lat="45.50899487105481" lon="11.397062042563771"><ele>78.0</ele><time>2026-04-03T13:35:23.999Z</time></trkpt><trkpt lat="45.508915854230686" lon="11.397090716406689"><ele>78.0</ele><time>2026-04-03T13:35:24.999Z</time></trkpt><trkpt lat="45.5088430736606" lon="11.397145770899717"><ele>78.0</ele><time>2026-04-03T13:35:25.999Z</time></trkpt><trkpt lat="45.50879013664585" lon="11.397217180809307"><ele>78.0</ele><time>2026-04-03T13:35:26.999Z</time></trkpt><trkpt lat="45.5087525856726" lon="11.397324273990984"><ele>78.0</ele><time>2026-04-03T13:35:27.999Z</time></trkpt><trkpt lat="45.50874308966803" lon="11.397445685560509"><ele>78.0</ele><time>2026-04-03T13:35:28.999Z</time></trkpt><trkpt lat="45.50873280573617" lon="11.39753836676268"><ele>78.0</ele><time>2026-04-03T13:35:29.999Z</time></trkpt><trkpt lat="45.50870252189081" lon="11.397617767204368"><ele>78.0</ele><time>2026-04-03T13:35:30.999Z</time></trkpt><trkpt lat="45.508639407456876" lon="11.397656577084112"><ele>78.0</ele><time>2026-04-03T13:35:31.999Z</time></trkpt><trkpt lat="45.50855900687129" lon="11.39776445023141"><ele>78.0</ele><time>2026-04-03T13:35:33.999Z</time></trkpt><trkpt lat="45.508500110108955" lon="11.39784347187769"><ele>78.0</ele><time>2026-04-03T13:35:34.999Z</time></trkpt><trkpt lat="45.50844090497967" lon="11.39792290705512"><ele>78.0</ele><time>2026-04-03T13:35:35.999Z</time></trkpt><trkpt lat="45.508386550787996" lon="11.397995300178904"><ele>78.0</ele><time>2026-04-03T13:35:36.999Z</time></trkpt><trkpt lat="45.50833427930271" lon="11.398064826099132"><ele>77.8</ele><time>2026-04-03T13:35:37.999Z</time></trkpt><trkpt lat="45.508285234449744" lon="11.398157914452796"><ele>77.6</ele><time>2026-04-03T13:35:38.999Z</time></trkpt><trkpt lat="45.5082174115503" lon="11.39821905900094"><ele>77.4</ele><time>2026-04-03T13:35:39.999Z</time></trkpt><trkpt lat="45.508155332240534" lon="11.398301250644325"><ele>77.2</ele><time>2026-04-03T13:35:40.999Z</time></trkpt><trkpt lat="45.5080781088434" lon="11.398401481431682"><ele>77.0</ele><time>2026-04-03T13:35:41.999Z</time></trkpt><trkpt lat="45.50798171049533" lon="11.398527428925208"><ele>76.75</ele><time>2026-04-03T13:35:42.999Z</time></trkpt><trkpt lat="45.507882220169215" lon="11.398657416038901"><ele>76.5</ele><time>2026-04-03T13:35:43.999Z</time></trkpt><trkpt lat="45.50779428211193" lon="11.398772309761684"><ele>76.25</ele><time>2026-04-03T13:35:44.999Z</time></trkpt><trkpt lat="45.507705586872476" lon="11.39888819311108"><ele>76.0</ele><time>2026-04-03T13:35:45.999Z</time></trkpt><trkpt lat="45.507627096735575" lon="11.398990743214531"><ele>76.0</ele><time>2026-04-03T13:35:46.999Z</time></trkpt><trkpt lat="45.50756473442564" lon="11.399098767551616"><ele>76.0</ele><time>2026-04-03T13:35:47.999Z</time></trkpt><trkpt lat="45.50749381288025" lon="11.399174019782349"><ele>76.0</ele><time>2026-04-03T13:35:48.999Z</time></trkpt><trkpt lat="45.50743390379485" lon="11.399225200934868"><ele>76.0</ele><time>2026-04-03T13:35:49.999Z</time></trkpt><trkpt lat="45.50730333730881" lon="11.39924467661194"><ele>76.0</ele><time>2026-04-03T13:35:51.999Z</time></trkpt><trkpt lat="45.507229540534" lon="11.399244522461348"><ele>76.0</ele><time>2026-04-03T13:35:52.998Z</time></trkpt><trkpt lat="45.50715721318717" lon="11.399286483500251"><ele>76.0</ele><time>2026-04-03T13:35:53.998Z</time></trkpt><trkpt lat="45.50711835021907" lon="11.399362212928022"><ele>76.0</ele><time>2026-04-03T13:35:54.998Z</time></trkpt><trkpt lat="45.507072044564964" lon="11.399454947696725"><ele>76.0</ele><time>2026-04-03T13:35:55.998Z</time></trkpt><trkpt lat="45.50709779032825" lon="11.399589088984412"><ele>76.0</ele><time>2026-04-03T13:35:56.998Z</time></trkpt><trkpt lat="45.50708139231709" lon="11.399711270710641"><ele>76.0</ele><time>2026-04-03T13:35:57.998Z</time></trkpt><trkpt lat="45.50702866314538" lon="11.399827458701436"><ele>75.6</ele><time>2026-04-03T13:35:58.998Z</time></trkpt><trkpt lat="45.5069530793209" lon="11.39993596387747"><ele>75.19999999999999</ele><time>2026-04-03T13:35:59.998Z</time></trkpt><trkpt lat="45.50687145074996" lon="11.400038255007372"><ele>74.80000000000001</ele><time>2026-04-03T13:36:00.998Z</time></trkpt><trkpt lat="45.50677250084071" lon="11.400131217064027"><ele>74.4</ele><time>2026-04-03T13:36:01.998Z</time></trkpt><trkpt lat="45.506695736313155" lon="11.400246420764933"><ele>74.0</ele><time>2026-04-03T13:36:02.998Z</time></trkpt><trkpt lat="45.50663630702186" lon="11.400388125131318"><ele>74.25</ele><time>2026-04-03T13:36:03.998Z</time></trkpt><trkpt lat="45.50656248804515" lon="11.400525101599335"><ele>74.5</ele><time>2026-04-03T13:36:04.998Z</time></trkpt><trkpt lat="45.506488845472255" lon="11.400680801009399"><ele>74.75</ele><time>2026-04-03T13:36:05.998Z</time></trkpt><trkpt lat="45.50642094655263" lon="11.400840113416468"><ele>75.0</ele><time>2026-04-03T13:36:06.998Z</time></trkpt><trkpt lat="45.5063592360721" lon="11.400995872390782"><ele>75.0</ele><time>2026-04-03T13:36:07.998Z</time></trkpt><trkpt lat="45.50630238214755" lon="11.40114356179034"><ele>75.0</ele><time>2026-04-03T13:36:08.998Z</time></trkpt><trkpt lat="45.50624894840621" lon="11.401288270317972"><ele>75.0</ele><time>2026-04-03T13:36:09.998Z</time></trkpt><trkpt lat="45.50619963564001" lon="11.401430643367911"><ele>75.0</ele><time>2026-04-03T13:36:10.998Z</time></trkpt><trkpt lat="45.506150137079956" lon="11.401575126525263"><ele>75.0</ele><time>2026-04-03T13:36:11.998Z</time></trkpt><trkpt lat="45.506097911458944" lon="11.401723811440679"><ele>75.0</ele><time>2026-04-03T13:36:12.998Z</time></trkpt><trkpt lat="45.506050103192344" lon="11.401873929200677"><ele>75.0</ele><time>2026-04-03T13:36:13.998Z</time></trkpt><trkpt lat="45.50599934929887" lon="11.402021225438306"><ele>75.0</ele><time>2026-04-03T13:36:15Z</time></trkpt><trkpt lat="45.505952920520016" lon="11.402172098244678"><ele>75.0</ele><time>2026-04-03T13:36:16Z</time></trkpt><trkpt lat="45.505898869652064" lon="11.40231769402264"><ele>75.0</ele><time>2026-04-03T13:36:17Z</time></trkpt><trkpt lat="45.50585330061636" lon="11.402444186769085"><ele>75.0</ele><time>2026-04-03T13:36:18Z</time></trkpt><trkpt lat="45.50580792761456" lon="11.402561095682396"><ele>75.0</ele><time>2026-04-03T13:36:19Z</time></trkpt><trkpt lat="45.50577004598125" lon="11.402668628598226"><ele>75.0</ele><time>2026-04-03T13:36:20Z</time></trkpt><trkpt lat="45.50573537287824" lon="11.402771160364054"><ele>75.0</ele><time>2026-04-03T13:36:21Z</time></trkpt><trkpt lat="45.50569518920727" lon="11.402871965396399"><ele>75.0</ele><time>2026-04-03T13:36:22Z</time></trkpt><trkpt lat="45.50565938899936" lon="11.40298155803877"><ele>75.0</ele><time>2026-04-03T13:36:23Z</time></trkpt><trkpt lat="45.505622861777795" lon="11.403080731311332"><ele>75.0</ele><time>2026-04-03T13:36:24Z</time></trkpt><trkpt lat="45.50558405245533" lon="11.40318128911047"><ele>75.0</ele><time>2026-04-03T13:36:25Z</time></trkpt><trkpt lat="45.5055497121004" lon="11.4032848850307"><ele>75.0</ele><time>2026-04-03T13:36:26Z</time></trkpt><trkpt lat="45.50551544817544" lon="11.403383719820459"><ele>74.83333333333333</ele><time>2026-04-03T13:36:27Z</time></trkpt><trkpt lat="45.50548053855441" lon="11.403474669210654"><ele>74.66666666666667</ele><time>2026-04-03T13:36:28Z</time></trkpt><trkpt lat="45.50544990222548" lon="11.403563904336806"><ele>74.5</ele><time>2026-04-03T13:36:29Z</time></trkpt><trkpt lat="45.50541857360836" lon="11.403648913785396"><ele>74.33333333333334</ele><time>2026-04-03T13:36:30Z</time></trkpt><trkpt lat="45.505366609805" lon="11.403781757360946"><ele>74.16666666666667</ele><time>2026-04-03T13:36:32Z</time></trkpt><trkpt lat="45.50531038133799" lon="11.403908916786587"><ele>74.0</ele><time>2026-04-03T13:36:34Z</time></trkpt><trkpt lat="45.50527846359248" lon="11.404001025697575"><ele>74.0</ele><time>2026-04-03T13:36:35Z</time></trkpt><trkpt lat="45.5052449247608" lon="11.404097812812639"><ele>74.0</ele><time>2026-04-03T13:36:36Z</time></trkpt><trkpt lat="45.50520882871019" lon="11.404201979434655"><ele>74.0</ele><time>2026-04-03T13:36:37Z</time></trkpt><trkpt lat="45.505170457683555" lon="11.40431271141034"><ele>74.0</ele><time>2026-04-03T13:36:38Z</time></trkpt><trkpt lat="45.50513127014851" lon="11.404425799490452"><ele>74.0</ele><time>2026-04-03T13:36:39Z</time></trkpt><trkpt lat="45.50509469477406" lon="11.404529289510306"><ele>74.0</ele><time>2026-04-03T13:36:40Z</time></trkpt><trkpt lat="45.50506198268249" lon="11.4046178663624"><ele>73.60000000000001</ele><time>2026-04-03T13:36:41Z</time></trkpt><trkpt lat="45.50501681218225" lon="11.404769316892716"><ele>73.2</ele><time>2026-04-03T13:36:43Z</time></trkpt><trkpt lat="45.50495332615424" lon="11.404934537030828"><ele>72.80000000000001</ele><time>2026-04-03T13:36:45Z</time></trkpt><trkpt lat="45.504907671034005" lon="11.405025141413324"><ele>72.4</ele><time>2026-04-03T13:36:46Z</time></trkpt><trkpt lat="45.50485717460739" lon="11.405121565330065"><ele>72.0</ele><time>2026-04-03T13:36:47Z</time></trkpt><trkpt lat="45.50480129576446" lon="11.405237080552691"><ele>72.0</ele><time>2026-04-03T13:36:48Z</time></trkpt><trkpt lat="45.50474010795078" lon="11.405351721219944"><ele>72.0</ele><time>2026-04-03T13:36:49Z</time></trkpt><trkpt lat="45.50468193521748" lon="11.405478060922992"><ele>72.0</ele><time>2026-04-03T13:36:50Z</time></trkpt><trkpt lat="45.50462550302268" lon="11.405591191293412"><ele>72.0</ele><time>2026-04-03T13:36:51Z</time></trkpt><trkpt lat="45.504554212681775" lon="11.405708079870925"><ele>72.0</ele><time>2026-04-03T13:36:52Z</time></trkpt><trkpt lat="45.504490800453794" lon="11.405827858360903"><ele>72.0</ele><time>2026-04-03T13:36:53Z</time></trkpt><trkpt lat="45.504418576088916" lon="11.405953735101173"><ele>72.0</ele><time>2026-04-03T13:36:54Z</time></trkpt><trkpt lat="45.50435098275533" lon="11.406072572568181"><ele>72.0</ele><time>2026-04-03T13:36:55Z</time></trkpt><trkpt lat="45.50428262808359" lon="11.40618547949781"><ele>72.0</ele><time>2026-04-03T13:36:55.999Z</time></trkpt><trkpt lat="45.50420879733569" lon="11.406306079425912"><ele>72.0</ele><time>2026-04-03T13:36:56.999Z</time></trkpt><trkpt lat="45.50413054782703" lon="11.40644365684412"><ele>71.75</ele><time>2026-04-03T13:36:57.999Z</time></trkpt><trkpt lat="45.50404986049051" lon="11.406586513649405"><ele>71.5</ele><time>2026-04-03T13:36:58.999Z</time></trkpt><trkpt lat="45.50396499922766" lon="11.406744530219417"><ele>71.25</ele><time>2026-04-03T13:36:59.999Z</time></trkpt><trkpt lat="45.50387670163794" lon="11.406905607903694"><ele>71.0</ele><time>2026-04-03T13:37:00.999Z</time></trkpt><trkpt lat="45.50378704814076" lon="11.407070022222568"><ele>70.66666666666667</ele><time>2026-04-03T13:37:01.999Z</time></trkpt><trkpt lat="45.50369124332188" lon="11.40725815014675"><ele>70.33333333333333</ele><time>2026-04-03T13:37:02.999Z</time></trkpt><trkpt lat="45.5035972496432" lon="11.407433787336062"><ele>70.0</ele><time>2026-04-03T13:37:03.999Z</time></trkpt><trkpt lat="45.50350871731297" lon="11.40759189121515"><ele>70.0</ele><time>2026-04-03T13:37:04.999Z</time></trkpt><trkpt lat="45.5034126412713" lon="11.407750756430008"><ele>70.0</ele><time>2026-04-03T13:37:05.999Z</time></trkpt><trkpt lat="45.50332357808993" lon="11.407909764849494"><ele>70.0</ele><time>2026-04-03T13:37:06.999Z</time></trkpt><trkpt lat="45.50324129789517" lon="11.408048525647056"><ele>70.0</ele><time>2026-04-03T13:37:07.999Z</time></trkpt><trkpt lat="45.50317674737821" lon="11.40816103942665"><ele>70.2</ele><time>2026-04-03T13:37:08.999Z</time></trkpt><trkpt lat="45.503118895341935" lon="11.40826375494333"><ele>70.4</ele><time>2026-04-03T13:37:09.999Z</time></trkpt><trkpt lat="45.50306577630821" lon="11.408353655871727"><ele>70.6</ele><time>2026-04-03T13:37:10.999Z</time></trkpt><trkpt lat="45.50302604146837" lon="11.408424800098423"><ele>70.8</ele><time>2026-04-03T13:37:11.999Z</time></trkpt><trkpt lat="45.50295602389368" lon="11.40854991554598"><ele>71.0</ele><time>2026-04-03T13:37:13.999Z</time></trkpt><trkpt lat="45.50288629102004" lon="11.408672124636224"><ele>70.83333333333334</ele><time>2026-04-03T13:37:15.999Z</time></trkpt><trkpt lat="45.5028458420815" lon="11.40875564967364"><ele>70.66666666666667</ele><time>2026-04-03T13:37:16.999Z</time></trkpt><trkpt lat="45.50279957823678" lon="11.408850535676022"><ele>70.5</ele><time>2026-04-03T13:37:17.999Z</time></trkpt><trkpt lat="45.50274622710093" lon="11.408954817901572"><ele>70.33333333333333</ele><time>2026-04-03T13:37:18.999Z</time></trkpt><trkpt lat="45.50269645736375" lon="11.409073818582959"><ele>70.16666666666666</ele><time>2026-04-03T13:37:19.999Z</time></trkpt><trkpt lat="45.502645907009615" lon="11.409169124394857"><ele>70.0</ele><time>2026-04-03T13:37:20.999Z</time></trkpt><trkpt lat="45.50259302648929" lon="11.409278421454301"><ele>70.0</ele><time>2026-04-03T13:37:21.999Z</time></trkpt><trkpt lat="45.50253743124663" lon="11.409397289839168"><ele>70.0</ele><time>2026-04-03T13:37:22.999Z</time></trkpt><trkpt lat="45.502488978950986" lon="11.409514472650967"><ele>70.0</ele><time>2026-04-03T13:37:23.999Z</time></trkpt><trkpt lat="45.502437753385756" lon="11.409615924287518"><ele>70.0</ele><time>2026-04-03T13:37:24.999Z</time></trkpt><trkpt lat="45.502397667118395" lon="11.40970101702841"><ele>70.0</ele><time>2026-04-03T13:37:25.999Z</time></trkpt><trkpt lat="45.50234247086341" lon="11.409824162451873"><ele>69.83333333333333</ele><time>2026-04-03T13:37:27.999Z</time></trkpt><trkpt lat="45.502297440559026" lon="11.409927367638046"><ele>69.66666666666666</ele><time>2026-04-03T13:37:29.999Z</time></trkpt><trkpt lat="45.50226213032864" lon="11.410009658149729"><ele>69.5</ele><time>2026-04-03T13:37:31.999Z</time></trkpt><trkpt lat="45.50223216377837" lon="11.410109741941067"><ele>69.33333333333333</ele><time>2026-04-03T13:37:33.999Z</time></trkpt><trkpt lat="45.502226987424834" lon="11.410230981038735"><ele>69.16666666666667</ele><time>2026-04-03T13:37:35.999Z</time></trkpt><trkpt lat="45.50217546116876" lon="11.410300206987502"><ele>69.0</ele><time>2026-04-03T13:37:36.999Z</time></trkpt><trkpt lat="45.50213093048332" lon="11.410393382787507"><ele>69.0</ele><time>2026-04-03T13:37:37.999Z</time></trkpt><trkpt lat="45.50208987164278" lon="11.410489895033793"><ele>69.0</ele><time>2026-04-03T13:37:38.999Z</time></trkpt><trkpt lat="45.5020521656195" lon="11.410592528319942"><ele>69.0</ele><time>2026-04-03T13:37:39.999Z</time></trkpt><trkpt lat="45.50201186881323" lon="11.410706917524767"><ele>69.0</ele><time>2026-04-03T13:37:40.999Z</time></trkpt><trkpt lat="45.50197147689549" lon="11.410817255088306"><ele>69.0</ele><time>2026-04-03T13:37:41.999Z</time></trkpt><trkpt lat="45.50192974501274" lon="11.410931237464705"><ele>69.0</ele><time>2026-04-03T13:37:42.999Z</time></trkpt><trkpt lat="45.5018860363284" lon="11.411052723707154"><ele>69.0</ele><time>2026-04-03T13:37:43.999Z</time></trkpt><trkpt lat="45.50184408971186" lon="11.411200833190026"><ele>69.0</ele><time>2026-04-03T13:37:44.999Z</time></trkpt><trkpt lat="45.50177073586427" lon="11.411358977583976"><ele>69.0</ele><time>2026-04-03T13:37:45.999Z</time></trkpt><trkpt lat="45.501712318601555" lon="11.411543448514903"><ele>69.0</ele><time>2026-04-03T13:37:46.999Z</time></trkpt><trkpt lat="45.5016328866864" lon="11.41173695941647"><ele>69.0</ele><time>2026-04-03T13:37:47.999Z</time></trkpt><trkpt lat="45.501554358900165" lon="11.411948578387314"><ele>69.0</ele><time>2026-04-03T13:37:48.999Z</time></trkpt><trkpt lat="45.50147572906601" lon="11.412172725228354"><ele>69.0</ele><time>2026-04-03T13:37:49.999Z</time></trkpt><trkpt lat="45.50139535276963" lon="11.412403968594251"><ele>69.0</ele><time>2026-04-03T13:37:50.999Z</time></trkpt><trkpt lat="45.50131587794362" lon="11.412628658070568"><ele>69.0</ele><time>2026-04-03T13:37:51.999Z</time></trkpt><trkpt lat="45.50123722555327" lon="11.412847305158955"><ele>69.0</ele><time>2026-04-03T13:37:52.999Z</time></trkpt><trkpt lat="45.501160687189895" lon="11.413055060463751"><ele>68.75</ele><time>2026-04-03T13:37:53.999Z</time></trkpt><trkpt lat="45.50109217709915" lon="11.413255270653853"><ele>68.5</ele><time>2026-04-03T13:37:54.999Z</time></trkpt><trkpt lat="45.50102497360432" lon="11.413446351597031"><ele>68.25</ele><time>2026-04-03T13:37:55.999Z</time></trkpt><trkpt lat="45.50096058553868" lon="11.413622245252638"><ele>68.0</ele><time>2026-04-03T13:37:56.998Z</time></trkpt><trkpt lat="45.500900985175626" lon="11.413786757358286"><ele>67.75</ele><time>2026-04-03T13:37:57.998Z</time></trkpt><trkpt lat="45.500837075588514" lon="11.413951555728104"><ele>67.5</ele><time>2026-04-03T13:37:58.998Z</time></trkpt><trkpt lat="45.50077913618592" lon="11.414113752182617"><ele>67.25</ele><time>2026-04-03T13:37:59.998Z</time></trkpt><trkpt lat="45.50072053940714" lon="11.41427517676702"><ele>67.0</ele><time>2026-04-03T13:38:00.998Z</time></trkpt><trkpt lat="45.50066748594758" lon="11.414423931300284"><ele>67.0</ele><time>2026-04-03T13:38:01.998Z</time></trkpt><trkpt lat="45.50061478990007" lon="11.41457916468747"><ele>67.0</ele><time>2026-04-03T13:38:02.998Z</time></trkpt><trkpt lat="45.50055291027494" lon="11.414742693156999"><ele>67.0</ele><time>2026-04-03T13:38:03.998Z</time></trkpt><trkpt lat="45.50049121805363" lon="11.414913089311419"><ele>67.0</ele><time>2026-04-03T13:38:04.998Z</time></trkpt><trkpt lat="45.50042843391187" lon="11.415098742522002"><ele>67.0</ele><time>2026-04-03T13:38:05.998Z</time></trkpt><trkpt lat="45.50037324940924" lon="11.415277263228809"><ele>67.0</ele><time>2026-04-03T13:38:06.998Z</time></trkpt><trkpt lat="45.500309820101435" lon="11.415462195673962"><ele>67.0</ele><time>2026-04-03T13:38:07.998Z</time></trkpt><trkpt lat="45.50024835022954" lon="11.415631738637764"><ele>67.0</ele><time>2026-04-03T13:38:08.998Z</time></trkpt><trkpt lat="45.50018697949408" lon="11.415821567191198"><ele>67.33333333333333</ele><time>2026-04-03T13:38:09.998Z</time></trkpt><trkpt lat="45.50009947592393" lon="11.416043233324475"><ele>67.66666666666667</ele><time>2026-04-03T13:38:10.998Z</time></trkpt><trkpt lat="45.500018680897334" lon="11.416267455976435"><ele>68.0</ele><time>2026-04-03T13:38:11.998Z</time></trkpt><trkpt lat="45.49994614454016" lon="11.416501068737723"><ele>67.33333333333334</ele><time>2026-04-03T13:38:12.998Z</time></trkpt><trkpt lat="45.49986910029795" lon="11.41672091976152"><ele>66.66666666666667</ele><time>2026-04-03T13:38:13.998Z</time></trkpt><trkpt lat="45.49979452393139" lon="11.416920327881284"><ele>66.0</ele><time>2026-04-03T13:38:14.998Z</time></trkpt><trkpt lat="45.49972782456559" lon="11.417101361188127"><ele>66.0</ele><time>2026-04-03T13:38:15.998Z</time></trkpt><trkpt lat="45.49966097654551" lon="11.417279564318862"><ele>66.0</ele><time>2026-04-03T13:38:16.998Z</time></trkpt><trkpt lat="45.49960113529289" lon="11.417440721114994"><ele>66.0</ele><time>2026-04-03T13:38:17.998Z</time></trkpt><trkpt lat="45.49954866191314" lon="11.417584850562722"><ele>66.0</ele><time>2026-04-03T13:38:18.998Z</time></trkpt><trkpt lat="45.499501330836445" lon="11.417713082233591"><ele>66.0</ele><time>2026-04-03T13:38:19.998Z</time></trkpt><trkpt lat="45.49945896796559" lon="11.41781783168229"><ele>66.0</ele><time>2026-04-03T13:38:21Z</time></trkpt><trkpt lat="45.49942455963565" lon="11.417901584854144"><ele>66.0</ele><time>2026-04-03T13:38:22Z</time></trkpt><trkpt lat="45.49938778118568" lon="11.4179805882635"><ele>66.0</ele><time>2026-04-03T13:38:23Z</time></trkpt><trkpt lat="45.49929927252975" lon="11.418117594820234"><ele>66.0</ele><time>2026-04-03T13:38:25Z</time></trkpt><trkpt lat="45.49925821856235" lon="11.418210626897384"><ele>66.0</ele><time>2026-04-03T13:38:26Z</time></trkpt><trkpt lat="45.49923886634883" lon="11.418344495032276"><ele>66.0</ele><time>2026-04-03T13:38:27Z</time></trkpt><trkpt lat="45.49922265678851" lon="11.418494904078356"><ele>66.0</ele><time>2026-04-03T13:38:28Z</time></trkpt><trkpt lat="45.499176243011945" lon="11.418660503141153"><ele>66.0</ele><time>2026-04-03T13:38:29Z</time></trkpt><trkpt lat="45.49911360884299" lon="11.418825997665246"><ele>66.0</ele><time>2026-04-03T13:38:30Z</time></trkpt><trkpt lat="45.49905501009275" lon="11.418987277669391"><ele>66.0</ele><time>2026-04-03T13:38:31Z</time></trkpt><trkpt lat="45.49900245123122" lon="11.419142146524262"><ele>66.0</ele><time>2026-04-03T13:38:32Z</time></trkpt><trkpt lat="45.49894593585486" lon="11.419301656244626"><ele>66.0</ele><time>2026-04-03T13:38:33Z</time></trkpt><trkpt lat="45.49889144624412" lon="11.419472038100691"><ele>66.0</ele><time>2026-04-03T13:38:34Z</time></trkpt><trkpt lat="45.49883681589797" lon="11.419638947708538"><ele>66.0</ele><time>2026-04-03T13:38:35Z</time></trkpt><trkpt lat="45.49877623710286" lon="11.419823520955196"><ele>66.0</ele><time>2026-04-03T13:38:36Z</time></trkpt><trkpt lat="45.49870480104101" lon="11.42003650957148"><ele>66.0</ele><time>2026-04-03T13:38:37Z</time></trkpt><trkpt lat="45.498629736903155" lon="11.420256926700684"><ele>65.33333333333333</ele><time>2026-04-03T13:38:38Z</time></trkpt><trkpt lat="45.49854878776528" lon="11.420470787120955"><ele>64.66666666666666</ele><time>2026-04-03T13:38:39Z</time></trkpt><trkpt lat="45.49848141337792" lon="11.420661418715834"><ele>64.0</ele><time>2026-04-03T13:38:40Z</time></trkpt><trkpt lat="45.49840944656034" lon="11.420835418871071"><ele>63.800000000000004</ele><time>2026-04-03T13:38:41Z</time></trkpt><trkpt lat="45.49834697464555" lon="11.421003273735895"><ele>63.60000000000001</ele><time>2026-04-03T13:38:42Z</time></trkpt><trkpt lat="45.49829039853886" lon="11.421149684744824"><ele>63.4</ele><time>2026-04-03T13:38:43Z</time></trkpt><trkpt lat="45.49824540720919" lon="11.421265301444281"><ele>63.2</ele><time>2026-04-03T13:38:44Z</time></trkpt><trkpt lat="45.4982000439914" lon="11.421366100833204"><ele>63.0</ele><time>2026-04-03T13:38:45Z</time></trkpt><trkpt lat="45.49815030089142" lon="11.42144795719934"><ele>62.8</ele><time>2026-04-03T13:38:46Z</time></trkpt><trkpt lat="45.49809144448008" lon="11.421535476485438"><ele>62.599999999999994</ele><time>2026-04-03T13:38:47Z</time></trkpt><trkpt lat="45.498017541544584" lon="11.421632258565964"><ele>62.400000000000006</ele><time>2026-04-03T13:38:48Z</time></trkpt><trkpt lat="45.49799843372712" lon="11.421812452308968"><ele>62.2</ele><time>2026-04-03T13:38:49Z</time></trkpt><trkpt lat="45.49797272372233" lon="11.421993934439339"><ele>62.0</ele><time>2026-04-03T13:38:50Z</time></trkpt><trkpt lat="45.49792896686038" lon="11.422183917002522"><ele>61.75</ele><time>2026-04-03T13:38:51Z</time></trkpt><trkpt lat="45.49786173927201" lon="11.422379086653812"><ele>61.5</ele><time>2026-04-03T13:38:52Z</time></trkpt><trkpt lat="45.497797200267534" lon="11.422562638545822"><ele>61.25</ele><time>2026-04-03T13:38:53Z</time></trkpt><trkpt lat="45.49774116373281" lon="11.42273060986199"><ele>61.0</ele><time>2026-04-03T13:38:54Z</time></trkpt><trkpt lat="45.49769043345118" lon="11.422880611063647"><ele>61.5</ele><time>2026-04-03T13:38:55Z</time></trkpt><trkpt lat="45.497645549259275" lon="11.423013870818856"><ele>62.0</ele><time>2026-04-03T13:38:56Z</time></trkpt><trkpt lat="45.497592844619454" lon="11.423170732737619"><ele>62.5</ele><time>2026-04-03T13:38:56.999Z</time></trkpt><trkpt lat="45.49751979046902" lon="11.423376686402811"><ele>63.0</ele><time>2026-04-03T13:38:57.999Z</time></trkpt><trkpt lat="45.49743268762783" lon="11.42361546761965"><ele>63.0</ele><time>2026-04-03T13:38:58.999Z</time></trkpt><trkpt lat="45.49733479957711" lon="11.423881214527439"><ele>63.0</ele><time>2026-04-03T13:38:59.999Z</time></trkpt><trkpt lat="45.49723777248022" lon="11.424113154856116"><ele>63.0</ele><time>2026-04-03T13:39:00.999Z</time></trkpt><trkpt lat="45.49714480683319" lon="11.424342798412273"><ele>63.0</ele><time>2026-04-03T13:39:01.999Z</time></trkpt><trkpt lat="45.49706144675944" lon="11.424572384962746"><ele>63.0</ele><time>2026-04-03T13:39:02.999Z</time></trkpt><trkpt lat="45.496978959568445" lon="11.424812163470161"><ele>63.0</ele><time>2026-04-03T13:39:03.999Z</time></trkpt><trkpt lat="45.49689968108635" lon="11.425040072330315"><ele>63.0</ele><time>2026-04-03T13:39:04.999Z</time></trkpt><trkpt lat="45.496822232001186" lon="11.425260990841474"><ele>63.0</ele><time>2026-04-03T13:39:05.999Z</time></trkpt><trkpt lat="45.496744688271214" lon="11.425478143633558"><ele>63.0</ele><time>2026-04-03T13:39:06.999Z</time></trkpt><trkpt lat="45.49665980657559" lon="11.425705158546373"><ele>62.0</ele><time>2026-04-03T13:39:07.999Z</time></trkpt><trkpt lat="45.49657191072011" lon="11.425942827326558"><ele>61.0</ele><time>2026-04-03T13:39:08.999Z</time></trkpt><trkpt lat="45.49649237872644" lon="11.426171476630419"><ele>60.0</ele><time>2026-04-03T13:39:09.999Z</time></trkpt><trkpt lat="45.4964032116843" lon="11.426416475148843"><ele>59.66666666666667</ele><time>2026-04-03T13:39:10.999Z</time></trkpt><trkpt lat="45.496273870318014" lon="11.426760146376179"><ele>59.333333333333336</ele><time>2026-04-03T13:39:11.999Z</time></trkpt><trkpt lat="45.49624197689925" lon="11.426852792589417"><ele>59.0</ele><time>2026-04-03T13:39:12.999Z</time></trkpt><trkpt lat="45.496166347773624" lon="11.427082147507695"><ele>59.333333333333336</ele><time>2026-04-03T13:39:13.999Z</time></trkpt><trkpt lat="45.49608667854405" lon="11.427303285340423"><ele>59.66666666666667</ele><time>2026-04-03T13:39:14.999Z</time></trkpt><trkpt lat="45.49601601687657" lon="11.42753448521859"><ele>60.0</ele><time>2026-04-03T13:39:15.999Z</time></trkpt><trkpt lat="45.49594122194758" lon="11.427753243039525"><ele>60.0</ele><time>2026-04-03T13:39:16.999Z</time></trkpt><trkpt lat="45.49586637643673" lon="11.427964199923222"><ele>60.0</ele><time>2026-04-03T13:39:17.999Z</time></trkpt><trkpt lat="45.495788950504306" lon="11.428168485368584"><ele>60.0</ele><time>2026-04-03T13:39:18.999Z</time></trkpt><trkpt lat="45.49572170839344" lon="11.42835795139962"><ele>60.0</ele><time>2026-04-03T13:39:19.999Z</time></trkpt><trkpt lat="45.49565954227182" lon="11.428520822259175"><ele>60.0</ele><time>2026-04-03T13:39:20.999Z</time></trkpt><trkpt lat="45.49560905789426" lon="11.428656111035803"><ele>60.0</ele><time>2026-04-03T13:39:21.999Z</time></trkpt><trkpt lat="45.49555356762363" lon="11.428794927841802"><ele>60.0</ele><time>2026-04-03T13:39:22.999Z</time></trkpt><trkpt lat="45.495495353787724" lon="11.428961888558192"><ele>60.0</ele><time>2026-04-03T13:39:23.999Z</time></trkpt><trkpt lat="45.49543021804225" lon="11.42914388856006"><ele>60.0</ele><time>2026-04-03T13:39:24.999Z</time></trkpt><trkpt lat="45.49536452600599" lon="11.429329858793066"><ele>60.0</ele><time>2026-04-03T13:39:25.999Z</time></trkpt><trkpt lat="45.49529963159257" lon="11.429506656117479"><ele>60.0</ele><time>2026-04-03T13:39:26.999Z</time></trkpt><trkpt lat="45.49523398009562" lon="11.429668373540071"><ele>60.0</ele><time>2026-04-03T13:39:27.999Z</time></trkpt><trkpt lat="45.49517403585163" lon="11.429821235996586"><ele>60.0</ele><time>2026-04-03T13:39:28.999Z</time></trkpt><trkpt lat="45.495115194291664" lon="11.429966790674719"><ele>60.0</ele><time>2026-04-03T13:39:29.999Z</time></trkpt><trkpt lat="45.49505995024636" lon="11.430093090212193"><ele>60.0</ele><time>2026-04-03T13:39:30.999Z</time></trkpt><trkpt lat="45.495003078030685" lon="11.430204516646027"><ele>60.0</ele><time>2026-04-03T13:39:31.999Z</time></trkpt><trkpt lat="45.494947285029" lon="11.430301743782154"><ele>60.0</ele><time>2026-04-03T13:39:32.999Z</time></trkpt><trkpt lat="45.49490255666233" lon="11.430383104231195"><ele>60.0</ele><time>2026-04-03T13:39:33.999Z</time></trkpt><trkpt lat="45.494856113848236" lon="11.430483890961614"><ele>60.0</ele><time>2026-04-03T13:39:35.999Z</time></trkpt><trkpt lat="45.49480828545768" lon="11.430559297953723"><ele>60.0</ele><time>2026-04-03T13:39:39.999Z</time></trkpt><trkpt lat="45.49472549869622" lon="11.430622648320083"><ele>60.0</ele><time>2026-04-03T13:39:48.999Z</time></trkpt><trkpt lat="45.49465644895803" lon="11.430653074263777"><ele>60.0</ele><time>2026-04-03T13:39:49.999Z</time></trkpt><trkpt lat="45.49458846620008" lon="11.430691592259732"><ele>59.833333333333336</ele><time>2026-04-03T13:39:50.999Z</time></trkpt><trkpt lat="45.494532700240654" lon="11.430785735023525"><ele>59.66666666666667</ele><time>2026-04-03T13:39:51.999Z</time></trkpt><trkpt lat="45.494512303521034" lon="11.430885007758981"><ele>59.5</ele><time>2026-04-03T13:39:52.999Z</time></trkpt><trkpt lat="45.49451111500504" lon="11.430992030465745"><ele>59.333333333333336</ele><time>2026-04-03T13:39:53.999Z</time></trkpt><trkpt lat="45.49453777460114" lon="11.431093836518711"><ele>59.16666666666667</ele><time>2026-04-03T13:39:54.999Z</time></trkpt><trkpt lat="45.49450682002184" lon="11.431233766453323"><ele>59.0</ele><time>2026-04-03T13:39:55.999Z</time></trkpt><trkpt lat="45.49446493134948" lon="11.43135779194649"><ele>59.0</ele><time>2026-04-03T13:39:56.999Z</time></trkpt><trkpt lat="45.49440198732053" lon="11.431475814943596"><ele>59.00000000000001</ele><time>2026-04-03T13:39:57.999Z</time></trkpt><trkpt lat="45.49433483365894" lon="11.43160356077527"><ele>59.00000000000001</ele><time>2026-04-03T13:39:58.999Z</time></trkpt><trkpt lat="45.494281508921794" lon="11.431724361392515"><ele>59.0</ele><time>2026-04-03T13:39:59.999Z</time></trkpt><trkpt lat="45.494234552993724" lon="11.43183623550365"><ele>59.0</ele><time>2026-04-03T13:40:00.999Z</time></trkpt><trkpt lat="45.49419193349628" lon="11.431931263726726"><ele>59.0</ele><time>2026-04-03T13:40:01.999Z</time></trkpt><trkpt lat="45.49414775503212" lon="11.432026405198222"><ele>59.00000000000001</ele><time>2026-04-03T13:40:02.999Z</time></trkpt><trkpt lat="45.49409453932431" lon="11.432126111751307"><ele>59.00000000000001</ele><time>2026-04-03T13:40:03.998Z</time></trkpt><trkpt lat="45.4940302059932" lon="11.432230098386649"><ele>59.0</ele><time>2026-04-03T13:40:04.998Z</time></trkpt><trkpt lat="45.49396025380463" lon="11.43233645787464"><ele>59.0</ele><time>2026-04-03T13:40:05.998Z</time></trkpt><trkpt lat="45.49388857817503" lon="11.432438255216606"><ele>59.0</ele><time>2026-04-03T13:40:06.998Z</time></trkpt><trkpt lat="45.493810241877796" lon="11.432544882091296"><ele>59.00000000000001</ele><time>2026-04-03T13:40:07.998Z</time></trkpt><trkpt lat="45.49373297694168" lon="11.43264603359687"><ele>59.00000000000001</ele><time>2026-04-03T13:40:08.998Z</time></trkpt><trkpt lat="45.493658061616806" lon="11.432746624618416"><ele>59.0</ele><time>2026-04-03T13:40:09.998Z</time></trkpt><trkpt lat="45.49358069869027" lon="11.43285024521148"><ele>59.0</ele><time>2026-04-03T13:40:10.998Z</time></trkpt><trkpt lat="45.49350286134531" lon="11.43295171560898"><ele>58.6</ele><time>2026-04-03T13:40:11.998Z</time></trkpt><trkpt lat="45.49342573419728" lon="11.433039430844191"><ele>58.2</ele><time>2026-04-03T13:40:12.998Z</time></trkpt><trkpt lat="45.49334755230246" lon="11.433128699158612"><ele>57.800000000000004</ele><time>2026-04-03T13:40:13.998Z</time></trkpt><trkpt lat="45.49326433885498" lon="11.433217170325618"><ele>57.400000000000006</ele><time>2026-04-03T13:40:14.998Z</time></trkpt><trkpt lat="45.49318489598187" lon="11.433312775944973"><ele>57.0</ele><time>2026-04-03T13:40:15.998Z</time></trkpt><trkpt lat="45.49309458294721" lon="11.433402957614808"><ele>57.0</ele><time>2026-04-03T13:40:16.998Z</time></trkpt><trkpt lat="45.49301113943005" lon="11.433489352469879"><ele>57.0</ele><time>2026-04-03T13:40:17.998Z</time></trkpt><trkpt lat="45.49292420460385" lon="11.433582373721135"><ele>57.0</ele><time>2026-04-03T13:40:18.998Z</time></trkpt><trkpt lat="45.4928385188663" lon="11.433675664527819"><ele>57.0</ele><time>2026-04-03T13:40:19.998Z</time></trkpt><trkpt lat="45.49274070187953" lon="11.43373981391215"><ele>57.0</ele><time>2026-04-03T13:40:20.998Z</time></trkpt><trkpt lat="45.49264650965847" lon="11.433822838779856"><ele>56.75</ele><time>2026-04-03T13:40:21.998Z</time></trkpt><trkpt lat="45.49254735448551" lon="11.433913573707999"><ele>56.5</ele><time>2026-04-03T13:40:22.998Z</time></trkpt><trkpt lat="45.492446018264005" lon="11.434031534102498"><ele>56.25</ele><time>2026-04-03T13:40:23.998Z</time></trkpt><trkpt lat="45.492325080211764" lon="11.434111906691442"><ele>56.0</ele><time>2026-04-03T13:40:24.998Z</time></trkpt><trkpt lat="45.492211832490504" lon="11.4342124121205"><ele>56.0</ele><time>2026-04-03T13:40:25.998Z</time></trkpt><trkpt lat="45.4921047451858" lon="11.434336080200124"><ele>56.0</ele><time>2026-04-03T13:40:27Z</time></trkpt><trkpt lat="45.491986553202786" lon="11.434444325898735"><ele>56.0</ele><time>2026-04-03T13:40:28Z</time></trkpt><trkpt lat="45.491868258268205" lon="11.43456809220571"><ele>56.0</ele><time>2026-04-03T13:40:29Z</time></trkpt><trkpt lat="45.49175221585683" lon="11.434705459424547"><ele>56.0</ele><time>2026-04-03T13:40:30Z</time></trkpt><trkpt lat="45.49163500562258" lon="11.434852202009763"><ele>56.0</ele><time>2026-04-03T13:40:31Z</time></trkpt><trkpt lat="45.491510850961305" lon="11.435009917121324"><ele>56.0</ele><time>2026-04-03T13:40:32Z</time></trkpt><trkpt lat="45.491394775394355" lon="11.435165766623795"><ele>56.0</ele><time>2026-04-03T13:40:33Z</time></trkpt><trkpt lat="45.491278225837625" lon="11.435318245073896"><ele>56.0</ele><time>2026-04-03T13:40:34Z</time></trkpt><trkpt lat="45.49116633811123" lon="11.435455989450501"><ele>56.0</ele><time>2026-04-03T13:40:35Z</time></trkpt><trkpt lat="45.49106128617143" lon="11.435589051695462"><ele>56.0</ele><time>2026-04-03T13:40:36Z</time></trkpt><trkpt lat="45.490946274541244" lon="11.435692840622979"><ele>56.0</ele><time>2026-04-03T13:40:37Z</time></trkpt><trkpt lat="45.49084745516961" lon="11.435819049894418"><ele>56.0</ele><time>2026-04-03T13:40:38Z</time></trkpt><trkpt lat="45.490749134791436" lon="11.435944574096606"><ele>56.0</ele><time>2026-04-03T13:40:39Z</time></trkpt><trkpt lat="45.49064801504938" lon="11.436075274771209"><ele>56.0</ele><time>2026-04-03T13:40:40Z</time></trkpt><trkpt lat="45.490542994236016" lon="11.436211402256188"><ele>55.25</ele><time>2026-04-03T13:40:41Z</time></trkpt><trkpt lat="45.490438705687616" lon="11.436345012637103"><ele>54.5</ele><time>2026-04-03T13:40:42Z</time></trkpt><trkpt lat="45.49033722414839" lon="11.436475726403085"><ele>53.75</ele><time>2026-04-03T13:40:43Z</time></trkpt><trkpt lat="45.490243043611216" lon="11.436596278887505"><ele>53.0</ele><time>2026-04-03T13:40:44Z</time></trkpt><trkpt lat="45.49015343900455" lon="11.436710974229793"><ele>52.599999999999994</ele><time>2026-04-03T13:40:45Z</time></trkpt><trkpt lat="45.49006983688202" lon="11.436821972353151"><ele>52.199999999999996</ele><time>2026-04-03T13:40:46Z</time></trkpt><trkpt lat="45.48999580097411" lon="11.43694022685717"><ele>51.8</ele><time>2026-04-03T13:40:47Z</time></trkpt><trkpt lat="45.489930935636146" lon="11.437051204375702"><ele>51.4</ele><time>2026-04-03T13:40:48Z</time></trkpt><trkpt lat="45.489857144644176" lon="11.43713888224486"><ele>51.0</ele><time>2026-04-03T13:40:49Z</time></trkpt><trkpt lat="45.48979165344924" lon="11.437210292100684"><ele>51.0</ele><time>2026-04-03T13:40:50Z</time></trkpt><trkpt lat="45.489734490454154" lon="11.437265167985004"><ele>51.0</ele><time>2026-04-03T13:40:51Z</time></trkpt><trkpt lat="45.48967766058075" lon="11.437308701456333"><ele>51.0</ele><time>2026-04-03T13:40:52Z</time></trkpt><trkpt lat="45.48960228060405" lon="11.437348125777337"><ele>51.0</ele><time>2026-04-03T13:40:54Z</time></trkpt><trkpt lat="45.489517226121734" lon="11.437358638015006"><ele>51.0</ele><time>2026-04-03T13:40:57Z</time></trkpt><trkpt lat="45.48944628101894" lon="11.437340069750563"><ele>51.0</ele><time>2026-04-03T13:41:00Z</time></trkpt><trkpt lat="45.48932108638613" lon="11.437246088565807"><ele>51.4</ele><time>2026-04-03T13:41:02Z</time></trkpt><trkpt lat="45.48923473892181" lon="11.43717993389782"><ele>51.8</ele><time>2026-04-03T13:41:03Z</time></trkpt><trkpt lat="45.48912911053955" lon="11.4371506924801"><ele>52.199999999999996</ele><time>2026-04-03T13:41:04Z</time></trkpt><trkpt lat="45.489021390963046" lon="11.437134681952552"><ele>52.599999999999994</ele><time>2026-04-03T13:41:05Z</time></trkpt><trkpt lat="45.48891970919132" lon="11.437169372888013"><ele>53.0</ele><time>2026-04-03T13:41:06Z</time></trkpt><trkpt lat="45.48882444509177" lon="11.437201226219821"><ele>53.4</ele><time>2026-04-03T13:41:07Z</time></trkpt><trkpt lat="45.48874099379486" lon="11.437295539661415"><ele>53.8</ele><time>2026-04-03T13:41:07.999Z</time></trkpt><trkpt lat="45.4887041438981" lon="11.437418829937693"><ele>54.2</ele><time>2026-04-03T13:41:08.999Z</time></trkpt><trkpt lat="45.48866494536579" lon="11.437502743580014"><ele>54.6</ele><time>2026-04-03T13:41:09.999Z</time></trkpt><trkpt lat="45.48862645591534" lon="11.437656727320759"><ele>55.0</ele><time>2026-04-03T13:41:11.999Z</time></trkpt><trkpt lat="45.488601828197865" lon="11.437807362726504"><ele>54.99999999999999</ele><time>2026-04-03T13:41:13.999Z</time></trkpt><trkpt lat="45.48854761601246" lon="11.437885967785066"><ele>55.0</ele><time>2026-04-03T13:41:14.999Z</time></trkpt><trkpt lat="45.48850152951327" lon="11.437962615238801"><ele>55.0</ele><time>2026-04-03T13:41:15.999Z</time></trkpt><trkpt lat="45.488439582737044" lon="11.438029585484694"><ele>55.0</ele><time>2026-04-03T13:41:16.999Z</time></trkpt><trkpt lat="45.4883727476276" lon="11.438068179766429"><ele>54.99999999999999</ele><time>2026-04-03T13:41:17.999Z</time></trkpt><trkpt lat="45.48829369110767" lon="11.438096125237202"><ele>55.0</ele><time>2026-04-03T13:41:18.999Z</time></trkpt><trkpt lat="45.488208908612116" lon="11.438088574842368"><ele>54.8</ele><time>2026-04-03T13:41:19.999Z</time></trkpt><trkpt lat="45.48811583575141" lon="11.43813128284943"><ele>54.6</ele><time>2026-04-03T13:41:20.999Z</time></trkpt><trkpt lat="45.48801056455228" lon="11.438151173449668"><ele>54.400000000000006</ele><time>2026-04-03T13:41:21.999Z</time></trkpt><trkpt lat="45.48790514437046" lon="11.438178071064254"><ele>54.2</ele><time>2026-04-03T13:41:22.999Z</time></trkpt><trkpt lat="45.487776285003015" lon="11.438177867131435"><ele>54.0</ele><time>2026-04-03T13:41:23.999Z</time></trkpt><trkpt lat="45.48764273239753" lon="11.43819690799086"><ele>53.5</ele><time>2026-04-03T13:41:24.999Z</time></trkpt><trkpt lat="45.487513611134574" lon="11.438215053563502"><ele>53.0</ele><time>2026-04-03T13:41:25.999Z</time></trkpt><trkpt lat="45.487400241349306" lon="11.438228493502454"><ele>52.5</ele><time>2026-04-03T13:41:26.999Z</time></trkpt><trkpt lat="45.48728423222566" lon="11.438241988043096"><ele>52.0</ele><time>2026-04-03T13:41:27.999Z</time></trkpt><trkpt lat="45.4871633620194" lon="11.438262604685873"><ele>52.0</ele><time>2026-04-03T13:41:28.999Z</time></trkpt><trkpt lat="45.487009039273815" lon="11.438288202768247"><ele>52.0</ele><time>2026-04-03T13:41:29.999Z</time></trkpt><trkpt lat="45.48682782982246" lon="11.438318826223298"><ele>52.0</ele><time>2026-04-03T13:41:30.999Z</time></trkpt><trkpt lat="45.48663124710587" lon="11.438351665877855"><ele>52.0</ele><time>2026-04-03T13:41:31.999Z</time></trkpt><trkpt lat="45.486415590785235" lon="11.438376055725357"><ele>52.0</ele><time>2026-04-03T13:41:32.999Z</time></trkpt><trkpt lat="45.48618038891997" lon="11.438375251378485"><ele>51.5</ele><time>2026-04-03T13:41:33.999Z</time></trkpt><trkpt lat="45.485920992101164" lon="11.438346015656538"><ele>51.0</ele><time>2026-04-03T13:41:34.999Z</time></trkpt><trkpt lat="45.485670369331814" lon="11.43823202285908"><ele>51.0</ele><time>2026-04-03T13:41:35.999Z</time></trkpt><trkpt lat="45.485432369792704" lon="11.43807089300634"><ele>51.0</ele><time>2026-04-03T13:41:36.999Z</time></trkpt><trkpt lat="45.48522675456635" lon="11.437869523805173"><ele>50.0</ele><time>2026-04-03T13:41:37.999Z</time></trkpt><trkpt lat="45.48504207155504" lon="11.437633535664364"><ele>49.0</ele><time>2026-04-03T13:41:38.999Z</time></trkpt><trkpt lat="45.48487752215634" lon="11.437392514203333"><ele>49.0</ele><time>2026-04-03T13:41:39.999Z</time></trkpt><trkpt lat="45.48472617196704" lon="11.43716072101298"><ele>49.0</ele><time>2026-04-03T13:41:40.999Z</time></trkpt><trkpt lat="45.484568233113144" lon="11.436930420143492"><ele>49.0</ele><time>2026-04-03T13:41:41.999Z</time></trkpt><trkpt lat="45.4844144223904" lon="11.436722473117614"><ele>49.666666666666664</ele><time>2026-04-03T13:41:42.999Z</time></trkpt><trkpt lat="45.48425111105118" lon="11.436528859866584"><ele>50.33333333333333</ele><time>2026-04-03T13:41:43.999Z</time></trkpt><trkpt lat="45.484089430373636" lon="11.436340601622893"><ele>51.0</ele><time>2026-04-03T13:41:44.999Z</time></trkpt><trkpt lat="45.4839324946351" lon="11.436155770951322"><ele>51.33333333333333</ele><time>2026-04-03T13:41:45.999Z</time></trkpt><trkpt lat="45.483780260066126" lon="11.435981467481112"><ele>51.666666666666664</ele><time>2026-04-03T13:41:46.999Z</time></trkpt><trkpt lat="45.483638730189206" lon="11.435819704874875"><ele>52.0</ele><time>2026-04-03T13:41:47.999Z</time></trkpt><trkpt lat="45.48350382859685" lon="11.435663217648852"><ele>52.0</ele><time>2026-04-03T13:41:48.999Z</time></trkpt><trkpt lat="45.483378545123124" lon="11.435519183396886"><ele>52.0</ele><time>2026-04-03T13:41:49.999Z</time></trkpt><trkpt lat="45.48325155512943" lon="11.435373463796177"><ele>52.0</ele><time>2026-04-03T13:41:50.999Z</time></trkpt><trkpt lat="45.483125917723434" lon="11.435229228200678"><ele>52.0</ele><time>2026-04-03T13:41:51.999Z</time></trkpt><trkpt lat="45.48298951282781" lon="11.435077937158242"><ele>52.0</ele><time>2026-04-03T13:41:52.999Z</time></trkpt><trkpt lat="45.48285488782512" lon="11.4349171903518"><ele>52.0</ele><time>2026-04-03T13:41:53.999Z</time></trkpt><trkpt lat="45.482718637571494" lon="11.434754704968945"><ele>51.666666666666664</ele><time>2026-04-03T13:41:54.999Z</time></trkpt><trkpt lat="45.482579476297005" lon="11.434595373349707"><ele>51.33333333333333</ele><time>2026-04-03T13:41:55.999Z</time></trkpt><trkpt lat="45.48243969241561" lon="11.4344307825783"><ele>51.0</ele><time>2026-04-03T13:41:56.999Z</time></trkpt><trkpt lat="45.48229594559952" lon="11.434268650990331"><ele>51.0</ele><time>2026-04-03T13:41:57.999Z</time></trkpt><trkpt lat="45.48216850256831" lon="11.434117661752419"><ele>51.0</ele><time>2026-04-03T13:41:58.999Z</time></trkpt><trkpt lat="45.4820472690505" lon="11.433973532262389"><ele>51.0</ele><time>2026-04-03T13:41:59.999Z</time></trkpt><trkpt lat="45.481937787491795" lon="11.433845488265545"><ele>50.8</ele><time>2026-04-03T13:42:00.999Z</time></trkpt><trkpt lat="45.48183994362466" lon="11.433727067830265"><ele>50.599999999999994</ele><time>2026-04-03T13:42:01.999Z</time></trkpt><trkpt lat="45.4817537397764" lon="11.433627424979093"><ele>50.4</ele><time>2026-04-03T13:42:02.999Z</time></trkpt><trkpt lat="45.48167966842006" lon="11.433539252432322"><ele>50.2</ele><time>2026-04-03T13:42:03.999Z</time></trkpt><trkpt lat="45.48160463314963" lon="11.433458643364201"><ele>50.0</ele><time>2026-04-03T13:42:04.999Z</time></trkpt><trkpt lat="45.4815354910599" lon="11.433379374289196"><ele>50.00000000000001</ele><time>2026-04-03T13:42:05.999Z</time></trkpt><trkpt lat="45.481470961741465" lon="11.433306188667775"><ele>50.0</ele><time>2026-04-03T13:42:06.999Z</time></trkpt><trkpt lat="45.48141449011142" lon="11.433246558322052"><ele>50.0</ele><time>2026-04-03T13:42:07.999Z</time></trkpt><trkpt lat="45.48136237108157" lon="11.433193011429903"><ele>50.0</ele><time>2026-04-03T13:42:08.999Z</time></trkpt><trkpt lat="45.48127516677479" lon="11.433098279349043"><ele>50.00000000000001</ele><time>2026-04-03T13:42:10.999Z</time></trkpt><trkpt lat="45.48118203513169" lon="11.432991933090587"><ele>50.0</ele><time>2026-04-03T13:42:12.999Z</time></trkpt><trkpt lat="45.481101113105474" lon="11.432851864522661"><ele>50.00000000000001</ele><time>2026-04-03T13:42:14.999Z</time></trkpt><trkpt lat="45.481059017958124" lon="11.432762172316043"><ele>50.0</ele><time>2026-04-03T13:42:15.998Z</time></trkpt><trkpt lat="45.48100220549337" lon="11.432693679107514"><ele>50.0</ele><time>2026-04-03T13:42:16.998Z</time></trkpt><trkpt lat="45.48093885522534" lon="11.432661481867555"><ele>50.0</ele><time>2026-04-03T13:42:17.998Z</time></trkpt><trkpt lat="45.48083804081217" lon="11.432695966150094"><ele>50.00000000000001</ele><time>2026-04-03T13:42:19.998Z</time></trkpt><trkpt lat="45.48078777377339" lon="11.432851721362772"><ele>50.0</ele><time>2026-04-03T13:42:21.998Z</time></trkpt><trkpt lat="45.480769280707264" lon="11.43295473290942"><ele>50.00000000000001</ele><time>2026-04-03T13:42:22.998Z</time></trkpt><trkpt lat="45.48074800884774" lon="11.433059886574423"><ele>50.0</ele><time>2026-04-03T13:42:23.998Z</time></trkpt><trkpt lat="45.48073096885684" lon="11.433167765439757"><ele>50.0</ele><time>2026-04-03T13:42:24.998Z</time></trkpt><trkpt lat="45.48066347603811" lon="11.433251121767075"><ele>50.0</ele><time>2026-04-03T13:42:25.998Z</time></trkpt><trkpt lat="45.48061503381367" lon="11.433331561398429"><ele>50.00000000000001</ele><time>2026-04-03T13:42:26.998Z</time></trkpt><trkpt lat="45.48056512743146" lon="11.433416240119575"><ele>50.0</ele><time>2026-04-03T13:42:27.998Z</time></trkpt><trkpt lat="45.48051018275613" lon="11.433504717210386"><ele>50.0</ele><time>2026-04-03T13:42:28.998Z</time></trkpt><trkpt lat="45.480449475650325" lon="11.43360354472222"><ele>50.0</ele><time>2026-04-03T13:42:29.998Z</time></trkpt><trkpt lat="45.48038423053114" lon="11.433706058479638"><ele>50.0</ele><time>2026-04-03T13:42:30.998Z</time></trkpt><trkpt lat="45.48030859091567" lon="11.433823522542507"><ele>50.0</ele><time>2026-04-03T13:42:31.998Z</time></trkpt><trkpt lat="45.48023031154561" lon="11.433952166171062"><ele>50.0</ele><time>2026-04-03T13:42:33Z</time></trkpt><trkpt lat="45.48015045524555" lon="11.43408368108273"><ele>50.25</ele><time>2026-04-03T13:42:34Z</time></trkpt><trkpt lat="45.48005317307446" lon="11.434195681406939"><ele>50.5</ele><time>2026-04-03T13:42:35Z</time></trkpt><trkpt lat="45.47998363609714" lon="11.434331941404016"><ele>50.75</ele><time>2026-04-03T13:42:36Z</time></trkpt><trkpt lat="45.4799012030799" lon="11.434453136632477"><ele>51.0</ele><time>2026-04-03T13:42:37Z</time></trkpt><trkpt lat="45.47982225165153" lon="11.434573742693967"><ele>50.8</ele><time>2026-04-03T13:42:38Z</time></trkpt><trkpt lat="45.479753818367826" lon="11.434678791629354"><ele>50.599999999999994</ele><time>2026-04-03T13:42:39Z</time></trkpt><trkpt lat="45.47968350924446" lon="11.434786590218746"><ele>50.4</ele><time>2026-04-03T13:42:40Z</time></trkpt><trkpt lat="45.47959978962104" lon="11.434904866872351"><ele>50.2</ele><time>2026-04-03T13:42:41Z</time></trkpt><trkpt lat="45.47952579996582" lon="11.43502742154208"><ele>50.0</ele><time>2026-04-03T13:42:42Z</time></trkpt><trkpt lat="45.479444590139394" lon="11.435148328625546"><ele>50.0</ele><time>2026-04-03T13:42:43Z</time></trkpt><trkpt lat="45.47936689803463" lon="11.435275149467065"><ele>50.0</ele><time>2026-04-03T13:42:44Z</time></trkpt><trkpt lat="45.4792830727362" lon="11.435396427610847"><ele>50.0</ele><time>2026-04-03T13:42:45Z</time></trkpt><trkpt lat="45.47920811004072" lon="11.435518493117796"><ele>50.0</ele><time>2026-04-03T13:42:46Z</time></trkpt><trkpt lat="45.47912631484204" lon="11.435645565789034"><ele>50.0</ele><time>2026-04-03T13:42:47Z</time></trkpt><trkpt lat="45.47904891553491" lon="11.435766467131156"><ele>50.0</ele><time>2026-04-03T13:42:48Z</time></trkpt><trkpt lat="45.47897649482869" lon="11.435883404299963"><ele>50.0</ele><time>2026-04-03T13:42:49Z</time></trkpt><trkpt lat="45.478903894588875" lon="11.435994150528414"><ele>50.0</ele><time>2026-04-03T13:42:50Z</time></trkpt><trkpt lat="45.47883409674016" lon="11.436101523898435"><ele>50.0</ele><time>2026-04-03T13:42:51Z</time></trkpt><trkpt lat="45.478763635184514" lon="11.43620870901279"><ele>49.6</ele><time>2026-04-03T13:42:52Z</time></trkpt><trkpt lat="45.478694384298805" lon="11.436320655990095"><ele>49.2</ele><time>2026-04-03T13:42:53Z</time></trkpt><trkpt lat="45.47862092197645" lon="11.43644051240909"><ele>48.8</ele><time>2026-04-03T13:42:54Z</time></trkpt><trkpt lat="45.47854479848565" lon="11.436557015543906"><ele>48.4</ele><time>2026-04-03T13:42:55Z</time></trkpt><trkpt lat="45.47846585711199" lon="11.436678121582391"><ele>48.0</ele><time>2026-04-03T13:42:56Z</time></trkpt><trkpt lat="45.47838094946714" lon="11.436808911933504"><ele>48.0</ele><time>2026-04-03T13:42:57Z</time></trkpt><trkpt lat="45.478306678128945" lon="11.436921115470362"><ele>48.0</ele><time>2026-04-03T13:42:58Z</time></trkpt><trkpt lat="45.478240082188854" lon="11.437022398459542"><ele>48.0</ele><time>2026-04-03T13:42:59Z</time></trkpt><trkpt lat="45.47817010757125" lon="11.437130797141096"><ele>48.0</ele><time>2026-04-03T13:43:00Z</time></trkpt><trkpt lat="45.47809996026426" lon="11.437241292524552"><ele>48.0</ele><time>2026-04-03T13:43:01Z</time></trkpt><trkpt lat="45.4780227306864" lon="11.437363256521785"><ele>48.0</ele><time>2026-04-03T13:43:02Z</time></trkpt><trkpt lat="45.47794389600349" lon="11.437489099995636"><ele>48.0</ele><time>2026-04-03T13:43:03Z</time></trkpt><trkpt lat="45.477865628192106" lon="11.437610025562408"><ele>48.0</ele><time>2026-04-03T13:43:04Z</time></trkpt><trkpt lat="45.47778901184571" lon="11.4377344631958"><ele>48.0</ele><time>2026-04-03T13:43:05Z</time></trkpt><trkpt lat="45.477711423766145" lon="11.437849799497577"><ele>48.0</ele><time>2026-04-03T13:43:06Z</time></trkpt><trkpt lat="45.47763268790298" lon="11.437972545494794"><ele>48.0</ele><time>2026-04-03T13:43:07Z</time></trkpt><trkpt lat="45.477555719295324" lon="11.438093683386866"><ele>48.0</ele><time>2026-04-03T13:43:08Z</time></trkpt><trkpt lat="45.47748362251101" lon="11.438211898685683"><ele>48.0</ele><time>2026-04-03T13:43:09Z</time></trkpt><trkpt lat="45.4774102718792" lon="11.438329681256343"><ele>48.0</ele><time>2026-04-03T13:43:10Z</time></trkpt><trkpt lat="45.47733347658533" lon="11.438449572983469"><ele>48.0</ele><time>2026-04-03T13:43:11Z</time></trkpt><trkpt lat="45.47725486315789" lon="11.438572717928846"><ele>48.0</ele><time>2026-04-03T13:43:12Z</time></trkpt><trkpt lat="45.47717280747152" lon="11.438697401212956"><ele>48.0</ele><time>2026-04-03T13:43:13Z</time></trkpt><trkpt lat="45.47709156957408" lon="11.438823979825594"><ele>47.75</ele><time>2026-04-03T13:43:14Z</time></trkpt><trkpt lat="45.477011755827036" lon="11.438941655397516"><ele>47.5</ele><time>2026-04-03T13:43:15Z</time></trkpt><trkpt lat="45.4769349893394" lon="11.439062467958403"><ele>47.25</ele><time>2026-04-03T13:43:16Z</time></trkpt><trkpt lat="45.47685806249672" lon="11.439185376897129"><ele>47.0</ele><time>2026-04-03T13:43:17Z</time></trkpt><trkpt lat="45.4767883663149" lon="11.439297577494493"><ele>47.0</ele><time>2026-04-03T13:43:18Z</time></trkpt><trkpt lat="45.47673196555909" lon="11.439385008082523"><ele>47.0</ele><time>2026-04-03T13:43:19Z</time></trkpt><trkpt lat="45.47667370318457" lon="11.43944693818537"><ele>47.0</ele><time>2026-04-03T13:43:20Z</time></trkpt><trkpt lat="45.476604906282766" lon="11.439553900843354"><ele>47.0</ele><time>2026-04-03T13:43:21.999Z</time></trkpt><trkpt lat="45.47638006044487" lon="11.439912999833416"><ele>47.2</ele><time>2026-04-03T13:43:22.999Z</time></trkpt><trkpt lat="45.47630459663029" lon="11.44003506611146"><ele>47.400000000000006</ele><time>2026-04-03T13:43:23.999Z</time></trkpt><trkpt lat="45.47623455151059" lon="11.440150795674699"><ele>47.599999999999994</ele><time>2026-04-03T13:43:24.999Z</time></trkpt><trkpt lat="45.47615717402426" lon="11.44026364470263"><ele>47.8</ele><time>2026-04-03T13:43:25.999Z</time></trkpt><trkpt lat="45.476088890976605" lon="11.440374916499783"><ele>48.0</ele><time>2026-04-03T13:43:26.999Z</time></trkpt><trkpt lat="45.47602741740758" lon="11.44046093732209"><ele>47.5</ele><time>2026-04-03T13:43:27.999Z</time></trkpt><trkpt lat="45.475976633337694" lon="11.440541023633413"><ele>47.0</ele><time>2026-04-03T13:43:28.999Z</time></trkpt><trkpt lat="45.475934907155924" lon="11.440610797640396"><ele>46.5</ele><time>2026-04-03T13:43:29.999Z</time></trkpt><trkpt lat="45.475860070132754" lon="11.440719196943991"><ele>46.0</ele><time>2026-04-03T13:43:31.999Z</time></trkpt><trkpt lat="45.47575621694428" lon="11.44078921224468"><ele>45.5</ele><time>2026-04-03T13:43:33.999Z</time></trkpt><trkpt lat="45.47571839844596" lon="11.440862900817848"><ele>45.0</ele><time>2026-04-03T13:43:34.999Z</time></trkpt><trkpt lat="45.475664092429774" lon="11.440942694414495"><ele>45.0</ele><time>2026-04-03T13:43:35.999Z</time></trkpt><trkpt lat="45.47560698422236" lon="11.441025788403154"><ele>45.0</ele><time>2026-04-03T13:43:36.999Z</time></trkpt><trkpt lat="45.47556461256456" lon="11.441125416743853"><ele>45.0</ele><time>2026-04-03T13:43:37.999Z</time></trkpt><trkpt lat="45.47553354831634" lon="11.441247516374304"><ele>45.0</ele><time>2026-04-03T13:43:38.999Z</time></trkpt><trkpt lat="45.47546834092967" lon="11.441315188978002"><ele>45.0</ele><time>2026-04-03T13:43:39.999Z</time></trkpt><trkpt lat="45.47542264643506" lon="11.44142857088306"><ele>45.0</ele><time>2026-04-03T13:43:40.999Z</time></trkpt><trkpt lat="45.47535028790361" lon="11.441545487582122"><ele>45.666666666666664</ele><time>2026-04-03T13:43:41.999Z</time></trkpt><trkpt lat="45.47526253288643" lon="11.441701164086888"><ele>46.33333333333333</ele><time>2026-04-03T13:43:42.999Z</time></trkpt><trkpt lat="45.475152722904994" lon="11.441860152110124"><ele>47.0</ele><time>2026-04-03T13:43:43.999Z</time></trkpt><trkpt lat="45.47500918777976" lon="11.442004295970156"><ele>47.0</ele><time>2026-04-03T13:43:44.999Z</time></trkpt><trkpt lat="45.47490398134938" lon="11.442170413351478"><ele>47.0</ele><time>2026-04-03T13:43:45.999Z</time></trkpt><trkpt lat="45.47482274096514" lon="11.442280464770239"><ele>47.0</ele><time>2026-04-03T13:43:46.999Z</time></trkpt><trkpt lat="45.4747715531954" lon="11.442361288787176"><ele>47.0</ele><time>2026-04-03T13:43:47.999Z</time></trkpt><trkpt lat="45.47469691651307" lon="11.442468754042181"><ele>47.0</ele><time>2026-04-03T13:43:49.999Z</time></trkpt><trkpt lat="45.47459311067032" lon="11.442583072329912"><ele>47.0</ele><time>2026-04-03T13:43:51.999Z</time></trkpt><trkpt lat="45.47453048644281" lon="11.44269779451243"><ele>47.0</ele><time>2026-04-03T13:43:52.999Z</time></trkpt><trkpt lat="45.474434492842896" lon="11.442820921381507"><ele>47.0</ele><time>2026-04-03T13:43:53.999Z</time></trkpt><trkpt lat="45.47432952695758" lon="11.442957718448099"><ele>47.0</ele><time>2026-04-03T13:43:54.999Z</time></trkpt><trkpt lat="45.47421989226546" lon="11.443115384939333"><ele>47.0</ele><time>2026-04-03T13:43:55.999Z</time></trkpt><trkpt lat="45.474101737888645" lon="11.443288893534165"><ele>47.0</ele><time>2026-04-03T13:43:56.999Z</time></trkpt><trkpt lat="45.47398033848327" lon="11.443461838271665"><ele>47.0</ele><time>2026-04-03T13:43:57.999Z</time></trkpt><trkpt lat="45.47386373232283" lon="11.44362987891179"><ele>47.0</ele><time>2026-04-03T13:43:58.999Z</time></trkpt><trkpt lat="45.47374494667017" lon="11.4438065237126"><ele>47.0</ele><time>2026-04-03T13:43:59.999Z</time></trkpt><trkpt lat="45.47364288749539" lon="11.44397198472446"><ele>47.25</ele><time>2026-04-03T13:44:00.999Z</time></trkpt><trkpt lat="45.47353369773735" lon="11.444134195723523"><ele>47.5</ele><time>2026-04-03T13:44:01.999Z</time></trkpt><trkpt lat="45.47342706132902" lon="11.44428804635418"><ele>47.75</ele><time>2026-04-03T13:44:02.999Z</time></trkpt><trkpt lat="45.473337613643594" lon="11.444436552139287"><ele>48.0</ele><time>2026-04-03T13:44:03.999Z</time></trkpt><trkpt lat="45.47324966071152" lon="11.444569268753538"><ele>48.25</ele><time>2026-04-03T13:44:04.999Z</time></trkpt><trkpt lat="45.47316674381137" lon="11.44469732636106"><ele>48.5</ele><time>2026-04-03T13:44:05.999Z</time></trkpt><trkpt lat="45.47308599096177" lon="11.444827409449632"><ele>48.75</ele><time>2026-04-03T13:44:06.999Z</time></trkpt><trkpt lat="45.47299935824037" lon="11.444950114426517"><ele>49.0</ele><time>2026-04-03T13:44:07.999Z</time></trkpt><trkpt lat="45.47293988325171" lon="11.445092459178763"><ele>49.0</ele><time>2026-04-03T13:44:08.999Z</time></trkpt><trkpt lat="45.47287432061421" lon="11.445217692172562"><ele>49.0</ele><time>2026-04-03T13:44:09.999Z</time></trkpt><trkpt lat="45.47281096490346" lon="11.445333771313386"><ele>49.0</ele><time>2026-04-03T13:44:10.999Z</time></trkpt><trkpt lat="45.472746670532075" lon="11.445454373157649"><ele>49.0</ele><time>2026-04-03T13:44:11.999Z</time></trkpt><trkpt lat="45.47268181997932" lon="11.445578919838102"><ele>49.0</ele><time>2026-04-03T13:44:12.999Z</time></trkpt><trkpt lat="45.47262031934625" lon="11.445698139328673"><ele>49.166666666666664</ele><time>2026-04-03T13:44:13.999Z</time></trkpt><trkpt lat="45.472562197243874" lon="11.445804160080646"><ele>49.33333333333333</ele><time>2026-04-03T13:44:14.999Z</time></trkpt><trkpt lat="45.47251417845729" lon="11.445899040113613"><ele>49.5</ele><time>2026-04-03T13:44:15.999Z</time></trkpt><trkpt lat="45.47246387902808" lon="11.445990418634086"><ele>49.66666666666667</ele><time>2026-04-03T13:44:16.999Z</time></trkpt><trkpt lat="45.47241381579623" lon="11.446077048883271"><ele>49.833333333333336</ele><time>2026-04-03T13:44:17.999Z</time></trkpt><trkpt lat="45.472359450860274" lon="11.446160356095007"><ele>50.0</ele><time>2026-04-03T13:44:18.999Z</time></trkpt><trkpt lat="45.47229148185778" lon="11.446219329418872"><ele>50.0</ele><time>2026-04-03T13:44:19.999Z</time></trkpt><trkpt lat="45.472154865212914" lon="11.446132645935068"><ele>50.0</ele><time>2026-04-03T13:44:21.999Z</time></trkpt><trkpt lat="45.47209336407723" lon="11.446029227897723"><ele>50.0</ele><time>2026-04-03T13:44:22.999Z</time></trkpt><trkpt lat="45.47201311295333" lon="11.44591029231333"><ele>50.0</ele><time>2026-04-03T13:44:23.999Z</time></trkpt><trkpt lat="45.47192378656285" lon="11.445777706260065"><ele>49.75</ele><time>2026-04-03T13:44:24.999Z</time></trkpt><trkpt lat="45.47182907985286" lon="11.445637129592733"><ele>49.5</ele><time>2026-04-03T13:44:25.999Z</time></trkpt><trkpt lat="45.47174213350531" lon="11.445508666802711"><ele>49.25</ele><time>2026-04-03T13:44:26.999Z</time></trkpt><trkpt lat="45.471654187337464" lon="11.445378528950378"><ele>49.0</ele><time>2026-04-03T13:44:27.998Z</time></trkpt><trkpt lat="45.47156769667027" lon="11.44525012675481"><ele>49.0</ele><time>2026-04-03T13:44:28.998Z</time></trkpt><trkpt lat="45.47147809574667" lon="11.445115997485079"><ele>49.0</ele><time>2026-04-03T13:44:29.998Z</time></trkpt><trkpt lat="45.471369553671174" lon="11.444992971049022"><ele>49.0</ele><time>2026-04-03T13:44:30.998Z</time></trkpt><trkpt lat="45.47127075320465" lon="11.444845538734457"><ele>49.0</ele><time>2026-04-03T13:44:31.998Z</time></trkpt><trkpt lat="45.471172358891515" lon="11.444698138098605"><ele>48.75</ele><time>2026-04-03T13:44:32.998Z</time></trkpt><trkpt lat="45.471075316506536" lon="11.444545620864721"><ele>48.5</ele><time>2026-04-03T13:44:33.998Z</time></trkpt><trkpt lat="45.47098326927239" lon="11.444402974706984"><ele>48.25</ele><time>2026-04-03T13:44:34.998Z</time></trkpt><trkpt lat="45.47089823112061" lon="11.444243312489665"><ele>48.0</ele><time>2026-04-03T13:44:35.998Z</time></trkpt><trkpt lat="45.47079525826447" lon="11.44412539585314"><ele>48.0</ele><time>2026-04-03T13:44:36.998Z</time></trkpt><trkpt lat="45.47070736567035" lon="11.443986291458788"><ele>48.0</ele><time>2026-04-03T13:44:37.998Z</time></trkpt><trkpt lat="45.470620536351106" lon="11.443853922938434"><ele>48.0</ele><time>2026-04-03T13:44:39Z</time></trkpt><trkpt lat="45.47053895665892" lon="11.443725321974474"><ele>48.0</ele><time>2026-04-03T13:44:40Z</time></trkpt><trkpt lat="45.47045690116145" lon="11.443600409208969"><ele>47.25</ele><time>2026-04-03T13:44:41Z</time></trkpt><trkpt lat="45.47037350589471" lon="11.443480589266402"><ele>46.5</ele><time>2026-04-03T13:44:42Z</time></trkpt><trkpt lat="45.470302359215296" lon="11.443362533866619"><ele>45.75</ele><time>2026-04-03T13:44:43Z</time></trkpt><trkpt lat="45.47021000713711" lon="11.44327198743489"><ele>45.0</ele><time>2026-04-03T13:44:44Z</time></trkpt><trkpt lat="45.470097148702976" lon="11.44324986381957"><ele>45.0</ele><time>2026-04-03T13:44:45Z</time></trkpt><trkpt lat="45.46998175776999" lon="11.44320894717557"><ele>45.0</ele><time>2026-04-03T13:44:46Z</time></trkpt><trkpt lat="45.46986975696772" lon="11.443327983276777"><ele>45.0</ele><time>2026-04-03T13:44:47Z</time></trkpt><trkpt lat="45.46977289950286" lon="11.443455011157512"><ele>45.0</ele><time>2026-04-03T13:44:48Z</time></trkpt><trkpt lat="45.46967353425709" lon="11.443596228365264"><ele>44.75</ele><time>2026-04-03T13:44:49Z</time></trkpt><trkpt lat="45.46956801878126" lon="11.443698586137216"><ele>44.5</ele><time>2026-04-03T13:44:50Z</time></trkpt><trkpt lat="45.46947556890613" lon="11.443812955377332"><ele>44.25</ele><time>2026-04-03T13:44:51Z</time></trkpt><trkpt lat="45.46937738316577" lon="11.443934420393536"><ele>44.0</ele><time>2026-04-03T13:44:52Z</time></trkpt><trkpt lat="45.46928140542822" lon="11.444053153934513"><ele>44.0</ele><time>2026-04-03T13:44:53Z</time></trkpt><trkpt lat="45.46918399890558" lon="11.444173654999718"><ele>44.0</ele><time>2026-04-03T13:44:54Z</time></trkpt><trkpt lat="45.4690835462127" lon="11.444295231033125"><ele>44.0</ele><time>2026-04-03T13:44:55Z</time></trkpt><trkpt lat="45.46898626173026" lon="11.444427939531662"><ele>44.0</ele><time>2026-04-03T13:44:56Z</time></trkpt><trkpt lat="45.46887756298384" lon="11.444542747792815"><ele>44.33333333333333</ele><time>2026-04-03T13:44:57Z</time></trkpt><trkpt lat="45.46875981540222" lon="11.444680647568251"><ele>44.666666666666664</ele><time>2026-04-03T13:44:58Z</time></trkpt><trkpt lat="45.46863968537724" lon="11.444834472744677"><ele>45.0</ele><time>2026-04-03T13:44:59Z</time></trkpt><trkpt lat="45.46850460417266" lon="11.444998854848551"><ele>45.0</ele><time>2026-04-03T13:45:00Z</time></trkpt><trkpt lat="45.46836746872825" lon="11.445175505691502"><ele>45.0</ele><time>2026-04-03T13:45:01Z</time></trkpt><trkpt lat="45.468233155009486" lon="11.445363887270064"><ele>45.0</ele><time>2026-04-03T13:45:02Z</time></trkpt><trkpt lat="45.46807886174581" lon="11.445550129632235"><ele>44.666666666666664</ele><time>2026-04-03T13:45:03Z</time></trkpt><trkpt lat="45.467938424427636" lon="11.445725183431692"><ele>44.33333333333333</ele><time>2026-04-03T13:45:04Z</time></trkpt><trkpt lat="45.46778601766887" lon="11.445879295017505"><ele>44.0</ele><time>2026-04-03T13:45:05Z</time></trkpt><trkpt lat="45.46761116191085" lon="11.445980985689197"><ele>44.0</ele><time>2026-04-03T13:45:06Z</time></trkpt><trkpt lat="45.46741967732947" lon="11.446042554020313"><ele>44.0</ele><time>2026-04-03T13:45:07Z</time></trkpt><trkpt lat="45.467218489350884" lon="11.446084795056981"><ele>44.0</ele><time>2026-04-03T13:45:08Z</time></trkpt><trkpt lat="45.46701076557881" lon="11.446129604979506"><ele>44.666666666666664</ele><time>2026-04-03T13:45:09Z</time></trkpt><trkpt lat="45.46681024422691" lon="11.446174327557749"><ele>45.333333333333336</ele><time>2026-04-03T13:45:10Z</time></trkpt><trkpt lat="45.46660962630182" lon="11.446219069672278"><ele>46.0</ele><time>2026-04-03T13:45:11Z</time></trkpt><trkpt lat="45.46640417717607" lon="11.446264256818738"><ele>46.333333333333336</ele><time>2026-04-03T13:45:12Z</time></trkpt><trkpt lat="45.46619625551501" lon="11.446309361925518"><ele>46.666666666666664</ele><time>2026-04-03T13:45:13Z</time></trkpt><trkpt lat="45.4659729880112" lon="11.446357786284754"><ele>47.0</ele><time>2026-04-03T13:45:14Z</time></trkpt><trkpt lat="45.46569318316488" lon="11.44641772830355"><ele>45.5</ele><time>2026-04-03T13:45:15Z</time></trkpt><trkpt lat="45.46541060906906" lon="11.446478892560988"><ele>44.0</ele><time>2026-04-03T13:45:16Z</time></trkpt><trkpt lat="45.46523452425159" lon="11.446518171300138"><ele>44.0</ele><time>2026-04-03T13:45:17Z</time></trkpt><trkpt lat="45.4651247619922" lon="11.446542655668434"><ele>44.0</ele><time>2026-04-03T13:45:18Z</time></trkpt><trkpt lat="45.46499929053292" lon="11.446585431834466"><ele>44.0</ele><time>2026-04-03T13:45:19Z</time></trkpt><trkpt lat="45.46482445783954" lon="11.446622782840809"><ele>44.0</ele><time>2026-04-03T13:45:20Z</time></trkpt><trkpt lat="45.46457064605852" lon="11.446665680220912"><ele>44.0</ele><time>2026-04-03T13:45:21Z</time></trkpt><trkpt lat="45.46437909259847" lon="11.446708049213903"><ele>44.0</ele><time>2026-04-03T13:45:22Z</time></trkpt><trkpt lat="45.46419631446542" lon="11.446748509021964"><ele>44.0</ele><time>2026-04-03T13:45:23Z</time></trkpt><trkpt lat="45.46401395100701" lon="11.446788877030047"><ele>44.0</ele><time>2026-04-03T13:45:24Z</time></trkpt><trkpt lat="45.46382975852261" lon="11.446829259782723"><ele>44.0</ele><time>2026-04-03T13:45:25Z</time></trkpt><trkpt lat="45.46364993669843" lon="11.44686748616874"><ele>44.0</ele><time>2026-04-03T13:45:26Z</time></trkpt><trkpt lat="45.46347043180479" lon="11.446905645178731"><ele>44.666666666666664</ele><time>2026-04-03T13:45:27Z</time></trkpt><trkpt lat="45.463295359271044" lon="11.44694551306129"><ele>45.333333333333336</ele><time>2026-04-03T13:45:28Z</time></trkpt><trkpt lat="45.46311332855465" lon="11.446987071475647"><ele>46.0</ele><time>2026-04-03T13:45:29Z</time></trkpt><trkpt lat="45.462950796970716" lon="11.447024178153336"><ele>45.66666666666667</ele><time>2026-04-03T13:45:30Z</time></trkpt><trkpt lat="45.46278756194979" lon="11.44705797305477"><ele>45.333333333333336</ele><time>2026-04-03T13:45:30.999Z</time></trkpt><trkpt lat="45.46263179434332" lon="11.447066756718245"><ele>45.0</ele><time>2026-04-03T13:45:31.999Z</time></trkpt><trkpt lat="45.46247299645663" lon="11.447042531566614"><ele>45.0</ele><time>2026-04-03T13:45:32.999Z</time></trkpt><trkpt lat="45.46231270476648" lon="11.446979858864822"><ele>45.0</ele><time>2026-04-03T13:45:33.999Z</time></trkpt><trkpt lat="45.462170886620534" lon="11.446884433421575"><ele>45.0</ele><time>2026-04-03T13:45:34.999Z</time></trkpt><trkpt lat="45.46205124059373" lon="11.44677544873497"><ele>45.5</ele><time>2026-04-03T13:45:35.999Z</time></trkpt><trkpt lat="45.46193345813689" lon="11.44666052293965"><ele>46.0</ele><time>2026-04-03T13:45:36.999Z</time></trkpt><trkpt lat="45.46181085927249" lon="11.446557000136174"><ele>46.5</ele><time>2026-04-03T13:45:37.999Z</time></trkpt><trkpt lat="45.46169353585812" lon="11.44643962178712"><ele>47.0</ele><time>2026-04-03T13:45:38.999Z</time></trkpt><trkpt lat="45.46157232488774" lon="11.446322989364711"><ele>46.0</ele><time>2026-04-03T13:45:39.999Z</time></trkpt><trkpt lat="45.461452460409205" lon="11.446202329708365"><ele>45.0</ele><time>2026-04-03T13:45:40.999Z</time></trkpt><trkpt lat="45.46132840193922" lon="11.446076469882271"><ele>44.0</ele><time>2026-04-03T13:45:41.999Z</time></trkpt><trkpt lat="45.46119943019469" lon="11.445945010358162"><ele>46.0</ele><time>2026-04-03T13:45:42.999Z</time></trkpt><trkpt lat="45.461067553909814" lon="11.44581258548626"><ele>48.0</ele><time>2026-04-03T13:45:43.999Z</time></trkpt><trkpt lat="45.46093890215631" lon="11.445675111349187"><ele>50.0</ele><time>2026-04-03T13:45:44.999Z</time></trkpt><trkpt lat="45.4608107698426" lon="11.445532440930078"><ele>50.0</ele><time>2026-04-03T13:45:45.999Z</time></trkpt><trkpt lat="45.460683197192765" lon="11.445393357314087"><ele>50.0</ele><time>2026-04-03T13:45:46.999Z</time></trkpt><trkpt lat="45.46055262426664" lon="11.445259041942547"><ele>50.0</ele><time>2026-04-03T13:45:47.999Z</time></trkpt><trkpt lat="45.46042331459626" lon="11.44512413207708"><ele>50.0</ele><time>2026-04-03T13:45:48.999Z</time></trkpt><trkpt lat="45.46029318034497" lon="11.44498958776452"><ele>50.0</ele><time>2026-04-03T13:45:49.999Z</time></trkpt><trkpt lat="45.460166997175754" lon="11.444858950401507"><ele>50.0</ele><time>2026-04-03T13:45:50.999Z</time></trkpt><trkpt lat="45.46004121259286" lon="11.444726361706515"><ele>47.66666666666667</ele><time>2026-04-03T13:45:51.999Z</time></trkpt><trkpt lat="45.45991487776421" lon="11.444595838419243"><ele>45.333333333333336</ele><time>2026-04-03T13:45:52.999Z</time></trkpt><trkpt lat="45.45978891845032" lon="11.444465871917494"><ele>43.0</ele><time>2026-04-03T13:45:53.999Z</time></trkpt><trkpt lat="45.45966332917663" lon="11.44432820413993"><ele>43.333333333333336</ele><time>2026-04-03T13:45:54.999Z</time></trkpt><trkpt lat="45.4595285048076" lon="11.44420090395875"><ele>43.666666666666664</ele><time>2026-04-03T13:45:55.999Z</time></trkpt><trkpt lat="45.45938795069534" lon="11.444080979258203"><ele>44.0</ele><time>2026-04-03T13:45:56.999Z</time></trkpt><trkpt lat="45.45923960742209" lon="11.443972920257647"><ele>44.0</ele><time>2026-04-03T13:45:57.999Z</time></trkpt><trkpt lat="45.45908363653061" lon="11.443894652146097"><ele>44.0</ele><time>2026-04-03T13:45:58.999Z</time></trkpt><trkpt lat="45.4589425165643" lon="11.443819429842666"><ele>44.0</ele><time>2026-04-03T13:45:59.999Z</time></trkpt><trkpt lat="45.45879255860227" lon="11.443792833237023"><ele>43.75</ele><time>2026-04-03T13:46:00.999Z</time></trkpt><trkpt lat="45.45864260070872" lon="11.443807451475548"><ele>43.5</ele><time>2026-04-03T13:46:01.999Z</time></trkpt><trkpt lat="45.458491325461544" lon="11.443812864765686"><ele>43.25</ele><time>2026-04-03T13:46:02.999Z</time></trkpt><trkpt lat="45.45835175381807" lon="11.443844527916303"><ele>43.0</ele><time>2026-04-03T13:46:03.999Z</time></trkpt><trkpt lat="45.45821133127546" lon="11.443883739611723"><ele>43.0</ele><time>2026-04-03T13:46:04.999Z</time></trkpt><trkpt lat="45.45808707180788" lon="11.443893630371445"><ele>43.0</ele><time>2026-04-03T13:46:05.999Z</time></trkpt><trkpt lat="45.45797595368998" lon="11.443951449939181"><ele>43.0</ele><time>2026-04-03T13:46:06.999Z</time></trkpt><trkpt lat="45.457857664469174" lon="11.443966668655676"><ele>43.0</ele><time>2026-04-03T13:46:07.999Z</time></trkpt><trkpt lat="45.45774818883504" lon="11.444008664138567"><ele>43.0</ele><time>2026-04-03T13:46:08.999Z</time></trkpt><trkpt lat="45.45764125322371" lon="11.444058244694824"><ele>43.0</ele><time>2026-04-03T13:46:09.999Z</time></trkpt><trkpt lat="45.45753656429753" lon="11.444119626544017"><ele>43.0</ele><time>2026-04-03T13:46:10.999Z</time></trkpt><trkpt lat="45.45744209114279" lon="11.444223264778424"><ele>43.0</ele><time>2026-04-03T13:46:11.999Z</time></trkpt><trkpt lat="45.45735171790091" lon="11.444318127112124"><ele>43.0</ele><time>2026-04-03T13:46:12.999Z</time></trkpt><trkpt lat="45.45726233110922" lon="11.444440341264718"><ele>43.0</ele><time>2026-04-03T13:46:13.999Z</time></trkpt><trkpt lat="45.457186624374394" lon="11.444584843711041"><ele>43.0</ele><time>2026-04-03T13:46:14.999Z</time></trkpt><trkpt lat="45.45712417984022" lon="11.444742238921037"><ele>43.0</ele><time>2026-04-03T13:46:15.999Z</time></trkpt><trkpt lat="45.45706768598016" lon="11.444914595631786"><ele>42.8</ele><time>2026-04-03T13:46:16.999Z</time></trkpt><trkpt lat="45.457023862413934" lon="11.445093374589028"><ele>42.599999999999994</ele><time>2026-04-03T13:46:17.999Z</time></trkpt><trkpt lat="45.456987626242764" lon="11.44525233985671"><ele>42.400000000000006</ele><time>2026-04-03T13:46:18.999Z</time></trkpt><trkpt lat="45.45695271752428" lon="11.445397056813984"><ele>42.2</ele><time>2026-04-03T13:46:19.999Z</time></trkpt><trkpt lat="45.45693002728534" lon="11.445506562943857"><ele>42.0</ele><time>2026-04-03T13:46:20.999Z</time></trkpt><trkpt lat="45.45691411591662" lon="11.445593923703075"><ele>42.400000000000006</ele><time>2026-04-03T13:46:21.999Z</time></trkpt><trkpt lat="45.4569092663294" lon="11.445688451544529"><ele>42.800000000000004</ele><time>2026-04-03T13:46:29.999Z</time></trkpt><trkpt lat="45.456898937469845" lon="11.445794194002437"><ele>43.2</ele><time>2026-04-03T13:46:30.999Z</time></trkpt><trkpt lat="45.4568868574538" lon="11.44592284778677"><ele>43.6</ele><time>2026-04-03T13:46:31.999Z</time></trkpt><trkpt lat="45.45686819994023" lon="11.44607827978185"><ele>44.0</ele><time>2026-04-03T13:46:32.999Z</time></trkpt><trkpt lat="45.45684396773101" lon="11.44622764335736"><ele>43.800000000000004</ele><time>2026-04-03T13:46:33.999Z</time></trkpt><trkpt lat="45.45681623388286" lon="11.446359064086208"><ele>43.6</ele><time>2026-04-03T13:46:34.998Z</time></trkpt><trkpt lat="45.456778886569765" lon="11.44648620975087"><ele>43.4</ele><time>2026-04-03T13:46:35.998Z</time></trkpt><trkpt lat="45.45672518598789" lon="11.446609191022846"><ele>43.2</ele><time>2026-04-03T13:46:36.998Z</time></trkpt><trkpt lat="45.45667880237096" lon="11.446745090466406"><ele>43.0</ele><time>2026-04-03T13:46:37.998Z</time></trkpt><trkpt lat="45.456661962132074" lon="11.446934462896966"><ele>43.25</ele><time>2026-04-03T13:46:38.998Z</time></trkpt><trkpt lat="45.456637396235685" lon="11.447128073843558"><ele>43.5</ele><time>2026-04-03T13:46:39.998Z</time></trkpt><trkpt lat="45.45659195712204" lon="11.447334609266228"><ele>43.75</ele><time>2026-04-03T13:46:40.998Z</time></trkpt><trkpt lat="45.4565449860706" lon="11.44755188812327"><ele>44.0</ele><time>2026-04-03T13:46:41.998Z</time></trkpt><trkpt lat="45.45650084753465" lon="11.447765039494033"><ele>43.5</ele><time>2026-04-03T13:46:42.998Z</time></trkpt><trkpt lat="45.456459114199966" lon="11.447976993422252"><ele>43.0</ele><time>2026-04-03T13:46:43.998Z</time></trkpt><trkpt lat="45.45642309314928" lon="11.448162325337336"><ele>42.5</ele><time>2026-04-03T13:46:45Z</time></trkpt><trkpt lat="45.45637124821363" lon="11.448346352995115"><ele>42.0</ele><time>2026-04-03T13:46:46Z</time></trkpt><trkpt lat="45.45629314008527" lon="11.448499957116951"><ele>42.0</ele><time>2026-04-03T13:46:47Z</time></trkpt><trkpt lat="45.45621352724132" lon="11.448652519551292"><ele>42.0</ele><time>2026-04-03T13:46:48Z</time></trkpt><trkpt lat="45.45612466230775" lon="11.448815956415995"><ele>42.0</ele><time>2026-04-03T13:46:49Z</time></trkpt><trkpt lat="45.4560413062592" lon="11.449003933741443"><ele>42.0</ele><time>2026-04-03T13:46:50Z</time></trkpt><trkpt lat="45.455943633292165" lon="11.449180479029044"><ele>42.0</ele><time>2026-04-03T13:46:51Z</time></trkpt><trkpt lat="45.45583954778654" lon="11.449379485412024"><ele>42.0</ele><time>2026-04-03T13:46:52Z</time></trkpt><trkpt lat="45.455713998826425" lon="11.44957637051996"><ele>42.0</ele><time>2026-04-03T13:46:53Z</time></trkpt><trkpt lat="45.45558679675023" lon="11.449810186803335"><ele>42.0</ele><time>2026-04-03T13:46:54Z</time></trkpt><trkpt lat="45.45546927026575" lon="11.450062395040508"><ele>42.0</ele><time>2026-04-03T13:46:55Z</time></trkpt><trkpt lat="45.45534071863907" lon="11.450298917305851"><ele>42.0</ele><time>2026-04-03T13:46:56Z</time></trkpt><trkpt lat="45.45521119533091" lon="11.450541094714271"><ele>42.333333333333336</ele><time>2026-04-03T13:46:57Z</time></trkpt><trkpt lat="45.45505717050231" lon="11.450792001667399"><ele>42.66666666666667</ele><time>2026-04-03T13:46:58Z</time></trkpt><trkpt lat="45.45493529138726" lon="11.45104474969039"><ele>43.0</ele><time>2026-04-03T13:46:59Z</time></trkpt><trkpt lat="45.45481206467526" lon="11.451276852344119"><ele>42.66666666666667</ele><time>2026-04-03T13:47:00Z</time></trkpt><trkpt lat="45.45468790061241" lon="11.45151607475168"><ele>42.333333333333336</ele><time>2026-04-03T13:47:01Z</time></trkpt><trkpt lat="45.45455502109254" lon="11.451728196557996"><ele>42.0</ele><time>2026-04-03T13:47:02Z</time></trkpt><trkpt lat="45.454434496361465" lon="11.451962397591616"><ele>41.5</ele><time>2026-04-03T13:47:03Z</time></trkpt><trkpt lat="45.454338115004504" lon="11.452235690604093"><ele>41.0</ele><time>2026-04-03T13:47:04Z</time></trkpt><trkpt lat="45.454216951326714" lon="11.45256676684846"><ele>41.0</ele><time>2026-04-03T13:47:05Z</time></trkpt><trkpt lat="45.45415387544313" lon="11.452939801638033"><ele>41.0</ele><time>2026-04-03T13:47:06Z</time></trkpt><trkpt lat="45.45414031815252" lon="11.45310378883535"><ele>41.0</ele><time>2026-04-03T13:47:07Z</time></trkpt><trkpt lat="45.45414939302845" lon="11.453385680265608"><ele>41.666666666666664</ele><time>2026-04-03T13:47:08Z</time></trkpt><trkpt lat="45.45416181656269" lon="11.453646038237856"><ele>42.333333333333336</ele><time>2026-04-03T13:47:09Z</time></trkpt><trkpt lat="45.45417660869468" lon="11.453884306700557"><ele>43.0</ele><time>2026-04-03T13:47:10Z</time></trkpt><trkpt lat="45.4541860505595" lon="11.454113362762193"><ele>43.0</ele><time>2026-04-03T13:47:11Z</time></trkpt><trkpt lat="45.454193375067426" lon="11.454331718139374"><ele>43.0</ele><time>2026-04-03T13:47:12Z</time></trkpt><trkpt lat="45.45419981992366" lon="11.454534130724095"><ele>43.0</ele><time>2026-04-03T13:47:13Z</time></trkpt><trkpt lat="45.45420501264297" lon="11.454719677612964"><ele>43.0</ele><time>2026-04-03T13:47:14Z</time></trkpt><trkpt lat="45.45420918728899" lon="11.454907566499227"><ele>41.75</ele><time>2026-04-03T13:47:15Z</time></trkpt><trkpt lat="45.45421171815621" lon="11.45510734660616"><ele>40.5</ele><time>2026-04-03T13:47:16Z</time></trkpt><trkpt lat="45.45421699439213" lon="11.455321838405073"><ele>39.25</ele><time>2026-04-03T13:47:17Z</time></trkpt><trkpt lat="45.45422691942024" lon="11.455542240236303"><ele>38.0</ele><time>2026-04-03T13:47:18Z</time></trkpt><trkpt lat="45.45423339830238" lon="11.455750500869836"><ele>38.25</ele><time>2026-04-03T13:47:19Z</time></trkpt><trkpt lat="45.454239866170354" lon="11.455933863495819"><ele>38.5</ele><time>2026-04-03T13:47:20Z</time></trkpt><trkpt lat="45.45424132823957" lon="11.45610591565997"><ele>38.75</ele><time>2026-04-03T13:47:21Z</time></trkpt><trkpt lat="45.454212567902495" lon="11.456255861491833"><ele>39.0</ele><time>2026-04-03T13:47:22Z</time></trkpt><trkpt lat="45.45418532588584" lon="11.456389537518202"><ele>39.0</ele><time>2026-04-03T13:47:23Z</time></trkpt><trkpt lat="45.45414399013438" lon="11.456483504243861"><ele>39.0</ele><time>2026-04-03T13:47:24Z</time></trkpt><trkpt lat="45.454180222857" lon="11.456602046257233"><ele>39.0</ele><time>2026-04-03T13:47:25Z</time></trkpt><trkpt lat="45.454275013797485" lon="11.456747528574999"><ele>39.0</ele><time>2026-04-03T13:47:27Z</time></trkpt><trkpt lat="45.45437497268226" lon="11.456831852962774"><ele>39.0</ele><time>2026-04-03T13:47:28Z</time></trkpt><trkpt lat="45.454490672360976" lon="11.45694253945605"><ele>39.666666666666664</ele><time>2026-04-03T13:47:29Z</time></trkpt><trkpt lat="45.45460649416737" lon="11.45712744312812"><ele>40.33333333333333</ele><time>2026-04-03T13:47:30Z</time></trkpt><trkpt lat="45.45467609019141" lon="11.457316251456552"><ele>41.0</ele><time>2026-04-03T13:47:31Z</time></trkpt><trkpt lat="45.45473666788218" lon="11.457507329651563"><ele>41.666666666666664</ele><time>2026-04-03T13:47:32Z</time></trkpt><trkpt lat="45.45482109763982" lon="11.457650990077427"><ele>42.333333333333336</ele><time>2026-04-03T13:47:33Z</time></trkpt><trkpt lat="45.45495020157844" lon="11.45776709770495"><ele>43.0</ele><time>2026-04-03T13:47:34Z</time></trkpt><trkpt lat="45.45510789127912" lon="11.457857823628002"><ele>43.0</ele><time>2026-04-03T13:47:35Z</time></trkpt><trkpt lat="45.45523029453777" lon="11.45792941527289"><ele>43.0</ele><time>2026-04-03T13:47:35.999Z</time></trkpt><trkpt lat="45.45531606148907" lon="11.458031384618096"><ele>43.0</ele><time>2026-04-03T13:47:36.999Z</time></trkpt><trkpt lat="45.45537467303187" lon="11.458168226945466"><ele>43.0</ele><time>2026-04-03T13:47:37.999Z</time></trkpt><trkpt lat="45.4554135835717" lon="11.458341592997193"><ele>44.75</ele><time>2026-04-03T13:47:38.999Z</time></trkpt><trkpt lat="45.45538446407537" lon="11.458528136489425"><ele>46.5</ele><time>2026-04-03T13:47:39.999Z</time></trkpt><trkpt lat="45.45536515890618" lon="11.45871240870159"><ele>48.25</ele><time>2026-04-03T13:47:40.999Z</time></trkpt><trkpt lat="45.455342089793" lon="11.458874567734412"><ele>50.0</ele><time>2026-04-03T13:47:41.999Z</time></trkpt><trkpt lat="45.45531471337525" lon="11.459008841895583"><ele>51.0</ele><time>2026-04-03T13:47:42.999Z</time></trkpt><trkpt lat="45.455281643129844" lon="11.459127079436469"><ele>52.0</ele><time>2026-04-03T13:47:43.999Z</time></trkpt><trkpt lat="45.45524051805531" lon="11.459233677991836"><ele>53.0</ele><time>2026-04-03T13:47:44.999Z</time></trkpt><trkpt lat="45.455172572521" lon="11.45931074959483"><ele>54.0</ele><time>2026-04-03T13:47:45.999Z</time></trkpt><trkpt lat="45.45507040668858" lon="11.459348034273136"><ele>55.0</ele><time>2026-04-03T13:47:46.999Z</time></trkpt><trkpt lat="45.45494144558315" lon="11.459345791004495"><ele>55.0</ele><time>2026-04-03T13:47:47.999Z</time></trkpt><trkpt lat="45.45480671357029" lon="11.459402963869026"><ele>55.0</ele><time>2026-04-03T13:47:48.999Z</time></trkpt><trkpt lat="45.45470167624543" lon="11.459483937349994"><ele>55.0</ele><time>2026-04-03T13:47:49.999Z</time></trkpt><trkpt lat="45.45461789742201" lon="11.459619561656599"><ele>55.0</ele><time>2026-04-03T13:47:50.999Z</time></trkpt><trkpt lat="45.454559610018855" lon="11.459737725287605"><ele>55.8</ele><time>2026-04-03T13:47:51.999Z</time></trkpt><trkpt lat="45.454507412969534" lon="11.45984828447918"><ele>56.6</ele><time>2026-04-03T13:47:52.999Z</time></trkpt><trkpt lat="45.45451662561351" lon="11.460018004973227"><ele>57.400000000000006</ele><time>2026-04-03T13:47:53.999Z</time></trkpt><trkpt lat="45.45452887258105" lon="11.460182618251695"><ele>58.2</ele><time>2026-04-03T13:47:54.999Z</time></trkpt><trkpt lat="45.45455430715803" lon="11.460342087122509"><ele>59.0</ele><time>2026-04-03T13:47:55.999Z</time></trkpt><trkpt lat="45.45456999086291" lon="11.460522656939194"><ele>60.0</ele><time>2026-04-03T13:47:56.999Z</time></trkpt><trkpt lat="45.45456941927466" lon="11.460693022012261"><ele>61.0</ele><time>2026-04-03T13:47:57.999Z</time></trkpt><trkpt lat="45.454552767691546" lon="11.460820564268307"><ele>62.0</ele><time>2026-04-03T13:47:58.999Z</time></trkpt><trkpt lat="45.45455311257699" lon="11.461089741131474"><ele>63.0</ele><time>2026-04-03T13:47:59.999Z</time></trkpt><trkpt lat="45.45450193319858" lon="11.461293570097496"><ele>64.0</ele><time>2026-04-03T13:48:00.999Z</time></trkpt><trkpt lat="45.45445075613207" lon="11.461487498686774"><ele>65.0</ele><time>2026-04-03T13:48:01.999Z</time></trkpt><trkpt lat="45.45442284434824" lon="11.461648643604974"><ele>66.0</ele><time>2026-04-03T13:48:02.999Z</time></trkpt><trkpt lat="45.45440512246186" lon="11.461776086044134"><ele>67.0</ele><time>2026-04-03T13:48:03.999Z</time></trkpt><trkpt lat="45.454422431785886" lon="11.461925867881407"><ele>67.0</ele><time>2026-04-03T13:48:04.999Z</time></trkpt><trkpt lat="45.45446743653105" lon="11.4620996596117"><ele>67.0</ele><time>2026-04-03T13:48:05.999Z</time></trkpt><trkpt lat="45.45450095158118" lon="11.462309211308654"><ele>67.0</ele><time>2026-04-03T13:48:06.999Z</time></trkpt><trkpt lat="45.4545001211484" lon="11.462562632822364"><ele>69.0</ele><time>2026-04-03T13:48:07.999Z</time></trkpt><trkpt lat="45.45449397542067" lon="11.462845475945596"><ele>71.0</ele><time>2026-04-03T13:48:08.999Z</time></trkpt><trkpt lat="45.45445698761093" lon="11.463139893507797"><ele>73.0</ele><time>2026-04-03T13:48:09.999Z</time></trkpt><trkpt lat="45.45441281246696" lon="11.463433638040321"><ele>74.33333333333333</ele><time>2026-04-03T13:48:10.999Z</time></trkpt><trkpt lat="45.45436962410463" lon="11.463674462811273"><ele>75.66666666666667</ele><time>2026-04-03T13:48:11.999Z</time></trkpt><trkpt lat="45.454312378830835" lon="11.46387847778538"><ele>77.0</ele><time>2026-04-03T13:48:12.999Z</time></trkpt><trkpt lat="45.45423715723546" lon="11.464057601093504"><ele>78.5</ele><time>2026-04-03T13:48:13.999Z</time></trkpt><trkpt lat="45.45418382940852" lon="11.46423075970416"><ele>80.0</ele><time>2026-04-03T13:48:14.999Z</time></trkpt><trkpt lat="45.45413438138891" lon="11.464372175273093"><ele>81.5</ele><time>2026-04-03T13:48:15.999Z</time></trkpt><trkpt lat="45.45412899971765" lon="11.464524692435473"><ele>83.0</ele><time>2026-04-03T13:48:16.999Z</time></trkpt><trkpt lat="45.45414705047745" lon="11.464709234433347"><ele>85.33333333333334</ele><time>2026-04-03T13:48:17.999Z</time></trkpt><trkpt lat="45.45418898898748" lon="11.464959912646362"><ele>87.66666666666667</ele><time>2026-04-03T13:48:18.999Z</time></trkpt><trkpt lat="45.45424678078529" lon="11.465227814591442"><ele>90.0</ele><time>2026-04-03T13:48:19.999Z</time></trkpt><trkpt lat="45.45434449644458" lon="11.465508035470663"><ele>92.0</ele><time>2026-04-03T13:48:20.999Z</time></trkpt><trkpt lat="45.454444390989266" lon="11.465746104573894"><ele>94.0</ele><time>2026-04-03T13:48:21.999Z</time></trkpt><trkpt lat="45.45450835428706" lon="11.465966845225465"><ele>96.0</ele><time>2026-04-03T13:48:22.999Z</time></trkpt><trkpt lat="45.454537264473494" lon="11.466175984217543"><ele>96.4</ele><time>2026-04-03T13:48:23.999Z</time></trkpt><trkpt lat="45.45454498207183" lon="11.466362533902828"><ele>96.8</ele><time>2026-04-03T13:48:24.999Z</time></trkpt><trkpt lat="45.45455214592889" lon="11.46650889038442"><ele>97.2</ele><time>2026-04-03T13:48:25.999Z</time></trkpt><trkpt lat="45.454596101229406" lon="11.466626606544866"><ele>97.60000000000001</ele><time>2026-04-03T13:48:26.999Z</time></trkpt><trkpt lat="45.45468608003703" lon="11.46673995124464"><ele>98.0</ele><time>2026-04-03T13:48:27.999Z</time></trkpt><trkpt lat="45.45480232411607" lon="11.466836619735417"><ele>100.33333333333333</ele><time>2026-04-03T13:48:28.999Z</time></trkpt><trkpt lat="45.45494377998957" lon="11.46696348670902"><ele>102.66666666666666</ele><time>2026-04-03T13:48:29.999Z</time></trkpt><trkpt lat="45.45511518881396" lon="11.46713126444137"><ele>105.0</ele><time>2026-04-03T13:48:30.999Z</time></trkpt><trkpt lat="45.45527233778277" lon="11.467283241003628"><ele>107.0</ele><time>2026-04-03T13:48:31.999Z</time></trkpt><trkpt lat="45.45539338107171" lon="11.467414311723633"><ele>109.0</ele><time>2026-04-03T13:48:32.999Z</time></trkpt><trkpt lat="45.45548946966737" lon="11.467541743601094"><ele>111.0</ele><time>2026-04-03T13:48:33.999Z</time></trkpt><trkpt lat="45.45555643988508" lon="11.46766638137468"><ele>113.0</ele><time>2026-04-03T13:48:34.999Z</time></trkpt><trkpt lat="45.455601107109594" lon="11.467819907605788"><ele>113.0</ele><time>2026-04-03T13:48:35.999Z</time></trkpt><trkpt lat="45.455630493404676" lon="11.467964529433889"><ele>113.0</ele><time>2026-04-03T13:48:36.999Z</time></trkpt><trkpt lat="45.45565600048651" lon="11.468096365862479"><ele>113.0</ele><time>2026-04-03T13:48:37.999Z</time></trkpt><trkpt lat="45.45571522345093" lon="11.468239505361815"><ele>113.0</ele><time>2026-04-03T13:48:38.998Z</time></trkpt><trkpt lat="45.45555223810064" lon="11.468344971670422"><ele>113.0</ele><time>2026-04-03T13:48:39.998Z</time></trkpt><trkpt lat="45.45549053841472" lon="11.468463713260228"><ele>113.0</ele><time>2026-04-03T13:48:40.998Z</time></trkpt><trkpt lat="45.45541406758113" lon="11.468610889276617"><ele>113.0</ele><time>2026-04-03T13:48:41.998Z</time></trkpt><trkpt lat="45.4553109198589" lon="11.468783570188972"><ele>113.0</ele><time>2026-04-03T13:48:42.998Z</time></trkpt><trkpt lat="45.45517193315763" lon="11.468969102726465"><ele>117.0</ele><time>2026-04-03T13:48:43.998Z</time></trkpt><trkpt lat="45.45505794554021" lon="11.469181289180348"><ele>121.0</ele><time>2026-04-03T13:48:44.998Z</time></trkpt><trkpt lat="45.45495431416939" lon="11.469368746169929"><ele>125.0</ele><time>2026-04-03T13:48:45.998Z</time></trkpt><trkpt lat="45.45485517587447" lon="11.469532197052061"><ele>124.25</ele><time>2026-04-03T13:48:46.998Z</time></trkpt><trkpt lat="45.45475616584191" lon="11.469684346471768"><ele>123.5</ele><time>2026-04-03T13:48:47.998Z</time></trkpt><trkpt lat="45.45467569882571" lon="11.469834317111836"><ele>122.75</ele><time>2026-04-03T13:48:48.998Z</time></trkpt><trkpt lat="45.454588383864326" lon="11.469979676243327"><ele>122.0</ele><time>2026-04-03T13:48:49.998Z</time></trkpt><trkpt lat="45.45448879665509" lon="11.470106773482668"><ele>123.75</ele><time>2026-04-03T13:48:51Z</time></trkpt><trkpt lat="45.45435182406012" lon="11.470197201625043"><ele>125.5</ele><time>2026-04-03T13:48:52Z</time></trkpt><trkpt lat="45.45423611878669" lon="11.47030643717173"><ele>127.25</ele><time>2026-04-03T13:48:53Z</time></trkpt><trkpt lat="45.45415341398093" lon="11.470437179810672"><ele>129.0</ele><time>2026-04-03T13:48:54Z</time></trkpt><trkpt lat="45.45408492072997" lon="11.470578596864884"><ele>131.6</ele><time>2026-04-03T13:48:55Z</time></trkpt><trkpt lat="45.45403929411171" lon="11.470744695575075"><ele>134.2</ele><time>2026-04-03T13:48:56Z</time></trkpt><trkpt lat="45.453995005162476" lon="11.470915020857122"><ele>136.79999999999998</ele><time>2026-04-03T13:48:57Z</time></trkpt><trkpt lat="45.45396120415913" lon="11.471039401110566"><ele>139.4</ele><time>2026-04-03T13:48:58Z</time></trkpt><trkpt lat="45.45392925988323" lon="11.471166022391785"><ele>142.0</ele><time>2026-04-03T13:48:59Z</time></trkpt><trkpt lat="45.45389077722904" lon="11.471335468649075"><ele>142.0</ele><time>2026-04-03T13:49:00Z</time></trkpt><trkpt lat="45.45385061638065" lon="11.471536827128375"><ele>142.0</ele><time>2026-04-03T13:49:01Z</time></trkpt><trkpt lat="45.453804234811656" lon="11.471763858643774"><ele>142.0</ele><time>2026-04-03T13:49:02Z</time></trkpt><trkpt lat="45.45374950491882" lon="11.472019476799787"><ele>144.66666666666669</ele><time>2026-04-03T13:49:03Z</time></trkpt><trkpt lat="45.453684905764526" lon="11.472306380233581"><ele>147.33333333333334</ele><time>2026-04-03T13:49:04Z</time></trkpt><trkpt lat="45.45362471866603" lon="11.472576568860612"><ele>150.0</ele><time>2026-04-03T13:49:05Z</time></trkpt><trkpt lat="45.453572479279714" lon="11.472813465758806"><ele>154.0</ele><time>2026-04-03T13:49:06Z</time></trkpt><trkpt lat="45.45352136407118" lon="11.47302911695335"><ele>158.0</ele><time>2026-04-03T13:49:07Z</time></trkpt><trkpt lat="45.45347512188257" lon="11.473235305915583"><ele>162.0</ele><time>2026-04-03T13:49:08Z</time></trkpt><trkpt lat="45.453435990449826" lon="11.473451673166355"><ele>162.0</ele><time>2026-04-03T13:49:09Z</time></trkpt><trkpt lat="45.453402819363085" lon="11.473696568025616"><ele>162.0</ele><time>2026-04-03T13:49:10Z</time></trkpt><trkpt lat="45.45337696543192" lon="11.473936332319553"><ele>162.0</ele><time>2026-04-03T13:49:11Z</time></trkpt><trkpt lat="45.45337150451873" lon="11.474153627705808"><ele>164.0</ele><time>2026-04-03T13:49:12Z</time></trkpt><trkpt lat="45.45336831001673" lon="11.474330606883727"><ele>166.0</ele><time>2026-04-03T13:49:13Z</time></trkpt><trkpt lat="45.4533514772797" lon="11.474485850053286"><ele>168.0</ele><time>2026-04-03T13:49:14Z</time></trkpt><trkpt lat="45.453314993176704" lon="11.474629259272156"><ele>170.0</ele><time>2026-04-03T13:49:15Z</time></trkpt><trkpt lat="45.45326998246189" lon="11.474796533277274"><ele>170.2</ele><time>2026-04-03T13:49:16Z</time></trkpt><trkpt lat="45.45322523143575" lon="11.474969130979002"><ele>170.4</ele><time>2026-04-03T13:49:17Z</time></trkpt><trkpt lat="45.45317104518929" lon="11.47513425691234"><ele>170.60000000000002</ele><time>2026-04-03T13:49:18Z</time></trkpt><trkpt lat="45.45312023554268" lon="11.475249599553354"><ele>170.8</ele><time>2026-04-03T13:49:19Z</time></trkpt><trkpt lat="45.453069329553706" lon="11.475335062633519"><ele>171.0</ele><time>2026-04-03T13:49:20Z</time></trkpt><trkpt lat="45.45299224588739" lon="11.475351096815634"><ele>175.5</ele><time>2026-04-03T13:49:21Z</time></trkpt><trkpt lat="45.45292497715896" lon="11.475304651215698"><ele>180.0</ele><time>2026-04-03T13:49:22Z</time></trkpt><trkpt lat="45.452863745490575" lon="11.475213935006078"><ele>184.5</ele><time>2026-04-03T13:49:23Z</time></trkpt><trkpt lat="45.4527557815074" lon="11.475113245685087"><ele>189.0</ele><time>2026-04-03T13:49:24Z</time></trkpt><trkpt lat="45.4526178474429" lon="11.474986531693148"><ele>189.0</ele><time>2026-04-03T13:49:25Z</time></trkpt><trkpt lat="45.452468179739995" lon="11.474849038439816"><ele>189.0</ele><time>2026-04-03T13:49:26Z</time></trkpt><trkpt lat="45.452288666255505" lon="11.474693436665765"><ele>189.0</ele><time>2026-04-03T13:49:27Z</time></trkpt><trkpt lat="45.45212014364132" lon="11.474573608025429"><ele>189.39999999999998</ele><time>2026-04-03T13:49:28Z</time></trkpt><trkpt lat="45.45199639717371" lon="11.47446725662207"><ele>189.8</ele><time>2026-04-03T13:49:29Z</time></trkpt><trkpt lat="45.451891393179174" lon="11.474389968963067"><ele>190.2</ele><time>2026-04-03T13:49:30Z</time></trkpt><trkpt lat="45.451809624482394" lon="11.474345118724536"><ele>190.60000000000002</ele><time>2026-04-03T13:49:31Z</time></trkpt><trkpt lat="45.45174920059147" lon="11.47431084189445"><ele>191.0</ele><time>2026-04-03T13:49:32Z</time></trkpt><trkpt lat="45.45167912150595" lon="11.474268152670893"><ele>191.0</ele><time>2026-04-03T13:49:33Z</time></trkpt><trkpt lat="45.45158787602017" lon="11.474215476388654"><ele>191.0</ele><time>2026-04-03T13:49:34Z</time></trkpt><trkpt lat="45.45147074537409" lon="11.474182416633715"><ele>191.0</ele><time>2026-04-03T13:49:35Z</time></trkpt><trkpt lat="45.451325129038686" lon="11.474190328907987"><ele>191.0</ele><time>2026-04-03T13:49:36Z</time></trkpt><trkpt lat="45.451153951757554" lon="11.474197646484393"><ele>189.33333333333331</ele><time>2026-04-03T13:49:37Z</time></trkpt><trkpt lat="45.45096560654985" lon="11.474224918734748"><ele>187.66666666666666</ele><time>2026-04-03T13:49:38Z</time></trkpt><trkpt lat="45.450779422252396" lon="11.474249047672672"><ele>186.0</ele><time>2026-04-03T13:49:39Z</time></trkpt><trkpt lat="45.450608207287566" lon="11.474267730734256"><ele>185.25</ele><time>2026-04-03T13:49:40Z</time></trkpt><trkpt lat="45.450451449560326" lon="11.474280679531743"><ele>184.5</ele><time>2026-04-03T13:49:40.999Z</time></trkpt><trkpt lat="45.45030750727476" lon="11.47429304196113"><ele>183.75</ele><time>2026-04-03T13:49:41.999Z</time></trkpt><trkpt lat="45.45018052448473" lon="11.474345214935068"><ele>183.0</ele><time>2026-04-03T13:49:42.999Z</time></trkpt><trkpt lat="45.45003416775019" lon="11.474372518425287"><ele>183.0</ele><time>2026-04-03T13:49:43.999Z</time></trkpt><trkpt lat="45.44986366789411" lon="11.4744485090166"><ele>183.0</ele><time>2026-04-03T13:49:44.999Z</time></trkpt><trkpt lat="45.449681136219965" lon="11.474554373906715"><ele>183.0</ele><time>2026-04-03T13:49:45.999Z</time></trkpt><trkpt lat="45.449501907953035" lon="11.474668169611128"><ele>190.0</ele><time>2026-04-03T13:49:46.999Z</time></trkpt><trkpt lat="45.44932673745068" lon="11.474776292426288"><ele>197.0</ele><time>2026-04-03T13:49:47.999Z</time></trkpt><trkpt lat="45.44915499412362" lon="11.4748706227513"><ele>204.0</ele><time>2026-04-03T13:49:48.999Z</time></trkpt><trkpt lat="45.44898329750915" lon="11.474945810165982"><ele>204.0</ele><time>2026-04-03T13:49:49.999Z</time></trkpt><trkpt lat="45.44879468850729" lon="11.474993062381179"><ele>204.0</ele><time>2026-04-03T13:49:50.999Z</time></trkpt><trkpt lat="45.448582148253614" lon="11.475004812292473"><ele>204.0</ele><time>2026-04-03T13:49:51.999Z</time></trkpt><trkpt lat="45.448379038212096" lon="11.474994054299595"><ele>207.0</ele><time>2026-04-03T13:49:52.999Z</time></trkpt><trkpt lat="45.44819110210199" lon="11.475011777865548"><ele>210.0</ele><time>2026-04-03T13:49:53.999Z</time></trkpt><trkpt lat="45.448035419090274" lon="11.47500275664093"><ele>213.0</ele><time>2026-04-03T13:49:54.999Z</time></trkpt><trkpt lat="45.447891999055976" lon="11.47500541315011"><ele>214.0</ele><time>2026-04-03T13:49:55.999Z</time></trkpt><trkpt lat="45.44776215065598" lon="11.475034785383784"><ele>215.0</ele><time>2026-04-03T13:49:56.999Z</time></trkpt><trkpt lat="45.44763792520123" lon="11.475120673129211"><ele>216.0</ele><time>2026-04-03T13:49:57.999Z</time></trkpt><trkpt lat="45.447500860071976" lon="11.475229333954177"><ele>217.0</ele><time>2026-04-03T13:49:58.999Z</time></trkpt><trkpt lat="45.44736111618916" lon="11.475343732544127"><ele>217.0</ele><time>2026-04-03T13:49:59.999Z</time></trkpt><trkpt lat="45.44719825532301" lon="11.475415629642786"><ele>217.0</ele><time>2026-04-03T13:50:00.999Z</time></trkpt><trkpt lat="45.44702951782491" lon="11.475466983198814"><ele>217.0</ele><time>2026-04-03T13:50:01.999Z</time></trkpt><trkpt lat="45.44686049944129" lon="11.475483567663694"><ele>226.0</ele><time>2026-04-03T13:50:02.999Z</time></trkpt><trkpt lat="45.44668189782553" lon="11.475510222862846"><ele>235.0</ele><time>2026-04-03T13:50:03.999Z</time></trkpt><trkpt lat="45.4464726553417" lon="11.47554748425583"><ele>244.0</ele><time>2026-04-03T13:50:04.999Z</time></trkpt><trkpt lat="45.44629910131352" lon="11.475630433931414"><ele>244.0</ele><time>2026-04-03T13:50:05.999Z</time></trkpt><trkpt lat="45.4461406427851" lon="11.47567345163117"><ele>244.0</ele><time>2026-04-03T13:50:06.999Z</time></trkpt><trkpt lat="45.44598818427167" lon="11.475641591122276"><ele>244.0</ele><time>2026-04-03T13:50:07.999Z</time></trkpt><trkpt lat="45.445820245867004" lon="11.475611299747666"><ele>244.0</ele><time>2026-04-03T13:50:08.999Z</time></trkpt><trkpt lat="45.44562573592588" lon="11.475565152516813"><ele>244.0</ele><time>2026-04-03T13:50:09.999Z</time></trkpt><trkpt lat="45.44541579168768" lon="11.475534339783158"><ele>244.0</ele><time>2026-04-03T13:50:10.999Z</time></trkpt><trkpt lat="45.44520915840557" lon="11.475451935525154"><ele>239.66666666666666</ele><time>2026-04-03T13:50:11.999Z</time></trkpt><trkpt lat="45.4450118799645" lon="11.47537321948102"><ele>235.33333333333331</ele><time>2026-04-03T13:50:12.999Z</time></trkpt><trkpt lat="45.444811501717936" lon="11.475315906384076"><ele>231.0</ele><time>2026-04-03T13:50:13.999Z</time></trkpt><trkpt lat="45.44461637897018" lon="11.475242270626262"><ele>231.0</ele><time>2026-04-03T13:50:14.999Z</time></trkpt><trkpt lat="45.444393906667926" lon="11.475155863097768"><ele>231.0</ele><time>2026-04-03T13:50:15.999Z</time></trkpt><trkpt lat="45.44413919122285" lon="11.475098696526327"><ele>231.0</ele><time>2026-04-03T13:50:16.999Z</time></trkpt><trkpt lat="45.44390235075829" lon="11.475041683059121"><ele>231.0</ele><time>2026-04-03T13:50:17.999Z</time></trkpt><trkpt lat="45.443693693133" lon="11.474986413842243"><ele>235.0</ele><time>2026-04-03T13:50:18.999Z</time></trkpt><trkpt lat="45.44352429636154" lon="11.474933982643758"><ele>239.0</ele><time>2026-04-03T13:50:19.999Z</time></trkpt><trkpt lat="45.44339755627881" lon="11.474873542207973"><ele>243.0</ele><time>2026-04-03T13:50:20.999Z</time></trkpt><trkpt lat="45.44329172354737" lon="11.47479686575217"><ele>247.0</ele><time>2026-04-03T13:50:21.999Z</time></trkpt><trkpt lat="45.44317383720735" lon="11.47471766384537"><ele>247.0</ele><time>2026-04-03T13:50:22.999Z</time></trkpt><trkpt lat="45.44305273635099" lon="11.474636699067869"><ele>247.0</ele><time>2026-04-03T13:50:23.999Z</time></trkpt><trkpt lat="45.44296527379415" lon="11.474475815816325"><ele>247.0</ele><time>2026-04-03T13:50:24.999Z</time></trkpt><trkpt lat="45.44286495604846" lon="11.47433387891429"><ele>247.0</ele><time>2026-04-03T13:50:25.999Z</time></trkpt><trkpt lat="45.442759554054845" lon="11.474246351890054"><ele>245.75</ele><time>2026-04-03T13:50:26.999Z</time></trkpt><trkpt lat="45.442648380464895" lon="11.474183589348241"><ele>244.5</ele><time>2026-04-03T13:50:27.999Z</time></trkpt><trkpt lat="45.44250828791028" lon="11.474160096692703"><ele>243.25</ele><time>2026-04-03T13:50:28.999Z</time></trkpt><trkpt lat="45.44237863174919" lon="11.474099106861592"><ele>242.0</ele><time>2026-04-03T13:50:29.999Z</time></trkpt><trkpt lat="45.442264154805734" lon="11.474038346075282"><ele>242.0</ele><time>2026-04-03T13:50:30.999Z</time></trkpt><trkpt lat="45.44215595491958" lon="11.47396160606232"><ele>242.0</ele><time>2026-04-03T13:50:31.999Z</time></trkpt><trkpt lat="45.44205243314724" lon="11.473849706366178"><ele>242.0</ele><time>2026-04-03T13:50:32.999Z</time></trkpt><trkpt lat="45.44193140290443" lon="11.473777780501257"><ele>242.0</ele><time>2026-04-03T13:50:33.999Z</time></trkpt><trkpt lat="45.4417776006345" lon="11.473759056266555"><ele>249.33333333333334</ele><time>2026-04-03T13:50:34.999Z</time></trkpt><trkpt lat="45.441594542341" lon="11.473693574210932"><ele>256.6666666666667</ele><time>2026-04-03T13:50:35.999Z</time></trkpt><trkpt lat="45.441420792534004" lon="11.473653138906156"><ele>264.0</ele><time>2026-04-03T13:50:36.999Z</time></trkpt><trkpt lat="45.44128170851438" lon="11.473639737321298"><ele>264.0</ele><time>2026-04-03T13:50:37.999Z</time></trkpt><trkpt lat="45.44116650018613" lon="11.47364701778645"><ele>264.0</ele><time>2026-04-03T13:50:38.999Z</time></trkpt><trkpt lat="45.4410680972597" lon="11.473677394211801"><ele>264.0</ele><time>2026-04-03T13:50:39.999Z</time></trkpt><trkpt lat="45.44099990754385" lon="11.473745132765622"><ele>264.0</ele><time>2026-04-03T13:50:40.998Z</time></trkpt><trkpt lat="45.44093566873252" lon="11.473758886826179"><ele>264.0</ele><time>2026-04-03T13:50:41.998Z</time></trkpt><trkpt lat="45.44084153768272" lon="11.473647666633104"><ele>264.0</ele><time>2026-04-03T13:50:43.998Z</time></trkpt><trkpt lat="45.440743128763536" lon="11.473519931499457"><ele>264.0</ele><time>2026-04-03T13:50:44.998Z</time></trkpt><trkpt lat="45.44059834876499" lon="11.473376801579843"><ele>264.0</ele><time>2026-04-03T13:50:45.998Z</time></trkpt><trkpt lat="45.440400885479576" lon="11.473269593336422"><ele>266.6666666666667</ele><time>2026-04-03T13:50:46.998Z</time></trkpt><trkpt lat="45.44019491427248" lon="11.473111051927264"><ele>269.33333333333337</ele><time>2026-04-03T13:50:47.998Z</time></trkpt><trkpt lat="45.44000769009698" lon="11.472963373624822"><ele>272.0</ele><time>2026-04-03T13:50:48.998Z</time></trkpt><trkpt lat="45.439836498151365" lon="11.472823649125871"><ele>272.0</ele><time>2026-04-03T13:50:49.998Z</time></trkpt><trkpt lat="45.43967357846265" lon="11.472611590483837"><ele>272.0</ele><time>2026-04-03T13:50:50.998Z</time></trkpt><trkpt lat="45.43949266627006" lon="11.47242739173605"><ele>272.0</ele><time>2026-04-03T13:50:51.998Z</time></trkpt><trkpt lat="45.43932178579877" lon="11.472253043779135"><ele>270.6666666666667</ele><time>2026-04-03T13:50:52.998Z</time></trkpt><trkpt lat="45.439163482674694" lon="11.472096534866496"><ele>269.3333333333333</ele><time>2026-04-03T13:50:53.998Z</time></trkpt><trkpt lat="45.43900526523832" lon="11.471942009684708"><ele>268.0</ele><time>2026-04-03T13:50:54.998Z</time></trkpt><trkpt lat="45.43884701279322" lon="11.471787450352178"><ele>260.0</ele><time>2026-04-03T13:50:55.998Z</time></trkpt><trkpt lat="45.43869543461039" lon="11.471639409463446"><ele>252.0</ele><time>2026-04-03T13:50:57Z</time></trkpt><trkpt lat="45.43855502506112" lon="11.471504130558037"><ele>244.0</ele><time>2026-04-03T13:50:58Z</time></trkpt><trkpt lat="45.43843255679906" lon="11.471388866195573"><ele>242.75</ele><time>2026-04-03T13:50:59Z</time></trkpt><trkpt lat="45.43830930189023" lon="11.4712735321049"><ele>241.5</ele><time>2026-04-03T13:51:00Z</time></trkpt><trkpt lat="45.43818136025502" lon="11.471178861699483"><ele>240.25</ele><time>2026-04-03T13:51:01Z</time></trkpt><trkpt lat="45.438045192721354" lon="11.471106777114112"><ele>239.0</ele><time>2026-04-03T13:51:02Z</time></trkpt><trkpt lat="45.43790098343814" lon="11.471038056609169"><ele>239.0</ele><time>2026-04-03T13:51:03Z</time></trkpt><trkpt lat="45.437763784417605" lon="11.470974107020183"><ele>238.99999999999997</ele><time>2026-04-03T13:51:04Z</time></trkpt><trkpt lat="45.43764614869512" lon="11.470919276025349"><ele>238.99999999999997</ele><time>2026-04-03T13:51:05Z</time></trkpt><trkpt lat="45.437555852150126" lon="11.470874592348677"><ele>239.0</ele><time>2026-04-03T13:51:06Z</time></trkpt><trkpt lat="45.43749332455205" lon="11.470817680336134"><ele>239.0</ele><time>2026-04-03T13:51:07Z</time></trkpt><trkpt lat="45.437453855870885" lon="11.470728235659262"><ele>239.0</ele><time>2026-04-03T13:51:08Z</time></trkpt><trkpt lat="45.437447651936054" lon="11.470621481465685"><ele>239.0</ele><time>2026-04-03T13:51:09Z</time></trkpt><trkpt lat="45.437516992873846" lon="11.470468554110306"><ele>239.0</ele><time>2026-04-03T13:51:10Z</time></trkpt><trkpt lat="45.43758088716105" lon="11.47032542026103"><ele>239.0</ele><time>2026-04-03T13:51:11Z</time></trkpt><trkpt lat="45.43764204654322" lon="11.470154429475857"><ele>238.66666666666669</ele><time>2026-04-03T13:51:12Z</time></trkpt><trkpt lat="45.4376335381192" lon="11.469928496563778"><ele>238.33333333333331</ele><time>2026-04-03T13:51:13Z</time></trkpt><trkpt lat="45.437566899994074" lon="11.469706043965845"><ele>238.0</ele><time>2026-04-03T13:51:14Z</time></trkpt><trkpt lat="45.437538528441934" lon="11.469485111357692"><ele>236.75</ele><time>2026-04-03T13:51:15Z</time></trkpt><trkpt lat="45.43750114253586" lon="11.469269608379552"><ele>235.5</ele><time>2026-04-03T13:51:16Z</time></trkpt><trkpt lat="45.437481636730546" lon="11.469069419449914"><ele>234.25</ele><time>2026-04-03T13:51:17Z</time></trkpt><trkpt lat="45.43749580616637" lon="11.468882023910114"><ele>233.0</ele><time>2026-04-03T13:51:18Z</time></trkpt><trkpt lat="45.43754112558389" lon="11.468700999467483"><ele>230.0</ele><time>2026-04-03T13:51:19Z</time></trkpt><trkpt lat="45.43760510227624" lon="11.468509854256007"><ele>227.0</ele><time>2026-04-03T13:51:20Z</time></trkpt><trkpt lat="45.437698108990865" lon="11.468337055864001"><ele>224.0</ele><time>2026-04-03T13:51:21Z</time></trkpt><trkpt lat="45.43777167107198" lon="11.468233026843915"><ele>221.0</ele><time>2026-04-03T13:51:22Z</time></trkpt><trkpt lat="45.43789173589444" lon="11.46810116479041"><ele>219.66666666666669</ele><time>2026-04-03T13:51:23Z</time></trkpt><trkpt lat="45.438033635586315" lon="11.467968519432448"><ele>218.33333333333331</ele><time>2026-04-03T13:51:24Z</time></trkpt><trkpt lat="45.43818748507492" lon="11.467824276639059"><ele>217.0</ele><time>2026-04-03T13:51:25Z</time></trkpt><trkpt lat="45.438330508688146" lon="11.46768330595837"><ele>217.0</ele><time>2026-04-03T13:51:26Z</time></trkpt><trkpt lat="45.4384543774049" lon="11.467560372252564"><ele>217.0</ele><time>2026-04-03T13:51:27Z</time></trkpt><trkpt lat="45.43856965564711" lon="11.467478681071706"><ele>217.0</ele><time>2026-04-03T13:51:28Z</time></trkpt><trkpt lat="45.43865707596792" lon="11.467378468374335"><ele>217.0</ele><time>2026-04-03T13:51:29Z</time></trkpt><trkpt lat="45.43872797981987" lon="11.467287267899614"><ele>217.0</ele><time>2026-04-03T13:51:30Z</time></trkpt><trkpt lat="45.43874295984608" lon="11.46713896257618"><ele>217.0</ele><time>2026-04-03T13:51:31Z</time></trkpt><trkpt lat="45.438756761653764" lon="11.466964011825286"><ele>217.0</ele><time>2026-04-03T13:51:32Z</time></trkpt><trkpt lat="45.438752572186424" lon="11.466767453141186"><ele>217.0</ele><time>2026-04-03T13:51:33Z</time></trkpt><trkpt lat="45.43880352789533" lon="11.466564269933517"><ele>216.33333333333331</ele><time>2026-04-03T13:51:34Z</time></trkpt><trkpt lat="45.43888472369585" lon="11.466352465179531"><ele>215.66666666666669</ele><time>2026-04-03T13:51:35Z</time></trkpt><trkpt lat="45.43898615114341" lon="11.46611612387961"><ele>215.0</ele><time>2026-04-03T13:51:36Z</time></trkpt><trkpt lat="45.43904967191698" lon="11.465871774753413"><ele>215.0</ele><time>2026-04-03T13:51:37Z</time></trkpt><trkpt lat="45.43910278609001" lon="11.465667814335427"><ele>215.0</ele><time>2026-04-03T13:51:38Z</time></trkpt><trkpt lat="45.43913494979378" lon="11.465502383194298"><ele>215.0</ele><time>2026-04-03T13:51:39Z</time></trkpt><trkpt lat="45.43914275844199" lon="11.465356492497184"><ele>215.0</ele><time>2026-04-03T13:51:40Z</time></trkpt><trkpt lat="45.4391185510829" lon="11.465220800929787"><ele>213.0</ele><time>2026-04-03T13:51:41Z</time></trkpt><trkpt lat="45.439048580002854" lon="11.465119310172692"><ele>211.0</ele><time>2026-04-03T13:51:41.999Z</time></trkpt><trkpt lat="45.43894066450561" lon="11.465045874543518"><ele>209.0</ele><time>2026-04-03T13:51:42.999Z</time></trkpt><trkpt lat="45.438759237144836" lon="11.465038642198023"><ele>207.0</ele><time>2026-04-03T13:51:43.999Z</time></trkpt><trkpt lat="45.43864639366801" lon="11.464997282807902"><ele>206.2</ele><time>2026-04-03T13:51:44.999Z</time></trkpt><trkpt lat="45.43855146721149" lon="11.464956170322695"><ele>205.39999999999998</ele><time>2026-04-03T13:51:45.999Z</time></trkpt><trkpt lat="45.43847387552037" lon="11.46488946919456"><ele>204.60000000000002</ele><time>2026-04-03T13:51:46.999Z</time></trkpt><trkpt lat="45.4384215242088" lon="11.464774550712578"><ele>203.8</ele><time>2026-04-03T13:51:47.999Z</time></trkpt><trkpt lat="45.43837817455364" lon="11.46463334191681"><ele>203.0</ele><time>2026-04-03T13:51:48.999Z</time></trkpt><trkpt lat="45.43830148460991" lon="11.464501635556905"><ele>201.5</ele><time>2026-04-03T13:51:49.999Z</time></trkpt><trkpt lat="45.43823183985213" lon="11.464375977734127"><ele>200.0</ele><time>2026-04-03T13:51:50.999Z</time></trkpt><trkpt lat="45.43810414266545" lon="11.464317857344033"><ele>198.5</ele><time>2026-04-03T13:51:51.999Z</time></trkpt><trkpt lat="45.43796425092596" lon="11.464246017317047"><ele>197.0</ele><time>2026-04-03T13:51:52.999Z</time></trkpt><trkpt lat="45.43781383544236" lon="11.464210613906"><ele>194.25</ele><time>2026-04-03T13:51:53.999Z</time></trkpt><trkpt lat="45.437685476775506" lon="11.464169191568823"><ele>191.5</ele><time>2026-04-03T13:51:54.999Z</time></trkpt><trkpt lat="45.43754294122886" lon="11.464118726071126"><ele>188.75</ele><time>2026-04-03T13:51:55.999Z</time></trkpt><trkpt lat="45.43740606056639" lon="11.464101665465805"><ele>186.0</ele><time>2026-04-03T13:51:56.999Z</time></trkpt><trkpt lat="45.43729018826893" lon="11.464138005562234"><ele>186.0</ele><time>2026-04-03T13:51:57.999Z</time></trkpt><trkpt lat="45.43717696907421" lon="11.464184760862873"><ele>186.0</ele><time>2026-04-03T13:51:58.999Z</time></trkpt><trkpt lat="45.43707846940837" lon="11.464289349524378"><ele>186.0</ele><time>2026-04-03T13:51:59.999Z</time></trkpt><trkpt lat="45.43698150207095" lon="11.464381100287381"><ele>186.0</ele><time>2026-04-03T13:52:00.999Z</time></trkpt><trkpt lat="45.436868423191285" lon="11.464460814771"><ele>182.0</ele><time>2026-04-03T13:52:01.999Z</time></trkpt><trkpt lat="45.43675167706657" lon="11.464485232439488"><ele>178.0</ele><time>2026-04-03T13:52:02.999Z</time></trkpt><trkpt lat="45.43662557962756" lon="11.464522688452476"><ele>174.0</ele><time>2026-04-03T13:52:03.999Z</time></trkpt><trkpt lat="45.43649144135792" lon="11.46456207644399"><ele>170.0</ele><time>2026-04-03T13:52:04.999Z</time></trkpt><trkpt lat="45.436346157861365" lon="11.464605076670066"><ele>166.0</ele><time>2026-04-03T13:52:05.999Z</time></trkpt><trkpt lat="45.43618822219494" lon="11.464652812986559"><ele>162.0</ele><time>2026-04-03T13:52:06.999Z</time></trkpt><trkpt lat="45.436024809744765" lon="11.464702765791028"><ele>158.0</ele><time>2026-04-03T13:52:07.999Z</time></trkpt><trkpt lat="45.4358664747348" lon="11.464752581816754"><ele>158.0</ele><time>2026-04-03T13:52:08.999Z</time></trkpt><trkpt lat="45.43571682521583" lon="11.464799665041259"><ele>158.0</ele><time>2026-04-03T13:52:09.999Z</time></trkpt><trkpt lat="45.435579879286536" lon="11.464842751470606"><ele>158.0</ele><time>2026-04-03T13:52:10.999Z</time></trkpt><trkpt lat="45.43546057650519" lon="11.464875185936481"><ele>158.0</ele><time>2026-04-03T13:52:11.999Z</time></trkpt><trkpt lat="45.435351087221385" lon="11.464893871076198"><ele>155.25</ele><time>2026-04-03T13:52:12.999Z</time></trkpt><trkpt lat="45.43523801204438" lon="11.464859310283455"><ele>152.5</ele><time>2026-04-03T13:52:13.999Z</time></trkpt><trkpt lat="45.435121663873545" lon="11.464775936184386"><ele>149.75</ele><time>2026-04-03T13:52:14.999Z</time></trkpt><trkpt lat="45.43497884328177" lon="11.464672975443133"><ele>147.0</ele><time>2026-04-03T13:52:15.999Z</time></trkpt><trkpt lat="45.434841104270454" lon="11.464574429763827"><ele>147.0</ele><time>2026-04-03T13:52:16.999Z</time></trkpt><trkpt lat="45.43470296032704" lon="11.464527077863513"><ele>147.0</ele><time>2026-04-03T13:52:17.999Z</time></trkpt><trkpt lat="45.434592328161735" lon="11.464451040548628"><ele>147.0</ele><time>2026-04-03T13:52:18.999Z</time></trkpt><trkpt lat="45.434478608954485" lon="11.464413330225133"><ele>147.0</ele><time>2026-04-03T13:52:19.999Z</time></trkpt><trkpt lat="45.4343677093457" lon="11.464400612796718"><ele>147.2</ele><time>2026-04-03T13:52:20.999Z</time></trkpt><trkpt lat="45.434281849230004" lon="11.464431197152448"><ele>147.39999999999998</ele><time>2026-04-03T13:52:21.999Z</time></trkpt><trkpt lat="45.43422126002906" lon="11.464480283518855"><ele>147.60000000000002</ele><time>2026-04-03T13:52:22.999Z</time></trkpt><trkpt lat="45.43411178564192" lon="11.464471573209686"><ele>147.8</ele><time>2026-04-03T13:52:26.999Z</time></trkpt><trkpt lat="45.434008704243574" lon="11.464532959761792"><ele>148.0</ele><time>2026-04-03T13:52:27.999Z</time></trkpt><trkpt lat="45.43388638263918" lon="11.464608115780958"><ele>144.33333333333334</ele><time>2026-04-03T13:52:28.999Z</time></trkpt><trkpt lat="45.433739723752524" lon="11.464685393031614"><ele>140.66666666666666</ele><time>2026-04-03T13:52:29.999Z</time></trkpt><trkpt lat="45.43357980889543" lon="11.46478350314758"><ele>137.0</ele><time>2026-04-03T13:52:30.999Z</time></trkpt><trkpt lat="45.433410741099905" lon="11.46489408935091"><ele>137.0</ele><time>2026-04-03T13:52:31.999Z</time></trkpt><trkpt lat="45.43324908713731" lon="11.465001076537064"><ele>137.0</ele><time>2026-04-03T13:52:32.999Z</time></trkpt><trkpt lat="45.433102553722485" lon="11.465099787009994"><ele>137.0</ele><time>2026-04-03T13:52:33.999Z</time></trkpt><trkpt lat="45.43296434402215" lon="11.46520898093447"><ele>134.25</ele><time>2026-04-03T13:52:34.999Z</time></trkpt><trkpt lat="45.43285165412407" lon="11.465349102497685"><ele>131.5</ele><time>2026-04-03T13:52:35.999Z</time></trkpt><trkpt lat="45.43274269011143" lon="11.465482224455439"><ele>128.75</ele><time>2026-04-03T13:52:36.999Z</time></trkpt><trkpt lat="45.4326283361522" lon="11.465595856601487"><ele>126.0</ele><time>2026-04-03T13:52:37.999Z</time></trkpt><trkpt lat="45.43253486135508" lon="11.465739304320158"><ele>126.0</ele><time>2026-04-03T13:52:38.999Z</time></trkpt><trkpt lat="45.43243534467876" lon="11.465825489828465"><ele>126.0</ele><time>2026-04-03T13:52:39.999Z</time></trkpt><trkpt lat="45.43237393405648" lon="11.465935831601463"><ele>126.0</ele><time>2026-04-03T13:52:40.999Z</time></trkpt><trkpt lat="45.43232418827399" lon="11.466040227129287"><ele>126.0</ele><time>2026-04-03T13:52:41.998Z</time></trkpt><trkpt lat="45.432325471391536" lon="11.466161235080422"><ele>126.0</ele><time>2026-04-03T13:52:42.998Z</time></trkpt><trkpt lat="45.43237667214819" lon="11.466271032785805"><ele>126.0</ele><time>2026-04-03T13:52:43.998Z</time></trkpt><trkpt lat="45.432463936356044" lon="11.46632239181869"><ele>126.0</ele><time>2026-04-03T13:52:44.998Z</time></trkpt><trkpt lat="45.432561547580605" lon="11.466288027935533"><ele>126.0</ele><time>2026-04-03T13:52:45.998Z</time></trkpt><trkpt lat="45.43266724458402" lon="11.466175456271651"><ele>126.0</ele><time>2026-04-03T13:52:46.998Z</time></trkpt><trkpt lat="45.432779268677486" lon="11.466036298512597"><ele>126.0</ele><time>2026-04-03T13:52:47.998Z</time></trkpt><trkpt lat="45.43290485692837" lon="11.465913202183884"><ele>126.0</ele><time>2026-04-03T13:52:48.998Z</time></trkpt><trkpt lat="45.43302953997181" lon="11.46581609661835"><ele>126.0</ele><time>2026-04-03T13:52:49.998Z</time></trkpt><trkpt lat="45.433156755476276" lon="11.46576435086123"><ele>126.0</ele><time>2026-04-03T13:52:50.998Z</time></trkpt><trkpt lat="45.43329061017972" lon="11.465776973962322"><ele>123.75</ele><time>2026-04-03T13:52:51.998Z</time></trkpt><trkpt lat="45.433422173107886" lon="11.465817737969617"><ele>121.5</ele><time>2026-04-03T13:52:52.998Z</time></trkpt><trkpt lat="45.43355426627036" lon="11.465854703369065"><ele>119.25</ele><time>2026-04-03T13:52:53.998Z</time></trkpt><trkpt lat="45.43368384097824" lon="11.465873214105706"><ele>117.0</ele><time>2026-04-03T13:52:54.998Z</time></trkpt><trkpt lat="45.433799719378264" lon="11.465889161427896"><ele>117.0</ele><time>2026-04-03T13:52:55.998Z</time></trkpt><trkpt lat="45.43390905370068" lon="11.465912842754857"><ele>116.99999999999999</ele><time>2026-04-03T13:52:56.998Z</time></trkpt><trkpt lat="45.43400017274558" lon="11.465926577191437"><ele>116.99999999999999</ele><time>2026-04-03T13:52:57.998Z</time></trkpt><trkpt lat="45.43408189379837" lon="11.465938877107426"><ele>117.0</ele><time>2026-04-03T13:52:58.998Z</time></trkpt><trkpt lat="45.43415770203973" lon="11.465949059860206"><ele>117.0</ele><time>2026-04-03T13:52:59.998Z</time></trkpt><trkpt lat="45.43426158219615" lon="11.46597809608532"><ele>117.0</ele><time>2026-04-03T13:53:01.998Z</time></trkpt><trkpt lat="45.43431064132874" lon="11.466065739285229"><ele>116.99999999999999</ele><time>2026-04-03T13:53:04Z</time></trkpt><trkpt lat="45.43426128844292" lon="11.466182132608886"><ele>116.99999999999999</ele><time>2026-04-03T13:53:06Z</time></trkpt><trkpt lat="45.434192768442436" lon="11.466182155650307"><ele>117.0</ele><time>2026-04-03T13:53:07Z</time></trkpt><trkpt lat="45.43409536620467" lon="11.466221274279995"><ele>117.0</ele><time>2026-04-03T13:53:08Z</time></trkpt><trkpt lat="45.43394610347552" lon="11.46628013671521"><ele>111.66666666666666</ele><time>2026-04-03T13:53:09Z</time></trkpt><trkpt lat="45.43375914285961" lon="11.466354879802955"><ele>106.33333333333333</ele><time>2026-04-03T13:53:10Z</time></trkpt><trkpt lat="45.433577881672825" lon="11.466427187041493"><ele>101.0</ele><time>2026-04-03T13:53:11Z</time></trkpt><trkpt lat="45.43341591278914" lon="11.466514141696523"><ele>101.0</ele><time>2026-04-03T13:53:12Z</time></trkpt><trkpt lat="45.433254817197444" lon="11.466553554196729"><ele>101.0</ele><time>2026-04-03T13:53:13Z</time></trkpt><trkpt lat="45.433129024203424" lon="11.466646524212182"><ele>101.0</ele><time>2026-04-03T13:53:14Z</time></trkpt><trkpt lat="45.433022422289085" lon="11.466763740554548"><ele>101.0</ele><time>2026-04-03T13:53:15Z</time></trkpt><trkpt lat="45.43294070297127" lon="11.466941090460377"><ele>100.25</ele><time>2026-04-03T13:53:16Z</time></trkpt><trkpt lat="45.43288081264503" lon="11.467138414295171"><ele>99.5</ele><time>2026-04-03T13:53:17Z</time></trkpt><trkpt lat="45.432800092791716" lon="11.46728819831424"><ele>98.75</ele><time>2026-04-03T13:53:18Z</time></trkpt><trkpt lat="45.43268783455306" lon="11.467406009583017"><ele>98.0</ele><time>2026-04-03T13:53:19Z</time></trkpt><trkpt lat="45.43254421786573" lon="11.467489322810595"><ele>98.0</ele><time>2026-04-03T13:53:20Z</time></trkpt><trkpt lat="45.43237200425735" lon="11.467567470331376"><ele>98.0</ele><time>2026-04-03T13:53:21Z</time></trkpt><trkpt lat="45.43219512447602" lon="11.46767485739801"><ele>98.0</ele><time>2026-04-03T13:53:22Z</time></trkpt><trkpt lat="45.432007551294156" lon="11.46776734307024"><ele>97.33333333333333</ele><time>2026-04-03T13:53:23Z</time></trkpt><trkpt lat="45.431807117274246" lon="11.467846474624283"><ele>96.66666666666666</ele><time>2026-04-03T13:53:24Z</time></trkpt><trkpt lat="45.43161730428907" lon="11.467937738158778"><ele>96.0</ele><time>2026-04-03T13:53:25Z</time></trkpt><trkpt lat="45.43143318383657" lon="11.468024450356536"><ele>92.0</ele><time>2026-04-03T13:53:26Z</time></trkpt><trkpt lat="45.43126188486527" lon="11.46811350537391"><ele>88.0</ele><time>2026-04-03T13:53:27Z</time></trkpt><trkpt lat="45.43110576109273" lon="11.468241697246047"><ele>84.0</ele><time>2026-04-03T13:53:28Z</time></trkpt><trkpt lat="45.43093778511457" lon="11.468349326095595"><ele>84.0</ele><time>2026-04-03T13:53:29Z</time></trkpt><trkpt lat="45.43078416253112" lon="11.468495962848348"><ele>84.0</ele><time>2026-04-03T13:53:30Z</time></trkpt><trkpt lat="45.43062723141259" lon="11.468648635662538"><ele>84.0</ele><time>2026-04-03T13:53:31Z</time></trkpt><trkpt lat="45.43045414416585" lon="11.468759742917808"><ele>79.33333333333333</ele><time>2026-04-03T13:53:32Z</time></trkpt><trkpt lat="45.430280535941684" lon="11.468820822925968"><ele>74.66666666666666</ele><time>2026-04-03T13:53:33Z</time></trkpt><trkpt lat="45.43012205633639" lon="11.468901241085174"><ele>70.0</ele><time>2026-04-03T13:53:34Z</time></trkpt><trkpt lat="45.42999271632217" lon="11.469044253324446"><ele>70.0</ele><time>2026-04-03T13:53:35Z</time></trkpt><trkpt lat="45.42987473872197" lon="11.46921914301612"><ele>70.0</ele><time>2026-04-03T13:53:36Z</time></trkpt><trkpt lat="45.42974244006819" lon="11.469371910281039"><ele>70.0</ele><time>2026-04-03T13:53:37Z</time></trkpt><trkpt lat="45.42958909426615" lon="11.46949315596503"><ele>66.66666666666666</ele><time>2026-04-03T13:53:38Z</time></trkpt><trkpt lat="45.429410057384956" lon="11.469606036574827"><ele>63.33333333333333</ele><time>2026-04-03T13:53:39Z</time></trkpt><trkpt lat="45.42921826135125" lon="11.46972402757849"><ele>60.0</ele><time>2026-04-03T13:53:40Z</time></trkpt><trkpt lat="45.4290153209092" lon="11.469846564218916"><ele>60.0</ele><time>2026-04-03T13:53:41Z</time></trkpt><trkpt lat="45.428811755302014" lon="11.469968833516134"><ele>60.0</ele><time>2026-04-03T13:53:42Z</time></trkpt><trkpt lat="45.428620577906344" lon="11.47008366429053"><ele>60.0</ele><time>2026-04-03T13:53:43Z</time></trkpt><trkpt lat="45.42844278226004" lon="11.47018814348392"><ele>56.66666666666667</ele><time>2026-04-03T13:53:44Z</time></trkpt><trkpt lat="45.42828299132309" lon="11.470319652946188"><ele>53.333333333333336</ele><time>2026-04-03T13:53:45Z</time></trkpt><trkpt lat="45.42812685108999" lon="11.470418578575835"><ele>50.0</ele><time>2026-04-03T13:53:46Z</time></trkpt><trkpt lat="45.427991557559906" lon="11.470529824860838"><ele>52.0</ele><time>2026-04-03T13:53:47Z</time></trkpt><trkpt lat="45.42787989891993" lon="11.470679612157607"><ele>54.0</ele><time>2026-04-03T13:53:48Z</time></trkpt><trkpt lat="45.42778378951969" lon="11.470871487965889"><ele>56.0</ele><time>2026-04-03T13:53:49Z</time></trkpt><trkpt lat="45.427710219620586" lon="11.471091956128115"><ele>53.66666666666667</ele><time>2026-04-03T13:53:50Z</time></trkpt><trkpt lat="45.427643685045226" lon="11.47135081763882"><ele>51.33333333333333</ele><time>2026-04-03T13:53:51Z</time></trkpt><trkpt lat="45.427581486225286" lon="11.471619819055366"><ele>49.0</ele><time>2026-04-03T13:53:51.999Z</time></trkpt><trkpt lat="45.427524907961924" lon="11.47188141971668"><ele>47.33333333333333</ele><time>2026-04-03T13:53:52.999Z</time></trkpt><trkpt lat="45.42743806808479" lon="11.472123351898436"><ele>45.666666666666664</ele><time>2026-04-03T13:53:53.999Z</time></trkpt><trkpt lat="45.42733450252514" lon="11.472329334843897"><ele>44.0</ele><time>2026-04-03T13:53:54.999Z</time></trkpt><trkpt lat="45.42720239875774" lon="11.472502666734794"><ele>44.0</ele><time>2026-04-03T13:53:55.999Z</time></trkpt><trkpt lat="45.42705557753966" lon="11.472656879030444"><ele>44.0</ele><time>2026-04-03T13:53:56.999Z</time></trkpt><trkpt lat="45.426900527720896" lon="11.472807768063763"><ele>44.0</ele><time>2026-04-03T13:53:57.999Z</time></trkpt><trkpt lat="45.42675733252406" lon="11.472949331784157"><ele>44.0</ele><time>2026-04-03T13:53:58.999Z</time></trkpt><trkpt lat="45.4266135253132" lon="11.473092245046587"><ele>44.0</ele><time>2026-04-03T13:53:59.999Z</time></trkpt><trkpt lat="45.426480236513726" lon="11.473223926306542"><ele>44.0</ele><time>2026-04-03T13:54:00.999Z</time></trkpt><trkpt lat="45.42635638526204" lon="11.473346283774273"><ele>45.0</ele><time>2026-04-03T13:54:01.999Z</time></trkpt><trkpt lat="45.42623848482782" lon="11.473460587777398"><ele>46.0</ele><time>2026-04-03T13:54:02.999Z</time></trkpt><trkpt lat="45.42612853696888" lon="11.473567210017986"><ele>47.0</ele><time>2026-04-03T13:54:03.999Z</time></trkpt><trkpt lat="45.42601859256824" lon="11.47367066699315"><ele>48.0</ele><time>2026-04-03T13:54:04.999Z</time></trkpt><trkpt lat="45.425899334577615" lon="11.473755864883675"><ele>46.599999999999994</ele><time>2026-04-03T13:54:05.999Z</time></trkpt><trkpt lat="45.42579045306206" lon="11.473820714234952"><ele>45.199999999999996</ele><time>2026-04-03T13:54:06.999Z</time></trkpt><trkpt lat="45.42568545241212" lon="11.47386518807275"><ele>43.8</ele><time>2026-04-03T13:54:07.999Z</time></trkpt><trkpt lat="45.42557928632632" lon="11.473893550432821"><ele>42.4</ele><time>2026-04-03T13:54:08.999Z</time></trkpt><trkpt lat="45.42547012202689" lon="11.473913153557401"><ele>41.0</ele><time>2026-04-03T13:54:09.999Z</time></trkpt><trkpt lat="45.42535887638636" lon="11.473958318097482"><ele>41.0</ele><time>2026-04-03T13:54:10.999Z</time></trkpt><trkpt lat="45.42524257025089" lon="11.47394705533572"><ele>41.0</ele><time>2026-04-03T13:54:11.999Z</time></trkpt><trkpt lat="45.425136090980224" lon="11.47391300339872"><ele>41.0</ele><time>2026-04-03T13:54:12.999Z</time></trkpt><trkpt lat="45.42504023879282" lon="11.473865292858905"><ele>41.0</ele><time>2026-04-03T13:54:13.999Z</time></trkpt><trkpt lat="45.42495911312348" lon="11.473820195802904"><ele>41.0</ele><time>2026-04-03T13:54:14.999Z</time></trkpt><trkpt lat="45.42490443278646" lon="11.473750874721945"><ele>41.0</ele><time>2026-04-03T13:54:15.999Z</time></trkpt><trkpt lat="45.42483616400214" lon="11.473719436269382"><ele>41.0</ele><time>2026-04-03T13:54:17.999Z</time></trkpt><trkpt lat="45.42475798927745" lon="11.474009339876499"><ele>41.0</ele><time>2026-04-03T13:54:18.999Z</time></trkpt><trkpt lat="45.424753557483484" lon="11.474175619662372"><ele>41.0</ele><time>2026-04-03T13:54:19.999Z</time></trkpt><trkpt lat="45.42476008637725" lon="11.474376046062746"><ele>41.0</ele><time>2026-04-03T13:54:20.999Z</time></trkpt><trkpt lat="45.42474907567654" lon="11.474590290126223"><ele>41.0</ele><time>2026-04-03T13:54:21.999Z</time></trkpt><trkpt lat="45.42473063645968" lon="11.474822155432093"><ele>41.0</ele><time>2026-04-03T13:54:22.999Z</time></trkpt><trkpt lat="45.42469904338311" lon="11.475034401703184"><ele>41.0</ele><time>2026-04-03T13:54:23.999Z</time></trkpt><trkpt lat="45.42466206399048" lon="11.47521281044434"><ele>41.0</ele><time>2026-04-03T13:54:24.999Z</time></trkpt><trkpt lat="45.4246010826798" lon="11.475352337983486"><ele>41.0</ele><time>2026-04-03T13:54:25.999Z</time></trkpt><trkpt lat="45.42465476056257" lon="11.475579665131045"><ele>41.0</ele><time>2026-04-03T13:54:26.999Z</time></trkpt><trkpt lat="45.42468857232083" lon="11.475803958418426"><ele>41.0</ele><time>2026-04-03T13:54:27.999Z</time></trkpt><trkpt lat="45.42472673793647" lon="11.476041531540133"><ele>41.0</ele><time>2026-04-03T13:54:28.999Z</time></trkpt><trkpt lat="45.42477432984645" lon="11.476274791171644"><ele>41.0</ele><time>2026-04-03T13:54:29.999Z</time></trkpt><trkpt lat="45.424853591879035" lon="11.476476051965061"><ele>41.33333333333333</ele><time>2026-04-03T13:54:30.999Z</time></trkpt><trkpt lat="45.42495645064246" lon="11.476652793695289"><ele>41.666666666666664</ele><time>2026-04-03T13:54:31.999Z</time></trkpt><trkpt lat="45.42508769644041" lon="11.47682142218694"><ele>42.0</ele><time>2026-04-03T13:54:32.999Z</time></trkpt><trkpt lat="45.4252344531098" lon="11.476970922262677"><ele>42.666666666666664</ele><time>2026-04-03T13:54:33.999Z</time></trkpt><trkpt lat="45.42538228769982" lon="11.477110820749406"><ele>43.33333333333333</ele><time>2026-04-03T13:54:34.999Z</time></trkpt><trkpt lat="45.42552070816193" lon="11.477248676262597"><ele>44.0</ele><time>2026-04-03T13:54:35.999Z</time></trkpt><trkpt lat="45.42563395199549" lon="11.477382967219258"><ele>45.0</ele><time>2026-04-03T13:54:36.999Z</time></trkpt><trkpt lat="45.42573842738661" lon="11.477498614200288"><ele>46.0</ele><time>2026-04-03T13:54:37.999Z</time></trkpt><trkpt lat="45.42583945527584" lon="11.477574345125149"><ele>47.0</ele><time>2026-04-03T13:54:38.999Z</time></trkpt><trkpt lat="45.4259850978426" lon="11.477631100727177"><ele>48.0</ele><time>2026-04-03T13:54:39.999Z</time></trkpt><trkpt lat="45.426159534085635" lon="11.477659200838925"><ele>50.0</ele><time>2026-04-03T13:54:40.999Z</time></trkpt><trkpt lat="45.42632127561178" lon="11.477666048477316"><ele>52.0</ele><time>2026-04-03T13:54:41.999Z</time></trkpt><trkpt lat="45.42644794723358" lon="11.477656811137088"><ele>54.0</ele><time>2026-04-03T13:54:42.999Z</time></trkpt><trkpt lat="45.42654404562494" lon="11.477639219832408"><ele>56.0</ele><time>2026-04-03T13:54:43.999Z</time></trkpt><trkpt lat="45.42663896969704" lon="11.477678364673373"><ele>56.0</ele><time>2026-04-03T13:54:45.999Z</time></trkpt><trkpt lat="45.426573043705645" lon="11.477846484401557"><ele>56.0</ele><time>2026-04-03T13:54:47.999Z</time></trkpt><trkpt lat="45.42647373261623" lon="11.477778587190711"><ele>56.0</ele><time>2026-04-03T13:54:48.999Z</time></trkpt><trkpt lat="45.42637674710364" lon="11.477810247176611"><ele>56.0</ele><time>2026-04-03T13:54:49.998Z</time></trkpt><trkpt lat="45.42625522020426" lon="11.477856709444916"><ele>57.25</ele><time>2026-04-03T13:54:50.998Z</time></trkpt><trkpt lat="45.42612535772699" lon="11.477987237912348"><ele>58.5</ele><time>2026-04-03T13:54:51.998Z</time></trkpt><trkpt lat="45.426015221199634" lon="11.478112184570781"><ele>59.75</ele><time>2026-04-03T13:54:52.998Z</time></trkpt><trkpt lat="45.42596150525271" lon="11.478256780373867"><ele>61.0</ele><time>2026-04-03T13:54:53.998Z</time></trkpt><trkpt lat="45.42594926858306" lon="11.47842462794944"><ele>61.0</ele><time>2026-04-03T13:54:54.998Z</time></trkpt><trkpt lat="45.42597120420258" lon="11.478623696740263"><ele>61.0</ele><time>2026-04-03T13:54:55.998Z</time></trkpt><trkpt lat="45.4260086445757" lon="11.478850240419526"><ele>61.0</ele><time>2026-04-03T13:54:56.998Z</time></trkpt><trkpt lat="45.426051286509086" lon="11.479098158519855"><ele>63.666666666666664</ele><time>2026-04-03T13:54:57.998Z</time></trkpt><trkpt lat="45.426091261716664" lon="11.479369344941894"><ele>66.33333333333333</ele><time>2026-04-03T13:54:58.998Z</time></trkpt><trkpt lat="45.42609147291303" lon="11.479661544087438"><ele>69.0</ele><time>2026-04-03T13:54:59.998Z</time></trkpt><trkpt lat="45.42609045824569" lon="11.479906339973676"><ele>71.4</ele><time>2026-04-03T13:55:00.998Z</time></trkpt><trkpt lat="45.42608459598996" lon="11.480106086179504"><ele>73.80000000000001</ele><time>2026-04-03T13:55:01.998Z</time></trkpt><trkpt lat="45.426072018116464" lon="11.48026547558141"><ele>76.19999999999999</ele><time>2026-04-03T13:55:02.998Z</time></trkpt><trkpt lat="45.426041425572116" lon="11.480387434994888"><ele>78.6</ele><time>2026-04-03T13:55:03.998Z</time></trkpt><trkpt lat="45.42597140143274" lon="11.480456411328579"><ele>81.0</ele><time>2026-04-03T13:55:04.998Z</time></trkpt><trkpt lat="45.42587379371937" lon="11.48050588305999"><ele>84.33333333333333</ele><time>2026-04-03T13:55:05.998Z</time></trkpt><trkpt lat="45.42575832235984" lon="11.480572975796978"><ele>87.66666666666666</ele><time>2026-04-03T13:55:06.998Z</time></trkpt><trkpt lat="45.42561783164891" lon="11.480663884114913"><ele>91.0</ele><time>2026-04-03T13:55:07.998Z</time></trkpt><trkpt lat="45.42544666284525" lon="11.48077491262205"><ele>91.0</ele><time>2026-04-03T13:55:09Z</time></trkpt><trkpt lat="45.42524188486914" lon="11.480900557403178"><ele>91.0</ele><time>2026-04-03T13:55:10Z</time></trkpt><trkpt lat="45.42507544049463" lon="11.481027827781036"><ele>91.0</ele><time>2026-04-03T13:55:11Z</time></trkpt><trkpt lat="45.42493113899886" lon="11.481149738407806"><ele>96.33333333333333</ele><time>2026-04-03T13:55:12Z</time></trkpt><trkpt lat="45.4248014935921" lon="11.481307331942338"><ele>101.66666666666666</ele><time>2026-04-03T13:55:13Z</time></trkpt><trkpt lat="45.4246679594959" lon="11.481447840150636"><ele>107.0</ele><time>2026-04-03T13:55:14Z</time></trkpt><trkpt lat="45.42456081938862" lon="11.48157492224414"><ele>107.0</ele><time>2026-04-03T13:55:15Z</time></trkpt><trkpt lat="45.42446418508677" lon="11.481651993968729"><ele>107.0</ele><time>2026-04-03T13:55:16Z</time></trkpt><trkpt lat="45.424363769562824" lon="11.481677383209874"><ele>107.0</ele><time>2026-04-03T13:55:17Z</time></trkpt><trkpt lat="45.4242606208511" lon="11.481639876489902"><ele>107.0</ele><time>2026-04-03T13:55:18Z</time></trkpt><trkpt lat="45.42411598754327" lon="11.48160347712041"><ele>107.0</ele><time>2026-04-03T13:55:19Z</time></trkpt><trkpt lat="45.423983307457426" lon="11.481575754847952"><ele>106.99999999999999</ele><time>2026-04-03T13:55:20Z</time></trkpt><trkpt lat="45.42387883216579" lon="11.481587527886788"><ele>106.99999999999999</ele><time>2026-04-03T13:55:21Z</time></trkpt><trkpt lat="45.42379804407769" lon="11.481579082260742"><ele>107.0</ele><time>2026-04-03T13:55:22Z</time></trkpt><trkpt lat="45.423718773465275" lon="11.48168275201828"><ele>107.0</ele><time>2026-04-03T13:55:23Z</time></trkpt><trkpt lat="45.423612411798494" lon="11.48180607391718"><ele>106.66666666666666</ele><time>2026-04-03T13:55:24Z</time></trkpt><trkpt lat="45.423699170096164" lon="11.482048359038115"><ele>106.33333333333334</ele><time>2026-04-03T13:55:25Z</time></trkpt><trkpt lat="45.42367662742537" lon="11.482242780065679"><ele>106.0</ele><time>2026-04-03T13:55:26Z</time></trkpt><trkpt lat="45.423644720644326" lon="11.482462022552152"><ele>106.0</ele><time>2026-04-03T13:55:27Z</time></trkpt><trkpt lat="45.42360657362535" lon="11.482692285524195"><ele>106.0</ele><time>2026-04-03T13:55:28Z</time></trkpt><trkpt lat="45.42355927488156" lon="11.482947288320773"><ele>106.0</ele><time>2026-04-03T13:55:29Z</time></trkpt><trkpt lat="45.423518455145434" lon="11.48319456543046"><ele>108.5</ele><time>2026-04-03T13:55:30Z</time></trkpt><trkpt lat="45.42348697177491" lon="11.48338700841549"><ele>111.0</ele><time>2026-04-03T13:55:31Z</time></trkpt><trkpt lat="45.42345442035964" lon="11.483565935634534"><ele>113.5</ele><time>2026-04-03T13:55:32Z</time></trkpt><trkpt lat="45.42342940367815" lon="11.48373273503594"><ele>116.0</ele><time>2026-04-03T13:55:33Z</time></trkpt><trkpt lat="45.42342464994261" lon="11.483859517849252"><ele>118.0</ele><time>2026-04-03T13:55:34Z</time></trkpt><trkpt lat="45.423461514537266" lon="11.483957278768862"><ele>120.0</ele><time>2026-04-03T13:55:35Z</time></trkpt><trkpt lat="45.42353821394741" lon="11.484005451231964"><ele>122.0</ele><time>2026-04-03T13:55:36Z</time></trkpt><trkpt lat="45.42363395961217" lon="11.483987303285803"><ele>124.0</ele><time>2026-04-03T13:55:37Z</time></trkpt><trkpt lat="45.42373132077868" lon="11.483893913374645"><ele>126.0</ele><time>2026-04-03T13:55:38Z</time></trkpt><trkpt lat="45.423841209695254" lon="11.483769771413447"><ele>129.0</ele><time>2026-04-03T13:55:39Z</time></trkpt><trkpt lat="45.42399547707388" lon="11.48364407710928"><ele>132.0</ele><time>2026-04-03T13:55:40Z</time></trkpt><trkpt lat="45.42419523456521" lon="11.483497634734134"><ele>135.0</ele><time>2026-04-03T13:55:41Z</time></trkpt><trkpt lat="45.424413146860616" lon="11.48333918441635"><ele>135.0</ele><time>2026-04-03T13:55:42Z</time></trkpt><trkpt lat="45.42463560737709" lon="11.483164980735976"><ele>135.0</ele><time>2026-04-03T13:55:43Z</time></trkpt><trkpt lat="45.424848511591705" lon="11.48298259795614"><ele>137.0</ele><time>2026-04-03T13:55:44Z</time></trkpt><trkpt lat="45.425032803972734" lon="11.482768551447487"><ele>139.0</ele><time>2026-04-03T13:55:45Z</time></trkpt><trkpt lat="45.42520418944555" lon="11.482569340212772"><ele>139.0</ele><time>2026-04-03T13:55:46Z</time></trkpt><trkpt lat="45.42535642426627" lon="11.482415970930399"><ele>139.0</ele><time>2026-04-03T13:55:47Z</time></trkpt><trkpt lat="45.425529386458386" lon="11.482280018192471"><ele>139.0</ele><time>2026-04-03T13:55:48Z</time></trkpt><trkpt lat="45.425699305421745" lon="11.482180629054916"><ele>139.66666666666669</ele><time>2026-04-03T13:55:49Z</time></trkpt><trkpt lat="45.42584599761647" lon="11.482103847641183"><ele>140.33333333333334</ele><time>2026-04-03T13:55:50Z</time></trkpt><trkpt lat="45.425987693671885" lon="11.48205976685498"><ele>141.0</ele><time>2026-04-03T13:55:51Z</time></trkpt><trkpt lat="45.4261429951944" lon="11.482047238343037"><ele>146.33333333333334</ele><time>2026-04-03T13:55:52Z</time></trkpt><trkpt lat="45.42631730010353" lon="11.48206505895961"><ele>151.66666666666669</ele><time>2026-04-03T13:55:53Z</time></trkpt><trkpt lat="45.42651137662734" lon="11.482048171823923"><ele>157.0</ele><time>2026-04-03T13:55:54Z</time></trkpt><trkpt lat="45.42671676646522" lon="11.481974967112139"><ele>157.0</ele><time>2026-04-03T13:55:55Z</time></trkpt><trkpt lat="45.426924731865626" lon="11.48186867796641"><ele>157.0</ele><time>2026-04-03T13:55:56Z</time></trkpt><trkpt lat="45.42712580573864" lon="11.481733777209671"><ele>157.0</ele><time>2026-04-03T13:55:57Z</time></trkpt><trkpt lat="45.42730966060387" lon="11.48158443472123"><ele>164.0</ele><time>2026-04-03T13:55:58Z</time></trkpt><trkpt lat="45.427465233596095" lon="11.481446224930632"><ele>171.0</ele><time>2026-04-03T13:55:59Z</time></trkpt><trkpt lat="45.42762656868646" lon="11.48134719231487"><ele>178.0</ele><time>2026-04-03T13:55:59.999Z</time></trkpt><trkpt lat="45.42777685812532" lon="11.48131391312508"><ele>178.0</ele><time>2026-04-03T13:56:00.999Z</time></trkpt><trkpt lat="45.42791352785952" lon="11.48131206999998"><ele>178.0</ele><time>2026-04-03T13:56:01.999Z</time></trkpt><trkpt lat="45.42805676288067" lon="11.481368016931544"><ele>178.0</ele><time>2026-04-03T13:56:02.999Z</time></trkpt><trkpt lat="45.42822158515661" lon="11.481417535922468"><ele>179.66666666666669</ele><time>2026-04-03T13:56:03.999Z</time></trkpt><trkpt lat="45.42839421277435" lon="11.481501205274572"><ele>181.33333333333334</ele><time>2026-04-03T13:56:04.999Z</time></trkpt><trkpt lat="45.428566808160646" lon="11.481565822413069"><ele>183.0</ele><time>2026-04-03T13:56:05.999Z</time></trkpt><trkpt lat="45.428719564377715" lon="11.481611924691403"><ele>182.4</ele><time>2026-04-03T13:56:06.999Z</time></trkpt><trkpt lat="45.42884887564605" lon="11.481645116009828"><ele>181.8</ele><time>2026-04-03T13:56:07.999Z</time></trkpt><trkpt lat="45.42894889020252" lon="11.481675111275424"><ele>181.2</ele><time>2026-04-03T13:56:08.999Z</time></trkpt><trkpt lat="45.42902050175932" lon="11.481716561060107"><ele>180.6</ele><time>2026-04-03T13:56:09.999Z</time></trkpt><trkpt lat="45.429030101898746" lon="11.48188835079672"><ele>180.0</ele><time>2026-04-03T13:56:11.999Z</time></trkpt><trkpt lat="45.4289692224012" lon="11.481955181541286"><ele>180.0</ele><time>2026-04-03T13:56:12.999Z</time></trkpt><trkpt lat="45.42887376894099" lon="11.48191979488122"><ele>180.0</ele><time>2026-04-03T13:56:13.999Z</time></trkpt><trkpt lat="45.4287564875272" lon="11.481937078194251"><ele>180.0</ele><time>2026-04-03T13:56:14.999Z</time></trkpt><trkpt lat="45.42859863747304" lon="11.481988451161884"><ele>180.0</ele><time>2026-04-03T13:56:15.999Z</time></trkpt><trkpt lat="45.428411451970454" lon="11.482023302786773"><ele>181.0</ele><time>2026-04-03T13:56:16.999Z</time></trkpt><trkpt lat="45.42822523456047" lon="11.48209098300995"><ele>182.0</ele><time>2026-04-03T13:56:17.999Z</time></trkpt><trkpt lat="45.42804349042245" lon="11.482204461912643"><ele>183.0</ele><time>2026-04-03T13:56:18.999Z</time></trkpt><trkpt lat="45.427870509518904" lon="11.48235018894022"><ele>189.5</ele><time>2026-04-03T13:56:19.999Z</time></trkpt><trkpt lat="45.42769707970628" lon="11.482543652778912"><ele>196.0</ele><time>2026-04-03T13:56:20.999Z</time></trkpt><trkpt lat="45.42751242613557" lon="11.482747823506521"><ele>204.0</ele><time>2026-04-03T13:56:21.999Z</time></trkpt><trkpt lat="45.427320644710704" lon="11.48295487754389"><ele>212.0</ele><time>2026-04-03T13:56:22.999Z</time></trkpt><trkpt lat="45.427152989253074" lon="11.483135884953509"><ele>209.25</ele><time>2026-04-03T13:56:23.999Z</time></trkpt><trkpt lat="45.42701311511543" lon="11.483287243061197"><ele>206.5</ele><time>2026-04-03T13:56:24.999Z</time></trkpt><trkpt lat="45.42691005143261" lon="11.483424125378537"><ele>203.75</ele><time>2026-04-03T13:56:25.999Z</time></trkpt><trkpt lat="45.42682970590801" lon="11.483520296003233"><ele>201.0</ele><time>2026-04-03T13:56:26.999Z</time></trkpt><trkpt lat="45.42678438651674" lon="11.48361580656137"><ele>201.0</ele><time>2026-04-03T13:56:27.999Z</time></trkpt><trkpt lat="45.42678369954293" lon="11.48371845163324"><ele>201.0</ele><time>2026-04-03T13:56:28.999Z</time></trkpt><trkpt lat="45.4268072960742" lon="11.483818467842546"><ele>201.0</ele><time>2026-04-03T13:56:29.999Z</time></trkpt><trkpt lat="45.42691826474403" lon="11.483872552483362"><ele>201.0</ele><time>2026-04-03T13:56:30.999Z</time></trkpt><trkpt lat="45.427034221953676" lon="11.48387323801747"><ele>201.0</ele><time>2026-04-03T13:56:31.999Z</time></trkpt><trkpt lat="45.42717175957252" lon="11.483833007389133"><ele>208.0</ele><time>2026-04-03T13:56:32.999Z</time></trkpt><trkpt lat="45.427350480218415" lon="11.483852511471182"><ele>215.0</ele><time>2026-04-03T13:56:33.999Z</time></trkpt><trkpt lat="45.42756589532152" lon="11.483848127088978"><ele>222.0</ele><time>2026-04-03T13:56:34.999Z</time></trkpt><trkpt lat="45.42779167783933" lon="11.483872726758854"><ele>223.0</ele><time>2026-04-03T13:56:35.999Z</time></trkpt><trkpt lat="45.42797894942269" lon="11.483887555944102"><ele>224.0</ele><time>2026-04-03T13:56:36.999Z</time></trkpt><trkpt lat="45.42809965188709" lon="11.48392019451772"><ele>225.0</ele><time>2026-04-03T13:56:37.999Z</time></trkpt><trkpt lat="45.428174344235934" lon="11.483990750670403"><ele>226.0</ele><time>2026-04-03T13:56:38.999Z</time></trkpt><trkpt lat="45.42819356804114" lon="11.484111832038066"><ele>226.0</ele><time>2026-04-03T13:56:39.999Z</time></trkpt><trkpt lat="45.42818289981398" lon="11.484260251288164"><ele>226.0</ele><time>2026-04-03T13:56:40.999Z</time></trkpt><trkpt lat="45.42812920854915" lon="11.484409217536186"><ele>226.0</ele><time>2026-04-03T13:56:41.999Z</time></trkpt><trkpt lat="45.42800238885855" lon="11.484480173822831"><ele>226.0</ele><time>2026-04-03T13:56:42.999Z</time></trkpt><trkpt lat="45.427879431387765" lon="11.484616388139614"><ele>228.66666666666666</ele><time>2026-04-03T13:56:43.999Z</time></trkpt><trkpt lat="45.42771679198917" lon="11.484796037134124"><ele>231.33333333333331</ele><time>2026-04-03T13:56:44.999Z</time></trkpt><trkpt lat="45.4275436139023" lon="11.484987139313684"><ele>234.0</ele><time>2026-04-03T13:56:45.999Z</time></trkpt><trkpt lat="45.42738191311964" lon="11.485194125778042"><ele>234.0</ele><time>2026-04-03T13:56:46.999Z</time></trkpt><trkpt lat="45.427217322152" lon="11.485373091031278"><ele>234.0</ele><time>2026-04-03T13:56:47.999Z</time></trkpt><trkpt lat="45.42704292439466" lon="11.48555365689621"><ele>234.0</ele><time>2026-04-03T13:56:48.999Z</time></trkpt><trkpt lat="45.426850854944114" lon="11.485711414212085"><ele>235.0</ele><time>2026-04-03T13:56:49.999Z</time></trkpt><trkpt lat="45.426658789546195" lon="11.485873396916087"><ele>236.0</ele><time>2026-04-03T13:56:50.999Z</time></trkpt><trkpt lat="45.42645851278323" lon="11.48602187117964"><ele>237.0</ele><time>2026-04-03T13:56:51.999Z</time></trkpt><trkpt lat="45.4262663123351" lon="11.486170939065028"><ele>243.33333333333331</ele><time>2026-04-03T13:56:52.999Z</time></trkpt><trkpt lat="45.42609839213181" lon="11.486289768444648"><ele>249.66666666666666</ele><time>2026-04-03T13:56:53.999Z</time></trkpt><trkpt lat="45.42595743673408" lon="11.486420348564483"><ele>256.0</ele><time>2026-04-03T13:56:54.998Z</time></trkpt><trkpt lat="45.425826339804985" lon="11.486520348706737"><ele>256.0</ele><time>2026-04-03T13:56:55.998Z</time></trkpt><trkpt lat="45.42570126420228" lon="11.486644651321248"><ele>256.0</ele><time>2026-04-03T13:56:56.998Z</time></trkpt><trkpt lat="45.42559813327645" lon="11.486801236207432"><ele>256.0</ele><time>2026-04-03T13:56:57.998Z</time></trkpt><trkpt lat="45.42550643727803" lon="11.486976989423106"><ele>254.25</ele><time>2026-04-03T13:56:58.998Z</time></trkpt><trkpt lat="45.425418425711555" lon="11.487156561250845"><ele>252.5</ele><time>2026-04-03T13:56:59.998Z</time></trkpt><trkpt lat="45.42534111038365" lon="11.48733428119063"><ele>250.75</ele><time>2026-04-03T13:57:00.998Z</time></trkpt><trkpt lat="45.42527027478615" lon="11.487491152211724"><ele>249.0</ele><time>2026-04-03T13:57:01.998Z</time></trkpt><trkpt lat="45.425205616809464" lon="11.487639351079054"><ele>249.0</ele><time>2026-04-03T13:57:02.998Z</time></trkpt><trkpt lat="45.42516843322266" lon="11.48776784496419"><ele>249.0</ele><time>2026-04-03T13:57:03.998Z</time></trkpt><trkpt lat="45.42516132491955" lon="11.487908680600725"><ele>249.0</ele><time>2026-04-03T13:57:04.998Z</time></trkpt><trkpt lat="45.4252125838311" lon="11.48807856815066"><ele>249.0</ele><time>2026-04-03T13:57:05.998Z</time></trkpt><trkpt lat="45.42525563693665" lon="11.48828619759467"><ele>250.66666666666669</ele><time>2026-04-03T13:57:06.998Z</time></trkpt><trkpt lat="45.4253367231661" lon="11.488511734357147"><ele>252.33333333333334</ele><time>2026-04-03T13:57:07.998Z</time></trkpt><trkpt lat="45.425416302797984" lon="11.488769671027935"><ele>254.0</ele><time>2026-04-03T13:57:08.998Z</time></trkpt><trkpt lat="45.425477503626716" lon="11.489049593404546"><ele>258.0</ele><time>2026-04-03T13:57:09.998Z</time></trkpt><trkpt lat="45.42554929514917" lon="11.489341224867092"><ele>262.0</ele><time>2026-04-03T13:57:10.998Z</time></trkpt><trkpt lat="45.425635561613014" lon="11.48962176659786"><ele>266.0</ele><time>2026-04-03T13:57:11.998Z</time></trkpt><trkpt lat="45.42574926741919" lon="11.48990569181539"><ele>266.0</ele><time>2026-04-03T13:57:12.998Z</time></trkpt><trkpt lat="45.4258822908645" lon="11.490167496013918"><ele>266.0</ele><time>2026-04-03T13:57:13.998Z</time></trkpt><trkpt lat="45.42601524475566" lon="11.490426858749526"><ele>267.6666666666667</ele><time>2026-04-03T13:57:15Z</time></trkpt><trkpt lat="45.42613116497888" lon="11.490681063701404"><ele>269.3333333333333</ele><time>2026-04-03T13:57:16Z</time></trkpt><trkpt lat="45.426238114951246" lon="11.49092530032206"><ele>271.0</ele><time>2026-04-03T13:57:17Z</time></trkpt><trkpt lat="45.426354633542914" lon="11.491148632160956"><ele>273.66666666666663</ele><time>2026-04-03T13:57:18Z</time></trkpt><trkpt lat="45.426491382481046" lon="11.491343456433556"><ele>276.3333333333333</ele><time>2026-04-03T13:57:19Z</time></trkpt><trkpt lat="45.42665251740726" lon="11.491529842858206"><ele>279.0</ele><time>2026-04-03T13:57:20Z</time></trkpt><trkpt lat="45.42681575356642" lon="11.491709248004188"><ele>279.0</ele><time>2026-04-03T13:57:21Z</time></trkpt><trkpt lat="45.42699335042243" lon="11.49191533681957"><ele>279.0</ele><time>2026-04-03T13:57:22Z</time></trkpt><trkpt lat="45.4271673805819" lon="11.492122179663117"><ele>280.6666666666667</ele><time>2026-04-03T13:57:23Z</time></trkpt><trkpt lat="45.42733402671707" lon="11.49231718341141"><ele>282.33333333333337</ele><time>2026-04-03T13:57:24Z</time></trkpt><trkpt lat="45.42750132698736" lon="11.492492772755988"><ele>284.0</ele><time>2026-04-03T13:57:25Z</time></trkpt><trkpt lat="45.42764886456125" lon="11.492653888951294"><ele>284.0</ele><time>2026-04-03T13:57:26Z</time></trkpt><trkpt lat="45.42779730304797" lon="11.49281721514527"><ele>284.0</ele><time>2026-04-03T13:57:27Z</time></trkpt><trkpt lat="45.42793864434821" lon="11.492982420291696"><ele>284.0</ele><time>2026-04-03T13:57:28Z</time></trkpt><trkpt lat="45.42808180180892" lon="11.493151131975578"><ele>285.33333333333337</ele><time>2026-04-03T13:57:29Z</time></trkpt><trkpt lat="45.42823607042034" lon="11.4933240776653"><ele>286.6666666666667</ele><time>2026-04-03T13:57:30Z</time></trkpt><trkpt lat="45.428373412181394" lon="11.493483202541698"><ele>288.0</ele><time>2026-04-03T13:57:31Z</time></trkpt><trkpt lat="45.42850150966377" lon="11.493621018268453"><ele>285.6666666666667</ele><time>2026-04-03T13:57:32Z</time></trkpt><trkpt lat="45.428615123419874" lon="11.493756790903996"><ele>283.33333333333337</ele><time>2026-04-03T13:57:33Z</time></trkpt><trkpt lat="45.42870743197423" lon="11.493922274069995"><ele>281.0</ele><time>2026-04-03T13:57:34Z</time></trkpt><trkpt lat="45.4287698159894" lon="11.494121202214547"><ele>281.0</ele><time>2026-04-03T13:57:35Z</time></trkpt><trkpt lat="45.4287585226646" lon="11.494337886604853"><ele>281.0</ele><time>2026-04-03T13:57:36Z</time></trkpt><trkpt lat="45.42873583250472" lon="11.494531126092497"><ele>281.0</ele><time>2026-04-03T13:57:37Z</time></trkpt><trkpt lat="45.42869266382518" lon="11.49473390034978"><ele>281.0</ele><time>2026-04-03T13:57:38Z</time></trkpt><trkpt lat="45.428622673054676" lon="11.49491709324998"><ele>282.25</ele><time>2026-04-03T13:57:39Z</time></trkpt><trkpt lat="45.428545721794634" lon="11.495075346979403"><ele>283.5</ele><time>2026-04-03T13:57:40Z</time></trkpt><trkpt lat="45.42849236565602" lon="11.4952313837131"><ele>284.75</ele><time>2026-04-03T13:57:41Z</time></trkpt><trkpt lat="45.42842999798044" lon="11.495350839711303"><ele>286.0</ele><time>2026-04-03T13:57:42Z</time></trkpt><trkpt lat="45.42838818354014" lon="11.495477554156274"><ele>286.2</ele><time>2026-04-03T13:57:43Z</time></trkpt><trkpt lat="45.42836821417345" lon="11.495624832734459"><ele>286.40000000000003</ele><time>2026-04-03T13:57:44Z</time></trkpt><trkpt lat="45.428391900751535" lon="11.49576634501718"><ele>286.6</ele><time>2026-04-03T13:57:45Z</time></trkpt><trkpt lat="45.42847062379358" lon="11.495856638536546"><ele>286.8</ele><time>2026-04-03T13:57:46Z</time></trkpt><trkpt lat="45.428564723227545" lon="11.495925896599037"><ele>287.0</ele><time>2026-04-03T13:57:47Z</time></trkpt><trkpt lat="45.428687746420174" lon="11.495966257721317"><ele>286.0</ele><time>2026-04-03T13:57:48Z</time></trkpt><trkpt lat="45.42882446592841" lon="11.495895355368848"><ele>285.0</ele><time>2026-04-03T13:57:49Z</time></trkpt><trkpt lat="45.42898214626472" lon="11.495850085924006"><ele>284.0</ele><time>2026-04-03T13:57:50Z</time></trkpt><trkpt lat="45.42913350279821" lon="11.49576958260043"><ele>284.0</ele><time>2026-04-03T13:57:51Z</time></trkpt><trkpt lat="45.429271565543154" lon="11.495725091300006"><ele>284.0</ele><time>2026-04-03T13:57:52Z</time></trkpt><trkpt lat="45.42939226000586" lon="11.495695326606116"><ele>284.0</ele><time>2026-04-03T13:57:53Z</time></trkpt><trkpt lat="45.42948599450165" lon="11.495667895048586"><ele>284.0</ele><time>2026-04-03T13:57:54Z</time></trkpt><trkpt lat="45.429557293788974" lon="11.495685463384818"><ele>284.0</ele><time>2026-04-03T13:57:55Z</time></trkpt><trkpt lat="45.429603650625324" lon="11.495765367990643"><ele>284.0</ele><time>2026-04-03T13:57:56Z</time></trkpt><trkpt lat="45.429617102106576" lon="11.495880583878623"><ele>284.0</ele><time>2026-04-03T13:57:57Z</time></trkpt><trkpt lat="45.42956614859706" lon="11.49600595472012"><ele>284.0</ele><time>2026-04-03T13:57:58Z</time></trkpt><trkpt lat="45.42947768341736" lon="11.496128705307465"><ele>284.0</ele><time>2026-04-03T13:57:59Z</time></trkpt><trkpt lat="45.42941138433581" lon="11.496313497514386"><ele>281.0</ele><time>2026-04-03T13:58:00Z</time></trkpt><trkpt lat="45.42932739226908" lon="11.496518073953057"><ele>278.0</ele><time>2026-04-03T13:58:01Z</time></trkpt><trkpt lat="45.42927093775745" lon="11.496757942585509"><ele>275.0</ele><time>2026-04-03T13:58:02Z</time></trkpt><trkpt lat="45.42923877546507" lon="11.497023621432511"><ele>274.6666666666667</ele><time>2026-04-03T13:58:03Z</time></trkpt><trkpt lat="45.42919171789852" lon="11.497251118873473"><ele>274.3333333333333</ele><time>2026-04-03T13:58:03.999Z</time></trkpt><trkpt lat="45.429134833175944" lon="11.49747217740723"><ele>274.0</ele><time>2026-04-03T13:58:04.999Z</time></trkpt><trkpt lat="45.4290649096366" lon="11.49769686295463"><ele>275.0</ele><time>2026-04-03T13:58:05.999Z</time></trkpt><trkpt lat="45.428964291088036" lon="11.497923004225461"><ele>276.0</ele><time>2026-04-03T13:58:06.999Z</time></trkpt><trkpt lat="45.42885606647364" lon="11.498156408947496"><ele>277.0</ele><time>2026-04-03T13:58:07.999Z</time></trkpt><trkpt lat="45.42873733189904" lon="11.498404746862661"><ele>272.0</ele><time>2026-04-03T13:58:08.999Z</time></trkpt><trkpt lat="45.42863531061315" lon="11.498664603028768"><ele>267.0</ele><time>2026-04-03T13:58:09.999Z</time></trkpt><trkpt lat="45.42852641132487" lon="11.498900967602086"><ele>262.0</ele><time>2026-04-03T13:58:10.999Z</time></trkpt><trkpt lat="45.42842792615979" lon="11.499112214866685"><ele>262.0</ele><time>2026-04-03T13:58:11.999Z</time></trkpt><trkpt lat="45.42833496877662" lon="11.49930427553956"><ele>262.0</ele><time>2026-04-03T13:58:12.999Z</time></trkpt><trkpt lat="45.42825984496947" lon="11.499483577391747"><ele>262.0</ele><time>2026-04-03T13:58:13.999Z</time></trkpt><trkpt lat="45.42820719648231" lon="11.49967793184621"><ele>263.5</ele><time>2026-04-03T13:58:14.999Z</time></trkpt><trkpt lat="45.42818598835798" lon="11.4998800573088"><ele>265.0</ele><time>2026-04-03T13:58:15.999Z</time></trkpt><trkpt lat="45.42819266003863" lon="11.500070863240198"><ele>266.5</ele><time>2026-04-03T13:58:16.999Z</time></trkpt><trkpt lat="45.428229485484835" lon="11.500230096168409"><ele>268.0</ele><time>2026-04-03T13:58:17.999Z</time></trkpt><trkpt lat="45.42830115921958" lon="11.500374687303545"><ele>267.25</ele><time>2026-04-03T13:58:18.999Z</time></trkpt><trkpt lat="45.42836927560379" lon="11.500541327478597"><ele>266.5</ele><time>2026-04-03T13:58:19.999Z</time></trkpt><trkpt lat="45.42846626726785" lon="11.500702750841082"><ele>265.75</ele><time>2026-04-03T13:58:20.999Z</time></trkpt><trkpt lat="45.42857318231369" lon="11.500848561972798"><ele>265.0</ele><time>2026-04-03T13:58:21.999Z</time></trkpt><trkpt lat="45.428670547072535" lon="11.500980034874052"><ele>265.0</ele><time>2026-04-03T13:58:22.999Z</time></trkpt><trkpt lat="45.428741554933" lon="11.501091994979793"><ele>265.0</ele><time>2026-04-03T13:58:23.999Z</time></trkpt><trkpt lat="45.42884333643258" lon="11.501147709266155"><ele>265.0</ele><time>2026-04-03T13:58:24.999Z</time></trkpt><trkpt lat="45.42895426550623" lon="11.501175621061543"><ele>265.0</ele><time>2026-04-03T13:58:25.999Z</time></trkpt><trkpt lat="45.42905855882853" lon="11.501235284815737"><ele>265.0</ele><time>2026-04-03T13:58:26.999Z</time></trkpt><trkpt lat="45.429139028510896" lon="11.501256855573725"><ele>265.8333333333333</ele><time>2026-04-03T13:58:27.999Z</time></trkpt><trkpt lat="45.42918207080103" lon="11.501325142287183"><ele>266.66666666666663</ele><time>2026-04-03T13:58:28.999Z</time></trkpt><trkpt lat="45.429189512672494" lon="11.501423429001045"><ele>267.5</ele><time>2026-04-03T13:58:29.999Z</time></trkpt><trkpt lat="45.429161837984026" lon="11.50153574357489"><ele>268.3333333333333</ele><time>2026-04-03T13:58:30.999Z</time></trkpt><trkpt lat="45.4290734600844" lon="11.501596859562277"><ele>269.1666666666667</ele><time>2026-04-03T13:58:31.999Z</time></trkpt><trkpt lat="45.42897780198704" lon="11.501653944828803"><ele>270.0</ele><time>2026-04-03T13:58:32.999Z</time></trkpt><trkpt lat="45.42884636391162" lon="11.501730559035545"><ele>270.0</ele><time>2026-04-03T13:58:33.999Z</time></trkpt><trkpt lat="45.42870063497324" lon="11.501822287463632"><ele>270.0</ele><time>2026-04-03T13:58:34.999Z</time></trkpt><trkpt lat="45.428551644529406" lon="11.501934866950045"><ele>270.0</ele><time>2026-04-03T13:58:35.999Z</time></trkpt><trkpt lat="45.428433245490645" lon="11.502082920108776"><ele>274.25</ele><time>2026-04-03T13:58:36.999Z</time></trkpt><trkpt lat="45.428318098512804" lon="11.502185156795907"><ele>278.5</ele><time>2026-04-03T13:58:37.999Z</time></trkpt><trkpt lat="45.42820750415979" lon="11.502274147324561"><ele>282.75</ele><time>2026-04-03T13:58:38.999Z</time></trkpt><trkpt lat="45.4280902199394" lon="11.502333506083641"><ele>287.0</ele><time>2026-04-03T13:58:39.999Z</time></trkpt><trkpt lat="45.4279954778297" lon="11.502286598346002"><ele>286.0</ele><time>2026-04-03T13:58:40.999Z</time></trkpt><trkpt lat="45.427902088966746" lon="11.502221040748505"><ele>285.0</ele><time>2026-04-03T13:58:41.999Z</time></trkpt><trkpt lat="45.427815839485525" lon="11.502119441477122"><ele>284.0</ele><time>2026-04-03T13:58:42.999Z</time></trkpt><trkpt lat="45.42774213494222" lon="11.502028145108929"><ele>283.0</ele><time>2026-04-03T13:58:43.999Z</time></trkpt><trkpt lat="45.427673165095506" lon="11.501983966146764"><ele>282.0</ele><time>2026-04-03T13:58:44.999Z</time></trkpt><trkpt lat="45.42758839742427" lon="11.502075220124855"><ele>282.0</ele><time>2026-04-03T13:58:46.999Z</time></trkpt><trkpt lat="45.42760458450847" lon="11.502181777831204"><ele>282.0</ele><time>2026-04-03T13:58:47.999Z</time></trkpt><trkpt lat="45.42765973910031" lon="11.502302847629867"><ele>282.0</ele><time>2026-04-03T13:58:48.999Z</time></trkpt><trkpt lat="45.42773351752713" lon="11.50243654471198"><ele>282.0</ele><time>2026-04-03T13:58:49.999Z</time></trkpt><trkpt lat="45.42782423561949" lon="11.502586468750712"><ele>282.0</ele><time>2026-04-03T13:58:50.999Z</time></trkpt><trkpt lat="45.42792726795242" lon="11.502731528224096"><ele>283.0</ele><time>2026-04-03T13:58:51.999Z</time></trkpt><trkpt lat="45.42804431539794" lon="11.502825055535718"><ele>284.0</ele><time>2026-04-03T13:58:52.999Z</time></trkpt><trkpt lat="45.42815416221305" lon="11.502866708634109"><ele>285.0</ele><time>2026-04-03T13:58:53.999Z</time></trkpt><trkpt lat="45.428233058533515" lon="11.502836798606566"><ele>286.0</ele><time>2026-04-03T13:58:54.998Z</time></trkpt><trkpt lat="45.428320902043254" lon="11.502879757192057"><ele>287.0</ele><time>2026-04-03T13:58:56.998Z</time></trkpt><trkpt lat="45.42823832369683" lon="11.503012452861046"><ele>286.6</ele><time>2026-04-03T13:58:58.998Z</time></trkpt><trkpt lat="45.42814500117154" lon="11.502999322056848"><ele>286.2</ele><time>2026-04-03T13:58:59.998Z</time></trkpt><trkpt lat="45.428043793093714" lon="11.502976105763029"><ele>285.8</ele><time>2026-04-03T13:59:00.998Z</time></trkpt><trkpt lat="45.4279428580418" lon="11.502978309361882"><ele>285.4</ele><time>2026-04-03T13:59:01.998Z</time></trkpt><trkpt lat="45.427851921856806" lon="11.5030351705786"><ele>285.0</ele><time>2026-04-03T13:59:02.998Z</time></trkpt><trkpt lat="45.42780260662728" lon="11.50322466952254"><ele>285.0</ele><time>2026-04-03T13:59:03.998Z</time></trkpt><trkpt lat="45.42773680793183" lon="11.503401256442645"><ele>285.0</ele><time>2026-04-03T13:59:04.998Z</time></trkpt><trkpt lat="45.427662902081735" lon="11.503529835622288"><ele>285.0</ele><time>2026-04-03T13:59:05.998Z</time></trkpt><trkpt lat="45.42764179926019" lon="11.503648376933063"><ele>285.0</ele><time>2026-04-03T13:59:06.998Z</time></trkpt><trkpt lat="45.427646052640995" lon="11.503772240733268"><ele>285.0</ele><time>2026-04-03T13:59:07.998Z</time></trkpt><trkpt lat="45.427706071638994" lon="11.503897237998581"><ele>282.5</ele><time>2026-04-03T13:59:08.998Z</time></trkpt><trkpt lat="45.42780337618212" lon="11.503984154137786"><ele>280.0</ele><time>2026-04-03T13:59:09.998Z</time></trkpt><trkpt lat="45.4279375337478" lon="11.503957626369951"><ele>277.5</ele><time>2026-04-03T13:59:10.998Z</time></trkpt><trkpt lat="45.428092033315714" lon="11.503969900848203"><ele>275.0</ele><time>2026-04-03T13:59:11.998Z</time></trkpt><trkpt lat="45.428244170272514" lon="11.503984557622205"><ele>285.0</ele><time>2026-04-03T13:59:12.998Z</time></trkpt><trkpt lat="45.428399600270836" lon="11.50405425231496"><ele>295.0</ele><time>2026-04-03T13:59:13.998Z</time></trkpt><trkpt lat="45.42855940217292" lon="11.504183172268887"><ele>305.0</ele><time>2026-04-03T13:59:14.998Z</time></trkpt><trkpt lat="45.42872489598959" lon="11.504356330636524"><ele>306.33333333333337</ele><time>2026-04-03T13:59:15.998Z</time></trkpt><trkpt lat="45.428895666294416" lon="11.504509898285784"><ele>307.6666666666667</ele><time>2026-04-03T13:59:16.998Z</time></trkpt><trkpt lat="45.42905693705344" lon="11.504616693151027"><ele>309.0</ele><time>2026-04-03T13:59:17.998Z</time></trkpt><trkpt lat="45.42919779412741" lon="11.504698216582863"><ele>310.75</ele><time>2026-04-03T13:59:18.998Z</time></trkpt><trkpt lat="45.429340029138686" lon="11.504751444343434"><ele>312.5</ele><time>2026-04-03T13:59:19.998Z</time></trkpt><trkpt lat="45.429481625609654" lon="11.50475039347214"><ele>314.25</ele><time>2026-04-03T13:59:21Z</time></trkpt><trkpt lat="45.42960043706054" lon="11.504714365691678"><ele>316.0</ele><time>2026-04-03T13:59:22Z</time></trkpt><trkpt lat="45.42969882250466" lon="11.504724923367679"><ele>317.0</ele><time>2026-04-03T13:59:23Z</time></trkpt><trkpt lat="45.429778917736485" lon="11.504816844279375"><ele>318.0</ele><time>2026-04-03T13:59:24Z</time></trkpt><trkpt lat="45.42984233414371" lon="11.504976954795792"><ele>319.0</ele><time>2026-04-03T13:59:25Z</time></trkpt><trkpt lat="45.429892055684036" lon="11.505184610066841"><ele>320.0</ele><time>2026-04-03T13:59:26Z</time></trkpt><trkpt lat="45.42993297752905" lon="11.505426040998081"><ele>322.33333333333337</ele><time>2026-04-03T13:59:27Z</time></trkpt><trkpt lat="45.42998749663572" lon="11.50567939567503"><ele>324.6666666666667</ele><time>2026-04-03T13:59:28Z</time></trkpt><trkpt lat="45.43002922317802" lon="11.50594904928919"><ele>327.0</ele><time>2026-04-03T13:59:29Z</time></trkpt><trkpt lat="45.43005188378635" lon="11.506231456815566"><ele>329.0</ele><time>2026-04-03T13:59:30Z</time></trkpt><trkpt lat="45.430064590290804" lon="11.506498783335187"><ele>331.0</ele><time>2026-04-03T13:59:31Z</time></trkpt><trkpt lat="45.430060007998605" lon="11.506724845344802"><ele>333.0</ele><time>2026-04-03T13:59:32Z</time></trkpt><trkpt lat="45.4300521788739" lon="11.506907546160715"><ele>333.0</ele><time>2026-04-03T13:59:33Z</time></trkpt><trkpt lat="45.43007815807244" lon="11.50704704822528"><ele>333.0</ele><time>2026-04-03T13:59:34Z</time></trkpt><trkpt lat="45.43017673121511" lon="11.507164903240827"><ele>333.0</ele><time>2026-04-03T13:59:35Z</time></trkpt><trkpt lat="45.430299168986274" lon="11.507308466836237"><ele>333.0</ele><time>2026-04-03T13:59:36Z</time></trkpt><trkpt lat="45.43046424785745" lon="11.507444208867335"><ele>337.6666666666667</ele><time>2026-04-03T13:59:37Z</time></trkpt><trkpt lat="45.43063890423244" lon="11.50760051767959"><ele>342.33333333333337</ele><time>2026-04-03T13:59:38Z</time></trkpt><trkpt lat="45.43081937671853" lon="11.50773728545079"><ele>347.0</ele><time>2026-04-03T13:59:39Z</time></trkpt><trkpt lat="45.431020075576" lon="11.507824341392029"><ele>347.0</ele><time>2026-04-03T13:59:40Z</time></trkpt><trkpt lat="45.431162332253535" lon="11.507897491238898"><ele>347.0</ele><time>2026-04-03T13:59:41Z</time></trkpt><trkpt lat="45.43127704282121" lon="11.508031210852428"><ele>347.0</ele><time>2026-04-03T13:59:42Z</time></trkpt><trkpt lat="45.43137700364376" lon="11.508188776047069"><ele>347.0</ele><time>2026-04-03T13:59:43Z</time></trkpt><trkpt lat="45.43146619879627" lon="11.50831252290186"><ele>347.75</ele><time>2026-04-03T13:59:44Z</time></trkpt><trkpt lat="45.431531183105655" lon="11.508440597653086"><ele>348.5</ele><time>2026-04-03T13:59:45Z</time></trkpt><trkpt lat="45.43158241372314" lon="11.508592267305346"><ele>349.25</ele><time>2026-04-03T13:59:46Z</time></trkpt><trkpt lat="45.431609820610724" lon="11.508773341650178"><ele>350.0</ele><time>2026-04-03T13:59:47Z</time></trkpt><trkpt lat="45.43162675327612" lon="11.508977401113208"><ele>350.5</ele><time>2026-04-03T13:59:48Z</time></trkpt><trkpt lat="45.43163175621683" lon="11.5091904324893"><ele>351.0</ele><time>2026-04-03T13:59:49Z</time></trkpt><trkpt lat="45.431646556574584" lon="11.509380080513235"><ele>351.5</ele><time>2026-04-03T13:59:50Z</time></trkpt><trkpt lat="45.431666207721186" lon="11.509549300240273"><ele>352.0</ele><time>2026-04-03T13:59:51Z</time></trkpt><trkpt lat="45.43171416631685" lon="11.509701210474493"><ele>353.0</ele><time>2026-04-03T13:59:52Z</time></trkpt><trkpt lat="45.4315994875737" lon="11.509885553200641"><ele>354.0</ele><time>2026-04-03T13:59:53Z</time></trkpt><trkpt lat="45.4315357408374" lon="11.510091183545129"><ele>355.0</ele><time>2026-04-03T13:59:54Z</time></trkpt><trkpt lat="45.43148146418321" lon="11.510316084847888"><ele>353.3333333333333</ele><time>2026-04-03T13:59:55Z</time></trkpt><trkpt lat="45.431381712683084" lon="11.510539539851516"><ele>351.6666666666667</ele><time>2026-04-03T13:59:56Z</time></trkpt><trkpt lat="45.43125108961927" lon="11.510738271248243"><ele>350.0</ele><time>2026-04-03T13:59:57Z</time></trkpt><trkpt lat="45.431119005152716" lon="11.510950164471629"><ele>350.0</ele><time>2026-04-03T13:59:58Z</time></trkpt><trkpt lat="45.43101209376474" lon="11.51119677614455"><ele>350.0</ele><time>2026-04-03T13:59:59Z</time></trkpt><trkpt lat="45.430912288578796" lon="11.511427209162639"><ele>350.0</ele><time>2026-04-03T14:00:00Z</time></trkpt><trkpt lat="45.430828974455515" lon="11.511629074478977"><ele>350.25</ele><time>2026-04-03T14:00:01Z</time></trkpt><trkpt lat="45.430734346635745" lon="11.51177791384377"><ele>350.5</ele><time>2026-04-03T14:00:02Z</time></trkpt><trkpt lat="45.43063257222238" lon="11.511885983891057"><ele>350.75</ele><time>2026-04-03T14:00:03Z</time></trkpt><trkpt lat="45.430513758241005" lon="11.511944883201881"><ele>351.0</ele><time>2026-04-03T14:00:04Z</time></trkpt><trkpt lat="45.43036717693338" lon="11.512010087344587"><ele>351.0</ele><time>2026-04-03T14:00:04.999Z</time></trkpt><trkpt lat="45.43022182555629" lon="11.51207201948182"><ele>351.0</ele><time>2026-04-03T14:00:05.999Z</time></trkpt><trkpt lat="45.430083258756056" lon="11.512128743836247"><ele>351.0</ele><time>2026-04-03T14:00:06.999Z</time></trkpt><trkpt lat="45.42993652502492" lon="11.512187908973294"><ele>351.0</ele><time>2026-04-03T14:00:07.999Z</time></trkpt><trkpt lat="45.429796850021035" lon="11.512274782055934"><ele>352.6666666666667</ele><time>2026-04-03T14:00:08.999Z</time></trkpt><trkpt lat="45.42970024686049" lon="11.512416355164008"><ele>354.33333333333337</ele><time>2026-04-03T14:00:09.999Z</time></trkpt><trkpt lat="45.42961512754051" lon="11.51257970640687"><ele>356.0</ele><time>2026-04-03T14:00:10.999Z</time></trkpt><trkpt lat="45.429541711894196" lon="11.51280837425357"><ele>358.33333333333337</ele><time>2026-04-03T14:00:11.999Z</time></trkpt><trkpt lat="45.42940833245478" lon="11.513010049151747"><ele>360.6666666666667</ele><time>2026-04-03T14:00:12.999Z</time></trkpt><trkpt lat="45.429301503871535" lon="11.513199594934227"><ele>363.0</ele><time>2026-04-03T14:00:13.999Z</time></trkpt><trkpt lat="45.429242363055174" lon="11.513390242949729"><ele>363.0</ele><time>2026-04-03T14:00:14.999Z</time></trkpt><trkpt lat="45.42922386845637" lon="11.513571624044939"><ele>363.0</ele><time>2026-04-03T14:00:15.999Z</time></trkpt><trkpt lat="45.42924552255051" lon="11.513749228528134"><ele>363.0</ele><time>2026-04-03T14:00:16.999Z</time></trkpt><trkpt lat="45.429299480216585" lon="11.513932831914115"><ele>363.0</ele><time>2026-04-03T14:00:17.999Z</time></trkpt><trkpt lat="45.42937243930027" lon="11.514143370728979"><ele>364.5</ele><time>2026-04-03T14:00:18.999Z</time></trkpt><trkpt lat="45.429427446807644" lon="11.51435410234708"><ele>366.0</ele><time>2026-04-03T14:00:19.999Z</time></trkpt><trkpt lat="45.429421653486095" lon="11.514548744579741"><ele>367.5</ele><time>2026-04-03T14:00:20.999Z</time></trkpt><trkpt lat="45.429403863957035" lon="11.514759993927399"><ele>369.0</ele><time>2026-04-03T14:00:21.999Z</time></trkpt><trkpt lat="45.42939428730939" lon="11.515002356577803"><ele>369.25</ele><time>2026-04-03T14:00:22.999Z</time></trkpt><trkpt lat="45.42936913695662" lon="11.515220511763799"><ele>369.5</ele><time>2026-04-03T14:00:23.999Z</time></trkpt><trkpt lat="45.42936003302356" lon="11.515401698292981"><ele>369.75</ele><time>2026-04-03T14:00:24.999Z</time></trkpt><trkpt lat="45.42937630088699" lon="11.515557838988865"><ele>370.0</ele><time>2026-04-03T14:00:25.999Z</time></trkpt><trkpt lat="45.429443331613726" lon="11.51572091686948"><ele>370.0</ele><time>2026-04-03T14:00:26.999Z</time></trkpt><trkpt lat="45.429562501806465" lon="11.51588634607528"><ele>370.0</ele><time>2026-04-03T14:00:27.999Z</time></trkpt><trkpt lat="45.42969666814714" lon="11.516055916366554"><ele>370.0</ele><time>2026-04-03T14:00:28.999Z</time></trkpt><trkpt lat="45.42979678416383" lon="11.516220630092798"><ele>365.25</ele><time>2026-04-03T14:00:29.999Z</time></trkpt><trkpt lat="45.429900127225814" lon="11.516323431805183"><ele>360.5</ele><time>2026-04-03T14:00:30.999Z</time></trkpt><trkpt lat="45.430019996167516" lon="11.51636746849996"><ele>355.75</ele><time>2026-04-03T14:00:31.999Z</time></trkpt><trkpt lat="45.43017347725479" lon="11.516410941191213"><ele>351.0</ele><time>2026-04-03T14:00:32.999Z</time></trkpt><trkpt lat="45.43035207486244" lon="11.516409550113964"><ele>352.25</ele><time>2026-04-03T14:00:33.999Z</time></trkpt><trkpt lat="45.43050869450255" lon="11.516435370394497"><ele>353.5</ele><time>2026-04-03T14:00:34.999Z</time></trkpt><trkpt lat="45.430620563568276" lon="11.516487329519308"><ele>354.75</ele><time>2026-04-03T14:00:35.999Z</time></trkpt><trkpt lat="45.430695821020294" lon="11.516550704701686"><ele>356.0</ele><time>2026-04-03T14:00:36.999Z</time></trkpt><trkpt lat="45.430746187710454" lon="11.516656432133702"><ele>356.0</ele><time>2026-04-03T14:00:37.999Z</time></trkpt><trkpt lat="45.43073597468107" lon="11.516798597027439"><ele>356.0</ele><time>2026-04-03T14:00:38.999Z</time></trkpt><trkpt lat="45.43066209332418" lon="11.516907473627366"><ele>356.0</ele><time>2026-04-03T14:00:39.999Z</time></trkpt><trkpt lat="45.43053949988769" lon="11.516974650565684"><ele>356.0</ele><time>2026-04-03T14:00:40.999Z</time></trkpt><trkpt lat="45.43041381666043" lon="11.517109506376213"><ele>351.0</ele><time>2026-04-03T14:00:41.999Z</time></trkpt><trkpt lat="45.43027428179867" lon="11.517295643988225"><ele>346.0</ele><time>2026-04-03T14:00:42.999Z</time></trkpt><trkpt lat="45.43013317319789" lon="11.517504565568034"><ele>341.0</ele><time>2026-04-03T14:00:43.999Z</time></trkpt><trkpt lat="45.42997732913321" lon="11.517679564172505"><ele>341.0</ele><time>2026-04-03T14:00:44.999Z</time></trkpt><trkpt lat="45.42985831695708" lon="11.517880350534723"><ele>341.0</ele><time>2026-04-03T14:00:45.999Z</time></trkpt><trkpt lat="45.429739957887655" lon="11.518067104425885"><ele>341.0</ele><time>2026-04-03T14:00:46.999Z</time></trkpt><trkpt lat="45.42961671285759" lon="11.518287300836715"><ele>339.6666666666667</ele><time>2026-04-03T14:00:47.999Z</time></trkpt><trkpt lat="45.42951678752715" lon="11.518549159228794"><ele>338.3333333333333</ele><time>2026-04-03T14:00:48.999Z</time></trkpt><trkpt lat="45.429439009958365" lon="11.518827737275476"><ele>337.0</ele><time>2026-04-03T14:00:49.999Z</time></trkpt><trkpt lat="45.42939207354158" lon="11.519091807129362"><ele>334.75</ele><time>2026-04-03T14:00:50.999Z</time></trkpt><trkpt lat="45.429355609263034" lon="11.519324415404329"><ele>332.5</ele><time>2026-04-03T14:00:51.999Z</time></trkpt><trkpt lat="45.42932646123083" lon="11.519516004944801"><ele>330.25</ele><time>2026-04-03T14:00:52.999Z</time></trkpt><trkpt lat="45.42929965571105" lon="11.519671334603157"><ele>328.0</ele><time>2026-04-03T14:00:53.999Z</time></trkpt><trkpt lat="45.42925236198867" lon="11.519780221710286"><ele>328.0</ele><time>2026-04-03T14:00:54.999Z</time></trkpt><trkpt lat="45.42920092805282" lon="11.519842549109988"><ele>328.0</ele><time>2026-04-03T14:00:55.998Z</time></trkpt><trkpt lat="45.42931598587617" lon="11.520014087669132"><ele>328.0</ele><time>2026-04-03T14:00:57.998Z</time></trkpt><trkpt lat="45.429432399722224" lon="11.520116704605465"><ele>328.0</ele><time>2026-04-03T14:00:58.998Z</time></trkpt><trkpt lat="45.42954713580054" lon="11.520232178133531"><ele>331.0</ele><time>2026-04-03T14:00:59.998Z</time></trkpt><trkpt lat="45.42968367505157" lon="11.520369544276441"><ele>334.0</ele><time>2026-04-03T14:01:00.998Z</time></trkpt><trkpt lat="45.429813220310336" lon="11.520496119316912"><ele>337.0</ele><time>2026-04-03T14:01:01.998Z</time></trkpt><trkpt lat="45.429948188056" lon="11.520624099045536"><ele>337.0</ele><time>2026-04-03T14:01:02.998Z</time></trkpt><trkpt lat="45.43009384596474" lon="11.520739628188531"><ele>337.0</ele><time>2026-04-03T14:01:03.998Z</time></trkpt><trkpt lat="45.43023624601196" lon="11.520820112701752"><ele>337.0</ele><time>2026-04-03T14:01:04.998Z</time></trkpt><trkpt lat="45.4304225790147" lon="11.520905714523325"><ele>343.0</ele><time>2026-04-03T14:01:05.998Z</time></trkpt><trkpt lat="45.43064149788135" lon="11.521011639027975"><ele>349.0</ele><time>2026-04-03T14:01:06.998Z</time></trkpt><trkpt lat="45.43087156654961" lon="11.521145962600947"><ele>348.0</ele><time>2026-04-03T14:01:07.998Z</time></trkpt><trkpt lat="45.431101396274215" lon="11.52130653012859"><ele>347.0</ele><time>2026-04-03T14:01:08.998Z</time></trkpt><trkpt lat="45.431329770887466" lon="11.521476486472137"><ele>347.0</ele><time>2026-04-03T14:01:09.998Z</time></trkpt><trkpt lat="45.43154266495986" lon="11.521630875832303"><ele>347.0</ele><time>2026-04-03T14:01:10.998Z</time></trkpt><trkpt lat="45.4317436299411" lon="11.521760833014781"><ele>347.0</ele><time>2026-04-03T14:01:11.998Z</time></trkpt><trkpt lat="45.43193335990763" lon="11.521888629646572"><ele>347.0</ele><time>2026-04-03T14:01:12.998Z</time></trkpt><trkpt lat="45.43211924606776" lon="11.52202463887791"><ele>347.0</ele><time>2026-04-03T14:01:13.998Z</time></trkpt><trkpt lat="45.4323014032125" lon="11.522168954192484"><ele>348.33333333333337</ele><time>2026-04-03T14:01:14.998Z</time></trkpt><trkpt lat="45.432471853025845" lon="11.522304055893864"><ele>349.6666666666667</ele><time>2026-04-03T14:01:15.998Z</time></trkpt><trkpt lat="45.43262114239229" lon="11.522392762778505"><ele>351.0</ele><time>2026-04-03T14:01:16.998Z</time></trkpt><trkpt lat="45.43274936523092" lon="11.522451314513454"><ele>351.0</ele><time>2026-04-03T14:01:17.998Z</time></trkpt><trkpt lat="45.43285531973286" lon="11.522509369514111"><ele>351.0</ele><time>2026-04-03T14:01:18.998Z</time></trkpt><trkpt lat="45.43292378281583" lon="11.522589961495777"><ele>351.0</ele><time>2026-04-03T14:01:19.998Z</time></trkpt><trkpt lat="45.43294536387812" lon="11.522697356998206"><ele>351.0</ele><time>2026-04-03T14:01:20.998Z</time></trkpt><trkpt lat="45.43290842382479" lon="11.522794474628487"><ele>351.0</ele><time>2026-04-03T14:01:21.998Z</time></trkpt><trkpt lat="45.43283172936656" lon="11.522854150567943"><ele>351.0</ele><time>2026-04-03T14:01:22.998Z</time></trkpt><trkpt lat="45.43272958874649" lon="11.522857128790175"><ele>351.0</ele><time>2026-04-03T14:01:23.998Z</time></trkpt><trkpt lat="45.43263390044142" lon="11.522738886328279"><ele>351.0</ele><time>2026-04-03T14:01:24.998Z</time></trkpt><trkpt lat="45.432495304823725" lon="11.522663715920476"><ele>351.0</ele><time>2026-04-03T14:01:25.998Z</time></trkpt><trkpt lat="45.43233221040539" lon="11.522556448269306"><ele>351.0</ele><time>2026-04-03T14:01:27Z</time></trkpt><trkpt lat="45.43216486430865" lon="11.52243953905773"><ele>351.0</ele><time>2026-04-03T14:01:28Z</time></trkpt><trkpt lat="45.43202567812001" lon="11.522364392549099"><ele>351.0</ele><time>2026-04-03T14:01:29Z</time></trkpt><trkpt lat="45.43191245658668" lon="11.522288947464121"><ele>354.0</ele><time>2026-04-03T14:01:30Z</time></trkpt><trkpt lat="45.43179933341645" lon="11.522222165025543"><ele>357.0</ele><time>2026-04-03T14:01:31Z</time></trkpt><trkpt lat="45.431655322646755" lon="11.522257280007507"><ele>360.0</ele><time>2026-04-03T14:01:32Z</time></trkpt><trkpt lat="45.43151402784565" lon="11.522301185597637"><ele>363.0</ele><time>2026-04-03T14:01:33Z</time></trkpt><trkpt lat="45.43138947595247" lon="11.522365873574785"><ele>363.5</ele><time>2026-04-03T14:01:34Z</time></trkpt><trkpt lat="45.43128681370329" lon="11.522450683677125"><ele>364.0</ele><time>2026-04-03T14:01:35Z</time></trkpt><trkpt lat="45.43121967083905" lon="11.522574533038393"><ele>364.5</ele><time>2026-04-03T14:01:36Z</time></trkpt><trkpt lat="45.4312014192779" lon="11.522744447948172"><ele>365.0</ele><time>2026-04-03T14:01:37Z</time></trkpt><trkpt lat="45.431147535055516" lon="11.522928507299971"><ele>365.0</ele><time>2026-04-03T14:01:38Z</time></trkpt><trkpt lat="45.43106357355135" lon="11.52312864200588"><ele>365.0</ele><time>2026-04-03T14:01:39Z</time></trkpt><trkpt lat="45.43095580278081" lon="11.523333145753798"><ele>365.0</ele><time>2026-04-03T14:01:40Z</time></trkpt><trkpt lat="45.430864188324236" lon="11.52356081391809"><ele>369.33333333333337</ele><time>2026-04-03T14:01:41Z</time></trkpt><trkpt lat="45.43081418435699" lon="11.523829688394127"><ele>373.6666666666667</ele><time>2026-04-03T14:01:42Z</time></trkpt><trkpt lat="45.43070394457928" lon="11.524049382469912"><ele>378.0</ele><time>2026-04-03T14:01:43Z</time></trkpt><trkpt lat="45.430602395444836" lon="11.524284793593056"><ele>378.0</ele><time>2026-04-03T14:01:44Z</time></trkpt><trkpt lat="45.43055383595695" lon="11.524491341015736"><ele>378.0</ele><time>2026-04-03T14:01:45Z</time></trkpt><trkpt lat="45.43053077246007" lon="11.524641066169751"><ele>378.0</ele><time>2026-04-03T14:01:46Z</time></trkpt><trkpt lat="45.43054812186407" lon="11.524754630697712"><ele>378.0</ele><time>2026-04-03T14:01:47Z</time></trkpt><trkpt lat="45.430592345612716" lon="11.52484785585567"><ele>378.0</ele><time>2026-04-03T14:01:48Z</time></trkpt><trkpt lat="45.430663603737756" lon="11.524963985420207"><ele>377.6666666666667</ele><time>2026-04-03T14:01:49Z</time></trkpt><trkpt lat="45.43071335688005" lon="11.525148005745725"><ele>377.33333333333337</ele><time>2026-04-03T14:01:50Z</time></trkpt><trkpt lat="45.430780835179085" lon="11.52535043548437"><ele>377.0</ele><time>2026-04-03T14:01:51Z</time></trkpt><trkpt lat="45.43096099450169" lon="11.525484948497805"><ele>377.0</ele><time>2026-04-03T14:01:52Z</time></trkpt><trkpt lat="45.43107911804646" lon="11.525598466873223"><ele>377.0</ele><time>2026-04-03T14:01:53Z</time></trkpt><trkpt lat="45.431192299141706" lon="11.52569563554265"><ele>377.0</ele><time>2026-04-03T14:01:54Z</time></trkpt><trkpt lat="45.43126182808234" lon="11.525851957644756"><ele>377.0</ele><time>2026-04-03T14:01:55Z</time></trkpt><trkpt lat="45.43128724720398" lon="11.52604439498061"><ele>380.33333333333337</ele><time>2026-04-03T14:01:56Z</time></trkpt><trkpt lat="45.431281837517275" lon="11.526271878872617"><ele>383.6666666666667</ele><time>2026-04-03T14:01:57Z</time></trkpt><trkpt lat="45.43126954141043" lon="11.526505213088951"><ele>387.0</ele><time>2026-04-03T14:01:58Z</time></trkpt><trkpt lat="45.431261977839974" lon="11.52675347657012"><ele>387.0</ele><time>2026-04-03T14:01:59Z</time></trkpt><trkpt lat="45.431261561744485" lon="11.526995626971056"><ele>387.0</ele><time>2026-04-03T14:02:00Z</time></trkpt><trkpt lat="45.43126984248973" lon="11.527192203143334"><ele>387.0</ele><time>2026-04-03T14:02:01Z</time></trkpt><trkpt lat="45.43130851765021" lon="11.527343423363895"><ele>387.0</ele><time>2026-04-03T14:02:02Z</time></trkpt><trkpt lat="45.431380249985665" lon="11.527440030449018"><ele>389.5</ele><time>2026-04-03T14:02:03Z</time></trkpt><trkpt lat="45.43149775932078" lon="11.527505607148237"><ele>392.0</ele><time>2026-04-03T14:02:04Z</time></trkpt><trkpt lat="45.43163874529003" lon="11.527515068752733"><ele>394.5</ele><time>2026-04-03T14:02:05Z</time></trkpt><trkpt lat="45.43178332659332" lon="11.527475194278818"><ele>397.0</ele><time>2026-04-03T14:02:06Z</time></trkpt><trkpt lat="45.43190950642818" lon="11.527414740252976"><ele>397.0</ele><time>2026-04-03T14:02:07Z</time></trkpt><trkpt lat="45.43201065744847" lon="11.527399493588659"><ele>397.0</ele><time>2026-04-03T14:02:07.999Z</time></trkpt><trkpt lat="45.4320823538782" lon="11.527465037175956"><ele>397.0</ele><time>2026-04-03T14:02:08.999Z</time></trkpt><trkpt lat="45.43211761541097" lon="11.527576822920796"><ele>397.0</ele><time>2026-04-03T14:02:09.999Z</time></trkpt><trkpt lat="45.43213132343748" lon="11.527719308069875"><ele>397.0</ele><time>2026-04-03T14:02:10.999Z</time></trkpt><trkpt lat="45.432136212608775" lon="11.527876138681767"><ele>397.75</ele><time>2026-04-03T14:02:11.999Z</time></trkpt><trkpt lat="45.43217185033493" lon="11.528034844750605"><ele>398.5</ele><time>2026-04-03T14:02:12.999Z</time></trkpt><trkpt lat="45.4322520111056" lon="11.528166548714635"><ele>399.25</ele><time>2026-04-03T14:02:13.999Z</time></trkpt><trkpt lat="45.43235947259841" lon="11.528252500440303"><ele>400.0</ele><time>2026-04-03T14:02:14.999Z</time></trkpt><trkpt lat="45.43248372599764" lon="11.528265879716956"><ele>400.0</ele><time>2026-04-03T14:02:15.999Z</time></trkpt><trkpt lat="45.43259454677446" lon="11.528221078143988"><ele>400.0</ele><time>2026-04-03T14:02:16.999Z</time></trkpt><trkpt lat="45.43270019286225" lon="11.528156952805285"><ele>400.0</ele><time>2026-04-03T14:02:17.999Z</time></trkpt><trkpt lat="45.43279025695638" lon="11.52815747976974"><ele>400.0</ele><time>2026-04-03T14:02:18.999Z</time></trkpt><trkpt lat="45.43285899505264" lon="11.528232131485622"><ele>400.0</ele><time>2026-04-03T14:02:19.999Z</time></trkpt><trkpt lat="45.432914941185444" lon="11.528358300720885"><ele>399.5</ele><time>2026-04-03T14:02:20.999Z</time></trkpt><trkpt lat="45.43298347496004" lon="11.528514629489312"><ele>399.0</ele><time>2026-04-03T14:02:21.999Z</time></trkpt><trkpt lat="45.433081334913766" lon="11.528660082508281"><ele>398.5</ele><time>2026-04-03T14:02:22.999Z</time></trkpt><trkpt lat="45.43320029687046" lon="11.528778175087304"><ele>398.0</ele><time>2026-04-03T14:02:23.999Z</time></trkpt><trkpt lat="45.433294164286984" lon="11.528889914907602"><ele>398.0</ele><time>2026-04-03T14:02:24.999Z</time></trkpt><trkpt lat="45.43336414203216" lon="11.529017536085897"><ele>398.0</ele><time>2026-04-03T14:02:25.999Z</time></trkpt><trkpt lat="45.43340506386309" lon="11.529188204643479"><ele>398.0</ele><time>2026-04-03T14:02:26.999Z</time></trkpt><trkpt lat="45.43342787715206" lon="11.5293836068384"><ele>398.0</ele><time>2026-04-03T14:02:27.999Z</time></trkpt><trkpt lat="45.433439711167736" lon="11.529604252142553"><ele>396.66666666666663</ele><time>2026-04-03T14:02:28.999Z</time></trkpt><trkpt lat="45.433455681618625" lon="11.529841758684638"><ele>395.33333333333337</ele><time>2026-04-03T14:02:29.999Z</time></trkpt><trkpt lat="45.43347092396755" lon="11.530093754383353"><ele>394.0</ele><time>2026-04-03T14:02:30.999Z</time></trkpt><trkpt lat="45.43346484046421" lon="11.530328784841497"><ele>394.6666666666667</ele><time>2026-04-03T14:02:31.999Z</time></trkpt><trkpt lat="45.433431646297905" lon="11.530553296177416"><ele>395.33333333333337</ele><time>2026-04-03T14:02:32.999Z</time></trkpt><trkpt lat="45.43337468067219" lon="11.530751131818315"><ele>396.0</ele><time>2026-04-03T14:02:33.999Z</time></trkpt><trkpt lat="45.43328956131611" lon="11.53091049242256"><ele>396.0</ele><time>2026-04-03T14:02:34.999Z</time></trkpt><trkpt lat="45.43317383061209" lon="11.531052029077097"><ele>396.0</ele><time>2026-04-03T14:02:35.999Z</time></trkpt><trkpt lat="45.43305280257214" lon="11.531193730347546"><ele>396.0</ele><time>2026-04-03T14:02:36.999Z</time></trkpt><trkpt lat="45.4329492673039" lon="11.53136695990935"><ele>392.0</ele><time>2026-04-03T14:02:37.999Z</time></trkpt><trkpt lat="45.43288230285292" lon="11.53157198457875"><ele>388.0</ele><time>2026-04-03T14:02:38.999Z</time></trkpt><trkpt lat="45.43284812051401" lon="11.531787842468265"><ele>384.0</ele><time>2026-04-03T14:02:39.999Z</time></trkpt><trkpt lat="45.43283190015045" lon="11.531991651339014"><ele>382.3333333333333</ele><time>2026-04-03T14:02:40.999Z</time></trkpt><trkpt lat="45.43283135275699" lon="11.532176591188453"><ele>380.66666666666663</ele><time>2026-04-03T14:02:41.999Z</time></trkpt><trkpt lat="45.432859996727316" lon="11.532376967168979"><ele>379.0</ele><time>2026-04-03T14:02:42.999Z</time></trkpt><trkpt lat="45.432930911566864" lon="11.532614186353479"><ele>383.3333333333333</ele><time>2026-04-03T14:02:43.999Z</time></trkpt><trkpt lat="45.43301606816887" lon="11.53284582412554"><ele>387.66666666666663</ele><time>2026-04-03T14:02:44.999Z</time></trkpt><trkpt lat="45.433111769970346" lon="11.533080551604396"><ele>392.0</ele><time>2026-04-03T14:02:45.999Z</time></trkpt><trkpt lat="45.43319640962315" lon="11.533282257355932"><ele>392.0</ele><time>2026-04-03T14:02:46.999Z</time></trkpt><trkpt lat="45.433289517959125" lon="11.533447348270482"><ele>392.0</ele><time>2026-04-03T14:02:47.999Z</time></trkpt><trkpt lat="45.433413804586415" lon="11.533564221811304"><ele>392.0</ele><time>2026-04-03T14:02:48.999Z</time></trkpt><trkpt lat="45.4335709924588" lon="11.533665650401822"><ele>392.0</ele><time>2026-04-03T14:02:49.999Z</time></trkpt><trkpt lat="45.43374564732205" lon="11.533764591397318"><ele>392.0</ele><time>2026-04-03T14:02:50.999Z</time></trkpt><trkpt lat="45.43393806222193" lon="11.533850417133058"><ele>392.0</ele><time>2026-04-03T14:02:51.999Z</time></trkpt><trkpt lat="45.43413511363832" lon="11.53390496840915"><ele>392.0</ele><time>2026-04-03T14:02:52.999Z</time></trkpt><trkpt lat="45.43430705405592" lon="11.533959264665462"><ele>392.0</ele><time>2026-04-03T14:02:53.999Z</time></trkpt><trkpt lat="45.43444963705769" lon="11.534014937186887"><ele>392.0</ele><time>2026-04-03T14:02:54.999Z</time></trkpt><trkpt lat="45.434563512677414" lon="11.534076027084478"><ele>392.0</ele><time>2026-04-03T14:02:55.999Z</time></trkpt><trkpt lat="45.43464696179398" lon="11.534155888346513"><ele>392.0</ele><time>2026-04-03T14:02:56.999Z</time></trkpt><trkpt lat="45.434679117297904" lon="11.534276248365034"><ele>392.0</ele><time>2026-04-03T14:02:57.999Z</time></trkpt><trkpt lat="45.43466581628952" lon="11.53438900135988"><ele>392.0</ele><time>2026-04-03T14:02:58.998Z</time></trkpt><trkpt lat="45.43463174893875" lon="11.534520762808787"><ele>392.0</ele><time>2026-04-03T14:02:59.998Z</time></trkpt><trkpt lat="45.43462427600901" lon="11.534648681630472"><ele>392.0</ele><time>2026-04-03T14:03:00.998Z</time></trkpt><trkpt lat="45.43467728590197" lon="11.534761096978551"><ele>394.25</ele><time>2026-04-03T14:03:01.998Z</time></trkpt><trkpt lat="45.434776095150156" lon="11.534841025767752"><ele>396.5</ele><time>2026-04-03T14:03:02.998Z</time></trkpt><trkpt lat="45.4349145345013" lon="11.53488622964536"><ele>398.75</ele><time>2026-04-03T14:03:03.998Z</time></trkpt><trkpt lat="45.43508187968402" lon="11.534919063678792"><ele>401.0</ele><time>2026-04-03T14:03:04.998Z</time></trkpt><trkpt lat="45.435254512954565" lon="11.534915056942253"><ele>401.0</ele><time>2026-04-03T14:03:05.998Z</time></trkpt><trkpt lat="45.43542440224617" lon="11.534880779566292"><ele>401.0</ele><time>2026-04-03T14:03:06.998Z</time></trkpt><trkpt lat="45.43556699981852" lon="11.534820154797005"><ele>401.0</ele><time>2026-04-03T14:03:07.998Z</time></trkpt><trkpt lat="45.43567654397876" lon="11.534780169417008"><ele>401.0</ele><time>2026-04-03T14:03:08.998Z</time></trkpt><trkpt lat="45.435778651372935" lon="11.534783336972001"><ele>402.4</ele><time>2026-04-03T14:03:09.998Z</time></trkpt><trkpt lat="45.43585917785085" lon="11.534834244044031"><ele>403.8</ele><time>2026-04-03T14:03:10.998Z</time></trkpt><trkpt lat="45.435941685681144" lon="11.534898183499545"><ele>405.2</ele><time>2026-04-03T14:03:11.998Z</time></trkpt><trkpt lat="45.43605072311795" lon="11.534934021216824"><ele>406.59999999999997</ele><time>2026-04-03T14:03:12.998Z</time></trkpt><trkpt lat="45.43617568813994" lon="11.534901492862206"><ele>408.0</ele><time>2026-04-03T14:03:13.998Z</time></trkpt><trkpt lat="45.43630873777574" lon="11.534805460136653"><ele>408.33333333333337</ele><time>2026-04-03T14:03:14.998Z</time></trkpt><trkpt lat="45.43644579804421" lon="11.534682671081676"><ele>408.6666666666667</ele><time>2026-04-03T14:03:15.998Z</time></trkpt><trkpt lat="45.4365917796325" lon="11.534546037658119"><ele>409.0</ele><time>2026-04-03T14:03:16.998Z</time></trkpt><trkpt lat="45.43672925693363" lon="11.534445601783368"><ele>409.0</ele><time>2026-04-03T14:03:17.998Z</time></trkpt><trkpt lat="45.43684039207563" lon="11.53437847404336"><ele>409.0</ele><time>2026-04-03T14:03:18.998Z</time></trkpt><trkpt lat="45.43691571490225" lon="11.534356345209485"><ele>409.0</ele><time>2026-04-03T14:03:19.998Z</time></trkpt><trkpt lat="45.436980038044794" lon="11.534374685437296"><ele>409.0</ele><time>2026-04-03T14:03:20.998Z</time></trkpt><trkpt lat="45.43705773694052" lon="11.534432229119846"><ele>409.0</ele><time>2026-04-03T14:03:21.998Z</time></trkpt><trkpt lat="45.43715536533654" lon="11.534523512918662"><ele>408.25</ele><time>2026-04-03T14:03:22.998Z</time></trkpt><trkpt lat="45.43727083687008" lon="11.53463916183806"><ele>407.5</ele><time>2026-04-03T14:03:23.998Z</time></trkpt><trkpt lat="45.43735862314236" lon="11.534778101886781"><ele>406.75</ele><time>2026-04-03T14:03:24.998Z</time></trkpt><trkpt lat="45.43743264032408" lon="11.534949310924478"><ele>406.0</ele><time>2026-04-03T14:03:25.998Z</time></trkpt><trkpt lat="45.43749841159354" lon="11.535158184130843"><ele>406.0</ele><time>2026-04-03T14:03:26.998Z</time></trkpt><trkpt lat="45.437556302333896" lon="11.535359596696722"><ele>406.0</ele><time>2026-04-03T14:03:27.998Z</time></trkpt><trkpt lat="45.43764168901919" lon="11.53553446813987"><ele>406.0</ele><time>2026-04-03T14:03:28.998Z</time></trkpt><trkpt lat="45.43775760311424" lon="11.53567609209565"><ele>407.33333333333337</ele><time>2026-04-03T14:03:29.998Z</time></trkpt><trkpt lat="45.43790987784081" lon="11.535779843060208"><ele>408.66666666666663</ele><time>2026-04-03T14:03:30.998Z</time></trkpt><trkpt lat="45.43808497290071" lon="11.535843686041687"><ele>410.0</ele><time>2026-04-03T14:03:31.998Z</time></trkpt><trkpt lat="45.43826777387558" lon="11.535872603366943"><ele>408.0</ele><time>2026-04-03T14:03:33Z</time></trkpt><trkpt lat="45.43847375989058" lon="11.535877116699634"><ele>406.0</ele><time>2026-04-03T14:03:34Z</time></trkpt><trkpt lat="45.43867716010889" lon="11.535857904689427"><ele>404.0</ele><time>2026-04-03T14:03:35Z</time></trkpt><trkpt lat="45.43887970878334" lon="11.535824826819832"><ele>404.0</ele><time>2026-04-03T14:03:36Z</time></trkpt><trkpt lat="45.43907596514982" lon="11.535773433382113"><ele>404.0</ele><time>2026-04-03T14:03:37Z</time></trkpt><trkpt lat="45.43924699395987" lon="11.535723596074593"><ele>404.0</ele><time>2026-04-03T14:03:38Z</time></trkpt><trkpt lat="45.439394764113686" lon="11.535682913507141"><ele>404.0</ele><time>2026-04-03T14:03:39Z</time></trkpt><trkpt lat="45.43949851037737" lon="11.535644215787865"><ele>404.0</ele><time>2026-04-03T14:03:40Z</time></trkpt><trkpt lat="45.43958776578523" lon="11.535616888493324"><ele>404.0</ele><time>2026-04-03T14:03:41Z</time></trkpt><trkpt lat="45.439670683942275" lon="11.535607721504743"><ele>404.0</ele><time>2026-04-03T14:03:42Z</time></trkpt><trkpt lat="45.439762924103626" lon="11.535715168079689"><ele>404.0</ele><time>2026-04-03T14:03:44Z</time></trkpt><trkpt lat="45.43977611853487" lon="11.535845967262077"><ele>403.75</ele><time>2026-04-03T14:03:45Z</time></trkpt><trkpt lat="45.43977851307119" lon="11.5360195629194"><ele>403.5</ele><time>2026-04-03T14:03:46Z</time></trkpt><trkpt lat="45.43977682469739" lon="11.536227394783543"><ele>403.25</ele><time>2026-04-03T14:03:47Z</time></trkpt><trkpt lat="45.4397626805664" lon="11.53640862577704"><ele>403.0</ele><time>2026-04-03T14:03:48Z</time></trkpt><trkpt lat="45.43973193185564" lon="11.536546068091166"><ele>403.0</ele><time>2026-04-03T14:03:49Z</time></trkpt><trkpt lat="45.4396799288377" lon="11.536658339254087"><ele>403.0</ele><time>2026-04-03T14:03:50Z</time></trkpt><trkpt lat="45.439596348256075" lon="11.536731452071722"><ele>403.0</ele><time>2026-04-03T14:03:51Z</time></trkpt><trkpt lat="45.439483358167145" lon="11.536772969921019"><ele>403.0</ele><time>2026-04-03T14:03:52Z</time></trkpt><trkpt lat="45.439343140161064" lon="11.536804211432823"><ele>401.0</ele><time>2026-04-03T14:03:53Z</time></trkpt><trkpt lat="45.43917501112947" lon="11.536858373386883"><ele>399.0</ele><time>2026-04-03T14:03:54Z</time></trkpt><trkpt lat="45.439006251497815" lon="11.53694840697437"><ele>397.0</ele><time>2026-04-03T14:03:55Z</time></trkpt><trkpt lat="45.43884952422556" lon="11.537080802461446"><ele>396.0</ele><time>2026-04-03T14:03:56Z</time></trkpt><trkpt lat="45.4387004596107" lon="11.53724020956821"><ele>395.0</ele><time>2026-04-03T14:03:57Z</time></trkpt><trkpt lat="45.438564227428486" lon="11.537408234302708"><ele>394.0</ele><time>2026-04-03T14:03:58Z</time></trkpt><trkpt lat="45.438459730217716" lon="11.537586499072848"><ele>394.0</ele><time>2026-04-03T14:03:59Z</time></trkpt><trkpt lat="45.438374822047514" lon="11.537774054677376"><ele>394.0</ele><time>2026-04-03T14:04:00Z</time></trkpt><trkpt lat="45.43830266685482" lon="11.537959657447264"><ele>394.0</ele><time>2026-04-03T14:04:01Z</time></trkpt><trkpt lat="45.43824216446995" lon="11.538146483837721"><ele>392.75</ele><time>2026-04-03T14:04:02Z</time></trkpt><trkpt lat="45.43820031605025" lon="11.538307215862874"><ele>391.5</ele><time>2026-04-03T14:04:03Z</time></trkpt><trkpt lat="45.43816618317413" lon="11.53845825196619"><ele>390.25</ele><time>2026-04-03T14:04:04Z</time></trkpt><trkpt lat="45.438158834092434" lon="11.538614323875402"><ele>389.0</ele><time>2026-04-03T14:04:05Z</time></trkpt><trkpt lat="45.4381777533202" lon="11.53880829059452"><ele>387.0</ele><time>2026-04-03T14:04:06Z</time></trkpt><trkpt lat="45.438206629452445" lon="11.53901888977609"><ele>385.0</ele><time>2026-04-03T14:04:07Z</time></trkpt><trkpt lat="45.438235928473496" lon="11.5392371763091"><ele>383.0</ele><time>2026-04-03T14:04:08Z</time></trkpt><trkpt lat="45.43826111385174" lon="11.53946513930149"><ele>381.5</ele><time>2026-04-03T14:04:09Z</time></trkpt><trkpt lat="45.438259286809554" lon="11.539677695430317"><ele>380.0</ele><time>2026-04-03T14:04:10Z</time></trkpt><trkpt lat="45.43824498858231" lon="11.539884284886588"><ele>378.5</ele><time>2026-04-03T14:04:11Z</time></trkpt><trkpt lat="45.43821550430686" lon="11.54008185924157"><ele>377.0</ele><time>2026-04-03T14:04:12Z</time></trkpt><trkpt lat="45.438175003677166" lon="11.54026609078456"><ele>375.75</ele><time>2026-04-03T14:04:13Z</time></trkpt><trkpt lat="45.43814656601052" lon="11.540439620159978"><ele>374.5</ele><time>2026-04-03T14:04:14Z</time></trkpt><trkpt lat="45.4381625662881" lon="11.540615975046782"><ele>373.25</ele><time>2026-04-03T14:04:14.999Z</time></trkpt><trkpt lat="45.43822617719495" lon="11.540796625472584"><ele>372.0</ele><time>2026-04-03T14:04:15.999Z</time></trkpt><trkpt lat="45.43831167573877" lon="11.540969685445758"><ele>372.0</ele><time>2026-04-03T14:04:16.999Z</time></trkpt><trkpt lat="45.43839536272309" lon="11.541148061996452"><ele>372.0</ele><time>2026-04-03T14:04:17.999Z</time></trkpt><trkpt lat="45.438483355565836" lon="11.54130338700793"><ele>372.0</ele><time>2026-04-03T14:04:18.999Z</time></trkpt><trkpt lat="45.43860721126559" lon="11.541423598241723"><ele>372.0</ele><time>2026-04-03T14:04:19.999Z</time></trkpt><trkpt lat="45.438761875576944" lon="11.541511762757391"><ele>369.3333333333333</ele><time>2026-04-03T14:04:20.999Z</time></trkpt><trkpt lat="45.438935603365714" lon="11.54155877895405"><ele>366.66666666666663</ele><time>2026-04-03T14:04:21.999Z</time></trkpt><trkpt lat="45.43910691229306" lon="11.541572774501542"><ele>364.0</ele><time>2026-04-03T14:04:22.999Z</time></trkpt><trkpt lat="45.43927158899789" lon="11.541559448843584"><ele>364.0</ele><time>2026-04-03T14:04:23.999Z</time></trkpt><trkpt lat="45.43942790667653" lon="11.541596794392424"><ele>364.0</ele><time>2026-04-03T14:04:24.999Z</time></trkpt><trkpt lat="45.43959287857695" lon="11.541705300144143"><ele>364.0</ele><time>2026-04-03T14:04:25.999Z</time></trkpt><trkpt lat="45.43978794045986" lon="11.541827542016179"><ele>364.3333333333333</ele><time>2026-04-03T14:04:26.999Z</time></trkpt><trkpt lat="45.43998387965992" lon="11.541922733286807"><ele>364.6666666666667</ele><time>2026-04-03T14:04:27.999Z</time></trkpt><trkpt lat="45.44016440289936" lon="11.541996344231492"><ele>365.0</ele><time>2026-04-03T14:04:28.999Z</time></trkpt><trkpt lat="45.44032702931645" lon="11.542072943077219"><ele>362.33333333333337</ele><time>2026-04-03T14:04:29.999Z</time></trkpt><trkpt lat="45.440483370032275" lon="11.542145224501873"><ele>359.6666666666667</ele><time>2026-04-03T14:04:30.999Z</time></trkpt><trkpt lat="45.44062720118506" lon="11.542216966286444"><ele>357.0</ele><time>2026-04-03T14:04:31.999Z</time></trkpt><trkpt lat="45.440772636553696" lon="11.542294810932395"><ele>357.0</ele><time>2026-04-03T14:04:32.999Z</time></trkpt><trkpt lat="45.44091621988641" lon="11.542370481357045"><ele>357.0</ele><time>2026-04-03T14:04:33.999Z</time></trkpt><trkpt lat="45.441053870191375" lon="11.54244836130463"><ele>357.0</ele><time>2026-04-03T14:04:34.999Z</time></trkpt><trkpt lat="45.44118211683097" lon="11.542535493475652"><ele>357.0</ele><time>2026-04-03T14:04:35.999Z</time></trkpt><trkpt lat="45.441305324521416" lon="11.542641655217171"><ele>356.75</ele><time>2026-04-03T14:04:36.999Z</time></trkpt><trkpt lat="45.44140845839321" lon="11.542779896783069"><ele>356.5</ele><time>2026-04-03T14:04:37.999Z</time></trkpt><trkpt lat="45.441496744388495" lon="11.54295192425802"><ele>356.25</ele><time>2026-04-03T14:04:38.999Z</time></trkpt><trkpt lat="45.44156115212183" lon="11.543157388153716"><ele>356.0</ele><time>2026-04-03T14:04:39.999Z</time></trkpt><trkpt lat="45.441604611113966" lon="11.543390028019344"><ele>356.0</ele><time>2026-04-03T14:04:40.999Z</time></trkpt><trkpt lat="45.44162084640157" lon="11.54365421129208"><ele>356.0</ele><time>2026-04-03T14:04:41.999Z</time></trkpt><trkpt lat="45.44161645038527" lon="11.543942679711911"><ele>356.0</ele><time>2026-04-03T14:04:42.999Z</time></trkpt><trkpt lat="45.44160899194283" lon="11.54419658232981"><ele>356.0</ele><time>2026-04-03T14:04:43.999Z</time></trkpt><trkpt lat="45.44159456271314" lon="11.544408818874341"><ele>356.0</ele><time>2026-04-03T14:04:44.999Z</time></trkpt><trkpt lat="45.44153821495083" lon="11.544589539282823"><ele>356.0</ele><time>2026-04-03T14:04:45.999Z</time></trkpt><trkpt lat="45.441440711959274" lon="11.544779667012726"><ele>355.6666666666667</ele><time>2026-04-03T14:04:46.999Z</time></trkpt><trkpt lat="45.44133067736364" lon="11.544989868733934"><ele>355.3333333333333</ele><time>2026-04-03T14:04:47.999Z</time></trkpt><trkpt lat="45.44122440305111" lon="11.545185962786674"><ele>355.0</ele><time>2026-04-03T14:04:48.999Z</time></trkpt><trkpt lat="45.44113688118602" lon="11.545361753187017"><ele>358.0</ele><time>2026-04-03T14:04:49.999Z</time></trkpt><trkpt lat="45.44109177732254" lon="11.545576810489717"><ele>361.0</ele><time>2026-04-03T14:04:50.999Z</time></trkpt><trkpt lat="45.4410803057802" lon="11.545819562366319"><ele>364.0</ele><time>2026-04-03T14:04:51.999Z</time></trkpt><trkpt lat="45.44109538499772" lon="11.546088631019495"><ele>362.3333333333333</ele><time>2026-04-03T14:04:52.999Z</time></trkpt><trkpt lat="45.44111544407151" lon="11.546344826963635"><ele>360.6666666666667</ele><time>2026-04-03T14:04:53.999Z</time></trkpt><trkpt lat="45.44114308298552" lon="11.546583187518008"><ele>359.0</ele><time>2026-04-03T14:04:54.999Z</time></trkpt><trkpt lat="45.44115554621103" lon="11.546818040554639"><ele>359.33333333333337</ele><time>2026-04-03T14:04:55.999Z</time></trkpt><trkpt lat="45.441129692815785" lon="11.54706115906903"><ele>359.6666666666667</ele><time>2026-04-03T14:04:56.999Z</time></trkpt><trkpt lat="45.44108360267375" lon="11.547303825018775"><ele>360.0</ele><time>2026-04-03T14:04:57.999Z</time></trkpt><trkpt lat="45.44102212142482" lon="11.547512677339737"><ele>360.0</ele><time>2026-04-03T14:04:58.999Z</time></trkpt><trkpt lat="45.44097677235994" lon="11.54770415927227"><ele>360.0</ele><time>2026-04-03T14:04:59.999Z</time></trkpt><trkpt lat="45.440941606332665" lon="11.547882211208131"><ele>360.0</ele><time>2026-04-03T14:05:00.999Z</time></trkpt><trkpt lat="45.44094030226304" lon="11.548034337039033"><ele>360.0</ele><time>2026-04-03T14:05:01.999Z</time></trkpt><trkpt lat="45.44098537150154" lon="11.548151621405351"><ele>359.8</ele><time>2026-04-03T14:05:02.999Z</time></trkpt><trkpt lat="45.44105969889153" lon="11.5482471118305"><ele>359.6</ele><time>2026-04-03T14:05:03.998Z</time></trkpt><trkpt lat="45.44112729458573" lon="11.548351063679819"><ele>359.4</ele><time>2026-04-03T14:05:04.998Z</time></trkpt><trkpt lat="45.44114960911332" lon="11.548509479443863"><ele>359.2</ele><time>2026-04-03T14:05:05.998Z</time></trkpt><trkpt lat="45.44112020343452" lon="11.548668248470934"><ele>359.0</ele><time>2026-04-03T14:05:06.998Z</time></trkpt><trkpt lat="45.44105769829345" lon="11.548816459287742"><ele>358.0</ele><time>2026-04-03T14:05:07.998Z</time></trkpt><trkpt lat="45.44096963952523" lon="11.548958372171944"><ele>357.0</ele><time>2026-04-03T14:05:08.998Z</time></trkpt><trkpt lat="45.440892541765116" lon="11.549074177958829"><ele>356.0</ele><time>2026-04-03T14:05:09.998Z</time></trkpt><trkpt lat="45.44082395668051" lon="11.549177873813901"><ele>355.0</ele><time>2026-04-03T14:05:10.998Z</time></trkpt><trkpt lat="45.44078681786751" lon="11.549300032977149"><ele>354.0</ele><time>2026-04-03T14:05:11.998Z</time></trkpt><trkpt lat="45.44078346208034" lon="11.549472365995207"><ele>354.75</ele><time>2026-04-03T14:05:12.998Z</time></trkpt><trkpt lat="45.440807252436215" lon="11.54967321690054"><ele>355.5</ele><time>2026-04-03T14:05:13.998Z</time></trkpt><trkpt lat="45.44080479304769" lon="11.549855225419435"><ele>356.25</ele><time>2026-04-03T14:05:14.998Z</time></trkpt><trkpt lat="45.44075229642044" lon="11.550023665596083"><ele>357.0</ele><time>2026-04-03T14:05:15.998Z</time></trkpt><trkpt lat="45.44066315721737" lon="11.5501713720188"><ele>357.0</ele><time>2026-04-03T14:05:16.998Z</time></trkpt><trkpt lat="45.440554716357546" lon="11.550277511868819"><ele>357.0</ele><time>2026-04-03T14:05:17.998Z</time></trkpt><trkpt lat="45.440463984844136" lon="11.55036412144246"><ele>357.0</ele><time>2026-04-03T14:05:18.998Z</time></trkpt><trkpt lat="45.440411863457875" lon="11.550481039812821"><ele>357.0</ele><time>2026-04-03T14:05:19.998Z</time></trkpt><trkpt lat="45.44040812976747" lon="11.550654493064185"><ele>358.6666666666667</ele><time>2026-04-03T14:05:20.998Z</time></trkpt><trkpt lat="45.440435798862225" lon="11.550877645643798"><ele>360.33333333333337</ele><time>2026-04-03T14:05:21.998Z</time></trkpt><trkpt lat="45.44046803094911" lon="11.551116540717256"><ele>362.0</ele><time>2026-04-03T14:05:22.998Z</time></trkpt><trkpt lat="45.44045854939905" lon="11.551367037713566"><ele>356.33333333333337</ele><time>2026-04-03T14:05:23.998Z</time></trkpt><trkpt lat="45.44041916213177" lon="11.55159081959487"><ele>350.6666666666667</ele><time>2026-04-03T14:05:24.998Z</time></trkpt><trkpt lat="45.440388113854475" lon="11.551794017214343"><ele>345.0</ele><time>2026-04-03T14:05:25.998Z</time></trkpt><trkpt lat="45.44038204463637" lon="11.552027022182463"><ele>342.3333333333333</ele><time>2026-04-03T14:05:26.998Z</time></trkpt><trkpt lat="45.44041049360169" lon="11.55228409085225"><ele>339.66666666666663</ele><time>2026-04-03T14:05:27.998Z</time></trkpt><trkpt lat="45.44044948659683" lon="11.552561979768198"><ele>337.0</ele><time>2026-04-03T14:05:28.998Z</time></trkpt><trkpt lat="45.440461687161836" lon="11.55282259303254"><ele>333.66666666666663</ele><time>2026-04-03T14:05:29.998Z</time></trkpt><trkpt lat="45.44044585815965" lon="11.55306200944131"><ele>330.3333333333333</ele><time>2026-04-03T14:05:30.998Z</time></trkpt><trkpt lat="45.4404364370788" lon="11.553299581791403"><ele>327.0</ele><time>2026-04-03T14:05:31.998Z</time></trkpt><trkpt lat="45.44044007677327" lon="11.553527168220098"><ele>326.5</ele><time>2026-04-03T14:05:32.998Z</time></trkpt><trkpt lat="45.44045345746896" lon="11.55373943970403"><ele>326.0</ele><time>2026-04-03T14:05:33.998Z</time></trkpt><trkpt lat="45.44049385541451" lon="11.553950579707568"><ele>325.5</ele><time>2026-04-03T14:05:34.998Z</time></trkpt><trkpt lat="45.44052495686673" lon="11.554132146196363"><ele>325.0</ele><time>2026-04-03T14:05:35.998Z</time></trkpt><trkpt lat="45.440518958639394" lon="11.554297933788563"><ele>325.0</ele><time>2026-04-03T14:05:36.998Z</time></trkpt><trkpt lat="45.44047775567191" lon="11.554458445002055"><ele>325.0</ele><time>2026-04-03T14:05:37.998Z</time></trkpt><trkpt lat="45.44039124417405" lon="11.554595145338297"><ele>325.0</ele><time>2026-04-03T14:05:39Z</time></trkpt><trkpt lat="45.440269401641764" lon="11.554720814824954"><ele>325.0</ele><time>2026-04-03T14:05:40Z</time></trkpt><trkpt lat="45.44012313635179" lon="11.55484880087937"><ele>323.66666666666663</ele><time>2026-04-03T14:05:41Z</time></trkpt><trkpt lat="45.43997973863016" lon="11.554992945488747"><ele>322.3333333333333</ele><time>2026-04-03T14:05:42Z</time></trkpt><trkpt lat="45.43984766664685" lon="11.555132930237312"><ele>321.0</ele><time>2026-04-03T14:05:43Z</time></trkpt><trkpt lat="45.439732842597664" lon="11.555261575971018"><ele>317.3333333333333</ele><time>2026-04-03T14:05:44Z</time></trkpt><trkpt lat="45.43962237913286" lon="11.555385321230737"><ele>313.66666666666663</ele><time>2026-04-03T14:05:45Z</time></trkpt><trkpt lat="45.43951363943189" lon="11.555536285171115"><ele>310.0</ele><time>2026-04-03T14:05:46Z</time></trkpt><trkpt lat="45.43941951251377" lon="11.555725695831054"><ele>310.0</ele><time>2026-04-03T14:05:47Z</time></trkpt><trkpt lat="45.43932448953781" lon="11.555926189601156"><ele>310.0</ele><time>2026-04-03T14:05:48Z</time></trkpt><trkpt lat="45.43922056775215" lon="11.556102024925652"><ele>310.0</ele><time>2026-04-03T14:05:49Z</time></trkpt><trkpt lat="45.43910702259513" lon="11.556247178661051"><ele>310.25</ele><time>2026-04-03T14:05:50Z</time></trkpt><trkpt lat="45.43900575798851" lon="11.556374150472356"><ele>310.5</ele><time>2026-04-03T14:05:51Z</time></trkpt><trkpt lat="45.43893369915314" lon="11.556524597057127"><ele>310.75</ele><time>2026-04-03T14:05:52Z</time></trkpt><trkpt lat="45.43888561449421" lon="11.556712128139608"><ele>311.0</ele><time>2026-04-03T14:05:53Z</time></trkpt><trkpt lat="45.438861262524505" lon="11.556904481781135"><ele>310.2</ele><time>2026-04-03T14:05:54Z</time></trkpt><trkpt lat="45.43882945124962" lon="11.557069073649593"><ele>309.40000000000003</ele><time>2026-04-03T14:05:55Z</time></trkpt><trkpt lat="45.43879622770625" lon="11.557194502954951"><ele>308.6</ele><time>2026-04-03T14:05:56Z</time></trkpt><trkpt lat="45.43875376295031" lon="11.557282610804092"><ele>307.8</ele><time>2026-04-03T14:05:57Z</time></trkpt><trkpt lat="45.438712741958064" lon="11.557411439418045"><ele>307.0</ele><time>2026-04-03T14:05:59Z</time></trkpt><trkpt lat="45.43878193812156" lon="11.557446862756183"><ele>306.6</ele><time>2026-04-03T14:06:01Z</time></trkpt><trkpt lat="45.438868009792095" lon="11.557371601200003"><ele>306.2</ele><time>2026-04-03T14:06:03Z</time></trkpt><trkpt lat="45.438933583351" lon="11.557292816234627"><ele>305.8</ele><time>2026-04-03T14:06:04Z</time></trkpt><trkpt lat="45.43901084155393" lon="11.557188350345449"><ele>305.4</ele><time>2026-04-03T14:06:05Z</time></trkpt><trkpt lat="45.43909119940787" lon="11.557074560206887"><ele>305.0</ele><time>2026-04-03T14:06:06Z</time></trkpt><trkpt lat="45.43917413250068" lon="11.5569417260654"><ele>306.5</ele><time>2026-04-03T14:06:07Z</time></trkpt><trkpt lat="45.43927990851459" lon="11.556841633068089"><ele>308.0</ele><time>2026-04-03T14:06:08Z</time></trkpt><trkpt lat="45.43941100936003" lon="11.556759040197607"><ele>309.5</ele><time>2026-04-03T14:06:09Z</time></trkpt><trkpt lat="45.439544656787156" lon="11.556670128568571"><ele>311.0</ele><time>2026-04-03T14:06:10Z</time></trkpt><trkpt lat="45.439677151755774" lon="11.556580278937911"><ele>311.0</ele><time>2026-04-03T14:06:11Z</time></trkpt><trkpt lat="45.43980174066494" lon="11.556512925384641"><ele>311.0</ele><time>2026-04-03T14:06:12Z</time></trkpt><trkpt lat="45.43994102925665" lon="11.556477570199316"><ele>311.0</ele><time>2026-04-03T14:06:13Z</time></trkpt><trkpt lat="45.440083040832974" lon="11.55646410518843"><ele>311.0</ele><time>2026-04-03T14:06:14Z</time></trkpt><trkpt lat="45.44021558565704" lon="11.556452455126289"><ele>311.0</ele><time>2026-04-03T14:06:15Z</time></trkpt><trkpt lat="45.4403465828753" lon="11.556419942792056"><ele>311.0</ele><time>2026-04-03T14:06:16Z</time></trkpt><trkpt lat="45.44047278482332" lon="11.55634093768063"><ele>311.0</ele><time>2026-04-03T14:06:17Z</time></trkpt><trkpt lat="45.44059482104599" lon="11.556240502456049"><ele>311.0</ele><time>2026-04-03T14:06:18Z</time></trkpt><trkpt lat="45.44070840597864" lon="11.556156198024697"><ele>312.25</ele><time>2026-04-03T14:06:18.999Z</time></trkpt><trkpt lat="45.44080545239479" lon="11.556058985344395"><ele>313.5</ele><time>2026-04-03T14:06:19.999Z</time></trkpt><trkpt lat="45.44089586030818" lon="11.555916727039012"><ele>314.75</ele><time>2026-04-03T14:06:20.999Z</time></trkpt><trkpt lat="45.44098145633354" lon="11.555763753172048"><ele>316.0</ele><time>2026-04-03T14:06:21.999Z</time></trkpt><trkpt lat="45.441076952868826" lon="11.555647546313006"><ele>316.0</ele><time>2026-04-03T14:06:22.999Z</time></trkpt><trkpt lat="45.44116281343365" lon="11.55556075068204"><ele>316.0</ele><time>2026-04-03T14:06:23.999Z</time></trkpt><trkpt lat="45.4412279213868" lon="11.555458640271542"><ele>316.0</ele><time>2026-04-03T14:06:24.999Z</time></trkpt><trkpt lat="45.44127676044546" lon="11.555316236672013"><ele>316.0</ele><time>2026-04-03T14:06:25.999Z</time></trkpt><trkpt lat="45.441304085869966" lon="11.555147082056205"><ele>316.0</ele><time>2026-04-03T14:06:26.999Z</time></trkpt><trkpt lat="45.44133038069176" lon="11.554975802005064"><ele>316.2</ele><time>2026-04-03T14:06:27.999Z</time></trkpt><trkpt lat="45.441357873277774" lon="11.554821876410971"><ele>316.40000000000003</ele><time>2026-04-03T14:06:28.999Z</time></trkpt><trkpt lat="45.441414756698975" lon="11.554696469142966"><ele>316.6</ele><time>2026-04-03T14:06:29.999Z</time></trkpt><trkpt lat="45.44150290421645" lon="11.55459388094745"><ele>316.8</ele><time>2026-04-03T14:06:30.999Z</time></trkpt><trkpt lat="45.441605080064726" lon="11.554535586316183"><ele>317.0</ele><time>2026-04-03T14:06:31.999Z</time></trkpt><trkpt lat="45.44171980699109" lon="11.554501701579486"><ele>317.0</ele><time>2026-04-03T14:06:32.999Z</time></trkpt><trkpt lat="45.44185133117246" lon="11.554486123437364"><ele>317.0</ele><time>2026-04-03T14:06:33.999Z</time></trkpt><trkpt lat="45.44197777902798" lon="11.554494157916276"><ele>317.0</ele><time>2026-04-03T14:06:34.999Z</time></trkpt><trkpt lat="45.44208165897055" lon="11.554521941014599"><ele>317.0</ele><time>2026-04-03T14:06:35.999Z</time></trkpt><trkpt lat="45.44216642787752" lon="11.554568496740993"><ele>317.0</ele><time>2026-04-03T14:06:36.999Z</time></trkpt><trkpt lat="45.44222495517" lon="11.554636459007305"><ele>317.0</ele><time>2026-04-03T14:06:37.999Z</time></trkpt><trkpt lat="45.44227373892659" lon="11.554724229867615"><ele>317.0</ele><time>2026-04-03T14:06:38.999Z</time></trkpt><trkpt lat="45.44232493447838" lon="11.554844841015134"><ele>317.0</ele><time>2026-04-03T14:06:39.999Z</time></trkpt><trkpt lat="45.44237898504356" lon="11.555002643769905"><ele>317.0</ele><time>2026-04-03T14:06:40.999Z</time></trkpt><trkpt lat="45.4424243812025" lon="11.555189802521378"><ele>317.0</ele><time>2026-04-03T14:06:41.999Z</time></trkpt><trkpt lat="45.442450990544785" lon="11.555399210719486"><ele>317.0</ele><time>2026-04-03T14:06:42.999Z</time></trkpt><trkpt lat="45.442457373325325" lon="11.555618914996906"><ele>317.0</ele><time>2026-04-03T14:06:43.999Z</time></trkpt><trkpt lat="45.44245410742137" lon="11.55581594727386"><ele>317.0</ele><time>2026-04-03T14:06:44.999Z</time></trkpt><trkpt lat="45.44245100824416" lon="11.55599561498816"><ele>317.0</ele><time>2026-04-03T14:06:45.999Z</time></trkpt><trkpt lat="45.442474115426194" lon="11.556143361904029"><ele>317.0</ele><time>2026-04-03T14:06:46.999Z</time></trkpt><trkpt lat="45.44252984902121" lon="11.556274336128096"><ele>317.0</ele><time>2026-04-03T14:06:47.999Z</time></trkpt><trkpt lat="45.44261346591894" lon="11.556412312333364"><ele>317.0</ele><time>2026-04-03T14:06:48.999Z</time></trkpt><trkpt lat="45.44270700134841" lon="11.556563154668925"><ele>315.5</ele><time>2026-04-03T14:06:49.999Z</time></trkpt><trkpt lat="45.44279266402412" lon="11.556725028723783"><ele>314.0</ele><time>2026-04-03T14:06:50.999Z</time></trkpt><trkpt lat="45.44287123405369" lon="11.556872625446143"><ele>312.5</ele><time>2026-04-03T14:06:51.999Z</time></trkpt><trkpt lat="45.44297544104424" lon="11.556980556966282"><ele>311.0</ele><time>2026-04-03T14:06:52.999Z</time></trkpt><trkpt lat="45.443100548068685" lon="11.557046884612832"><ele>311.0</ele><time>2026-04-03T14:06:53.999Z</time></trkpt><trkpt lat="45.4432429934075" lon="11.557090546491223"><ele>311.0</ele><time>2026-04-03T14:06:54.999Z</time></trkpt><trkpt lat="45.443396822879464" lon="11.557142388185635"><ele>311.0</ele><time>2026-04-03T14:06:55.999Z</time></trkpt><trkpt lat="45.44354354170971" lon="11.55719475540289"><ele>311.0</ele><time>2026-04-03T14:06:56.999Z</time></trkpt><trkpt lat="45.44367250980114" lon="11.557235448535069"><ele>311.0</ele><time>2026-04-03T14:06:57.999Z</time></trkpt><trkpt lat="45.44378768548399" lon="11.557255888549905"><ele>311.0</ele><time>2026-04-03T14:06:58.999Z</time></trkpt><trkpt lat="45.44389998456466" lon="11.557245047977494"><ele>311.0</ele><time>2026-04-03T14:06:59.999Z</time></trkpt><trkpt lat="45.444024438268805" lon="11.557221999245865"><ele>311.75</ele><time>2026-04-03T14:07:00.999Z</time></trkpt><trkpt lat="45.44414788784799" lon="11.557183996489524"><ele>312.5</ele><time>2026-04-03T14:07:01.999Z</time></trkpt><trkpt lat="45.44427060376766" lon="11.557118544080057"><ele>313.25</ele><time>2026-04-03T14:07:02.999Z</time></trkpt><trkpt lat="45.44438445878248" lon="11.557017582367076"><ele>314.0</ele><time>2026-04-03T14:07:03.999Z</time></trkpt><trkpt lat="45.44450144792612" lon="11.556925670888612"><ele>315.6</ele><time>2026-04-03T14:07:04.999Z</time></trkpt><trkpt lat="45.444613953293356" lon="11.556864499114287"><ele>317.2</ele><time>2026-04-03T14:07:05.999Z</time></trkpt><trkpt lat="45.44471778096031" lon="11.556814665693835"><ele>318.8</ele><time>2026-04-03T14:07:06.999Z</time></trkpt><trkpt lat="45.44481298013244" lon="11.556786909572175"><ele>320.40000000000003</ele><time>2026-04-03T14:07:07.998Z</time></trkpt><trkpt lat="45.44489953611277" lon="11.556805134750613"><ele>322.0</ele><time>2026-04-03T14:07:08.998Z</time></trkpt><trkpt lat="45.44498335994646" lon="11.556865131075991"><ele>322.0</ele><time>2026-04-03T14:07:09.998Z</time></trkpt><trkpt lat="45.44504407301655" lon="11.556988253476085"><ele>322.0</ele><time>2026-04-03T14:07:10.998Z</time></trkpt><trkpt lat="45.44513002870958" lon="11.557117369673461"><ele>322.0</ele><time>2026-04-03T14:07:11.998Z</time></trkpt><trkpt lat="45.445199800616464" lon="11.55726782659712"><ele>322.0</ele><time>2026-04-03T14:07:12.998Z</time></trkpt><trkpt lat="45.44528759472155" lon="11.55740776261741"><ele>321.0</ele><time>2026-04-03T14:07:13.998Z</time></trkpt><trkpt lat="45.445399734091566" lon="11.557531680313934"><ele>320.0</ele><time>2026-04-03T14:07:14.998Z</time></trkpt><trkpt lat="45.44551830873915" lon="11.557635124833274"><ele>319.0</ele><time>2026-04-03T14:07:15.998Z</time></trkpt><trkpt lat="45.445622832054966" lon="11.557708042765256"><ele>318.0</ele><time>2026-04-03T14:07:16.998Z</time></trkpt><trkpt lat="45.445726678561115" lon="11.55774989255688"><ele>318.0</ele><time>2026-04-03T14:07:17.998Z</time></trkpt><trkpt lat="45.44582622753527" lon="11.557748969028777"><ele>318.0</ele><time>2026-04-03T14:07:18.998Z</time></trkpt><trkpt lat="45.44590855747456" lon="11.557681319198267"><ele>318.0</ele><time>2026-04-03T14:07:19.998Z</time></trkpt><trkpt lat="45.446007962601236" lon="11.557621229676297"><ele>318.0</ele><time>2026-04-03T14:07:20.998Z</time></trkpt><trkpt lat="45.446108043056114" lon="11.557509773088647"><ele>318.0</ele><time>2026-04-03T14:07:21.998Z</time></trkpt><trkpt lat="45.44621865869805" lon="11.557388234724497"><ele>319.4</ele><time>2026-04-03T14:07:22.998Z</time></trkpt><trkpt lat="45.44632568338936" lon="11.557321887794128"><ele>320.8</ele><time>2026-04-03T14:07:23.998Z</time></trkpt><trkpt lat="45.446440737495024" lon="11.557298768154896"><ele>322.2</ele><time>2026-04-03T14:07:24.998Z</time></trkpt><trkpt lat="45.44654254982627" lon="11.557320595029745"><ele>323.6</ele><time>2026-04-03T14:07:25.998Z</time></trkpt><trkpt lat="45.4466420235758" lon="11.557376113433028"><ele>325.0</ele><time>2026-04-03T14:07:26.998Z</time></trkpt><trkpt lat="45.44676778797483" lon="11.557421287388062"><ele>325.0</ele><time>2026-04-03T14:07:27.998Z</time></trkpt><trkpt lat="45.446914627741684" lon="11.557461035775423"><ele>325.0</ele><time>2026-04-03T14:07:28.998Z</time></trkpt><trkpt lat="45.447066074148594" lon="11.557507844543881"><ele>325.0</ele><time>2026-04-03T14:07:29.998Z</time></trkpt><trkpt lat="45.44723444324095" lon="11.557546598594765"><ele>326.75</ele><time>2026-04-03T14:07:30.998Z</time></trkpt><trkpt lat="45.447409617026885" lon="11.557570495195213"><ele>328.5</ele><time>2026-04-03T14:07:31.998Z</time></trkpt><trkpt lat="45.44755402071365" lon="11.557581120582961"><ele>330.25</ele><time>2026-04-03T14:07:32.998Z</time></trkpt><trkpt lat="45.44764833682918" lon="11.557589333471237"><ele>332.0</ele><time>2026-04-03T14:07:33.998Z</time></trkpt><trkpt lat="45.44774448650009" lon="11.557599722278843"><ele>332.0</ele><time>2026-04-03T14:07:34.998Z</time></trkpt><trkpt lat="45.44786711690146" lon="11.557626069669807"><ele>332.0</ele><time>2026-04-03T14:07:35.998Z</time></trkpt><trkpt lat="45.44801137683081" lon="11.557674730878265"><ele>332.0</ele><time>2026-04-03T14:07:36.998Z</time></trkpt><trkpt lat="45.44816754426173" lon="11.557718815353887"><ele>332.0</ele><time>2026-04-03T14:07:37.998Z</time></trkpt><trkpt lat="45.44833293643483" lon="11.557734901083904"><ele>332.0</ele><time>2026-04-03T14:07:38.998Z</time></trkpt><trkpt lat="45.44849482714972" lon="11.557728019893567"><ele>332.0</ele><time>2026-04-03T14:07:39.998Z</time></trkpt><trkpt lat="45.448651979385865" lon="11.55769877305131"><ele>332.0</ele><time>2026-04-03T14:07:40.998Z</time></trkpt><trkpt lat="45.44880336697383" lon="11.55764978121942"><ele>333.6666666666667</ele><time>2026-04-03T14:07:41.998Z</time></trkpt><trkpt lat="45.44895186660472" lon="11.557557087060228"><ele>335.3333333333333</ele><time>2026-04-03T14:07:42.998Z</time></trkpt><trkpt lat="45.44909714747971" lon="11.557414869874872"><ele>337.0</ele><time>2026-04-03T14:07:43.998Z</time></trkpt><trkpt lat="45.44924832325363" lon="11.5572446037177"><ele>337.0</ele><time>2026-04-03T14:07:45Z</time></trkpt><trkpt lat="45.449413386609244" lon="11.557103742904925"><ele>337.0</ele><time>2026-04-03T14:07:46Z</time></trkpt><trkpt lat="45.44959769158649" lon="11.556989829245445"><ele>337.0</ele><time>2026-04-03T14:07:47Z</time></trkpt><trkpt lat="45.4497573439439" lon="11.556873084947714"><ele>337.0</ele><time>2026-04-03T14:07:48Z</time></trkpt><trkpt lat="45.44990161151269" lon="11.55673688440692"><ele>337.0</ele><time>2026-04-03T14:07:49Z</time></trkpt><trkpt lat="45.450010559004895" lon="11.556559511295676"><ele>337.0</ele><time>2026-04-03T14:07:50Z</time></trkpt><trkpt lat="45.45011198143121" lon="11.556398299497"><ele>337.0</ele><time>2026-04-03T14:07:51Z</time></trkpt><trkpt lat="45.45021094852157" lon="11.556257447371445"><ele>337.0</ele><time>2026-04-03T14:07:52Z</time></trkpt><trkpt lat="45.45033805344413" lon="11.55614864003255"><ele>337.0</ele><time>2026-04-03T14:07:53Z</time></trkpt><trkpt lat="45.45048295465637" lon="11.556063121484245"><ele>337.0</ele><time>2026-04-03T14:07:54Z</time></trkpt><trkpt lat="45.45062900102041" lon="11.556002987452542"><ele>334.75</ele><time>2026-04-03T14:07:55Z</time></trkpt><trkpt lat="45.45078886284044" lon="11.555953179659756"><ele>332.5</ele><time>2026-04-03T14:07:56Z</time></trkpt><trkpt lat="45.45093589969751" lon="11.555915897006093"><ele>330.25</ele><time>2026-04-03T14:07:57Z</time></trkpt><trkpt lat="45.45105979554118" lon="11.555903367298885"><ele>328.0</ele><time>2026-04-03T14:07:58Z</time></trkpt><trkpt lat="45.45116925476693" lon="11.555915441143052"><ele>328.0</ele><time>2026-04-03T14:07:59Z</time></trkpt><trkpt lat="45.45126231673832" lon="11.55597253696928"><ele>328.0</ele><time>2026-04-03T14:08:00Z</time></trkpt><trkpt lat="45.45132555378114" lon="11.556104595096707"><ele>328.0</ele><time>2026-04-03T14:08:01Z</time></trkpt><trkpt lat="45.45142191427685" lon="11.55620416030383"><ele>328.0</ele><time>2026-04-03T14:08:02Z</time></trkpt><trkpt lat="45.451539127735785" lon="11.556291490036244"><ele>327.5</ele><time>2026-04-03T14:08:03Z</time></trkpt><trkpt lat="45.45167929285109" lon="11.556312676413148"><ele>327.0</ele><time>2026-04-03T14:08:04Z</time></trkpt><trkpt lat="45.45181780075711" lon="11.55624535064148"><ele>326.5</ele><time>2026-04-03T14:08:05Z</time></trkpt><trkpt lat="45.4519537251699" lon="11.556201798818996"><ele>326.0</ele><time>2026-04-03T14:08:06Z</time></trkpt><trkpt lat="45.45206478306662" lon="11.556160727543993"><ele>327.0</ele><time>2026-04-03T14:08:07Z</time></trkpt><trkpt lat="45.452157825920466" lon="11.556192455829342"><ele>328.0</ele><time>2026-04-03T14:08:08Z</time></trkpt><trkpt lat="45.45226236280701" lon="11.556266285641547"><ele>329.0</ele><time>2026-04-03T14:08:09Z</time></trkpt><trkpt lat="45.45239215195359" lon="11.556360427436193"><ele>330.0</ele><time>2026-04-03T14:08:10Z</time></trkpt><trkpt lat="45.45250891556967" lon="11.556428334880426"><ele>330.0</ele><time>2026-04-03T14:08:11Z</time></trkpt><trkpt lat="45.45261551145491" lon="11.556436148158793"><ele>330.0</ele><time>2026-04-03T14:08:12Z</time></trkpt><trkpt lat="45.452720158448926" lon="11.556397158112816"><ele>330.0</ele><time>2026-04-03T14:08:13Z</time></trkpt><trkpt lat="45.452824233803796" lon="11.556298300652802"><ele>330.0</ele><time>2026-04-03T14:08:14Z</time></trkpt><trkpt lat="45.45290731370628" lon="11.55614154274864"><ele>332.75</ele><time>2026-04-03T14:08:15Z</time></trkpt><trkpt lat="45.452966866081816" lon="11.555948819945847"><ele>335.5</ele><time>2026-04-03T14:08:16Z</time></trkpt><trkpt lat="45.453024842690674" lon="11.55575042543886"><ele>338.25</ele><time>2026-04-03T14:08:17Z</time></trkpt><trkpt lat="45.45308356915045" lon="11.555599165398894"><ele>341.0</ele><time>2026-04-03T14:08:18Z</time></trkpt><trkpt lat="45.45315146724004" lon="11.555492967698305"><ele>341.0</ele><time>2026-04-03T14:08:18.999Z</time></trkpt><trkpt lat="45.45323077591186" lon="11.55543609438385"><ele>341.0</ele><time>2026-04-03T14:08:19.999Z</time></trkpt><trkpt lat="45.453338669092275" lon="11.555406774538806"><ele>341.0</ele><time>2026-04-03T14:08:20.999Z</time></trkpt><trkpt lat="45.45347194496569" lon="11.555399070643983"><ele>341.0</ele><time>2026-04-03T14:08:21.999Z</time></trkpt><trkpt lat="45.45359164960381" lon="11.555426901132998"><ele>341.0</ele><time>2026-04-03T14:08:22.999Z</time></trkpt><trkpt lat="45.453666081003966" lon="11.555498399199923"><ele>341.0</ele><time>2026-04-03T14:08:23.999Z</time></trkpt><trkpt lat="45.4536914808751" lon="11.555629085777447"><ele>341.0</ele><time>2026-04-03T14:08:24.999Z</time></trkpt><trkpt lat="45.45370600576602" lon="11.555770185526733"><ele>341.0</ele><time>2026-04-03T14:08:25.999Z</time></trkpt><trkpt lat="45.45375516669399" lon="11.555931678401974"><ele>341.0</ele><time>2026-04-03T14:08:26.999Z</time></trkpt><trkpt lat="45.453818202070714" lon="11.55610128689344"><ele>340.5</ele><time>2026-04-03T14:08:27.999Z</time></trkpt><trkpt lat="45.4539263368256" lon="11.556219554268106"><ele>340.0</ele><time>2026-04-03T14:08:28.999Z</time></trkpt><trkpt lat="45.45406130393664" lon="11.556252666120377"><ele>339.5</ele><time>2026-04-03T14:08:30Z</time></trkpt><trkpt lat="45.454193831865815" lon="11.556267360980804"><ele>339.0</ele><time>2026-04-03T14:08:30.999Z</time></trkpt><trkpt lat="45.454326563723576" lon="11.556207836605592"><ele>337.5</ele><time>2026-04-03T14:08:31.999Z</time></trkpt><trkpt lat="45.45446100586306" lon="11.556185431694614"><ele>336.0</ele><time>2026-04-03T14:08:32.999Z</time></trkpt><trkpt lat="45.45458274666244" lon="11.556169577402171"><ele>334.5</ele><time>2026-04-03T14:08:33.999Z</time></trkpt><trkpt lat="45.45469773292014" lon="11.556210394158114"><ele>333.0</ele><time>2026-04-03T14:08:34.999Z</time></trkpt><trkpt lat="45.45480586703883" lon="11.556287495330832"><ele>331.5</ele><time>2026-04-03T14:08:35.999Z</time></trkpt><trkpt lat="45.45489342969102" lon="11.556427150884087"><ele>330.0</ele><time>2026-04-03T14:08:36.999Z</time></trkpt><trkpt lat="45.45500030216813" lon="11.556581644867961"><ele>328.5</ele><time>2026-04-03T14:08:37.999Z</time></trkpt><trkpt lat="45.45508597155866" lon="11.556748349678209"><ele>327.0</ele><time>2026-04-03T14:08:38.999Z</time></trkpt><trkpt lat="45.45518514504327" lon="11.556864734004254"><ele>327.0</ele><time>2026-04-03T14:08:39.999Z</time></trkpt><trkpt lat="45.45528180790742" lon="11.556945252494462"><ele>327.0</ele><time>2026-04-03T14:08:40.999Z</time></trkpt><trkpt lat="45.4553604672515" lon="11.557034953068166"><ele>327.0</ele><time>2026-04-03T14:08:41.999Z</time></trkpt><trkpt lat="45.45541322893786" lon="11.557154344476512"><ele>327.0</ele><time>2026-04-03T14:08:42.999Z</time></trkpt><trkpt lat="45.45540819191464" lon="11.557291482862178"><ele>327.0</ele><time>2026-04-03T14:08:43.999Z</time></trkpt><trkpt lat="45.45536473408708" lon="11.557415241144035"><ele>327.75</ele><time>2026-04-03T14:08:44.999Z</time></trkpt><trkpt lat="45.45533649102957" lon="11.557566211424586"><ele>328.5</ele><time>2026-04-03T14:08:45.999Z</time></trkpt><trkpt lat="45.45533210526859" lon="11.557743039664839"><ele>329.25</ele><time>2026-04-03T14:08:46.999Z</time></trkpt><trkpt lat="45.455377988535865" lon="11.557927005355737"><ele>330.0</ele><time>2026-04-03T14:08:47.999Z</time></trkpt><trkpt lat="45.455455031747846" lon="11.558078027770904"><ele>330.3333333333333</ele><time>2026-04-03T14:08:48.999Z</time></trkpt><trkpt lat="45.45557589396822" lon="11.558178564900432"><ele>330.66666666666663</ele><time>2026-04-03T14:08:49.999Z</time></trkpt><trkpt lat="45.45572528988205" lon="11.558261976652323"><ele>331.0</ele><time>2026-04-03T14:08:50.999Z</time></trkpt><trkpt lat="45.45589287948899" lon="11.55834351838663"><ele>331.0</ele><time>2026-04-03T14:08:51.999Z</time></trkpt><trkpt lat="45.45608211364748" lon="11.55841247890431"><ele>331.0</ele><time>2026-04-03T14:08:52.999Z</time></trkpt><trkpt lat="45.45627507179335" lon="11.558488027867172"><ele>331.0</ele><time>2026-04-03T14:08:53.999Z</time></trkpt><trkpt lat="45.45648661658211" lon="11.558565119747646"><ele>328.3333333333333</ele><time>2026-04-03T14:08:54.999Z</time></trkpt><trkpt lat="45.45668917700228" lon="11.558610371798315"><ele>325.6666666666667</ele><time>2026-04-03T14:08:55.999Z</time></trkpt><trkpt lat="45.456876779959245" lon="11.558648820285683"><ele>323.0</ele><time>2026-04-03T14:08:56.999Z</time></trkpt><trkpt lat="45.45707526347463" lon="11.558661652137687"><ele>321.0</ele><time>2026-04-03T14:08:57.999Z</time></trkpt><trkpt lat="45.45725679941022" lon="11.558665940095054"><ele>319.0</ele><time>2026-04-03T14:08:58.999Z</time></trkpt><trkpt lat="45.45741043418993" lon="11.558664127271475"><ele>317.0</ele><time>2026-04-03T14:08:59.999Z</time></trkpt><trkpt lat="45.45755255736991" lon="11.558681381809992"><ele>322.6666666666667</ele><time>2026-04-03T14:09:00.999Z</time></trkpt><trkpt lat="45.45769667771403" lon="11.558745718189064"><ele>328.3333333333333</ele><time>2026-04-03T14:09:01.999Z</time></trkpt><trkpt lat="45.457858715689945" lon="11.55882419658256"><ele>334.0</ele><time>2026-04-03T14:09:02.999Z</time></trkpt><trkpt lat="45.45802356260211" lon="11.558896637138307"><ele>334.0</ele><time>2026-04-03T14:09:03.999Z</time></trkpt><trkpt lat="45.45817330924049" lon="11.558959647002345"><ele>334.0</ele><time>2026-04-03T14:09:04.999Z</time></trkpt><trkpt lat="45.45831284623866" lon="11.559018623014314"><ele>334.0</ele><time>2026-04-03T14:09:05.999Z</time></trkpt><trkpt lat="45.45846182612595" lon="11.559052599503133"><ele>334.0</ele><time>2026-04-03T14:09:06.999Z</time></trkpt><trkpt lat="45.458638983812605" lon="11.559034385943825"><ele>334.0</ele><time>2026-04-03T14:09:07.999Z</time></trkpt><trkpt lat="45.45883813377236" lon="11.558976429090126"><ele>334.0</ele><time>2026-04-03T14:09:08.999Z</time></trkpt><trkpt lat="45.45903233560766" lon="11.55891444455553"><ele>335.66666666666663</ele><time>2026-04-03T14:09:09.999Z</time></trkpt><trkpt lat="45.459219734993205" lon="11.55886763492647"><ele>337.3333333333333</ele><time>2026-04-03T14:09:10.998Z</time></trkpt><trkpt lat="45.459395466853294" lon="11.558825532663832"><ele>339.0</ele><time>2026-04-03T14:09:11.998Z</time></trkpt><trkpt lat="45.4595684533631" lon="11.558781597555297"><ele>339.25</ele><time>2026-04-03T14:09:12.998Z</time></trkpt><trkpt lat="45.45972343345334" lon="11.558722290563203"><ele>339.5</ele><time>2026-04-03T14:09:13.998Z</time></trkpt><trkpt lat="45.45986126087818" lon="11.558660098614542"><ele>339.75</ele><time>2026-04-03T14:09:14.998Z</time></trkpt><trkpt lat="45.45998497448756" lon="11.558582195003234"><ele>340.0</ele><time>2026-04-03T14:09:15.998Z</time></trkpt><trkpt lat="45.46007679525536" lon="11.558482873756422"><ele>340.0</ele><time>2026-04-03T14:09:16.998Z</time></trkpt><trkpt lat="45.46014436357833" lon="11.558403604332048"><ele>340.0</ele><time>2026-04-03T14:09:17.998Z</time></trkpt><trkpt lat="45.46021493983007" lon="11.558378665408878"><ele>340.0</ele><time>2026-04-03T14:09:18.998Z</time></trkpt><trkpt lat="45.46029384979169" lon="11.558537635295346"><ele>340.0</ele><time>2026-04-03T14:09:20.998Z</time></trkpt><trkpt lat="45.4602638550448" lon="11.558648265862477"><ele>340.0</ele><time>2026-04-03T14:09:21.998Z</time></trkpt><trkpt lat="45.46022347157757" lon="11.558784166195924"><ele>340.0</ele><time>2026-04-03T14:09:22.998Z</time></trkpt><trkpt lat="45.46017121970751" lon="11.558959731746251"><ele>340.0</ele><time>2026-04-03T14:09:23.998Z</time></trkpt><trkpt lat="45.46011607925847" lon="11.559171558998175"><ele>340.0</ele><time>2026-04-03T14:09:24.998Z</time></trkpt><trkpt lat="45.46009213660322" lon="11.559401384542602"><ele>342.3333333333333</ele><time>2026-04-03T14:09:25.998Z</time></trkpt><trkpt lat="45.46007175838299" lon="11.559667992176164"><ele>344.6666666666667</ele><time>2026-04-03T14:09:26.998Z</time></trkpt><trkpt lat="45.46007232031723" lon="11.559902169817471"><ele>347.0</ele><time>2026-04-03T14:09:27.998Z</time></trkpt><trkpt lat="45.460082802020665" lon="11.560110983860302"><ele>347.0</ele><time>2026-04-03T14:09:28.998Z</time></trkpt><trkpt lat="45.46010160702417" lon="11.560288400380157"><ele>347.0</ele><time>2026-04-03T14:09:29.998Z</time></trkpt><trkpt lat="45.460100857889195" lon="11.560433014729302"><ele>347.0</ele><time>2026-04-03T14:09:30.998Z</time></trkpt><trkpt lat="45.46005191931903" lon="11.560564941190798"><ele>347.0</ele><time>2026-04-03T14:09:31.998Z</time></trkpt><trkpt lat="45.45996573110431" lon="11.560681148084885"><ele>346.25</ele><time>2026-04-03T14:09:32.998Z</time></trkpt><trkpt lat="45.45990025795346" lon="11.560846726118932"><ele>345.5</ele><time>2026-04-03T14:09:33.998Z</time></trkpt><trkpt lat="45.459842146364345" lon="11.56099611356648"><ele>344.75</ele><time>2026-04-03T14:09:34.998Z</time></trkpt><trkpt lat="45.459846381571815" lon="11.56119479057424"><ele>344.0</ele><time>2026-04-03T14:09:35.998Z</time></trkpt><trkpt lat="45.4598713873789" lon="11.561378404906316"><ele>343.0</ele><time>2026-04-03T14:09:36.998Z</time></trkpt><trkpt lat="45.45989466641938" lon="11.561576057769534"><ele>342.0</ele><time>2026-04-03T14:09:37.998Z</time></trkpt><trkpt lat="45.45992042140401" lon="11.56177314466333"><ele>341.0</ele><time>2026-04-03T14:09:38.998Z</time></trkpt><trkpt lat="45.459956816048795" lon="11.561939359303857"><ele>340.0</ele><time>2026-04-03T14:09:39.998Z</time></trkpt><trkpt lat="45.45997837978511" lon="11.562093262679824"><ele>339.4</ele><time>2026-04-03T14:09:40.998Z</time></trkpt><trkpt lat="45.46000281317383" lon="11.562220669588832"><ele>338.8</ele><time>2026-04-03T14:09:41.998Z</time></trkpt><trkpt lat="45.46007104525434" lon="11.562318931193847"><ele>338.20000000000005</ele><time>2026-04-03T14:09:42.998Z</time></trkpt><trkpt lat="45.460181513939" lon="11.56238672189025"><ele>337.6</ele><time>2026-04-03T14:09:43.998Z</time></trkpt><trkpt lat="45.46029154277584" lon="11.562418824461185"><ele>337.0</ele><time>2026-04-03T14:09:44.998Z</time></trkpt><trkpt lat="45.460380548342634" lon="11.56247112662435"><ele>337.0</ele><time>2026-04-03T14:09:45.998Z</time></trkpt><trkpt lat="45.46042933032613" lon="11.562559182901955"><ele>337.0</ele><time>2026-04-03T14:09:46.998Z</time></trkpt><trkpt lat="45.460451345410014" lon="11.562677128817969"><ele>337.0</ele><time>2026-04-03T14:09:47.998Z</time></trkpt><trkpt lat="45.46042191985282" lon="11.562766937881413"><ele>337.0</ele><time>2026-04-03T14:09:48.998Z</time></trkpt><trkpt lat="45.460370109461465" lon="11.562901158377157"><ele>337.0</ele><time>2026-04-03T14:09:49.998Z</time></trkpt><trkpt lat="45.46032765546439" lon="11.56311312772186"><ele>336.66666666666663</ele><time>2026-04-03T14:09:51Z</time></trkpt><trkpt lat="45.46030042838866" lon="11.563343210720008"><ele>336.3333333333333</ele><time>2026-04-03T14:09:52Z</time></trkpt><trkpt lat="45.46030632657487" lon="11.563587298668592"><ele>336.0</ele><time>2026-04-03T14:09:53Z</time></trkpt><trkpt lat="45.46032866566185" lon="11.56379926536926"><ele>335.0</ele><time>2026-04-03T14:09:54Z</time></trkpt><trkpt lat="45.46038462620477" lon="11.56398039848637"><ele>334.0</ele><time>2026-04-03T14:09:55Z</time></trkpt><trkpt lat="45.46047937408059" lon="11.56413345201782"><ele>333.0</ele><time>2026-04-03T14:09:56Z</time></trkpt><trkpt lat="45.46061316129186" lon="11.564251360636536"><ele>332.0</ele><time>2026-04-03T14:09:57Z</time></trkpt><trkpt lat="45.46076242004155" lon="11.564380138184431"><ele>329.33333333333337</ele><time>2026-04-03T14:09:58Z</time></trkpt><trkpt lat="45.460915837127956" lon="11.564525975396766"><ele>326.6666666666667</ele><time>2026-04-03T14:09:59Z</time></trkpt><trkpt lat="45.461085739960005" lon="11.564661502011948"><ele>324.0</ele><time>2026-04-03T14:10:00Z</time></trkpt><trkpt lat="45.46124970090958" lon="11.56479586499515"><ele>325.0</ele><time>2026-04-03T14:10:01Z</time></trkpt><trkpt lat="45.46139831607296" lon="11.564918718856987"><ele>326.0</ele><time>2026-04-03T14:10:02Z</time></trkpt><trkpt lat="45.46153177077529" lon="11.56502400031861"><ele>327.0</ele><time>2026-04-03T14:10:03Z</time></trkpt><trkpt lat="45.46164988665987" lon="11.565119326315422"><ele>327.0</ele><time>2026-04-03T14:10:04Z</time></trkpt><trkpt lat="45.461721208494176" lon="11.565250724323937"><ele>327.0</ele><time>2026-04-03T14:10:05Z</time></trkpt><trkpt lat="45.46180285020544" lon="11.565361973144507"><ele>327.0</ele><time>2026-04-03T14:10:06Z</time></trkpt><trkpt lat="45.4617976042248" lon="11.565549612921199"><ele>327.0</ele><time>2026-04-03T14:10:07Z</time></trkpt><trkpt lat="45.46187006094559" lon="11.565690542320466"><ele>327.0</ele><time>2026-04-03T14:10:08Z</time></trkpt><trkpt lat="45.461946512229595" lon="11.565837813071257"><ele>327.0</ele><time>2026-04-03T14:10:09Z</time></trkpt><trkpt lat="45.46205301838121" lon="11.565968477564757"><ele>327.0</ele><time>2026-04-03T14:10:10Z</time></trkpt><trkpt lat="45.46216778818463" lon="11.56611904248122"><ele>327.0</ele><time>2026-04-03T14:10:11Z</time></trkpt><trkpt lat="45.46227062674578" lon="11.566298160831439"><ele>327.0</ele><time>2026-04-03T14:10:12Z</time></trkpt><trkpt lat="45.46235154262341" lon="11.56645505783088"><ele>327.0</ele><time>2026-04-03T14:10:13Z</time></trkpt><trkpt lat="45.46241788921939" lon="11.566624247390417"><ele>327.0</ele><time>2026-04-03T14:10:14Z</time></trkpt><trkpt lat="45.46249074805436" lon="11.566749495846894"><ele>327.0</ele><time>2026-04-03T14:10:15Z</time></trkpt><trkpt lat="45.46252016430582" lon="11.566832900710768"><ele>327.0</ele><time>2026-04-03T14:10:16Z</time></trkpt><trkpt lat="45.46258722911163" lon="11.566839219166724"><ele>327.0</ele><time>2026-04-03T14:10:17Z</time></trkpt><trkpt lat="45.46264709764639" lon="11.566786505721472"><ele>327.0</ele><time>2026-04-03T14:10:18Z</time></trkpt><trkpt lat="45.462671404309056" lon="11.566671022024744"><ele>327.0</ele><time>2026-04-03T14:10:19Z</time></trkpt><trkpt lat="45.46270549832814" lon="11.566515246072397"><ele>327.0</ele><time>2026-04-03T14:10:20Z</time></trkpt><trkpt lat="45.46273739779057" lon="11.566314363370259"><ele>326.25</ele><time>2026-04-03T14:10:21Z</time></trkpt><trkpt lat="45.46274225085094" lon="11.566112665541498"><ele>325.5</ele><time>2026-04-03T14:10:22Z</time></trkpt><trkpt lat="45.46278406575106" lon="11.565948884994228"><ele>324.75</ele><time>2026-04-03T14:10:23Z</time></trkpt><trkpt lat="45.46286431886092" lon="11.5658211500524"><ele>324.0</ele><time>2026-04-03T14:10:24Z</time></trkpt><trkpt lat="45.46299014966217" lon="11.56575306723177"><ele>324.0</ele><time>2026-04-03T14:10:24.999Z</time></trkpt><trkpt lat="45.46311963038381" lon="11.565690939695498"><ele>324.0</ele><time>2026-04-03T14:10:25.999Z</time></trkpt><trkpt lat="45.46324238460557" lon="11.5656880028227"><ele>324.0</ele><time>2026-04-03T14:10:26.999Z</time></trkpt><trkpt lat="45.463337601962984" lon="11.565719725194308"><ele>324.0</ele><time>2026-04-03T14:10:27.999Z</time></trkpt><trkpt lat="45.46341685012733" lon="11.565772418186723"><ele>324.0</ele><time>2026-04-03T14:10:28.999Z</time></trkpt><trkpt lat="45.4634669543684" lon="11.565862948575106"><ele>324.0</ele><time>2026-04-03T14:10:29.999Z</time></trkpt><trkpt lat="45.46345343437418" lon="11.565974909135022"><ele>324.0</ele><time>2026-04-03T14:10:30.999Z</time></trkpt><trkpt lat="45.463429594572546" lon="11.566105753035465"><ele>324.0</ele><time>2026-04-03T14:10:31.999Z</time></trkpt><trkpt lat="45.46339921452318" lon="11.566283029069984"><ele>324.0</ele><time>2026-04-03T14:10:32.999Z</time></trkpt><trkpt lat="45.46337388536102" lon="11.566463829973726"><ele>324.0</ele><time>2026-04-03T14:10:33.999Z</time></trkpt><trkpt lat="45.46337642311633" lon="11.5666145060254"><ele>322.4</ele><time>2026-04-03T14:10:34.999Z</time></trkpt><trkpt lat="45.463376113612995" lon="11.566740788556114"><ele>320.79999999999995</ele><time>2026-04-03T14:10:35.999Z</time></trkpt><trkpt lat="45.463419156767415" lon="11.56685818624885"><ele>319.20000000000005</ele><time>2026-04-03T14:10:36.999Z</time></trkpt><trkpt lat="45.46351760031146" lon="11.566932391499526"><ele>317.6</ele><time>2026-04-03T14:10:37.999Z</time></trkpt><trkpt lat="45.46363866522377" lon="11.566959691420404"><ele>316.0</ele><time>2026-04-03T14:10:38.999Z</time></trkpt><trkpt lat="45.46377427419668" lon="11.567058981350794"><ele>311.0</ele><time>2026-04-03T14:10:39.999Z</time></trkpt><trkpt lat="45.46392817328507" lon="11.567147963301254"><ele>306.0</ele><time>2026-04-03T14:10:40.999Z</time></trkpt><trkpt lat="45.46407887324418" lon="11.567269867319206"><ele>301.0</ele><time>2026-04-03T14:10:41.999Z</time></trkpt><trkpt lat="45.464218849925444" lon="11.567387292684067"><ele>301.0</ele><time>2026-04-03T14:10:42.999Z</time></trkpt><trkpt lat="45.46434606497131" lon="11.5674953717676"><ele>301.0</ele><time>2026-04-03T14:10:43.999Z</time></trkpt><trkpt lat="45.46446053840564" lon="11.567588148182878"><ele>301.0</ele><time>2026-04-03T14:10:44.999Z</time></trkpt><trkpt lat="45.46455004949138" lon="11.567662756150543"><ele>301.0</ele><time>2026-04-03T14:10:45.999Z</time></trkpt><trkpt lat="45.464631074097554" lon="11.567704403803896"><ele>298.75</ele><time>2026-04-03T14:10:46.999Z</time></trkpt><trkpt lat="45.46471013276782" lon="11.567619802494859"><ele>296.5</ele><time>2026-04-03T14:10:47.999Z</time></trkpt><trkpt lat="45.46479301717329" lon="11.567493223608508"><ele>294.25</ele><time>2026-04-03T14:10:48.999Z</time></trkpt><trkpt lat="45.46487672935708" lon="11.567338171586933"><ele>292.0</ele><time>2026-04-03T14:10:49.999Z</time></trkpt><trkpt lat="45.46498914881819" lon="11.567207973664024"><ele>292.0</ele><time>2026-04-03T14:10:50.999Z</time></trkpt><trkpt lat="45.465110026066526" lon="11.567127761578234"><ele>292.0</ele><time>2026-04-03T14:10:51.999Z</time></trkpt><trkpt lat="45.46524168345119" lon="11.567118529967903"><ele>292.0</ele><time>2026-04-03T14:10:52.999Z</time></trkpt><trkpt lat="45.465382286830234" lon="11.56710598507176"><ele>292.0</ele><time>2026-04-03T14:10:53.999Z</time></trkpt><trkpt lat="45.465521105691714" lon="11.567126383052667"><ele>290.66666666666663</ele><time>2026-04-03T14:10:54.999Z</time></trkpt><trkpt lat="45.465684346020225" lon="11.567137734338084"><ele>289.3333333333333</ele><time>2026-04-03T14:10:55.999Z</time></trkpt><trkpt lat="45.46583942181467" lon="11.567145189525"><ele>288.0</ele><time>2026-04-03T14:10:56.999Z</time></trkpt><trkpt lat="45.46598227744616" lon="11.567150986812237"><ele>288.0</ele><time>2026-04-03T14:10:57.999Z</time></trkpt><trkpt lat="45.46611797457565" lon="11.567165213598857"><ele>288.0</ele><time>2026-04-03T14:10:58.999Z</time></trkpt><trkpt lat="45.46623958017596" lon="11.567200011351238"><ele>288.0</ele><time>2026-04-03T14:10:59.999Z</time></trkpt><trkpt lat="45.46636193832833" lon="11.567280307165479"><ele>288.0</ele><time>2026-04-03T14:11:00.999Z</time></trkpt><trkpt lat="45.46649177479974" lon="11.567368622960004"><ele>287.75</ele><time>2026-04-03T14:11:01.999Z</time></trkpt><trkpt lat="45.46662031079593" lon="11.567399468696735"><ele>287.5</ele><time>2026-04-03T14:11:02.999Z</time></trkpt><trkpt lat="45.466760750500846" lon="11.56733713472062"><ele>287.25</ele><time>2026-04-03T14:11:03.999Z</time></trkpt><trkpt lat="45.466911315757514" lon="11.567248603191933"><ele>287.0</ele><time>2026-04-03T14:11:04.999Z</time></trkpt><trkpt lat="45.467038702891195" lon="11.567088511013118"><ele>288.33333333333337</ele><time>2026-04-03T14:11:05.999Z</time></trkpt><trkpt lat="45.46715180720745" lon="11.566917119576305"><ele>289.6666666666667</ele><time>2026-04-03T14:11:06.999Z</time></trkpt><trkpt lat="45.4672936149077" lon="11.566811671441124"><ele>291.0</ele><time>2026-04-03T14:11:07.999Z</time></trkpt><trkpt lat="45.46746251489316" lon="11.566761507205465"><ele>291.0</ele><time>2026-04-03T14:11:08.999Z</time></trkpt><trkpt lat="45.46761674290974" lon="11.566710535744575"><ele>291.0</ele><time>2026-04-03T14:11:09.999Z</time></trkpt><trkpt lat="45.46774045177725" lon="11.56667702086737"><ele>291.0</ele><time>2026-04-03T14:11:10.999Z</time></trkpt><trkpt lat="45.46784393552292" lon="11.566680292425174"><ele>291.0</ele><time>2026-04-03T14:11:11.999Z</time></trkpt><trkpt lat="45.467936009327424" lon="11.566738747569243"><ele>292.0</ele><time>2026-04-03T14:11:12.999Z</time></trkpt><trkpt lat="45.468031964627855" lon="11.566837540073177"><ele>293.0</ele><time>2026-04-03T14:11:13.999Z</time></trkpt><trkpt lat="45.46812021873444" lon="11.566977876425879"><ele>294.0</ele><time>2026-04-03T14:11:14.999Z</time></trkpt><trkpt lat="45.468156666268385" lon="11.567147296827875"><ele>295.0</ele><time>2026-04-03T14:11:15.999Z</time></trkpt><trkpt lat="45.46818433221819" lon="11.567324458275923"><ele>296.0</ele><time>2026-04-03T14:11:16.998Z</time></trkpt><trkpt lat="45.468228429768885" lon="11.567520232072475"><ele>297.0</ele><time>2026-04-03T14:11:17.998Z</time></trkpt><trkpt lat="45.468259551917534" lon="11.56772840482013"><ele>298.0</ele><time>2026-04-03T14:11:18.998Z</time></trkpt><trkpt lat="45.468297440496464" lon="11.567950593748419"><ele>295.3333333333333</ele><time>2026-04-03T14:11:19.998Z</time></trkpt><trkpt lat="45.46835839756343" lon="11.568196373727558"><ele>292.6666666666667</ele><time>2026-04-03T14:11:20.998Z</time></trkpt><trkpt lat="45.46845361403398" lon="11.568450521322843"><ele>290.0</ele><time>2026-04-03T14:11:21.998Z</time></trkpt><trkpt lat="45.468581792046045" lon="11.568677247502967"><ele>291.6666666666667</ele><time>2026-04-03T14:11:22.998Z</time></trkpt><trkpt lat="45.468713095277444" lon="11.568879873071046"><ele>293.3333333333333</ele><time>2026-04-03T14:11:23.998Z</time></trkpt><trkpt lat="45.468816127742464" lon="11.569043699244224"><ele>295.0</ele><time>2026-04-03T14:11:24.998Z</time></trkpt><trkpt lat="45.468896898458205" lon="11.569169937051013"><ele>295.0</ele><time>2026-04-03T14:11:25.998Z</time></trkpt><trkpt lat="45.46899677049366" lon="11.569256493224648"><ele>295.0</ele><time>2026-04-03T14:11:26.998Z</time></trkpt><trkpt lat="45.469140151840534" lon="11.569280405928474"><ele>295.0</ele><time>2026-04-03T14:11:27.998Z</time></trkpt><trkpt lat="45.46929436325998" lon="11.569320165822564"><ele>295.0</ele><time>2026-04-03T14:11:28.998Z</time></trkpt><trkpt lat="45.4694298723843" lon="11.569337631597204"><ele>295.0</ele><time>2026-04-03T14:11:29.998Z</time></trkpt><trkpt lat="45.46954136074834" lon="11.569400876366874"><ele>295.0</ele><time>2026-04-03T14:11:30.998Z</time></trkpt><trkpt lat="45.46962850920008" lon="11.56950107998198"><ele>295.0</ele><time>2026-04-03T14:11:31.998Z</time></trkpt><trkpt lat="45.469677512064834" lon="11.56964119611093"><ele>295.0</ele><time>2026-04-03T14:11:32.998Z</time></trkpt><trkpt lat="45.46972060035028" lon="11.569789323580897"><ele>295.0</ele><time>2026-04-03T14:11:33.998Z</time></trkpt><trkpt lat="45.46979032205114" lon="11.569964192572291"><ele>295.0</ele><time>2026-04-03T14:11:34.998Z</time></trkpt><trkpt lat="45.46984610449515" lon="11.570163090942863"><ele>295.0</ele><time>2026-04-03T14:11:35.998Z</time></trkpt><trkpt lat="45.46993099940684" lon="11.570372260895638"><ele>295.0</ele><time>2026-04-03T14:11:36.998Z</time></trkpt><trkpt lat="45.47002981865894" lon="11.570588562170505"><ele>295.0</ele><time>2026-04-03T14:11:37.998Z</time></trkpt><trkpt lat="45.47014340653498" lon="11.570789010140244"><ele>295.0</ele><time>2026-04-03T14:11:38.998Z</time></trkpt><trkpt lat="45.47026619848375" lon="11.570952747749072"><ele>295.0</ele><time>2026-04-03T14:11:39.998Z</time></trkpt><trkpt lat="45.47037984756034" lon="11.571081243969822"><ele>295.0</ele><time>2026-04-03T14:11:40.998Z</time></trkpt><trkpt lat="45.47047177109994" lon="11.571168527311016"><ele>295.0</ele><time>2026-04-03T14:11:41.998Z</time></trkpt><trkpt lat="45.470540049686086" lon="11.571265954482348"><ele>295.0</ele><time>2026-04-03T14:11:42.998Z</time></trkpt><trkpt lat="45.470543024597106" lon="11.571410137842268"><ele>292.25</ele><time>2026-04-03T14:11:43.998Z</time></trkpt><trkpt lat="45.470558391215604" lon="11.571563669674621"><ele>289.5</ele><time>2026-04-03T14:11:44.998Z</time></trkpt><trkpt lat="45.47057916708888" lon="11.571740264243324"><ele>286.75</ele><time>2026-04-03T14:11:45.998Z</time></trkpt><trkpt lat="45.47062257392391" lon="11.571891283080262"><ele>284.0</ele><time>2026-04-03T14:11:46.998Z</time></trkpt><trkpt lat="45.470673675013074" lon="11.572037858414335"><ele>284.0</ele><time>2026-04-03T14:11:47.998Z</time></trkpt><trkpt lat="45.47077416769833" lon="11.572162087294066"><ele>284.0</ele><time>2026-04-03T14:11:48.998Z</time></trkpt><trkpt lat="45.47091148969768" lon="11.572257948712643"><ele>284.0</ele><time>2026-04-03T14:11:49.998Z</time></trkpt><trkpt lat="45.47107056105576" lon="11.572340596811781"><ele>284.0</ele><time>2026-04-03T14:11:50.998Z</time></trkpt><trkpt lat="45.4712462740544" lon="11.572419443528025"><ele>284.0</ele><time>2026-04-03T14:11:51.998Z</time></trkpt><trkpt lat="45.471413576645645" lon="11.57252134201871"><ele>284.0</ele><time>2026-04-03T14:11:52.998Z</time></trkpt><trkpt lat="45.47154086074405" lon="11.572683418251055"><ele>282.0</ele><time>2026-04-03T14:11:53.998Z</time></trkpt><trkpt lat="45.471677902450146" lon="11.57280180319637"><ele>280.0</ele><time>2026-04-03T14:11:54.998Z</time></trkpt><trkpt lat="45.47181259435784" lon="11.572904513281408"><ele>278.0</ele><time>2026-04-03T14:11:55.998Z</time></trkpt><trkpt lat="45.47197131629586" lon="11.57295023326725"><ele>274.6666666666667</ele><time>2026-04-03T14:11:57Z</time></trkpt><trkpt lat="45.47212991420524" lon="11.572998846853464"><ele>271.3333333333333</ele><time>2026-04-03T14:11:58Z</time></trkpt><trkpt lat="45.47227741739256" lon="11.573042027736697"><ele>268.0</ele><time>2026-04-03T14:11:59Z</time></trkpt><trkpt lat="45.47242185413626" lon="11.57302733042684"><ele>268.0</ele><time>2026-04-03T14:12:00Z</time></trkpt><trkpt lat="45.472565031022185" lon="11.572962090992576"><ele>268.0</ele><time>2026-04-03T14:12:01Z</time></trkpt><trkpt lat="45.47269669242565" lon="11.572906268759006"><ele>268.0</ele><time>2026-04-03T14:12:02Z</time></trkpt><trkpt lat="45.47281298489264" lon="11.572930694467935"><ele>268.0</ele><time>2026-04-03T14:12:03Z</time></trkpt><trkpt lat="45.472931392423234" lon="11.572999440648822"><ele>268.0</ele><time>2026-04-03T14:12:04Z</time></trkpt><trkpt lat="45.473047258084556" lon="11.573086562423855"><ele>268.0</ele><time>2026-04-03T14:12:05Z</time></trkpt><trkpt lat="45.47317681371215" lon="11.5731297801716"><ele>268.0</ele><time>2026-04-03T14:12:06Z</time></trkpt><trkpt lat="45.47328415939815" lon="11.573178569702225"><ele>268.0</ele><time>2026-04-03T14:12:07Z</time></trkpt><trkpt lat="45.47335725460471" lon="11.573300983719545"><ele>268.0</ele><time>2026-04-03T14:12:08Z</time></trkpt><trkpt lat="45.47342790267775" lon="11.573443096883853"><ele>268.0</ele><time>2026-04-03T14:12:09Z</time></trkpt><trkpt lat="45.473509545028136" lon="11.573568645863958"><ele>268.0</ele><time>2026-04-03T14:12:10Z</time></trkpt><trkpt lat="45.47360481279491" lon="11.573675902589564"><ele>268.0</ele><time>2026-04-03T14:12:11Z</time></trkpt><trkpt lat="45.47372704272409" lon="11.573721565363527"><ele>267.2</ele><time>2026-04-03T14:12:12Z</time></trkpt><trkpt lat="45.473828816019875" lon="11.573745702498204"><ele>266.4</ele><time>2026-04-03T14:12:13Z</time></trkpt><trkpt lat="45.473896254137465" lon="11.573734214206413"><ele>265.59999999999997</ele><time>2026-04-03T14:12:14Z</time></trkpt><trkpt lat="45.47398952434911" lon="11.573696342353184"><ele>264.8</ele><time>2026-04-03T14:12:16Z</time></trkpt><trkpt lat="45.474033396497354" lon="11.57356386275477"><ele>264.0</ele><time>2026-04-03T14:12:18Z</time></trkpt><trkpt lat="45.47407181084779" lon="11.573444779961328"><ele>264.0</ele><time>2026-04-03T14:12:19Z</time></trkpt><trkpt lat="45.474109861024886" lon="11.573295914175608"><ele>264.0</ele><time>2026-04-03T14:12:20Z</time></trkpt><trkpt lat="45.47416237489058" lon="11.573151878375105"><ele>264.0</ele><time>2026-04-03T14:12:21Z</time></trkpt><trkpt lat="45.47422449006907" lon="11.57301248840002"><ele>264.0</ele><time>2026-04-03T14:12:22Z</time></trkpt><trkpt lat="45.474305549487745" lon="11.57288658425233"><ele>263.25</ele><time>2026-04-03T14:12:23Z</time></trkpt><trkpt lat="45.47441534839079" lon="11.57277217466824"><ele>262.5</ele><time>2026-04-03T14:12:24Z</time></trkpt><trkpt lat="45.4745337376334" lon="11.572693410779532"><ele>261.75</ele><time>2026-04-03T14:12:25Z</time></trkpt><trkpt lat="45.47464798734612" lon="11.572660751014935"><ele>261.0</ele><time>2026-04-03T14:12:26Z</time></trkpt><trkpt lat="45.47476515276441" lon="11.572682623459967"><ele>261.0</ele><time>2026-04-03T14:12:27Z</time></trkpt><trkpt lat="45.47487405017949" lon="11.572767854169028"><ele>261.0</ele><time>2026-04-03T14:12:28Z</time></trkpt><trkpt lat="45.474980645972536" lon="11.572894888917661"><ele>261.0</ele><time>2026-04-03T14:12:29Z</time></trkpt><trkpt lat="45.47507393724253" lon="11.573012799395011"><ele>261.0</ele><time>2026-04-03T14:12:30Z</time></trkpt><trkpt lat="45.47517434202847" lon="11.573082665251718"><ele>258.5</ele><time>2026-04-03T14:12:31Z</time></trkpt><trkpt lat="45.47527977407971" lon="11.573081690841882"><ele>256.0</ele><time>2026-04-03T14:12:32Z</time></trkpt><trkpt lat="45.47537163091026" lon="11.573034446862344"><ele>253.5</ele><time>2026-04-03T14:12:33Z</time></trkpt><trkpt lat="45.47548420393874" lon="11.572960980783453"><ele>251.0</ele><time>2026-04-03T14:12:34Z</time></trkpt><trkpt lat="45.47562096024232" lon="11.572894628597462"><ele>249.5</ele><time>2026-04-03T14:12:34.999Z</time></trkpt><trkpt lat="45.475745788343616" lon="11.572886210994135"><ele>248.0</ele><time>2026-04-03T14:12:35.999Z</time></trkpt><trkpt lat="45.475846345518946" lon="11.572917097695878"><ele>246.5</ele><time>2026-04-03T14:12:36.999Z</time></trkpt><trkpt lat="45.47594132200645" lon="11.572985297188676"><ele>245.0</ele><time>2026-04-03T14:12:37.999Z</time></trkpt><trkpt lat="45.476002002945116" lon="11.573133667157775"><ele>245.0</ele><time>2026-04-03T14:12:38.999Z</time></trkpt><trkpt lat="45.47608465203824" lon="11.573255556846403"><ele>245.0</ele><time>2026-04-03T14:12:39.999Z</time></trkpt><trkpt lat="45.47615079869679" lon="11.573376888130246"><ele>245.0</ele><time>2026-04-03T14:12:40.999Z</time></trkpt><trkpt lat="45.476263181407894" lon="11.573407667131084"><ele>245.0</ele><time>2026-04-03T14:12:41.999Z</time></trkpt><trkpt lat="45.476392225845935" lon="11.573408192910914"><ele>241.66666666666669</ele><time>2026-04-03T14:12:42.999Z</time></trkpt><trkpt lat="45.47653393239395" lon="11.573349865946629"><ele>238.33333333333331</ele><time>2026-04-03T14:12:43.999Z</time></trkpt><trkpt lat="45.47670039892972" lon="11.573296410899903"><ele>235.0</ele><time>2026-04-03T14:12:44.999Z</time></trkpt><trkpt lat="45.47688979797987" lon="11.573281628217785"><ele>235.0</ele><time>2026-04-03T14:12:45.999Z</time></trkpt><trkpt lat="45.4770855843694" lon="11.573290099149727"><ele>235.0</ele><time>2026-04-03T14:12:46.999Z</time></trkpt><trkpt lat="45.47725414503418" lon="11.57329032237014"><ele>235.0</ele><time>2026-04-03T14:12:47.999Z</time></trkpt><trkpt lat="45.47740888724365" lon="11.573262216379772"><ele>233.33333333333331</ele><time>2026-04-03T14:12:48.999Z</time></trkpt><trkpt lat="45.47756816869726" lon="11.573223613314788"><ele>231.66666666666669</ele><time>2026-04-03T14:12:49.999Z</time></trkpt><trkpt lat="45.4777383486042" lon="11.57320354435119"><ele>230.0</ele><time>2026-04-03T14:12:50.999Z</time></trkpt><trkpt lat="45.47790234394537" lon="11.573213492743156"><ele>226.66666666666669</ele><time>2026-04-03T14:12:51.999Z</time></trkpt><trkpt lat="45.478067213701365" lon="11.57324789256549"><ele>223.33333333333331</ele><time>2026-04-03T14:12:52.999Z</time></trkpt><trkpt lat="45.478216539267706" lon="11.573304933536775"><ele>220.0</ele><time>2026-04-03T14:12:53.999Z</time></trkpt><trkpt lat="45.478364115207064" lon="11.57333486082352"><ele>220.0</ele><time>2026-04-03T14:12:54.999Z</time></trkpt><trkpt lat="45.47850274900891" lon="11.573347669006251"><ele>220.0</ele><time>2026-04-03T14:12:55.999Z</time></trkpt><trkpt lat="45.47860326011864" lon="11.573370026974857"><ele>220.0</ele><time>2026-04-03T14:12:56.999Z</time></trkpt><trkpt lat="45.47866897004717" lon="11.573414511543444"><ele>220.0</ele><time>2026-04-03T14:12:57.999Z</time></trkpt><trkpt lat="45.47873781663756" lon="11.573501247711748"><ele>220.0</ele><time>2026-04-03T14:12:58.999Z</time></trkpt><trkpt lat="45.47882322389047" lon="11.573613361772205"><ele>218.25</ele><time>2026-04-03T14:12:59.999Z</time></trkpt><trkpt lat="45.47890764076551" lon="11.573727286913874"><ele>216.5</ele><time>2026-04-03T14:13:00.999Z</time></trkpt><trkpt lat="45.478981760211965" lon="11.573858309765148"><ele>214.75</ele><time>2026-04-03T14:13:01.999Z</time></trkpt><trkpt lat="45.47904982846339" lon="11.574025684642399"><ele>213.0</ele><time>2026-04-03T14:13:02.999Z</time></trkpt><trkpt lat="45.47910744196535" lon="11.574222371760914"><ele>213.0</ele><time>2026-04-03T14:13:03.999Z</time></trkpt><trkpt lat="45.479156615287145" lon="11.574432137397002"><ele>213.0</ele><time>2026-04-03T14:13:04.999Z</time></trkpt><trkpt lat="45.47919285269872" lon="11.574627855071544"><ele>213.0</ele><time>2026-04-03T14:13:05.999Z</time></trkpt><trkpt lat="45.4792279475186" lon="11.574809526734988"><ele>213.0</ele><time>2026-04-03T14:13:06.999Z</time></trkpt><trkpt lat="45.479282806083475" lon="11.574975888057182"><ele>213.0</ele><time>2026-04-03T14:13:07.999Z</time></trkpt><trkpt lat="45.479364492257965" lon="11.575116306041002"><ele>213.0</ele><time>2026-04-03T14:13:08.999Z</time></trkpt><trkpt lat="45.479462822892586" lon="11.575231338585102"><ele>213.0</ele><time>2026-04-03T14:13:09.999Z</time></trkpt><trkpt lat="45.47957161307185" lon="11.575298792153497"><ele>213.0</ele><time>2026-04-03T14:13:10.999Z</time></trkpt><trkpt lat="45.479691285600786" lon="11.57531565311544"><ele>211.66666666666666</ele><time>2026-04-03T14:13:11.999Z</time></trkpt><trkpt lat="45.47979840544948" lon="11.575297780192972"><ele>210.33333333333331</ele><time>2026-04-03T14:13:12.999Z</time></trkpt><trkpt lat="45.479892962114285" lon="11.57527077278531"><ele>209.0</ele><time>2026-04-03T14:13:13.999Z</time></trkpt><trkpt lat="45.479968968696916" lon="11.575261625161428"><ele>207.66666666666666</ele><time>2026-04-03T14:13:14.999Z</time></trkpt><trkpt lat="45.48003740475121" lon="11.575274832646283"><ele>206.33333333333331</ele><time>2026-04-03T14:13:15.999Z</time></trkpt><trkpt lat="45.4801106761182" lon="11.575302019060155"><ele>205.0</ele><time>2026-04-03T14:13:16.999Z</time></trkpt><trkpt lat="45.48017232165357" lon="11.575339158500244"><ele>205.16666666666666</ele><time>2026-04-03T14:13:17.999Z</time></trkpt><trkpt lat="45.480239830391724" lon="11.57538165762182"><ele>205.33333333333331</ele><time>2026-04-03T14:13:18.999Z</time></trkpt><trkpt lat="45.480306913212225" lon="11.575444655488443"><ele>205.5</ele><time>2026-04-03T14:13:19.999Z</time></trkpt><trkpt lat="45.48036494957818" lon="11.575517910266276"><ele>205.66666666666669</ele><time>2026-04-03T14:13:20.999Z</time></trkpt><trkpt lat="45.48042396980916" lon="11.57562776996837"><ele>205.83333333333334</ele><time>2026-04-03T14:13:21.999Z</time></trkpt><trkpt lat="45.48046059675514" lon="11.575758541452728"><ele>206.0</ele><time>2026-04-03T14:13:22.999Z</time></trkpt><trkpt lat="45.48049117593704" lon="11.575899228392721"><ele>206.0</ele><time>2026-04-03T14:13:23.999Z</time></trkpt><trkpt lat="45.48053401852625" lon="11.576025622014935"><ele>206.0</ele><time>2026-04-03T14:13:24.999Z</time></trkpt><trkpt lat="45.48061110900836" lon="11.576131114676471"><ele>206.0</ele><time>2026-04-03T14:13:25.999Z</time></trkpt><trkpt lat="45.480695199115985" lon="11.576230207264139"><ele>206.0</ele><time>2026-04-03T14:13:26.999Z</time></trkpt><trkpt lat="45.48079066286354" lon="11.576312066666507"><ele>206.0</ele><time>2026-04-03T14:13:27.998Z</time></trkpt><trkpt lat="45.48089000314795" lon="11.576372887915849"><ele>207.8</ele><time>2026-04-03T14:13:28.998Z</time></trkpt><trkpt lat="45.480982997105194" lon="11.576419740216215"><ele>209.60000000000002</ele><time>2026-04-03T14:13:29.998Z</time></trkpt><trkpt lat="45.48106849031513" lon="11.576482771352662"><ele>211.4</ele><time>2026-04-03T14:13:30.998Z</time></trkpt><trkpt lat="45.48114461115132" lon="11.576576171786837"><ele>213.2</ele><time>2026-04-03T14:13:31.998Z</time></trkpt><trkpt lat="45.48121808605879" lon="11.576678167628305"><ele>215.0</ele><time>2026-04-03T14:13:32.998Z</time></trkpt><trkpt lat="45.48128855094944" lon="11.57677056968316"><ele>212.8</ele><time>2026-04-03T14:13:33.998Z</time></trkpt><trkpt lat="45.48136226475485" lon="11.576865318320827"><ele>210.6</ele><time>2026-04-03T14:13:34.998Z</time></trkpt><trkpt lat="45.481439299610734" lon="11.576968259100292"><ele>208.39999999999998</ele><time>2026-04-03T14:13:35.998Z</time></trkpt><trkpt lat="45.481514769439904" lon="11.577065850710598"><ele>206.2</ele><time>2026-04-03T14:13:36.998Z</time></trkpt><trkpt lat="45.481606783654165" lon="11.577160941971103"><ele>204.0</ele><time>2026-04-03T14:13:37.998Z</time></trkpt><trkpt lat="45.481684999109675" lon="11.577261154809957"><ele>204.0</ele><time>2026-04-03T14:13:38.998Z</time></trkpt><trkpt lat="45.481754184448846" lon="11.577354485732588"><ele>204.0</ele><time>2026-04-03T14:13:39.998Z</time></trkpt><trkpt lat="45.48181666376404" lon="11.577454262531642"><ele>204.0</ele><time>2026-04-03T14:13:40.998Z</time></trkpt><trkpt lat="45.481876136609884" lon="11.57756604026872"><ele>204.0</ele><time>2026-04-03T14:13:41.998Z</time></trkpt><trkpt lat="45.48193361208636" lon="11.577700357621191"><ele>204.0</ele><time>2026-04-03T14:13:42.998Z</time></trkpt><trkpt lat="45.48197853930163" lon="11.577851753128078"><ele>204.6</ele><time>2026-04-03T14:13:43.998Z</time></trkpt><trkpt lat="45.4820140462075" lon="11.57801051549791"><ele>205.2</ele><time>2026-04-03T14:13:44.998Z</time></trkpt><trkpt lat="45.48203434061471" lon="11.578164495159237"><ele>205.79999999999998</ele><time>2026-04-03T14:13:45.998Z</time></trkpt><trkpt lat="45.482062495441646" lon="11.578328326449775"><ele>206.39999999999998</ele><time>2026-04-03T14:13:46.998Z</time></trkpt><trkpt lat="45.48208896118792" lon="11.578470943246648"><ele>207.0</ele><time>2026-04-03T14:13:47.998Z</time></trkpt><trkpt lat="45.48211966613528" lon="11.578598434437124"><ele>205.0</ele><time>2026-04-03T14:13:48.998Z</time></trkpt><trkpt lat="45.48216692327695" lon="11.578715836210556"><ele>203.0</ele><time>2026-04-03T14:13:49.998Z</time></trkpt><trkpt lat="45.4822473570449" lon="11.578820812811825"><ele>201.0</ele><time>2026-04-03T14:13:50.998Z</time></trkpt><trkpt lat="45.48235622761392" lon="11.578904847968596"><ele>199.0</ele><time>2026-04-03T14:13:51.998Z</time></trkpt><trkpt lat="45.482462445837996" lon="11.57896078927275"><ele>197.0</ele><time>2026-04-03T14:13:52.998Z</time></trkpt><trkpt lat="45.482565279369375" lon="11.57899407294356"><ele>197.0</ele><time>2026-04-03T14:13:53.998Z</time></trkpt><trkpt lat="45.48266452554891" lon="11.579022269983708"><ele>197.0</ele><time>2026-04-03T14:13:54.998Z</time></trkpt><trkpt lat="45.48276299317304" lon="11.579044931663791"><ele>197.0</ele><time>2026-04-03T14:13:55.998Z</time></trkpt><trkpt lat="45.482870923480945" lon="11.579073116081965"><ele>197.0</ele><time>2026-04-03T14:13:56.998Z</time></trkpt><trkpt lat="45.48297922337192" lon="11.579100232453822"><ele>197.0</ele><time>2026-04-03T14:13:57.998Z</time></trkpt><trkpt lat="45.48306259394066" lon="11.579139628030315"><ele>194.0</ele><time>2026-04-03T14:13:58.998Z</time></trkpt><trkpt lat="45.48314980474598" lon="11.579166615954419"><ele>191.0</ele><time>2026-04-03T14:13:59.998Z</time></trkpt><trkpt lat="45.483233901173925" lon="11.579175268481146"><ele>188.0</ele><time>2026-04-03T14:14:00.998Z</time></trkpt><trkpt lat="45.48331235652557" lon="11.579154659484745"><ele>185.0</ele><time>2026-04-03T14:14:01.998Z</time></trkpt><trkpt lat="45.48339948397456" lon="11.57909249160609"><ele>182.0</ele><time>2026-04-03T14:14:03Z</time></trkpt><trkpt lat="45.48348541127649" lon="11.578980213440326"><ele>182.0</ele><time>2026-04-03T14:14:04Z</time></trkpt><trkpt lat="45.483562994925286" lon="11.578852031580324"><ele>182.0</ele><time>2026-04-03T14:14:05Z</time></trkpt><trkpt lat="45.483643954245736" lon="11.57873658380614"><ele>182.0</ele><time>2026-04-03T14:14:06Z</time></trkpt><trkpt lat="45.48374251293521" lon="11.578642225670452"><ele>182.0</ele><time>2026-04-03T14:14:07Z</time></trkpt><trkpt lat="45.483852057104556" lon="11.578558692044501"><ele>180.5</ele><time>2026-04-03T14:14:08Z</time></trkpt><trkpt lat="45.48395763764456" lon="11.578487026371706"><ele>179.0</ele><time>2026-04-03T14:14:09Z</time></trkpt><trkpt lat="45.4840625188715" lon="11.578419194235867"><ele>177.5</ele><time>2026-04-03T14:14:10Z</time></trkpt><trkpt lat="45.484175683554824" lon="11.578329460009853"><ele>176.0</ele><time>2026-04-03T14:14:11Z</time></trkpt><trkpt lat="45.484290177021535" lon="11.578237324078831"><ele>176.0</ele><time>2026-04-03T14:14:12Z</time></trkpt><trkpt lat="45.484397212059484" lon="11.578144677438768"><ele>176.0</ele><time>2026-04-03T14:14:13Z</time></trkpt><trkpt lat="45.48449664983378" lon="11.578054171103956"><ele>176.0</ele><time>2026-04-03T14:14:14Z</time></trkpt><trkpt lat="45.48459981776114" lon="11.577982529566258"><ele>176.0</ele><time>2026-04-03T14:14:15Z</time></trkpt><trkpt lat="45.4846996409763" lon="11.577919935054588"><ele>176.75</ele><time>2026-04-03T14:14:16Z</time></trkpt><trkpt lat="45.484802182706346" lon="11.577900909772632"><ele>177.5</ele><time>2026-04-03T14:14:17Z</time></trkpt><trkpt lat="45.48490948014747" lon="11.577909297074713"><ele>178.25</ele><time>2026-04-03T14:14:18Z</time></trkpt><trkpt lat="45.48502115490288" lon="11.577978051012908"><ele>179.0</ele><time>2026-04-03T14:14:19Z</time></trkpt><trkpt lat="45.485139345400896" lon="11.578024555949504"><ele>179.0</ele><time>2026-04-03T14:14:20Z</time></trkpt><trkpt lat="45.48525977010248" lon="11.578057256518484"><ele>179.0</ele><time>2026-04-03T14:14:21Z</time></trkpt><trkpt lat="45.48537990275968" lon="11.578070236836341"><ele>179.0</ele><time>2026-04-03T14:14:22Z</time></trkpt><trkpt lat="45.4855022093718" lon="11.57805356027726"><ele>179.0</ele><time>2026-04-03T14:14:23Z</time></trkpt><trkpt lat="45.48563602521339" lon="11.578023228955018"><ele>179.5</ele><time>2026-04-03T14:14:24Z</time></trkpt><trkpt lat="45.485754918515184" lon="11.577976224160603"><ele>180.0</ele><time>2026-04-03T14:14:25Z</time></trkpt><trkpt lat="45.485869154653805" lon="11.57793096442144"><ele>180.5</ele><time>2026-04-03T14:14:26Z</time></trkpt><trkpt lat="45.4859694683651" lon="11.577886077702477"><ele>181.0</ele><time>2026-04-03T14:14:27Z</time></trkpt><trkpt lat="45.48606751234698" lon="11.577806600287406"><ele>180.0</ele><time>2026-04-03T14:14:28Z</time></trkpt><trkpt lat="45.48615649544632" lon="11.577696870370957"><ele>179.0</ele><time>2026-04-03T14:14:29Z</time></trkpt><trkpt lat="45.48622973707621" lon="11.577582348073332"><ele>178.0</ele><time>2026-04-03T14:14:30Z</time></trkpt><trkpt lat="45.48631008173651" lon="11.577484498683098"><ele>177.0</ele><time>2026-04-03T14:14:31Z</time></trkpt><trkpt lat="45.486412557577054" lon="11.577402393573868"><ele>176.0</ele><time>2026-04-03T14:14:32Z</time></trkpt><trkpt lat="45.48652334901508" lon="11.57734637605638"><ele>176.0</ele><time>2026-04-03T14:14:33Z</time></trkpt><trkpt lat="45.486635562749896" lon="11.57731745291575"><ele>176.0</ele><time>2026-04-03T14:14:34Z</time></trkpt><trkpt lat="45.486749606496396" lon="11.57728388691249"><ele>176.0</ele><time>2026-04-03T14:14:35Z</time></trkpt><trkpt lat="45.48686622770412" lon="11.577269656383201"><ele>176.0</ele><time>2026-04-03T14:14:36Z</time></trkpt><trkpt lat="45.48698144722969" lon="11.57728293887094"><ele>174.0</ele><time>2026-04-03T14:14:37Z</time></trkpt><trkpt lat="45.487109757148346" lon="11.577312147148165"><ele>172.0</ele><time>2026-04-03T14:14:38Z</time></trkpt><trkpt lat="45.4872412894837" lon="11.577350543277253"><ele>170.0</ele><time>2026-04-03T14:14:39Z</time></trkpt><trkpt lat="45.48737329671678" lon="11.577376253978423"><ele>168.0</ele><time>2026-04-03T14:14:40Z</time></trkpt><trkpt lat="45.487496856309654" lon="11.577373298142431"><ele>168.0</ele><time>2026-04-03T14:14:41Z</time></trkpt><trkpt lat="45.48762036823833" lon="11.577345632978211"><ele>168.0</ele><time>2026-04-03T14:14:42Z</time></trkpt><trkpt lat="45.48775620100818" lon="11.577272830809688"><ele>168.0</ele><time>2026-04-03T14:14:43Z</time></trkpt><trkpt lat="45.48789272189325" lon="11.5771789077756"><ele>168.0</ele><time>2026-04-03T14:14:44Z</time></trkpt><trkpt lat="45.48802561331885" lon="11.57709934778243"><ele>165.5</ele><time>2026-04-03T14:14:44.999Z</time></trkpt><trkpt lat="45.48815102318044" lon="11.57702972815029"><ele>163.0</ele><time>2026-04-03T14:14:45.999Z</time></trkpt><trkpt lat="45.488275140689254" lon="11.576964992275874"><ele>160.5</ele><time>2026-04-03T14:14:46.999Z</time></trkpt><trkpt lat="45.488402699324745" lon="11.576906068233804"><ele>158.0</ele><time>2026-04-03T14:14:47.999Z</time></trkpt><trkpt lat="45.488522182859235" lon="11.576818100187149"><ele>157.5</ele><time>2026-04-03T14:14:48.999Z</time></trkpt><trkpt lat="45.4886425165384" lon="11.576713804267008"><ele>157.0</ele><time>2026-04-03T14:14:49.999Z</time></trkpt><trkpt lat="45.48874630793292" lon="11.576591037045656"><ele>156.5</ele><time>2026-04-03T14:14:50.999Z</time></trkpt><trkpt lat="45.48884237997779" lon="11.576459989338595"><ele>156.0</ele><time>2026-04-03T14:14:51.999Z</time></trkpt><trkpt lat="45.48893199227373" lon="11.576326561889774"><ele>156.0</ele><time>2026-04-03T14:14:52.999Z</time></trkpt><trkpt lat="45.4890060341628" lon="11.57619233496026"><ele>156.0</ele><time>2026-04-03T14:14:53.999Z</time></trkpt><trkpt lat="45.489075747099136" lon="11.576044985454763"><ele>156.0</ele><time>2026-04-03T14:14:54.999Z</time></trkpt><trkpt lat="45.489145839524355" lon="11.575899729284593"><ele>156.0</ele><time>2026-04-03T14:14:55.999Z</time></trkpt><trkpt lat="45.48921306447947" lon="11.5757667270863"><ele>155.75</ele><time>2026-04-03T14:14:56.999Z</time></trkpt><trkpt lat="45.48928528379475" lon="11.57564322763095"><ele>155.5</ele><time>2026-04-03T14:14:57.999Z</time></trkpt><trkpt lat="45.48937594247007" lon="11.575526098474258"><ele>155.25</ele><time>2026-04-03T14:14:58.999Z</time></trkpt><trkpt lat="45.489486379253556" lon="11.57542098976936"><ele>155.0</ele><time>2026-04-03T14:14:59.999Z</time></trkpt><trkpt lat="45.4896102120848" lon="11.575341373869982"><ele>154.5</ele><time>2026-04-03T14:15:00.999Z</time></trkpt><trkpt lat="45.48974006523697" lon="11.575272638991363"><ele>154.0</ele><time>2026-04-03T14:15:01.999Z</time></trkpt><trkpt lat="45.48986472412661" lon="11.575216110099488"><ele>153.5</ele><time>2026-04-03T14:15:02.999Z</time></trkpt><trkpt lat="45.48998276517649" lon="11.575168676313822"><ele>153.0</ele><time>2026-04-03T14:15:03.999Z</time></trkpt><trkpt lat="45.49010110092331" lon="11.575134438120752"><ele>153.0</ele><time>2026-04-03T14:15:04.999Z</time></trkpt><trkpt lat="45.49021652632402" lon="11.575108712279594"><ele>153.0</ele><time>2026-04-03T14:15:05.999Z</time></trkpt><trkpt lat="45.49033303743757" lon="11.575088198295985"><ele>153.0</ele><time>2026-04-03T14:15:06.999Z</time></trkpt><trkpt lat="45.49043279200877" lon="11.575072772486548"><ele>153.0</ele><time>2026-04-03T14:15:07.999Z</time></trkpt><trkpt lat="45.49054003026572" lon="11.575042845783091"><ele>153.0</ele><time>2026-04-03T14:15:08.999Z</time></trkpt><trkpt lat="45.49065213732734" lon="11.574986363210142"><ele>152.4</ele><time>2026-04-03T14:15:09.999Z</time></trkpt><trkpt lat="45.49076670259033" lon="11.574922453373544"><ele>151.8</ele><time>2026-04-03T14:15:10.999Z</time></trkpt><trkpt lat="45.49086860040628" lon="11.574854843899857"><ele>151.2</ele><time>2026-04-03T14:15:11.999Z</time></trkpt><trkpt lat="45.4909630613133" lon="11.574789135968643"><ele>150.6</ele><time>2026-04-03T14:15:12.999Z</time></trkpt><trkpt lat="45.49106350006514" lon="11.574730468593843"><ele>150.0</ele><time>2026-04-03T14:15:13.999Z</time></trkpt><trkpt lat="45.491151709547495" lon="11.574683375132985"><ele>150.0</ele><time>2026-04-03T14:15:14.999Z</time></trkpt><trkpt lat="45.49122417291823" lon="11.57464379461273"><ele>150.0</ele><time>2026-04-03T14:15:15.999Z</time></trkpt><trkpt lat="45.491288832689456" lon="11.574635115904893"><ele>150.0</ele><time>2026-04-03T14:15:16.999Z</time></trkpt><trkpt lat="45.49136373744032" lon="11.574661987637949"><ele>150.0</ele><time>2026-04-03T14:15:17.999Z</time></trkpt><trkpt lat="45.49143681603671" lon="11.574741341406696"><ele>150.0</ele><time>2026-04-03T14:15:18.999Z</time></trkpt><trkpt lat="45.4914843618298" lon="11.574854313367046"><ele>150.0</ele><time>2026-04-03T14:15:19.999Z</time></trkpt><trkpt lat="45.49150613700449" lon="11.574990752107487"><ele>149.6</ele><time>2026-04-03T14:15:20.999Z</time></trkpt><trkpt lat="45.491487736195864" lon="11.575131320688211"><ele>149.2</ele><time>2026-04-03T14:15:21.999Z</time></trkpt><trkpt lat="45.49146748605976" lon="11.575262770219139"><ele>148.8</ele><time>2026-04-03T14:15:22.999Z</time></trkpt><trkpt lat="45.49146802759459" lon="11.57540480380431"><ele>148.4</ele><time>2026-04-03T14:15:23.999Z</time></trkpt><trkpt lat="45.49145039636471" lon="11.575528128982409"><ele>148.0</ele><time>2026-04-03T14:15:24.999Z</time></trkpt><trkpt lat="45.49144764229929" lon="11.575629430036713"><ele>146.5</ele><time>2026-04-03T14:15:25.999Z</time></trkpt><trkpt lat="45.49145346457648" lon="11.575729436720716"><ele>145.0</ele><time>2026-04-03T14:15:26.999Z</time></trkpt><trkpt lat="45.491484026365065" lon="11.575821972192369"><ele>143.5</ele><time>2026-04-03T14:15:27.999Z</time></trkpt><trkpt lat="45.491546829444" lon="11.575896124935497"><ele>142.0</ele><time>2026-04-03T14:15:28.999Z</time></trkpt><trkpt lat="45.49163859552439" lon="11.575933648051606"><ele>140.5</ele><time>2026-04-03T14:15:29.999Z</time></trkpt><trkpt lat="45.49175682098303" lon="11.575883458479932"><ele>139.0</ele><time>2026-04-03T14:15:30.999Z</time></trkpt><trkpt lat="45.49190567602836" lon="11.575766993787118"><ele>139.0</ele><time>2026-04-03T14:15:31.999Z</time></trkpt><trkpt lat="45.49208658947406" lon="11.575661416551387"><ele>139.0</ele><time>2026-04-03T14:15:32.999Z</time></trkpt><trkpt lat="45.492286818596455" lon="11.575604226244359"><ele>139.0</ele><time>2026-04-03T14:15:33.999Z</time></trkpt><trkpt lat="45.49246410686057" lon="11.575591142395734"><ele>135.33333333333334</ele><time>2026-04-03T14:15:34.999Z</time></trkpt><trkpt lat="45.49262742822019" lon="11.575585522438725"><ele>131.66666666666666</ele><time>2026-04-03T14:15:35.999Z</time></trkpt><trkpt lat="45.49278172666706" lon="11.575575881087161"><ele>128.0</ele><time>2026-04-03T14:15:36.999Z</time></trkpt><trkpt lat="45.492918127232045" lon="11.575575863343058"><ele>124.75</ele><time>2026-04-03T14:15:37.998Z</time></trkpt><trkpt lat="45.49304653630084" lon="11.57558135650403"><ele>121.5</ele><time>2026-04-03T14:15:38.998Z</time></trkpt><trkpt lat="45.493171277898355" lon="11.575584933202352"><ele>118.25</ele><time>2026-04-03T14:15:39.998Z</time></trkpt><trkpt lat="45.49330498758607" lon="11.575579059258127"><ele>115.0</ele><time>2026-04-03T14:15:40.998Z</time></trkpt><trkpt lat="45.49345491581345" lon="11.575549419157834"><ele>115.0</ele><time>2026-04-03T14:15:41.998Z</time></trkpt><trkpt lat="45.4936316761488" lon="11.575470172937232"><ele>115.0</ele><time>2026-04-03T14:15:42.998Z</time></trkpt><trkpt lat="45.49385131511983" lon="11.575376545434999"><ele>115.0</ele><time>2026-04-03T14:15:43.998Z</time></trkpt><trkpt lat="45.494078346788825" lon="11.575313107198223"><ele>115.33333333333334</ele><time>2026-04-03T14:15:44.998Z</time></trkpt><trkpt lat="45.49427224552767" lon="11.575251367686493"><ele>115.66666666666666</ele><time>2026-04-03T14:15:45.998Z</time></trkpt><trkpt lat="45.49446846217426" lon="11.575162781309016"><ele>116.0</ele><time>2026-04-03T14:15:46.998Z</time></trkpt><trkpt lat="45.49467678748376" lon="11.575024029190223"><ele>111.0</ele><time>2026-04-03T14:15:47.998Z</time></trkpt><trkpt lat="45.49487786869097" lon="11.57485442798624"><ele>106.0</ele><time>2026-04-03T14:15:48.998Z</time></trkpt><trkpt lat="45.49506117025788" lon="11.574698127786917"><ele>101.0</ele><time>2026-04-03T14:15:49.998Z</time></trkpt><trkpt lat="45.49523696153223" lon="11.574554319700942"><ele>102.33333333333333</ele><time>2026-04-03T14:15:50.998Z</time></trkpt><trkpt lat="45.495396006333394" lon="11.574408982818262"><ele>103.66666666666666</ele><time>2026-04-03T14:15:51.998Z</time></trkpt><trkpt lat="45.49553646042448" lon="11.574271173454305"><ele>105.0</ele><time>2026-04-03T14:15:52.998Z</time></trkpt><trkpt lat="45.495676190757585" lon="11.574162481447786"><ele>105.0</ele><time>2026-04-03T14:15:53.998Z</time></trkpt><trkpt lat="45.495826275574196" lon="11.574100403436894"><ele>105.0</ele><time>2026-04-03T14:15:54.998Z</time></trkpt><trkpt lat="45.49597363092143" lon="11.57407403283318"><ele>105.0</ele><time>2026-04-03T14:15:55.998Z</time></trkpt><trkpt lat="45.49610359529495" lon="11.57403217919411"><ele>105.0</ele><time>2026-04-03T14:15:56.998Z</time></trkpt><trkpt lat="45.496210303175204" lon="11.573899996909233"><ele>102.33333333333334</ele><time>2026-04-03T14:15:57.998Z</time></trkpt><trkpt lat="45.49630971121276" lon="11.57372757536581"><ele>99.66666666666667</ele><time>2026-04-03T14:15:58.998Z</time></trkpt><trkpt lat="45.49640999294044" lon="11.573531607357337"><ele>97.0</ele><time>2026-04-03T14:15:59.998Z</time></trkpt><trkpt lat="45.49654149448252" lon="11.57335394250732"><ele>97.0</ele><time>2026-04-03T14:16:00.998Z</time></trkpt><trkpt lat="45.49669375574696" lon="11.573191781641931"><ele>97.0</ele><time>2026-04-03T14:16:01.998Z</time></trkpt><trkpt lat="45.49684910182677" lon="11.573075961229662"><ele>97.0</ele><time>2026-04-03T14:16:02.998Z</time></trkpt><trkpt lat="45.49701338432422" lon="11.572980281158818"><ele>97.0</ele><time>2026-04-03T14:16:03.998Z</time></trkpt><trkpt lat="45.49718339299253" lon="11.572901035766037"><ele>97.0</ele><time>2026-04-03T14:16:04.998Z</time></trkpt><trkpt lat="45.49733276315828" lon="11.572848056319819"><ele>97.0</ele><time>2026-04-03T14:16:05.998Z</time></trkpt><trkpt lat="45.49746409400033" lon="11.57283039981071"><ele>97.0</ele><time>2026-04-03T14:16:06.998Z</time></trkpt><trkpt lat="45.49760518634284" lon="11.572851195288614"><ele>97.0</ele><time>2026-04-03T14:16:07.998Z</time></trkpt><trkpt lat="45.49777376438181" lon="11.572899654022429"><ele>97.0</ele><time>2026-04-03T14:16:09Z</time></trkpt><trkpt lat="45.49795563042461" lon="11.572936026797755"><ele>92.0</ele><time>2026-04-03T14:16:10Z</time></trkpt><trkpt lat="45.49812783651786" lon="11.57296379506062"><ele>87.0</ele><time>2026-04-03T14:16:11Z</time></trkpt><trkpt lat="45.49828598384818" lon="11.572984109574822"><ele>82.0</ele><time>2026-04-03T14:16:12Z</time></trkpt><trkpt lat="45.498427271606126" lon="11.57301252948379"><ele>82.0</ele><time>2026-04-03T14:16:13Z</time></trkpt><trkpt lat="45.49856934661843" lon="11.573025851122706"><ele>82.0</ele><time>2026-04-03T14:16:14Z</time></trkpt><trkpt lat="45.49870675894802" lon="11.573004257386609"><ele>82.0</ele><time>2026-04-03T14:16:15Z</time></trkpt><trkpt lat="45.49884515397545" lon="11.572912835032858"><ele>82.0</ele><time>2026-04-03T14:16:16Z</time></trkpt><trkpt lat="45.49899108632787" lon="11.572821420628813"><ele>81.33333333333333</ele><time>2026-04-03T14:16:17Z</time></trkpt><trkpt lat="45.499150281200926" lon="11.572784215807076"><ele>80.66666666666667</ele><time>2026-04-03T14:16:18Z</time></trkpt><trkpt lat="45.49930515935483" lon="11.572813960493491"><ele>80.0</ele><time>2026-04-03T14:16:19Z</time></trkpt><trkpt lat="45.49943981306906" lon="11.572824943656736"><ele>80.0</ele><time>2026-04-03T14:16:20Z</time></trkpt><trkpt lat="45.49955853824668" lon="11.572757947285925"><ele>80.0</ele><time>2026-04-03T14:16:21Z</time></trkpt><trkpt lat="45.499692756526244" lon="11.57262246889653"><ele>80.0</ele><time>2026-04-03T14:16:22Z</time></trkpt><trkpt lat="45.49985337128192" lon="11.572489106029924"><ele>75.33333333333334</ele><time>2026-04-03T14:16:23Z</time></trkpt><trkpt lat="45.50004530516365" lon="11.572405321089073"><ele>70.66666666666667</ele><time>2026-04-03T14:16:24Z</time></trkpt><trkpt lat="45.50024544850845" lon="11.572345130747653"><ele>66.0</ele><time>2026-04-03T14:16:25Z</time></trkpt><trkpt lat="45.5004456662424" lon="11.57228077837841"><ele>62.33333333333333</ele><time>2026-04-03T14:16:26Z</time></trkpt><trkpt lat="45.50063266640177" lon="11.572203647618695"><ele>58.666666666666664</ele><time>2026-04-03T14:16:27Z</time></trkpt><trkpt lat="45.50081895629357" lon="11.572125621873566"><ele>55.0</ele><time>2026-04-03T14:16:28Z</time></trkpt><trkpt lat="45.50099019310883" lon="11.572057105713155"><ele>53.33333333333333</ele><time>2026-04-03T14:16:29Z</time></trkpt><trkpt lat="45.501152143155565" lon="11.571989783860676"><ele>51.66666666666667</ele><time>2026-04-03T14:16:30Z</time></trkpt><trkpt lat="45.501318271307454" lon="11.57191751379466"><ele>50.0</ele><time>2026-04-03T14:16:31Z</time></trkpt><trkpt lat="45.5014903310877" lon="11.571822154001316"><ele>50.0</ele><time>2026-04-03T14:16:32Z</time></trkpt><trkpt lat="45.501646261226085" lon="11.571716350696084"><ele>50.0</ele><time>2026-04-03T14:16:33Z</time></trkpt><trkpt lat="45.501782672985996" lon="11.571615399086602"><ele>50.0</ele><time>2026-04-03T14:16:34Z</time></trkpt><trkpt lat="45.50191275010873" lon="11.571502226214628"><ele>50.0</ele><time>2026-04-03T14:16:35Z</time></trkpt><trkpt lat="45.50203012013207" lon="11.571375048130438"><ele>50.0</ele><time>2026-04-03T14:16:36Z</time></trkpt><trkpt lat="45.50213493397069" lon="11.571210431094757"><ele>50.0</ele><time>2026-04-03T14:16:37Z</time></trkpt><trkpt lat="45.502218182919655" lon="11.57103791820936"><ele>48.0</ele><time>2026-04-03T14:16:38Z</time></trkpt><trkpt lat="45.502286882378044" lon="11.570882852096126"><ele>46.0</ele><time>2026-04-03T14:16:39Z</time></trkpt><trkpt lat="45.502383767576276" lon="11.570776999818762"><ele>44.0</ele><time>2026-04-03T14:16:40Z</time></trkpt><trkpt lat="45.5025017380408" lon="11.570697973136525"><ele>42.0</ele><time>2026-04-03T14:16:41Z</time></trkpt><trkpt lat="45.50263601253351" lon="11.570644825043763"><ele>42.0</ele><time>2026-04-03T14:16:42Z</time></trkpt><trkpt lat="45.502755020071774" lon="11.570597759117739"><ele>42.0</ele><time>2026-04-03T14:16:43Z</time></trkpt><trkpt lat="45.50286811931757" lon="11.570495381398118"><ele>42.0</ele><time>2026-04-03T14:16:44Z</time></trkpt><trkpt lat="45.50298925787389" lon="11.570351729160897"><ele>42.0</ele><time>2026-04-03T14:16:45Z</time></trkpt><trkpt lat="45.50311636590842" lon="11.57018509949741"><ele>40.333333333333336</ele><time>2026-04-03T14:16:46Z</time></trkpt><trkpt lat="45.503249311820895" lon="11.570031584212481"><ele>38.66666666666667</ele><time>2026-04-03T14:16:47Z</time></trkpt><trkpt lat="45.503367233655396" lon="11.569899402757608"><ele>37.0</ele><time>2026-04-03T14:16:48Z</time></trkpt><trkpt lat="45.503472239389" lon="11.56977756902598"><ele>37.0</ele><time>2026-04-03T14:16:49Z</time></trkpt><trkpt lat="45.503576452256425" lon="11.569681947373798"><ele>37.0</ele><time>2026-04-03T14:16:50Z</time></trkpt><trkpt lat="45.50368093066335" lon="11.569585542000553"><ele>37.0</ele><time>2026-04-03T14:16:51Z</time></trkpt><trkpt lat="45.50377146324856" lon="11.569494912942458"><ele>37.0</ele><time>2026-04-03T14:16:51.999Z</time></trkpt><trkpt lat="45.503855738025116" lon="11.569427775153644"><ele>35.800000000000004</ele><time>2026-04-03T14:16:52.999Z</time></trkpt><trkpt lat="45.503929706803376" lon="11.569380417974767"><ele>34.6</ele><time>2026-04-03T14:16:53.999Z</time></trkpt><trkpt lat="45.50399050399369" lon="11.569322822333534"><ele>33.400000000000006</ele><time>2026-04-03T14:16:55.999Z</time></trkpt><trkpt lat="45.503870583029084" lon="11.569222247925"><ele>32.2</ele><time>2026-04-03T14:16:58.999Z</time></trkpt><trkpt lat="45.503789007231894" lon="11.569228496222726"><ele>31.0</ele><time>2026-04-03T14:16:59.999Z</time></trkpt><trkpt lat="45.50370567467389" lon="11.56923361512075"><ele>31.000000000000004</ele><time>2026-04-03T14:17:00.999Z</time></trkpt><trkpt lat="45.50363066547522" lon="11.569230570142977"><ele>31.0</ele><time>2026-04-03T14:17:01.999Z</time></trkpt><trkpt lat="45.50357293010756" lon="11.569188176837079"><ele>31.0</ele><time>2026-04-03T14:17:02.999Z</time></trkpt><trkpt lat="45.503493219554805" lon="11.569152847960984"><ele>31.0</ele><time>2026-04-03T14:17:03.999Z</time></trkpt><trkpt lat="45.50338362409413" lon="11.569165264783054"><ele>31.000000000000004</ele><time>2026-04-03T14:17:04.999Z</time></trkpt><trkpt lat="45.50328001441871" lon="11.569191394506047"><ele>31.0</ele><time>2026-04-03T14:17:05.999Z</time></trkpt><trkpt lat="45.50321101141416" lon="11.569210682898204"><ele>31.0</ele><time>2026-04-03T14:17:06.999Z</time></trkpt><trkpt lat="45.503102768253996" lon="11.569239919958106"><ele>31.0</ele><time>2026-04-03T14:17:08.999Z</time></trkpt><trkpt lat="45.50301266903132" lon="11.56926287218196"><ele>31.0</ele><time>2026-04-03T14:17:09.999Z</time></trkpt><trkpt lat="45.50290284460186" lon="11.569289187367087"><ele>31.0</ele><time>2026-04-03T14:17:10.999Z</time></trkpt><trkpt lat="45.502779459137884" lon="11.56931239484166"><ele>31.0</ele><time>2026-04-03T14:17:11.999Z</time></trkpt><trkpt lat="45.50262962508227" lon="11.569335012527006"><ele>32.0</ele><time>2026-04-03T14:17:12.999Z</time></trkpt><trkpt lat="45.5024716375933" lon="11.569355105590478"><ele>33.0</ele><time>2026-04-03T14:17:13.999Z</time></trkpt><trkpt lat="45.50229753305499" lon="11.569375113000874"><ele>34.0</ele><time>2026-04-03T14:17:14.999Z</time></trkpt><trkpt lat="45.502126300626884" lon="11.569388964778994"><ele>33.66666666666667</ele><time>2026-04-03T14:17:15.999Z</time></trkpt><trkpt lat="45.501963368220565" lon="11.56939510476833"><ele>33.333333333333336</ele><time>2026-04-03T14:17:16.999Z</time></trkpt><trkpt lat="45.50179372767192" lon="11.56939443016677"><ele>33.0</ele><time>2026-04-03T14:17:17.999Z</time></trkpt><trkpt lat="45.50163644226808" lon="11.569369491719259"><ele>33.0</ele><time>2026-04-03T14:17:18.999Z</time></trkpt><trkpt lat="45.50149160318481" lon="11.569318984432726"><ele>33.0</ele><time>2026-04-03T14:17:19.999Z</time></trkpt><trkpt lat="45.501355538314506" lon="11.569251578677255"><ele>33.0</ele><time>2026-04-03T14:17:20.999Z</time></trkpt><trkpt lat="45.50121744745883" lon="11.569166166696707"><ele>33.0</ele><time>2026-04-03T14:17:21.999Z</time></trkpt><trkpt lat="45.501087613303426" lon="11.569045668426181"><ele>34.0</ele><time>2026-04-03T14:17:22.999Z</time></trkpt><trkpt lat="45.5009714435808" lon="11.568886731341067"><ele>35.0</ele><time>2026-04-03T14:17:23.999Z</time></trkpt><trkpt lat="45.500859126023514" lon="11.568685907759578"><ele>36.0</ele><time>2026-04-03T14:17:24.999Z</time></trkpt><trkpt lat="45.50076148157477" lon="11.568490394094953"><ele>36.0</ele><time>2026-04-03T14:17:25.999Z</time></trkpt><trkpt lat="45.50064613510957" lon="11.568292974326193"><ele>36.0</ele><time>2026-04-03T14:17:26.999Z</time></trkpt><trkpt lat="45.50054385230464" lon="11.568090527641045"><ele>36.0</ele><time>2026-04-03T14:17:27.999Z</time></trkpt><trkpt lat="45.500454569944964" lon="11.56792202115682"><ele>36.8</ele><time>2026-04-03T14:17:28.999Z</time></trkpt><trkpt lat="45.50037837674214" lon="11.567781679158147"><ele>37.6</ele><time>2026-04-03T14:17:29.999Z</time></trkpt><trkpt lat="45.50030392267469" lon="11.567677071430397"><ele>38.4</ele><time>2026-04-03T14:17:30.999Z</time></trkpt><trkpt lat="45.50022266179026" lon="11.56760694421121"><ele>39.2</ele><time>2026-04-03T14:17:31.999Z</time></trkpt><trkpt lat="45.50011520053019" lon="11.567566424965626"><ele>40.0</ele><time>2026-04-03T14:17:32.999Z</time></trkpt><trkpt lat="45.49998114191282" lon="11.567549406132093"><ele>40.0</ele><time>2026-04-03T14:17:33.999Z</time></trkpt><trkpt lat="45.49986128683569" lon="11.567503084983027"><ele>40.0</ele><time>2026-04-03T14:17:34.999Z</time></trkpt><trkpt lat="45.49976738405707" lon="11.567479167511845"><ele>40.0</ele><time>2026-04-03T14:17:35.999Z</time></trkpt><trkpt lat="45.49969791475021" lon="11.567450953785457"><ele>40.0</ele><time>2026-04-03T14:17:36.999Z</time></trkpt><trkpt lat="45.49963151813376" lon="11.567439277506237"><ele>40.0</ele><time>2026-04-03T14:17:37.999Z</time></trkpt><trkpt lat="45.49958547307254" lon="11.567336155502668"><ele>40.0</ele><time>2026-04-03T14:17:38.999Z</time></trkpt><trkpt lat="45.499534442275156" lon="11.56721363126587"><ele>39.5</ele><time>2026-04-03T14:17:39.999Z</time></trkpt><trkpt lat="45.49946018750994" lon="11.56708143199328"><ele>39.0</ele><time>2026-04-03T14:17:40.999Z</time></trkpt><trkpt lat="45.49940265614068" lon="11.56694385835788"><ele>38.5</ele><time>2026-04-03T14:17:41.999Z</time></trkpt><trkpt lat="45.499315308467715" lon="11.566828474746584"><ele>38.0</ele><time>2026-04-03T14:17:42.998Z</time></trkpt><trkpt lat="45.49921912225442" lon="11.566762387100024"><ele>38.0</ele><time>2026-04-03T14:17:43.998Z</time></trkpt><trkpt lat="45.49910072513681" lon="11.566690932989019"><ele>38.0</ele><time>2026-04-03T14:17:44.998Z</time></trkpt><trkpt lat="45.49895459647398" lon="11.566654278472685"><ele>38.0</ele><time>2026-04-03T14:17:45.998Z</time></trkpt><trkpt lat="45.49879870993259" lon="11.566627152157"><ele>38.0</ele><time>2026-04-03T14:17:46.998Z</time></trkpt><trkpt lat="45.498627862892526" lon="11.566629442352749"><ele>37.0</ele><time>2026-04-03T14:17:47.998Z</time></trkpt><trkpt lat="45.49844890931945" lon="11.566640162035286"><ele>36.0</ele><time>2026-04-03T14:17:48.998Z</time></trkpt><trkpt lat="45.49826472198909" lon="11.566655441794273"><ele>35.0</ele><time>2026-04-03T14:17:49.998Z</time></trkpt><trkpt lat="45.49809193436641" lon="11.566671230664008"><ele>35.0</ele><time>2026-04-03T14:17:50.998Z</time></trkpt><trkpt lat="45.497938466741374" lon="11.566675870724305"><ele>35.0</ele><time>2026-04-03T14:17:51.998Z</time></trkpt><trkpt lat="45.49780465953956" lon="11.566660648226293"><ele>35.0</ele><time>2026-04-03T14:17:52.998Z</time></trkpt><trkpt lat="45.49767178745855" lon="11.566639987548209"><ele>35.0</ele><time>2026-04-03T14:17:53.998Z</time></trkpt><trkpt lat="45.4975259221537" lon="11.566594032789816"><ele>35.75</ele><time>2026-04-03T14:17:54.998Z</time></trkpt><trkpt lat="45.497383081137116" lon="11.566526298660252"><ele>36.5</ele><time>2026-04-03T14:17:55.998Z</time></trkpt><trkpt lat="45.49725211613312" lon="11.566450376336284"><ele>37.25</ele><time>2026-04-03T14:17:56.998Z</time></trkpt><trkpt lat="45.4971428706607" lon="11.566400808853341"><ele>38.0</ele><time>2026-04-03T14:17:57.998Z</time></trkpt><trkpt lat="45.49704037614633" lon="11.566382039966436"><ele>38.0</ele><time>2026-04-03T14:17:58.998Z</time></trkpt><trkpt lat="45.49692414736831" lon="11.566394604905613"><ele>38.0</ele><time>2026-04-03T14:17:59.998Z</time></trkpt><trkpt lat="45.496790680164686" lon="11.566454042309138"><ele>38.0</ele><time>2026-04-03T14:18:00.998Z</time></trkpt><trkpt lat="45.49665484646391" lon="11.566543273765097"><ele>38.0</ele><time>2026-04-03T14:18:01.998Z</time></trkpt><trkpt lat="45.496520760736885" lon="11.566653792242619"><ele>38.0</ele><time>2026-04-03T14:18:02.998Z</time></trkpt><trkpt lat="45.496383323152365" lon="11.566806720274547"><ele>38.0</ele><time>2026-04-03T14:18:03.998Z</time></trkpt><trkpt lat="45.496247146226914" lon="11.566971254776004"><ele>38.0</ele><time>2026-04-03T14:18:04.998Z</time></trkpt><trkpt lat="45.49610077159908" lon="11.567147683574424"><ele>38.666666666666664</ele><time>2026-04-03T14:18:05.998Z</time></trkpt><trkpt lat="45.49594944299094" lon="11.567321965411976"><ele>39.333333333333336</ele><time>2026-04-03T14:18:06.998Z</time></trkpt><trkpt lat="45.49581157856669" lon="11.567476366302191"><ele>40.0</ele><time>2026-04-03T14:18:07.998Z</time></trkpt><trkpt lat="45.49567157755854" lon="11.567630973667228"><ele>40.0</ele><time>2026-04-03T14:18:08.998Z</time></trkpt><trkpt lat="45.49553275236841" lon="11.567779199045145"><ele>40.0</ele><time>2026-04-03T14:18:09.998Z</time></trkpt><trkpt lat="45.49538737745568" lon="11.567905800228868"><ele>40.0</ele><time>2026-04-03T14:18:10.998Z</time></trkpt><trkpt lat="45.49521881842554" lon="11.568022462102382"><ele>42.333333333333336</ele><time>2026-04-03T14:18:11.998Z</time></trkpt><trkpt lat="45.49503808389793" lon="11.568107965017136"><ele>44.666666666666664</ele><time>2026-04-03T14:18:12.998Z</time></trkpt><trkpt lat="45.49484488225181" lon="11.568198439060241"><ele>47.0</ele><time>2026-04-03T14:18:13.998Z</time></trkpt><trkpt lat="45.49463988580491" lon="11.568294740422726"><ele>41.0</ele><time>2026-04-03T14:18:15Z</time></trkpt><trkpt lat="45.4944213520663" lon="11.568394921029245"><ele>35.0</ele><time>2026-04-03T14:18:16Z</time></trkpt><trkpt lat="45.49419822461702" lon="11.568491580615573"><ele>35.0</ele><time>2026-04-03T14:18:17Z</time></trkpt><trkpt lat="45.49399758414519" lon="11.568569242203726"><ele>35.0</ele><time>2026-04-03T14:18:18Z</time></trkpt><trkpt lat="45.493822490438404" lon="11.568635338976176"><ele>35.0</ele><time>2026-04-03T14:18:19Z</time></trkpt><trkpt lat="45.493669844892985" lon="11.56869272618495"><ele>39.33333333333333</ele><time>2026-04-03T14:18:20Z</time></trkpt><trkpt lat="45.49352339041488" lon="11.568749203370798"><ele>43.666666666666664</ele><time>2026-04-03T14:18:21Z</time></trkpt><trkpt lat="45.493364619426714" lon="11.568815007155065"><ele>48.0</ele><time>2026-04-03T14:18:22Z</time></trkpt><trkpt lat="45.49319828389601" lon="11.568887318672505"><ele>48.0</ele><time>2026-04-03T14:18:23Z</time></trkpt><trkpt lat="45.49304148300954" lon="11.568955485222522"><ele>48.0</ele><time>2026-04-03T14:18:24Z</time></trkpt><trkpt lat="45.4928964188764" lon="11.569022029252745"><ele>48.0</ele><time>2026-04-03T14:18:25Z</time></trkpt><trkpt lat="45.49276912508033" lon="11.569120579383886"><ele>45.333333333333336</ele><time>2026-04-03T14:18:26Z</time></trkpt><trkpt lat="45.492622104363505" lon="11.569200004912055"><ele>42.66666666666667</ele><time>2026-04-03T14:18:27Z</time></trkpt><trkpt lat="45.4924677598201" lon="11.569308607153697"><ele>40.0</ele><time>2026-04-03T14:18:28Z</time></trkpt><trkpt lat="45.49228973673562" lon="11.56942143538401"><ele>44.0</ele><time>2026-04-03T14:18:29Z</time></trkpt><trkpt lat="45.49210381692399" lon="11.569529880604657"><ele>48.0</ele><time>2026-04-03T14:18:30Z</time></trkpt><trkpt lat="45.491911729646105" lon="11.56963938164701"><ele>52.0</ele><time>2026-04-03T14:18:31Z</time></trkpt><trkpt lat="45.49171484854696" lon="11.569751615452908"><ele>52.0</ele><time>2026-04-03T14:18:32Z</time></trkpt><trkpt lat="45.49151001732953" lon="11.569866047682638"><ele>52.0</ele><time>2026-04-03T14:18:33Z</time></trkpt><trkpt lat="45.491316659010955" lon="11.569965459693133"><ele>52.0</ele><time>2026-04-03T14:18:34Z</time></trkpt><trkpt lat="45.49115182301328" lon="11.570049338514682"><ele>47.666666666666664</ele><time>2026-04-03T14:18:35Z</time></trkpt><trkpt lat="45.4909877549177" lon="11.570099805096673"><ele>43.33333333333333</ele><time>2026-04-03T14:18:36Z</time></trkpt><trkpt lat="45.49081611400907" lon="11.570157317986482"><ele>39.0</ele><time>2026-04-03T14:18:37Z</time></trkpt><trkpt lat="45.490658802661216" lon="11.570248772912977"><ele>39.0</ele><time>2026-04-03T14:18:38Z</time></trkpt><trkpt lat="45.490505348692515" lon="11.570310085094313"><ele>39.0</ele><time>2026-04-03T14:18:39Z</time></trkpt><trkpt lat="45.49037236788993" lon="11.570385273762955"><ele>39.0</ele><time>2026-04-03T14:18:40Z</time></trkpt><trkpt lat="45.49025256818599" lon="11.570486707986579"><ele>39.0</ele><time>2026-04-03T14:18:41Z</time></trkpt><trkpt lat="45.49011458679202" lon="11.57058369193216"><ele>39.666666666666664</ele><time>2026-04-03T14:18:42Z</time></trkpt><trkpt lat="45.48997102040907" lon="11.570699452497998"><ele>40.33333333333333</ele><time>2026-04-03T14:18:43Z</time></trkpt><trkpt lat="45.48982941677463" lon="11.570806713033384"><ele>41.0</ele><time>2026-04-03T14:18:44Z</time></trkpt><trkpt lat="45.48971411158295" lon="11.570929355669836"><ele>41.0</ele><time>2026-04-03T14:18:45Z</time></trkpt><trkpt lat="45.489592895332514" lon="11.571082816312433"><ele>41.0</ele><time>2026-04-03T14:18:46Z</time></trkpt><trkpt lat="45.489472420340604" lon="11.571275333723536"><ele>41.0</ele><time>2026-04-03T14:18:47Z</time></trkpt><trkpt lat="45.48934566736252" lon="11.57148762679849"><ele>39.33333333333333</ele><time>2026-04-03T14:18:48Z</time></trkpt><trkpt lat="45.48920539201441" lon="11.571707062667045"><ele>37.666666666666664</ele><time>2026-04-03T14:18:49Z</time></trkpt><trkpt lat="45.48904069510834" lon="11.571916530972892"><ele>36.0</ele><time>2026-04-03T14:18:50Z</time></trkpt><trkpt lat="45.48887293903856" lon="11.572124188030962"><ele>35.333333333333336</ele><time>2026-04-03T14:18:51Z</time></trkpt><trkpt lat="45.488712589719654" lon="11.572311067570496"><ele>34.66666666666667</ele><time>2026-04-03T14:18:52Z</time></trkpt><trkpt lat="45.48855343050882" lon="11.572515239573562"><ele>34.0</ele><time>2026-04-03T14:18:53Z</time></trkpt><trkpt lat="45.48837291106049" lon="11.572662941282973"><ele>34.0</ele><time>2026-04-03T14:18:54Z</time></trkpt><trkpt lat="45.48819214455523" lon="11.572832755348184"><ele>34.0</ele><time>2026-04-03T14:18:55Z</time></trkpt><trkpt lat="45.48803156577469" lon="11.572978518843856"><ele>34.0</ele><time>2026-04-03T14:18:55.999Z</time></trkpt><trkpt lat="45.487911774049934" lon="11.573109101553534"><ele>36.0</ele><time>2026-04-03T14:18:56.999Z</time></trkpt><trkpt lat="45.487752032710056" lon="11.57321915807568"><ele>38.0</ele><time>2026-04-03T14:18:57.999Z</time></trkpt><trkpt lat="45.48754056945925" lon="11.573406064958485"><ele>40.0</ele><time>2026-04-03T14:18:58.999Z</time></trkpt><trkpt lat="45.48738246962435" lon="11.57348430756508"><ele>40.0</ele><time>2026-04-03T14:18:59.999Z</time></trkpt><trkpt lat="45.487231528948804" lon="11.573565742356434"><ele>40.0</ele><time>2026-04-03T14:19:00.999Z</time></trkpt><trkpt lat="45.48709746443496" lon="11.573627244450341"><ele>40.0</ele><time>2026-04-03T14:19:01.999Z</time></trkpt><trkpt lat="45.48698535445745" lon="11.573668622839875"><ele>40.0</ele><time>2026-04-03T14:19:02.999Z</time></trkpt><trkpt lat="45.48688665756688" lon="11.57370682799753"><ele>37.0</ele><time>2026-04-03T14:19:03.999Z</time></trkpt><trkpt lat="45.48678230256932" lon="11.573672086604013"><ele>34.0</ele><time>2026-04-03T14:19:04.999Z</time></trkpt><trkpt lat="45.48666287741524" lon="11.5736786320084"><ele>31.0</ele><time>2026-04-03T14:19:05.999Z</time></trkpt><trkpt lat="45.48654372713717" lon="11.573654971938728"><ele>28.0</ele><time>2026-04-03T14:19:06.999Z</time></trkpt><trkpt lat="45.486413007823714" lon="11.5736565917506"><ele>35.66666666666667</ele><time>2026-04-03T14:19:07.999Z</time></trkpt><trkpt lat="45.48626770184801" lon="11.573703107592904"><ele>43.333333333333336</ele><time>2026-04-03T14:19:08.999Z</time></trkpt><trkpt lat="45.4861162202423" lon="11.573757314162059"><ele>51.0</ele><time>2026-04-03T14:19:09.999Z</time></trkpt><trkpt lat="45.48595556108179" lon="11.57375215260956"><ele>51.0</ele><time>2026-04-03T14:19:10.999Z</time></trkpt><trkpt lat="45.48578646142263" lon="11.573767023174726"><ele>51.0</ele><time>2026-04-03T14:19:11.999Z</time></trkpt><trkpt lat="45.48562352516892" lon="11.573773445788149"><ele>51.0</ele><time>2026-04-03T14:19:12.999Z</time></trkpt><trkpt lat="45.48548676944075" lon="11.573774487618703"><ele>51.199999999999996</ele><time>2026-04-03T14:19:13.999Z</time></trkpt><trkpt lat="45.48536967486491" lon="11.573773415626947"><ele>51.4</ele><time>2026-04-03T14:19:14.999Z</time></trkpt><trkpt lat="45.48526703781036" lon="11.573768352166688"><ele>51.6</ele><time>2026-04-03T14:19:15.999Z</time></trkpt><trkpt lat="45.485182624745306" lon="11.573754441182295"><ele>51.8</ele><time>2026-04-03T14:19:16.999Z</time></trkpt><trkpt lat="45.485105030250665" lon="11.573714498337791"><ele>52.0</ele><time>2026-04-03T14:19:17.999Z</time></trkpt><trkpt lat="45.48504312274049" lon="11.573620891941266"><ele>48.2</ele><time>2026-04-03T14:19:18.999Z</time></trkpt><trkpt lat="45.48498761701824" lon="11.57350896438392"><ele>44.400000000000006</ele><time>2026-04-03T14:19:19.999Z</time></trkpt><trkpt lat="45.484927275661725" lon="11.573371515008898"><ele>40.599999999999994</ele><time>2026-04-03T14:19:20.999Z</time></trkpt><trkpt lat="45.484862878742256" lon="11.573219471452543"><ele>36.8</ele><time>2026-04-03T14:19:21.999Z</time></trkpt><trkpt lat="45.48480412029464" lon="11.573078969843873"><ele>33.0</ele><time>2026-04-03T14:19:22.999Z</time></trkpt><trkpt lat="45.48475688047871" lon="11.57295426136928"><ele>32.6</ele><time>2026-04-03T14:19:23.999Z</time></trkpt><trkpt lat="45.48472418797722" lon="11.572849146441362"><ele>32.199999999999996</ele><time>2026-04-03T14:19:24.999Z</time></trkpt><trkpt lat="45.48471014406343" lon="11.57275701901005"><ele>31.8</ele><time>2026-04-03T14:19:25.999Z</time></trkpt><trkpt lat="45.484684611079814" lon="11.572581870619883"><ele>31.4</ele><time>2026-04-03T14:19:27.999Z</time></trkpt><trkpt lat="45.48470206951983" lon="11.572450986512983"><ele>31.0</ele><time>2026-04-03T14:19:28.999Z</time></trkpt><trkpt lat="45.48473367876082" lon="11.572331664206517"><ele>31.0</ele><time>2026-04-03T14:19:29.999Z</time></trkpt><trkpt lat="45.484782486478615" lon="11.572217023383432"><ele>31.0</ele><time>2026-04-03T14:19:30.999Z</time></trkpt><trkpt lat="45.48483077172201" lon="11.572102492305207"><ele>31.0</ele><time>2026-04-03T14:19:31.999Z</time></trkpt><trkpt lat="45.48487432539268" lon="11.571994279523116"><ele>31.0</ele><time>2026-04-03T14:19:32.999Z</time></trkpt><trkpt lat="45.48492383370182" lon="11.571872610320918"><ele>31.0</ele><time>2026-04-03T14:19:33.999Z</time></trkpt><trkpt lat="45.48497450962883" lon="11.571717476234953"><ele>30.4</ele><time>2026-04-03T14:19:34.999Z</time></trkpt><trkpt lat="45.48499880175923" lon="11.571548028558166"><ele>29.8</ele><time>2026-04-03T14:19:35.999Z</time></trkpt><trkpt lat="45.485001557166385" lon="11.571396569868591"><ele>29.199999999999996</ele><time>2026-04-03T14:19:36.999Z</time></trkpt><trkpt lat="45.484987185496244" lon="11.571254131633788"><ele>28.599999999999998</ele><time>2026-04-03T14:19:37.999Z</time></trkpt><trkpt lat="45.484955305308645" lon="11.571124474011457"><ele>28.0</ele><time>2026-04-03T14:19:38.999Z</time></trkpt><trkpt lat="45.484904273478165" lon="11.57100239959895"><ele>28.0</ele><time>2026-04-03T14:19:39.999Z</time></trkpt><trkpt lat="45.48484010148757" lon="11.570873193599967"><ele>28.0</ele><time>2026-04-03T14:19:40.999Z</time></trkpt><trkpt lat="45.48474290974592" lon="11.570767429653223"><ele>28.0</ele><time>2026-04-03T14:19:41.999Z</time></trkpt><trkpt lat="45.484608277324625" lon="11.570657999278406"><ele>28.0</ele><time>2026-04-03T14:19:42.999Z</time></trkpt><trkpt lat="45.48446803215676" lon="11.570555821948185"><ele>29.666666666666668</ele><time>2026-04-03T14:19:43.999Z</time></trkpt><trkpt lat="45.484317480087995" lon="11.570445992351345"><ele>31.333333333333336</ele><time>2026-04-03T14:19:44.999Z</time></trkpt><trkpt lat="45.48415544842194" lon="11.570325976935468"><ele>33.0</ele><time>2026-04-03T14:19:45.999Z</time></trkpt><trkpt lat="45.483998021773665" lon="11.570192991882163"><ele>33.0</ele><time>2026-04-03T14:19:46.998Z</time></trkpt><trkpt lat="45.483848919673584" lon="11.570045083276549"><ele>33.0</ele><time>2026-04-03T14:19:47.998Z</time></trkpt><trkpt lat="45.48369178611504" lon="11.569886729311365"><ele>33.0</ele><time>2026-04-03T14:19:48.998Z</time></trkpt><trkpt lat="45.483546440495" lon="11.569743019529254"><ele>33.75</ele><time>2026-04-03T14:19:49.998Z</time></trkpt><trkpt lat="45.48340814324358" lon="11.56961557511004"><ele>34.5</ele><time>2026-04-03T14:19:50.998Z</time></trkpt><trkpt lat="45.483283532101495" lon="11.569503503009347"><ele>35.25</ele><time>2026-04-03T14:19:51.998Z</time></trkpt><trkpt lat="45.48317565664909" lon="11.569406141707262"><ele>36.0</ele><time>2026-04-03T14:19:52.998Z</time></trkpt><trkpt lat="45.483076466680984" lon="11.569316492352858"><ele>36.0</ele><time>2026-04-03T14:19:53.998Z</time></trkpt><trkpt lat="45.48297597891674" lon="11.56922499060493"><ele>36.0</ele><time>2026-04-03T14:19:54.998Z</time></trkpt><trkpt lat="45.4828888635427" lon="11.569143705141409"><ele>36.0</ele><time>2026-04-03T14:19:55.998Z</time></trkpt><trkpt lat="45.48281804716313" lon="11.56907264056729"><ele>36.0</ele><time>2026-04-03T14:19:56.998Z</time></trkpt><trkpt lat="45.48274408899397" lon="11.569010921172213"><ele>36.0</ele><time>2026-04-03T14:19:57.998Z</time></trkpt><trkpt lat="45.48264669649461" lon="11.56895267166927"><ele>38.5</ele><time>2026-04-03T14:19:58.998Z</time></trkpt><trkpt lat="45.48252656004903" lon="11.568921563349393"><ele>41.0</ele><time>2026-04-03T14:19:59.998Z</time></trkpt><trkpt lat="45.48240135823111" lon="11.568908006091227"><ele>43.5</ele><time>2026-04-03T14:20:00.998Z</time></trkpt><trkpt lat="45.482265518393234" lon="11.568925689533026"><ele>46.0</ele><time>2026-04-03T14:20:01.998Z</time></trkpt><trkpt lat="45.48211957299166" lon="11.568969330513667"><ele>44.75</ele><time>2026-04-03T14:20:02.998Z</time></trkpt><trkpt lat="45.481971136986" lon="11.569014468292085"><ele>43.5</ele><time>2026-04-03T14:20:03.998Z</time></trkpt><trkpt lat="45.48182726917199" lon="11.569038703993819"><ele>42.25</ele><time>2026-04-03T14:20:04.998Z</time></trkpt><trkpt lat="45.48168803559395" lon="11.569041025926374"><ele>41.0</ele><time>2026-04-03T14:20:05.998Z</time></trkpt><trkpt lat="45.4815585639923" lon="11.569056974796498"><ele>41.0</ele><time>2026-04-03T14:20:06.998Z</time></trkpt><trkpt lat="45.48145006790073" lon="11.56908531331362"><ele>41.0</ele><time>2026-04-03T14:20:07.998Z</time></trkpt><trkpt lat="45.48134568835704" lon="11.569096691606587"><ele>41.0</ele><time>2026-04-03T14:20:08.998Z</time></trkpt><trkpt lat="45.48124506941691" lon="11.569080820943611"><ele>41.0</ele><time>2026-04-03T14:20:09.998Z</time></trkpt><trkpt lat="45.48113416788164" lon="11.569025493708756"><ele>41.0</ele><time>2026-04-03T14:20:10.998Z</time></trkpt><trkpt lat="45.48102263461028" lon="11.568946821002397"><ele>41.25</ele><time>2026-04-03T14:20:11.998Z</time></trkpt><trkpt lat="45.48091974924083" lon="11.568858336007034"><ele>41.5</ele><time>2026-04-03T14:20:12.998Z</time></trkpt><trkpt lat="45.480832549465305" lon="11.56875101835107"><ele>41.75</ele><time>2026-04-03T14:20:13.998Z</time></trkpt><trkpt lat="45.480774022544594" lon="11.568589088951375"><ele>42.0</ele><time>2026-04-03T14:20:14.998Z</time></trkpt><trkpt lat="45.48068641202955" lon="11.56841361171493"><ele>40.75</ele><time>2026-04-03T14:20:15.998Z</time></trkpt><trkpt lat="45.48059395016977" lon="11.568246904965543"><ele>39.5</ele><time>2026-04-03T14:20:16.998Z</time></trkpt><trkpt lat="45.48047136424504" lon="11.568129923350721"><ele>38.25</ele><time>2026-04-03T14:20:17.998Z</time></trkpt><trkpt lat="45.480360037616954" lon="11.568023502891778"><ele>37.0</ele><time>2026-04-03T14:20:18.998Z</time></trkpt><trkpt lat="45.48027213133948" lon="11.567901594518801"><ele>37.0</ele><time>2026-04-03T14:20:19.998Z</time></trkpt><trkpt lat="45.48018172697792" lon="11.567808210086733"><ele>37.0</ele><time>2026-04-03T14:20:21Z</time></trkpt><trkpt lat="45.48008658734568" lon="11.567747309569622"><ele>37.0</ele><time>2026-04-03T14:20:22Z</time></trkpt><trkpt lat="45.4800131605927" lon="11.567645589108754"><ele>37.0</ele><time>2026-04-03T14:20:23Z</time></trkpt><trkpt lat="45.47996258173254" lon="11.567552660480372"><ele>37.0</ele><time>2026-04-03T14:20:24Z</time></trkpt><trkpt lat="45.47993599970307" lon="11.567424396288207"><ele>37.0</ele><time>2026-04-03T14:20:25Z</time></trkpt><trkpt lat="45.47989771251084" lon="11.567252113868927"><ele>37.0</ele><time>2026-04-03T14:20:26Z</time></trkpt><trkpt lat="45.47984442753198" lon="11.567054848747608"><ele>37.0</ele><time>2026-04-03T14:20:27Z</time></trkpt><trkpt lat="45.47984119577535" lon="11.566848729380151"><ele>37.0</ele><time>2026-04-03T14:20:28Z</time></trkpt><trkpt lat="45.47983894539027" lon="11.566675000532973"><ele>36.5</ele><time>2026-04-03T14:20:29Z</time></trkpt><trkpt lat="45.47985127657985" lon="11.566519584742423"><ele>36.0</ele><time>2026-04-03T14:20:30Z</time></trkpt><trkpt lat="45.479874301153785" lon="11.566370734997815"><ele>35.5</ele><time>2026-04-03T14:20:31Z</time></trkpt><trkpt lat="45.479895032860334" lon="11.566193832084013"><ele>35.0</ele><time>2026-04-03T14:20:32Z</time></trkpt><trkpt lat="45.47993182395455" lon="11.566044019033773"><ele>34.75</ele><time>2026-04-03T14:20:33Z</time></trkpt><trkpt lat="45.47994832531082" lon="11.565900145716615"><ele>34.5</ele><time>2026-04-03T14:20:34Z</time></trkpt><trkpt lat="45.479922722941694" lon="11.565738293699857"><ele>34.25</ele><time>2026-04-03T14:20:35Z</time></trkpt><trkpt lat="45.47987278595832" lon="11.56556671039468"><ele>34.0</ele><time>2026-04-03T14:20:36Z</time></trkpt><trkpt lat="45.47982173320674" lon="11.565403473486219"><ele>34.2</ele><time>2026-04-03T14:20:37Z</time></trkpt><trkpt lat="45.479775773775984" lon="11.565256026371816"><ele>34.4</ele><time>2026-04-03T14:20:38Z</time></trkpt><trkpt lat="45.479712523461934" lon="11.565153298495275"><ele>34.6</ele><time>2026-04-03T14:20:39Z</time></trkpt><trkpt lat="45.47963459071093" lon="11.565077469751255"><ele>34.8</ele><time>2026-04-03T14:20:40Z</time></trkpt><trkpt lat="45.47957548129359" lon="11.56500813549409"><ele>35.0</ele><time>2026-04-03T14:20:41Z</time></trkpt><trkpt lat="45.47951343631161" lon="11.564947062332749"><ele>35.5</ele><time>2026-04-03T14:20:42Z</time></trkpt><trkpt lat="45.47940156205653" lon="11.564862957213219"><ele>36.0</ele><time>2026-04-03T14:20:44Z</time></trkpt><trkpt lat="45.47934981430385" lon="11.564796784186814"><ele>36.5</ele><time>2026-04-03T14:20:45Z</time></trkpt><trkpt lat="45.47931860434317" lon="11.564707659494388"><ele>37.0</ele><time>2026-04-03T14:20:46Z</time></trkpt><trkpt lat="45.47929509673757" lon="11.564622952101304"><ele>37.5</ele><time>2026-04-03T14:20:47Z</time></trkpt><trkpt lat="45.47930918391435" lon="11.564454409023256"><ele>38.0</ele><time>2026-04-03T14:20:49Z</time></trkpt><trkpt lat="45.47934392027752" lon="11.564357207557492"><ele>38.0</ele><time>2026-04-03T14:20:50Z</time></trkpt><trkpt lat="45.47938906215321" lon="11.564246133326776"><ele>38.0</ele><time>2026-04-03T14:20:51Z</time></trkpt><trkpt lat="45.4794200475992" lon="11.564118994240118"><ele>38.0</ele><time>2026-04-03T14:20:52Z</time></trkpt><trkpt lat="45.47946196612968" lon="11.56401044949949"><ele>38.0</ele><time>2026-04-03T14:20:53Z</time></trkpt><trkpt lat="45.47949778098973" lon="11.563911531238967"><ele>38.0</ele><time>2026-04-03T14:20:54Z</time></trkpt><trkpt lat="45.479540023704935" lon="11.563804369444359"><ele>38.0</ele><time>2026-04-03T14:20:55Z</time></trkpt><trkpt lat="45.479567222497934" lon="11.563674214909534"><ele>38.0</ele><time>2026-04-03T14:20:56Z</time></trkpt><trkpt lat="45.47958442704807" lon="11.563554798732305"><ele>38.0</ele><time>2026-04-03T14:20:57Z</time></trkpt><trkpt lat="45.47959742987762" lon="11.563438996313295"><ele>38.0</ele><time>2026-04-03T14:20:58Z</time></trkpt><trkpt lat="45.479591087838806" lon="11.563322325298994"><ele>38.0</ele><time>2026-04-03T14:20:59Z</time></trkpt><trkpt lat="45.479584444425974" lon="11.563209944882368"><ele>38.0</ele><time>2026-04-03T14:21:00Z</time></trkpt><trkpt lat="45.479579352160606" lon="11.56309571903932"><ele>38.0</ele><time>2026-04-03T14:21:01Z</time></trkpt><trkpt lat="45.479578145447604" lon="11.562985193825067"><ele>38.0</ele><time>2026-04-03T14:21:01.999Z</time></trkpt><trkpt lat="45.47958595826221" lon="11.56287392460476"><ele>38.0</ele><time>2026-04-03T14:21:02.999Z</time></trkpt><trkpt lat="45.47960054814764" lon="11.56275885781362"><ele>38.0</ele><time>2026-04-03T14:21:03.999Z</time></trkpt><trkpt lat="45.47963146766726" lon="11.562637531086047"><ele>38.0</ele><time>2026-04-03T14:21:04.999Z</time></trkpt><trkpt lat="45.47966717309312" lon="11.562543874097507"><ele>38.0</ele><time>2026-04-03T14:21:05.999Z</time></trkpt><trkpt lat="45.479707066178214" lon="11.562440906800136"><ele>38.0</ele><time>2026-04-03T14:21:06.999Z</time></trkpt><trkpt lat="45.479745790926906" lon="11.562346363050592"><ele>37.8</ele><time>2026-04-03T14:21:07.999Z</time></trkpt><trkpt lat="45.479786431143886" lon="11.562231229366594"><ele>37.599999999999994</ele><time>2026-04-03T14:21:08.999Z</time></trkpt><trkpt lat="45.47982622388991" lon="11.562120178132584"><ele>37.400000000000006</ele><time>2026-04-03T14:21:09.999Z</time></trkpt><trkpt lat="45.47984956095486" lon="11.5620009423706"><ele>37.2</ele><time>2026-04-03T14:21:10.999Z</time></trkpt><trkpt lat="45.479867003668765" lon="11.561871354190457"><ele>37.0</ele><time>2026-04-03T14:21:11.999Z</time></trkpt><trkpt lat="45.479890035979786" lon="11.561739173820364"><ele>37.0</ele><time>2026-04-03T14:21:12.999Z</time></trkpt><trkpt lat="45.47991608533397" lon="11.561627532539083"><ele>37.0</ele><time>2026-04-03T14:21:13.999Z</time></trkpt><trkpt lat="45.47994290588729" lon="11.561512553425771"><ele>37.0</ele><time>2026-04-03T14:21:14.999Z</time></trkpt><trkpt lat="45.47997624981904" lon="11.561381158384592"><ele>37.0</ele><time>2026-04-03T14:21:15.999Z</time></trkpt><trkpt lat="45.48001066580741" lon="11.56125140483179"><ele>37.0</ele><time>2026-04-03T14:21:16.999Z</time></trkpt><trkpt lat="45.48004522388824" lon="11.561114774229418"><ele>37.16666666666667</ele><time>2026-04-03T14:21:17.999Z</time></trkpt><trkpt lat="45.480079481880374" lon="11.560989603842057"><ele>37.333333333333336</ele><time>2026-04-03T14:21:18.999Z</time></trkpt><trkpt lat="45.480115594152515" lon="11.560885949656548"><ele>37.5</ele><time>2026-04-03T14:21:19.999Z</time></trkpt><trkpt lat="45.48016504645155" lon="11.560786569729014"><ele>37.666666666666664</ele><time>2026-04-03T14:21:20.999Z</time></trkpt><trkpt lat="45.480224323480066" lon="11.560694001292951"><ele>37.83333333333333</ele><time>2026-04-03T14:21:21.999Z</time></trkpt><trkpt lat="45.48027546898486" lon="11.560616504663761"><ele>38.0</ele><time>2026-04-03T14:21:22.999Z</time></trkpt><trkpt lat="45.48035253387167" lon="11.560486794270018"><ele>38.0</ele><time>2026-04-03T14:21:24.999Z</time></trkpt><trkpt lat="45.48041286162338" lon="11.560407121460731"><ele>38.0</ele><time>2026-04-03T14:21:26.999Z</time></trkpt><trkpt lat="45.48043332993423" lon="11.56031546223222"><ele>38.0</ele><time>2026-04-03T14:21:32.999Z</time></trkpt><trkpt lat="45.48045480994067" lon="11.560125917780121"><ele>38.0</ele><time>2026-04-03T14:21:34.999Z</time></trkpt><trkpt lat="45.48042587149637" lon="11.559983904789856"><ele>38.0</ele><time>2026-04-03T14:21:35.999Z</time></trkpt><trkpt lat="45.4804104283246" lon="11.55982970679216"><ele>37.75</ele><time>2026-04-03T14:21:36.999Z</time></trkpt><trkpt lat="45.48040277229048" lon="11.559643255632132"><ele>37.5</ele><time>2026-04-03T14:21:37.999Z</time></trkpt><trkpt lat="45.48039888836599" lon="11.559432938922871"><ele>37.25</ele><time>2026-04-03T14:21:38.999Z</time></trkpt><trkpt lat="45.48039381593203" lon="11.559201560516358"><ele>37.0</ele><time>2026-04-03T14:21:39.999Z</time></trkpt><trkpt lat="45.48039002939731" lon="11.558945770556816"><ele>37.66666666666667</ele><time>2026-04-03T14:21:40.999Z</time></trkpt><trkpt lat="45.480412181064395" lon="11.558681389701002"><ele>38.333333333333336</ele><time>2026-04-03T14:21:41.999Z</time></trkpt><trkpt lat="45.48042077137647" lon="11.558439549659047"><ele>39.0</ele><time>2026-04-03T14:21:42.999Z</time></trkpt><trkpt lat="45.4804122736767" lon="11.558204381908032"><ele>35.0</ele><time>2026-04-03T14:21:43.999Z</time></trkpt><trkpt lat="45.48043765577272" lon="11.55798516427466"><ele>31.0</ele><time>2026-04-03T14:21:44.999Z</time></trkpt><trkpt lat="45.48045622016876" lon="11.557763308832286"><ele>27.0</ele><time>2026-04-03T14:21:45.999Z</time></trkpt><trkpt lat="45.48049318395671" lon="11.557563993445097"><ele>27.0</ele><time>2026-04-03T14:21:46.999Z</time></trkpt><trkpt lat="45.48051698586738" lon="11.557373822950069"><ele>27.0</ele><time>2026-04-03T14:21:47.999Z</time></trkpt><trkpt lat="45.48053962367625" lon="11.557195417911378"><ele>27.0</ele><time>2026-04-03T14:21:48.999Z</time></trkpt><trkpt lat="45.480538509424214" lon="11.55698641068832"><ele>27.0</ele><time>2026-04-03T14:21:49.999Z</time></trkpt><trkpt lat="45.48051662339884" lon="11.556757272750312"><ele>27.666666666666664</ele><time>2026-04-03T14:21:50.999Z</time></trkpt><trkpt lat="45.480488343481504" lon="11.556487571249875"><ele>28.333333333333332</ele><time>2026-04-03T14:21:51.999Z</time></trkpt><trkpt lat="45.48046201501994" lon="11.556218446955416"><ele>29.0</ele><time>2026-04-03T14:21:52.998Z</time></trkpt><trkpt lat="45.48041648894939" lon="11.555927300004006"><ele>35.0</ele><time>2026-04-03T14:21:53.998Z</time></trkpt><trkpt lat="45.48037626683447" lon="11.555660135981816"><ele>41.0</ele><time>2026-04-03T14:21:54.998Z</time></trkpt><trkpt lat="45.48037382757479" lon="11.555428507876147"><ele>47.0</ele><time>2026-04-03T14:21:55.998Z</time></trkpt><trkpt lat="45.480362212062055" lon="11.555207368844288"><ele>48.0</ele><time>2026-04-03T14:21:56.998Z</time></trkpt><trkpt lat="45.48036954116809" lon="11.554977952067677"><ele>49.0</ele><time>2026-04-03T14:21:57.998Z</time></trkpt><trkpt lat="45.48041308179486" lon="11.554760004511225"><ele>50.0</ele><time>2026-04-03T14:21:58.998Z</time></trkpt><trkpt lat="45.48046501458977" lon="11.554540732769034"><ele>45.25</ele><time>2026-04-03T14:21:59.998Z</time></trkpt><trkpt lat="45.48050612142203" lon="11.55434664550085"><ele>40.5</ele><time>2026-04-03T14:22:00.998Z</time></trkpt><trkpt lat="45.480514846905" lon="11.554158535517754"><ele>35.75</ele><time>2026-04-03T14:22:01.998Z</time></trkpt><trkpt lat="45.48053105340696" lon="11.553991242984452"><ele>31.0</ele><time>2026-04-03T14:22:02.998Z</time></trkpt><trkpt lat="45.48057065394839" lon="11.55385212610823"><ele>31.000000000000004</ele><time>2026-04-03T14:22:03.998Z</time></trkpt><trkpt lat="45.480598194189824" lon="11.553741385132007"><ele>31.0</ele><time>2026-04-03T14:22:04.998Z</time></trkpt><trkpt lat="45.48064440774832" lon="11.553659144673372"><ele>31.0</ele><time>2026-04-03T14:22:05.998Z</time></trkpt><trkpt lat="45.48069798960412" lon="11.553606921598217"><ele>31.0</ele><time>2026-04-03T14:22:06.998Z</time></trkpt><trkpt lat="45.48078668473461" lon="11.553525271705912"><ele>31.000000000000004</ele><time>2026-04-03T14:22:08.998Z</time></trkpt><trkpt lat="45.480886274838106" lon="11.553444563655946"><ele>31.0</ele><time>2026-04-03T14:22:10.998Z</time></trkpt><trkpt lat="45.480957630270844" lon="11.553362525648144"><ele>32.2</ele><time>2026-04-03T14:22:12.998Z</time></trkpt><trkpt lat="45.48102033700389" lon="11.55327931061734"><ele>33.400000000000006</ele><time>2026-04-03T14:22:14.998Z</time></trkpt><trkpt lat="45.48109165816473" lon="11.55316113278943"><ele>34.6</ele><time>2026-04-03T14:22:16.998Z</time></trkpt><trkpt lat="45.48114651007546" lon="11.55299466736907"><ele>35.800000000000004</ele><time>2026-04-03T14:22:18.998Z</time></trkpt><trkpt lat="45.481161950090666" lon="11.552831176058117"><ele>37.0</ele><time>2026-04-03T14:22:20.998Z</time></trkpt><trkpt lat="45.48116195209095" lon="11.55273933536405"><ele>37.0</ele><time>2026-04-03T14:22:21.998Z</time></trkpt><trkpt lat="45.48114928814215" lon="11.552645031035937"><ele>37.0</ele><time>2026-04-03T14:22:22.998Z</time></trkpt><trkpt lat="45.481131679053824" lon="11.552523851778393"><ele>37.0</ele><time>2026-04-03T14:22:23.998Z</time></trkpt><trkpt lat="45.481071816601826" lon="11.552367989885278"><ele>37.0</ele><time>2026-04-03T14:22:24.998Z</time></trkpt><trkpt lat="45.48098897969516" lon="11.55220981096696"><ele>37.0</ele><time>2026-04-03T14:22:25.998Z</time></trkpt><trkpt lat="45.48088351627069" lon="11.552073907870486"><ele>36.333333333333336</ele><time>2026-04-03T14:22:27Z</time></trkpt><trkpt lat="45.48078199151709" lon="11.551929674291877"><ele>35.666666666666664</ele><time>2026-04-03T14:22:28Z</time></trkpt><trkpt lat="45.48064270401421" lon="11.55184376490274"><ele>35.0</ele><time>2026-04-03T14:22:29Z</time></trkpt><trkpt lat="45.48047092835079" lon="11.551775993050029"><ele>36.0</ele><time>2026-04-03T14:22:30Z</time></trkpt><trkpt lat="45.48029279834119" lon="11.551689047201025"><ele>37.0</ele><time>2026-04-03T14:22:31Z</time></trkpt><trkpt lat="45.48009468485806" lon="11.551516639968881"><ele>38.0</ele><time>2026-04-03T14:22:32Z</time></trkpt><trkpt lat="45.47990202280418" lon="11.551261540218356"><ele>37.666666666666664</ele><time>2026-04-03T14:22:33Z</time></trkpt><trkpt lat="45.47977126213658" lon="11.551109879563866"><ele>37.333333333333336</ele><time>2026-04-03T14:22:35Z</time></trkpt><trkpt lat="45.47966044870205" lon="11.55095765816013"><ele>37.0</ele><time>2026-04-03T14:22:36Z</time></trkpt><trkpt lat="45.47953111444927" lon="11.550831677114724"><ele>38.0</ele><time>2026-04-03T14:22:37Z</time></trkpt><trkpt lat="45.47939004035681" lon="11.550735743326067"><ele>39.0</ele><time>2026-04-03T14:22:38Z</time></trkpt><trkpt lat="45.47927946067302" lon="11.550621428315639"><ele>40.0</ele><time>2026-04-03T14:22:39Z</time></trkpt><trkpt lat="45.479190618875414" lon="11.550509909992385"><ele>41.0</ele><time>2026-04-03T14:22:40Z</time></trkpt><trkpt lat="45.47913427160513" lon="11.550411882276792"><ele>40.666666666666664</ele><time>2026-04-03T14:22:41Z</time></trkpt><trkpt lat="45.47910780282465" lon="11.550306527943416"><ele>40.33333333333333</ele><time>2026-04-03T14:22:42Z</time></trkpt><trkpt lat="45.479135285535335" lon="11.550211245370404"><ele>40.0</ele><time>2026-04-03T14:22:43Z</time></trkpt><trkpt lat="45.479143580435675" lon="11.55006420092762"><ele>39.666666666666664</ele><time>2026-04-03T14:22:44Z</time></trkpt><trkpt lat="45.47914488413779" lon="11.549936566575548"><ele>39.333333333333336</ele><time>2026-04-03T14:22:45Z</time></trkpt><trkpt lat="45.47914588301799" lon="11.549838774193868"><ele>39.0</ele><time>2026-04-03T14:22:46Z</time></trkpt><trkpt lat="45.47911216033396" lon="11.549746260438772"><ele>39.0</ele><time>2026-04-03T14:22:47Z</time></trkpt><trkpt lat="45.479037345047374" lon="11.54968750007071"><ele>39.0</ele><time>2026-04-03T14:22:48Z</time></trkpt><trkpt lat="45.47896720190321" lon="11.549608628494665"><ele>39.0</ele><time>2026-04-03T14:22:49Z</time></trkpt><trkpt lat="45.47886764941092" lon="11.549542732406522"><ele>39.0</ele><time>2026-04-03T14:22:50Z</time></trkpt><trkpt lat="45.47876783537834" lon="11.549491577388595"><ele>39.0</ele><time>2026-04-03T14:22:51Z</time></trkpt><trkpt lat="45.47868558796428" lon="11.549420853867057"><ele>40.2</ele><time>2026-04-03T14:22:52Z</time></trkpt><trkpt lat="45.47863466640182" lon="11.549305076841604"><ele>41.4</ele><time>2026-04-03T14:22:53Z</time></trkpt><trkpt lat="45.478589824199716" lon="11.549187467182504"><ele>42.6</ele><time>2026-04-03T14:22:54Z</time></trkpt><trkpt lat="45.4785870073463" lon="11.549058683623302"><ele>43.8</ele><time>2026-04-03T14:22:55Z</time></trkpt><trkpt lat="45.47858295024335" lon="11.548893671146002"><ele>45.0</ele><time>2026-04-03T14:22:56Z</time></trkpt><trkpt lat="45.47864200358186" lon="11.548706823604645"><ele>40.333333333333336</ele><time>2026-04-03T14:22:57Z</time></trkpt><trkpt lat="45.47871216319652" lon="11.548417296070891"><ele>35.66666666666667</ele><time>2026-04-03T14:22:58Z</time></trkpt><trkpt lat="45.47876662088979" lon="11.54813180027776"><ele>31.0</ele><time>2026-04-03T14:22:59Z</time></trkpt><trkpt lat="45.478828504901514" lon="11.547824329967598"><ele>26.0</ele><time>2026-04-03T14:23:00Z</time></trkpt><trkpt lat="45.47888634191372" lon="11.547504641848926"><ele>21.0</ele><time>2026-04-03T14:23:01Z</time></trkpt><trkpt lat="45.47893960159447" lon="11.547181443859401"><ele>21.333333333333332</ele><time>2026-04-03T14:23:02Z</time></trkpt><trkpt lat="45.47898942973491" lon="11.546873874071547"><ele>21.666666666666664</ele><time>2026-04-03T14:23:03Z</time></trkpt><trkpt lat="45.47905424549777" lon="11.546616454530783"><ele>22.0</ele><time>2026-04-03T14:23:04Z</time></trkpt><trkpt lat="45.47910307942792" lon="11.54637016293324"><ele>22.25</ele><time>2026-04-03T14:23:05Z</time></trkpt><trkpt lat="45.47915858879513" lon="11.546162338535591"><ele>22.5</ele><time>2026-04-03T14:23:06Z</time></trkpt><trkpt lat="45.47923940969521" lon="11.545992257495028"><ele>22.75</ele><time>2026-04-03T14:23:07Z</time></trkpt><trkpt lat="45.47934268994032" lon="11.545840898756873"><ele>23.0</ele><time>2026-04-03T14:23:07.999Z</time></trkpt><trkpt lat="45.47946258650364" lon="11.545671187306302"><ele>23.0</ele><time>2026-04-03T14:23:08.999Z</time></trkpt><trkpt lat="45.479572016795714" lon="11.54548833396052"><ele>23.0</ele><time>2026-04-03T14:23:09.999Z</time></trkpt><trkpt lat="45.47966253170705" lon="11.545346926460695"><ele>23.0</ele><time>2026-04-03T14:23:10.999Z</time></trkpt><trkpt lat="45.47972704616688" lon="11.545223197790655"><ele>23.0</ele><time>2026-04-03T14:23:11.999Z</time></trkpt><trkpt lat="45.4797666443407" lon="11.54511611727138"><ele>23.0</ele><time>2026-04-03T14:23:12.999Z</time></trkpt><trkpt lat="45.47977397148703" lon="11.545023925691735"><ele>23.0</ele><time>2026-04-03T14:23:13.999Z</time></trkpt><trkpt lat="45.47970711732985" lon="11.544829929580958"><ele>23.0</ele><time>2026-04-03T14:23:15.999Z</time></trkpt><trkpt lat="45.47959293750711" lon="11.544704294928648"><ele>23.0</ele><time>2026-04-03T14:23:16.999Z</time></trkpt><trkpt lat="45.47949326853931" lon="11.544543021805026"><ele>22.666666666666668</ele><time>2026-04-03T14:23:17.999Z</time></trkpt><trkpt lat="45.4793995372973" lon="11.544335390278858"><ele>22.333333333333332</ele><time>2026-04-03T14:23:18.999Z</time></trkpt><trkpt lat="45.47931171150168" lon="11.544099884704252"><ele>22.0</ele><time>2026-04-03T14:23:19.999Z</time></trkpt><trkpt lat="45.47922734527093" lon="11.543865998537333"><ele>21.666666666666664</ele><time>2026-04-03T14:23:20.999Z</time></trkpt><trkpt lat="45.479144970351946" lon="11.543630400152606"><ele>21.333333333333332</ele><time>2026-04-03T14:23:21.999Z</time></trkpt><trkpt lat="45.47905721408339" lon="11.543394414424155"><ele>21.0</ele><time>2026-04-03T14:23:22.999Z</time></trkpt><trkpt lat="45.47897327104766" lon="11.543144671606933"><ele>21.0</ele><time>2026-04-03T14:23:23.999Z</time></trkpt><trkpt lat="45.478912852707296" lon="11.542888900550771"><ele>21.0</ele><time>2026-04-03T14:23:24.999Z</time></trkpt><trkpt lat="45.478834851345084" lon="11.542659272758506"><ele>21.0</ele><time>2026-04-03T14:23:25.999Z</time></trkpt><trkpt lat="45.478764062783384" lon="11.542450878511175"><ele>21.0</ele><time>2026-04-03T14:23:26.999Z</time></trkpt><trkpt lat="45.47869277403472" lon="11.542242162249556"><ele>21.0</ele><time>2026-04-03T14:23:27.999Z</time></trkpt><trkpt lat="45.47860605651038" lon="11.542038273993887"><ele>21.0</ele><time>2026-04-03T14:23:28.999Z</time></trkpt><trkpt lat="45.478549573223596" lon="11.541825601136416"><ele>20.75</ele><time>2026-04-03T14:23:29.999Z</time></trkpt><trkpt lat="45.47848783499951" lon="11.541646008854718"><ele>20.5</ele><time>2026-04-03T14:23:30.999Z</time></trkpt><trkpt lat="45.47842853558898" lon="11.541470703669622"><ele>20.25</ele><time>2026-04-03T14:23:31.999Z</time></trkpt><trkpt lat="45.478368762461336" lon="11.541285646708857"><ele>20.0</ele><time>2026-04-03T14:23:32.999Z</time></trkpt><trkpt lat="45.47830432939315" lon="11.541086162575208"><ele>21.0</ele><time>2026-04-03T14:23:33.999Z</time></trkpt><trkpt lat="45.47823449785861" lon="11.540910905660462"><ele>22.0</ele><time>2026-04-03T14:23:34.999Z</time></trkpt><trkpt lat="45.47818705909235" lon="11.540745440993868"><ele>23.0</ele><time>2026-04-03T14:23:35.999Z</time></trkpt><trkpt lat="45.47814802516469" lon="11.540629886480634"><ele>24.0</ele><time>2026-04-03T14:23:36.999Z</time></trkpt><trkpt lat="45.47811703791774" lon="11.540534912877702"><ele>25.0</ele><time>2026-04-03T14:23:38.999Z</time></trkpt><trkpt lat="45.47805006962782" lon="11.540482796808615"><ele>25.0</ele><time>2026-04-03T14:23:41.999Z</time></trkpt><trkpt lat="45.47795795229963" lon="11.540598700694916"><ele>25.0</ele><time>2026-04-03T14:23:42.999Z</time></trkpt><trkpt lat="45.47787538448999" lon="11.54072022271081"><ele>25.0</ele><time>2026-04-03T14:23:43.999Z</time></trkpt><trkpt lat="45.47779007533083" lon="11.540847401884275"><ele>25.0</ele><time>2026-04-03T14:23:44.999Z</time></trkpt><trkpt lat="45.477681993643564" lon="11.540950875792587"><ele>24.0</ele><time>2026-04-03T14:23:45.999Z</time></trkpt><trkpt lat="45.47757059512517" lon="11.541083839661654"><ele>23.0</ele><time>2026-04-03T14:23:46.999Z</time></trkpt><trkpt lat="45.47745539937627" lon="11.54121988449047"><ele>22.0</ele><time>2026-04-03T14:23:47.999Z</time></trkpt><trkpt lat="45.477347169645014" lon="11.541342477851563"><ele>21.0</ele><time>2026-04-03T14:23:48.999Z</time></trkpt><trkpt lat="45.47723991796685" lon="11.541443638953824"><ele>21.0</ele><time>2026-04-03T14:23:49.999Z</time></trkpt><trkpt lat="45.4771236048541" lon="11.5415304691364"><ele>21.0</ele><time>2026-04-03T14:23:50.999Z</time></trkpt><trkpt lat="45.47700712460775" lon="11.541599882101005"><ele>21.0</ele><time>2026-04-03T14:23:51.999Z</time></trkpt><trkpt lat="45.476881805206986" lon="11.541659794246746"><ele>21.0</ele><time>2026-04-03T14:23:52.999Z</time></trkpt><trkpt lat="45.4767620424898" lon="11.541700463746748"><ele>21.25</ele><time>2026-04-03T14:23:53.999Z</time></trkpt><trkpt lat="45.47664789072374" lon="11.541738810070374"><ele>21.5</ele><time>2026-04-03T14:23:54.999Z</time></trkpt><trkpt lat="45.47651837677164" lon="11.541752189191719"><ele>21.75</ele><time>2026-04-03T14:23:55.999Z</time></trkpt><trkpt lat="45.47639068740869" lon="11.541731061203432"><ele>22.0</ele><time>2026-04-03T14:23:56.998Z</time></trkpt><trkpt lat="45.47625883333996" lon="11.541748398057416"><ele>22.5</ele><time>2026-04-03T14:23:57.998Z</time></trkpt><trkpt lat="45.476125375377805" lon="11.54173369630006"><ele>23.0</ele><time>2026-04-03T14:23:58.998Z</time></trkpt><trkpt lat="45.47599444995248" lon="11.541733564953772"><ele>23.5</ele><time>2026-04-03T14:23:59.998Z</time></trkpt><trkpt lat="45.47585765589654" lon="11.541733835886532"><ele>24.0</ele><time>2026-04-03T14:24:00.998Z</time></trkpt><trkpt lat="45.47572011624138" lon="11.541729126087802"><ele>24.0</ele><time>2026-04-03T14:24:01.998Z</time></trkpt><trkpt lat="45.47558785568149" lon="11.541726697111867"><ele>24.0</ele><time>2026-04-03T14:24:02.998Z</time></trkpt><trkpt lat="45.475468594494124" lon="11.541724141751352"><ele>24.0</ele><time>2026-04-03T14:24:03.998Z</time></trkpt><trkpt lat="45.47536914548709" lon="11.541714865469599"><ele>24.0</ele><time>2026-04-03T14:24:04.998Z</time></trkpt><trkpt lat="45.47527693417569" lon="11.541712939254392"><ele>24.0</ele><time>2026-04-03T14:24:05.998Z</time></trkpt><trkpt lat="45.475197434905375" lon="11.541702505215445"><ele>24.333333333333332</ele><time>2026-04-03T14:24:06.998Z</time></trkpt><trkpt lat="45.4751315398836" lon="11.541695126727472"><ele>24.666666666666664</ele><time>2026-04-03T14:24:07.998Z</time></trkpt><trkpt lat="45.475068202528924" lon="11.54168906151867"><ele>25.0</ele><time>2026-04-03T14:24:08.998Z</time></trkpt><trkpt lat="45.474971010646726" lon="11.54169441990089"><ele>25.333333333333332</ele><time>2026-04-03T14:24:10.998Z</time></trkpt><trkpt lat="45.474886635779576" lon="11.541688632504666"><ele>25.666666666666664</ele><time>2026-04-03T14:24:13.998Z</time></trkpt><trkpt lat="45.47480993715352" lon="11.541660951095887"><ele>26.0</ele><time>2026-04-03T14:24:16.998Z</time></trkpt><trkpt lat="45.47476329515948" lon="11.541518321318076"><ele>25.999999999999996</ele><time>2026-04-03T14:24:19.998Z</time></trkpt><trkpt lat="45.474666973570145" lon="11.54142213782112"><ele>26.0</ele><time>2026-04-03T14:24:21.998Z</time></trkpt><trkpt lat="45.4745962081773" lon="11.54141215194032"><ele>26.0</ele><time>2026-04-03T14:24:22.998Z</time></trkpt><trkpt lat="45.47448165868895" lon="11.541428361811635"><ele>26.0</ele><time>2026-04-03T14:24:24.998Z</time></trkpt><trkpt lat="45.474436814133135" lon="11.541496049273954"><ele>25.999999999999996</ele><time>2026-04-03T14:24:25.998Z</time></trkpt><trkpt lat="45.474402031450516" lon="11.541571241808706"><ele>26.0</ele><time>2026-04-03T14:24:26.998Z</time></trkpt><trkpt lat="45.474422092042865" lon="11.541702705032685"><ele>26.0</ele><time>2026-04-03T14:24:28.998Z</time></trkpt><trkpt lat="45.47450188144568" lon="11.54175848635328"><ele>26.0</ele><time>2026-04-03T14:24:34Z</time></trkpt><trkpt lat="45.47461722975898" lon="11.541764818733629"><ele>26.0</ele><time>2026-04-03T14:24:36Z</time></trkpt><trkpt lat="45.474725614506454" lon="11.541730744605857"><ele>26.0</ele><time>2026-04-03T14:24:38Z</time></trkpt><trkpt lat="45.47484619262921" lon="11.541734034284287"><ele>26.0</ele><time>2026-04-03T14:24:40Z</time></trkpt><trkpt lat="45.47491032513151" lon="11.541728431090906"><ele>26.0</ele><time>2026-04-03T14:24:41Z</time></trkpt><trkpt lat="45.47497569755282" lon="11.541724331541419"><ele>26.0</ele><time>2026-04-03T14:24:42Z</time></trkpt><trkpt lat="45.47509877986078" lon="11.541728829985942"><ele>26.0</ele><time>2026-04-03T14:24:44Z</time></trkpt><trkpt lat="45.475165583330195" lon="11.541738849951926"><ele>26.0</ele><time>2026-04-03T14:24:46Z</time></trkpt></trkseg><trkseg><trkpt lat="45.47529048668165" lon="11.541715190049208"><ele>26.0</ele><time>2026-04-03T14:40:46.999Z</time></trkpt><trkpt lat="45.47538482877933" lon="11.541747438096127"><ele>26.0</ele><time>2026-04-03T14:40:47.999Z</time></trkpt><trkpt lat="45.47549845006939" lon="11.541759939204011"><ele>26.0</ele><time>2026-04-03T14:40:48.999Z</time></trkpt><trkpt lat="45.47563167474254" lon="11.541753903838254"><ele>26.0</ele><time>2026-04-03T14:40:49.999Z</time></trkpt><trkpt lat="45.475767584784116" lon="11.541757595810349"><ele>25.5</ele><time>2026-04-03T14:40:50.999Z</time></trkpt><trkpt lat="45.47589779283828" lon="11.541758673430817"><ele>25.0</ele><time>2026-04-03T14:40:51.999Z</time></trkpt><trkpt lat="45.47601975907959" lon="11.54176450384723"><ele>24.5</ele><time>2026-04-03T14:40:52.999Z</time></trkpt><trkpt lat="45.47612772912524" lon="11.541772760728472"><ele>24.0</ele><time>2026-04-03T14:40:53.999Z</time></trkpt><trkpt lat="45.47623961852057" lon="11.541778416855914"><ele>23.5</ele><time>2026-04-03T14:40:54.999Z</time></trkpt><trkpt lat="45.47635890892671" lon="11.541777551920264"><ele>23.0</ele><time>2026-04-03T14:40:55.999Z</time></trkpt><trkpt lat="45.47646982261912" lon="11.541771203589805"><ele>22.5</ele><time>2026-04-03T14:40:56.999Z</time></trkpt><trkpt lat="45.47657957873975" lon="11.541762165283185"><ele>22.0</ele><time>2026-04-03T14:40:57.999Z</time></trkpt><trkpt lat="45.47670746618356" lon="11.541738477727721"><ele>22.0</ele><time>2026-04-03T14:40:58.999Z</time></trkpt><trkpt lat="45.47684175045514" lon="11.541713055234148"><ele>22.0</ele><time>2026-04-03T14:40:59.999Z</time></trkpt><trkpt lat="45.4769624065285" lon="11.541673593761745"><ele>22.0</ele><time>2026-04-03T14:41:00.999Z</time></trkpt><trkpt lat="45.47707776055733" lon="11.541613303120132"><ele>22.0</ele><time>2026-04-03T14:41:01.999Z</time></trkpt><trkpt lat="45.47718862310744" lon="11.541542305119755"><ele>21.75</ele><time>2026-04-03T14:41:02.999Z</time></trkpt><trkpt lat="45.4772909440319" lon="11.541455174593507"><ele>21.5</ele><time>2026-04-03T14:41:03.999Z</time></trkpt><trkpt lat="45.47738513120382" lon="11.541354836806155"><ele>21.25</ele><time>2026-04-03T14:41:04.999Z</time></trkpt><trkpt lat="45.47747346864929" lon="11.541253611916856"><ele>21.0</ele><time>2026-04-03T14:41:05.999Z</time></trkpt><trkpt lat="45.477551212145826" lon="11.54115714851804"><ele>23.25</ele><time>2026-04-03T14:41:06.999Z</time></trkpt><trkpt lat="45.47763643039452" lon="11.541055252910425"><ele>25.5</ele><time>2026-04-03T14:41:07.999Z</time></trkpt><trkpt lat="45.477739291322635" lon="11.540944598597203"><ele>27.75</ele><time>2026-04-03T14:41:08.999Z</time></trkpt><trkpt lat="45.477825135033655" lon="11.540837643668265"><ele>30.0</ele><time>2026-04-03T14:41:09.999Z</time></trkpt><trkpt lat="45.47791054033059" lon="11.540731007308702"><ele>28.75</ele><time>2026-04-03T14:41:10.999Z</time></trkpt><trkpt lat="45.477999418394084" lon="11.540625110668072"><ele>27.5</ele><time>2026-04-03T14:41:11.999Z</time></trkpt><trkpt lat="45.47809580847124" lon="11.540512447299653"><ele>26.25</ele><time>2026-04-03T14:41:12.999Z</time></trkpt><trkpt lat="45.47820814161284" lon="11.540394037524438"><ele>25.0</ele><time>2026-04-03T14:41:13.999Z</time></trkpt><trkpt lat="45.4783261467592" lon="11.540273125956531"><ele>25.25</ele><time>2026-04-03T14:41:14.999Z</time></trkpt><trkpt lat="45.47843830832431" lon="11.540169526763362"><ele>25.5</ele><time>2026-04-03T14:41:15.999Z</time></trkpt><trkpt lat="45.47855233480855" lon="11.54006522004798"><ele>25.75</ele><time>2026-04-03T14:41:16.999Z</time></trkpt><trkpt lat="45.478675908985956" lon="11.539968370480816"><ele>26.0</ele><time>2026-04-03T14:41:17.999Z</time></trkpt><trkpt lat="45.47879830529701" lon="11.539869526105022"><ele>26.0</ele><time>2026-04-03T14:41:18.999Z</time></trkpt><trkpt lat="45.47891197900817" lon="11.539770273912803"><ele>26.0</ele><time>2026-04-03T14:41:19.999Z</time></trkpt><trkpt lat="45.479011386658925" lon="11.539659201695466"><ele>26.0</ele><time>2026-04-03T14:41:20.999Z</time></trkpt><trkpt lat="45.47911037423467" lon="11.539546873243145"><ele>26.0</ele><time>2026-04-03T14:41:21.999Z</time></trkpt><trkpt lat="45.47920612973162" lon="11.539434895102225"><ele>25.75</ele><time>2026-04-03T14:41:22.999Z</time></trkpt><trkpt lat="45.47930410737492" lon="11.539317803262804"><ele>25.5</ele><time>2026-04-03T14:41:23.999Z</time></trkpt><trkpt lat="45.479409440496696" lon="11.539194880866686"><ele>25.25</ele><time>2026-04-03T14:41:24.999Z</time></trkpt><trkpt lat="45.479523516969344" lon="11.539056536789593"><ele>25.0</ele><time>2026-04-03T14:41:25.999Z</time></trkpt><trkpt lat="45.47965649380437" lon="11.538891101698352"><ele>25.0</ele><time>2026-04-03T14:41:26.999Z</time></trkpt><trkpt lat="45.47982096934285" lon="11.538746725004932"><ele>25.0</ele><time>2026-04-03T14:41:27.999Z</time></trkpt><trkpt lat="45.479991946040805" lon="11.538573283652871"><ele>25.0</ele><time>2026-04-03T14:41:28.999Z</time></trkpt><trkpt lat="45.48016768019928" lon="11.538381218838218"><ele>26.0</ele><time>2026-04-03T14:41:29.999Z</time></trkpt><trkpt lat="45.4803618937209" lon="11.53820154453996"><ele>27.0</ele><time>2026-04-03T14:41:30.999Z</time></trkpt><trkpt lat="45.48058967770916" lon="11.538020540961769"><ele>27.0</ele><time>2026-04-03T14:41:31.999Z</time></trkpt><trkpt lat="45.48076703109119" lon="11.537900190859261"><ele>27.0</ele><time>2026-04-03T14:41:32.999Z</time></trkpt><trkpt lat="45.48096417871001" lon="11.537760485893962"><ele>27.0</ele><time>2026-04-03T14:41:33.999Z</time></trkpt><trkpt lat="45.48116501776281" lon="11.537659854756848"><ele>28.666666666666664</ele><time>2026-04-03T14:41:34.999Z</time></trkpt><trkpt lat="45.4813536212333" lon="11.537570219641621"><ele>30.333333333333332</ele><time>2026-04-03T14:41:35.999Z</time></trkpt><trkpt lat="45.48153302589455" lon="11.537472498537364"><ele>32.0</ele><time>2026-04-03T14:41:36.999Z</time></trkpt><trkpt lat="45.481700431270305" lon="11.537369853127197"><ele>32.0</ele><time>2026-04-03T14:41:37.999Z</time></trkpt><trkpt lat="45.481856724439965" lon="11.537279618406279"><ele>32.0</ele><time>2026-04-03T14:41:38.999Z</time></trkpt><trkpt lat="45.48200101027243" lon="11.537181179483152"><ele>32.0</ele><time>2026-04-03T14:41:39.999Z</time></trkpt><trkpt lat="45.482134954654626" lon="11.537103709739545"><ele>33.2</ele><time>2026-04-03T14:41:40.999Z</time></trkpt><trkpt lat="45.48225831882561" lon="11.537031865766313"><ele>34.400000000000006</ele><time>2026-04-03T14:41:41.999Z</time></trkpt><trkpt lat="45.482358590677336" lon="11.53697563808488"><ele>35.599999999999994</ele><time>2026-04-03T14:41:42.999Z</time></trkpt><trkpt lat="45.482440995043596" lon="11.536929596105916"><ele>36.8</ele><time>2026-04-03T14:41:43.999Z</time></trkpt><trkpt lat="45.48253626708406" lon="11.536918343031155"><ele>38.0</ele><time>2026-04-03T14:41:44.999Z</time></trkpt><trkpt lat="45.482637349154466" lon="11.536992882115491"><ele>38.0</ele><time>2026-04-03T14:41:45.999Z</time></trkpt><trkpt lat="45.48276495146674" lon="11.537032009683944"><ele>38.0</ele><time>2026-04-03T14:41:46.999Z</time></trkpt><trkpt lat="45.4828980752987" lon="11.537112925327675"><ele>38.0</ele><time>2026-04-03T14:41:47.999Z</time></trkpt><trkpt lat="45.4830209760323" lon="11.537211727434787"><ele>38.0</ele><time>2026-04-03T14:41:48.999Z</time></trkpt><trkpt lat="45.483135464946805" lon="11.537356609560362"><ele>33.33333333333333</ele><time>2026-04-03T14:41:49.999Z</time></trkpt><trkpt lat="45.48323331069545" lon="11.537542990556817"><ele>28.666666666666664</ele><time>2026-04-03T14:41:50.999Z</time></trkpt><trkpt lat="45.48330164509604" lon="11.537773810298129"><ele>24.0</ele><time>2026-04-03T14:41:51.999Z</time></trkpt><trkpt lat="45.48338423657732" lon="11.53800447805968"><ele>23.666666666666668</ele><time>2026-04-03T14:41:52.999Z</time></trkpt><trkpt lat="45.48345513360481" lon="11.538270764472209"><ele>23.333333333333336</ele><time>2026-04-03T14:41:53.999Z</time></trkpt><trkpt lat="45.483531780887084" lon="11.538533851699713"><ele>23.0</ele><time>2026-04-03T14:41:54.999Z</time></trkpt><trkpt lat="45.48361633277064" lon="11.538808153711669"><ele>22.666666666666668</ele><time>2026-04-03T14:41:55.999Z</time></trkpt><trkpt lat="45.483699716530595" lon="11.53908162534624"><ele>22.333333333333332</ele><time>2026-04-03T14:41:56.999Z</time></trkpt><trkpt lat="45.483780760711554" lon="11.539347351544945"><ele>22.0</ele><time>2026-04-03T14:41:57.999Z</time></trkpt><trkpt lat="45.48386051631098" lon="11.53960555784243"><ele>21.666666666666664</ele><time>2026-04-03T14:41:58.999Z</time></trkpt><trkpt lat="45.483938303272296" lon="11.539854370099231"><ele>21.333333333333332</ele><time>2026-04-03T14:41:59.999Z</time></trkpt><trkpt lat="45.48400720005192" lon="11.54008713160915"><ele>21.0</ele><time>2026-04-03T14:42:00.999Z</time></trkpt><trkpt lat="45.484076620158326" lon="11.54031455669135"><ele>22.0</ele><time>2026-04-03T14:42:01.999Z</time></trkpt><trkpt lat="45.484145291699924" lon="11.540534827074756"><ele>23.0</ele><time>2026-04-03T14:42:02.999Z</time></trkpt><trkpt lat="45.48421143358164" lon="11.540752308975732"><ele>24.0</ele><time>2026-04-03T14:42:03.999Z</time></trkpt><trkpt lat="45.484276497403165" lon="11.540962248953335"><ele>24.0</ele><time>2026-04-03T14:42:04.999Z</time></trkpt><trkpt lat="45.48435493496217" lon="11.541158601770109"><ele>24.0</ele><time>2026-04-03T14:42:05.999Z</time></trkpt><trkpt lat="45.4844447031299" lon="11.541333874537553"><ele>24.0</ele><time>2026-04-03T14:42:06.999Z</time></trkpt><trkpt lat="45.484543948927936" lon="11.54147924072671"><ele>24.333333333333336</ele><time>2026-04-03T14:42:07.999Z</time></trkpt><trkpt lat="45.48465675018749" lon="11.541615853441398"><ele>24.666666666666668</ele><time>2026-04-03T14:42:08.999Z</time></trkpt><trkpt lat="45.48479169325483" lon="11.54174045056112"><ele>25.0</ele><time>2026-04-03T14:42:09.999Z</time></trkpt><trkpt lat="45.484955062892304" lon="11.541862232220698"><ele>25.0</ele><time>2026-04-03T14:42:10.999Z</time></trkpt><trkpt lat="45.48513333795333" lon="11.541965252595883"><ele>25.0</ele><time>2026-04-03T14:42:11.999Z</time></trkpt><trkpt lat="45.485320456054836" lon="11.542043459513158"><ele>25.0</ele><time>2026-04-03T14:42:12.999Z</time></trkpt><trkpt lat="45.48551873708068" lon="11.54210867931926"><ele>24.333333333333336</ele><time>2026-04-03T14:42:13.999Z</time></trkpt><trkpt lat="45.48572797681876" lon="11.542177205905697"><ele>23.666666666666668</ele><time>2026-04-03T14:42:14.999Z</time></trkpt><trkpt lat="45.48594684690141" lon="11.54225817786303"><ele>23.0</ele><time>2026-04-03T14:42:15.999Z</time></trkpt><trkpt lat="45.48615526120475" lon="11.54233989071211"><ele>23.0</ele><time>2026-04-03T14:42:16.999Z</time></trkpt><trkpt lat="45.486362955755546" lon="11.542416805755849"><ele>23.0</ele><time>2026-04-03T14:42:17.999Z</time></trkpt><trkpt lat="45.48656819035381" lon="11.5424871825737"><ele>23.0</ele><time>2026-04-03T14:42:18.999Z</time></trkpt><trkpt lat="45.486777582794645" lon="11.542558120481353"><ele>23.0</ele><time>2026-04-03T14:42:19.999Z</time></trkpt><trkpt lat="45.48697293828968" lon="11.542626609337962"><ele>23.0</ele><time>2026-04-03T14:42:20.999Z</time></trkpt><trkpt lat="45.48716542036195" lon="11.542697160869597"><ele>23.0</ele><time>2026-04-03T14:42:21.999Z</time></trkpt><trkpt lat="45.48735892731976" lon="11.542768911200465"><ele>23.0</ele><time>2026-04-03T14:42:22.999Z</time></trkpt><trkpt lat="45.487553031800395" lon="11.542840948404642"><ele>23.0</ele><time>2026-04-03T14:42:23.999Z</time></trkpt><trkpt lat="45.48774420312813" lon="11.542910320386033"><ele>23.0</ele><time>2026-04-03T14:42:24.999Z</time></trkpt><trkpt lat="45.48793717111646" lon="11.542978282758861"><ele>23.0</ele><time>2026-04-03T14:42:25.999Z</time></trkpt><trkpt lat="45.48812631333239" lon="11.54304340882932"><ele>23.0</ele><time>2026-04-03T14:42:26.999Z</time></trkpt><trkpt lat="45.48831158768074" lon="11.543109090071537"><ele>23.0</ele><time>2026-04-03T14:42:27.999Z</time></trkpt><trkpt lat="45.48849928617713" lon="11.543178722453009"><ele>23.0</ele><time>2026-04-03T14:42:28.999Z</time></trkpt><trkpt lat="45.48868152337979" lon="11.543243677083728"><ele>23.0</ele><time>2026-04-03T14:42:29.999Z</time></trkpt><trkpt lat="45.488859214929725" lon="11.543308535642318"><ele>23.0</ele><time>2026-04-03T14:42:30.999Z</time></trkpt><trkpt lat="45.489027945034856" lon="11.54337061430694"><ele>23.25</ele><time>2026-04-03T14:42:31.999Z</time></trkpt><trkpt lat="45.48918273104443" lon="11.5434295237628"><ele>23.5</ele><time>2026-04-03T14:42:32.999Z</time></trkpt><trkpt lat="45.48932560400934" lon="11.543483365777218"><ele>23.75</ele><time>2026-04-03T14:42:33.999Z</time></trkpt><trkpt lat="45.489460390524194" lon="11.543535901148031"><ele>24.0</ele><time>2026-04-03T14:42:34.999Z</time></trkpt><trkpt lat="45.48958851173425" lon="11.543577911243752"><ele>27.0</ele><time>2026-04-03T14:42:35.999Z</time></trkpt><trkpt lat="45.48970159442392" lon="11.54361166244971"><ele>30.0</ele><time>2026-04-03T14:42:36.999Z</time></trkpt><trkpt lat="45.489782379438275" lon="11.543643894130843"><ele>33.0</ele><time>2026-04-03T14:42:37.999Z</time></trkpt><trkpt lat="45.48984980105274" lon="11.543670107004424"><ele>36.0</ele><time>2026-04-03T14:42:39.999Z</time></trkpt><trkpt lat="45.48993798397706" lon="11.543696995184916"><ele>39.0</ele><time>2026-04-03T14:42:43.999Z</time></trkpt><trkpt lat="45.48997692931415" lon="11.54341209618947"><ele>39.0</ele><time>2026-04-03T14:42:46.999Z</time></trkpt><trkpt lat="45.48994120968609" lon="11.543268326228327"><ele>39.0</ele><time>2026-04-03T14:42:47.999Z</time></trkpt><trkpt lat="45.489912346775824" lon="11.543108414900827"><ele>39.0</ele><time>2026-04-03T14:42:48.999Z</time></trkpt><trkpt lat="45.48988342671755" lon="11.542920806100538"><ele>39.0</ele><time>2026-04-03T14:42:49.999Z</time></trkpt><trkpt lat="45.48985501669617" lon="11.542725784919517"><ele>41.666666666666664</ele><time>2026-04-03T14:42:50.999Z</time></trkpt><trkpt lat="45.48981712741723" lon="11.542505713316073"><ele>44.33333333333333</ele><time>2026-04-03T14:42:51.999Z</time></trkpt><trkpt lat="45.489775689935655" lon="11.542276201580878"><ele>47.0</ele><time>2026-04-03T14:42:52.999Z</time></trkpt><trkpt lat="45.489734068199446" lon="11.54203171022396"><ele>49.33333333333333</ele><time>2026-04-03T14:42:53.999Z</time></trkpt><trkpt lat="45.48969138596594" lon="11.541782053769392"><ele>51.666666666666664</ele><time>2026-04-03T14:42:54.999Z</time></trkpt><trkpt lat="45.489655674035575" lon="11.541524623201488"><ele>54.0</ele><time>2026-04-03T14:42:55.999Z</time></trkpt><trkpt lat="45.489594468999" lon="11.5412669494285"><ele>45.333333333333336</ele><time>2026-04-03T14:42:56.999Z</time></trkpt><trkpt lat="45.489503131992905" lon="11.54101459527203"><ele>36.66666666666667</ele><time>2026-04-03T14:42:57.999Z</time></trkpt><trkpt lat="45.48940838232744" lon="11.540754737768834"><ele>28.0</ele><time>2026-04-03T14:42:58.999Z</time></trkpt><trkpt lat="45.48936742392766" lon="11.540468444804791"><ele>30.0</ele><time>2026-04-03T14:42:59.999Z</time></trkpt><trkpt lat="45.48929430752364" lon="11.540169177856958"><ele>32.0</ele><time>2026-04-03T14:43:00.999Z</time></trkpt><trkpt lat="45.48923486643827" lon="11.539863015613982"><ele>34.0</ele><time>2026-04-03T14:43:01.999Z</time></trkpt><trkpt lat="45.48914418100124" lon="11.539569046849918"><ele>38.5</ele><time>2026-04-03T14:43:02.999Z</time></trkpt><trkpt lat="45.489047387961776" lon="11.539268202516034"><ele>43.0</ele><time>2026-04-03T14:43:03.999Z</time></trkpt><trkpt lat="45.488961890841885" lon="11.538940781542017"><ele>44.0</ele><time>2026-04-03T14:43:04.999Z</time></trkpt><trkpt lat="45.48887160248649" lon="11.53860401834834"><ele>45.0</ele><time>2026-04-03T14:43:05.999Z</time></trkpt><trkpt lat="45.488767931387684" lon="11.538263667846433"><ele>35.5</ele><time>2026-04-03T14:43:06.999Z</time></trkpt><trkpt lat="45.488663142541206" lon="11.537917187277031"><ele>26.0</ele><time>2026-04-03T14:43:07.999Z</time></trkpt><trkpt lat="45.488566757562474" lon="11.537564343334056"><ele>26.0</ele><time>2026-04-03T14:43:08.999Z</time></trkpt><trkpt lat="45.48847982195534" lon="11.53721706442436"><ele>26.0</ele><time>2026-04-03T14:43:09.999Z</time></trkpt><trkpt lat="45.48838917288129" lon="11.536872415900076"><ele>26.0</ele><time>2026-04-03T14:43:10.999Z</time></trkpt><trkpt lat="45.48829640642171" lon="11.536522830248202"><ele>26.0</ele><time>2026-04-03T14:43:11.999Z</time></trkpt><trkpt lat="45.4882044656072" lon="11.536166229780749"><ele>25.0</ele><time>2026-04-03T14:43:12.999Z</time></trkpt><trkpt lat="45.488115231203494" lon="11.535809618448413"><ele>24.0</ele><time>2026-04-03T14:43:13.999Z</time></trkpt><trkpt lat="45.48802596103194" lon="11.535437305920246"><ele>23.5</ele><time>2026-04-03T14:43:14.999Z</time></trkpt><trkpt lat="45.48794636576138" lon="11.535058281259506"><ele>23.0</ele><time>2026-04-03T14:43:15.999Z</time></trkpt><trkpt lat="45.48787512331672" lon="11.53466612031916"><ele>21.5</ele><time>2026-04-03T14:43:16.999Z</time></trkpt><trkpt lat="45.48780856176369" lon="11.534276605980065"><ele>20.0</ele><time>2026-04-03T14:43:17.999Z</time></trkpt><trkpt lat="45.48774901665347" lon="11.533873422200559"><ele>20.0</ele><time>2026-04-03T14:43:18.999Z</time></trkpt><trkpt lat="45.48769888355113" lon="11.53347225714046"><ele>20.0</ele><time>2026-04-03T14:43:19.999Z</time></trkpt><trkpt lat="45.48765993500714" lon="11.533072544341302"><ele>21.0</ele><time>2026-04-03T14:43:20.999Z</time></trkpt><trkpt lat="45.48762807401338" lon="11.53270476579346"><ele>22.0</ele><time>2026-04-03T14:43:21.999Z</time></trkpt><trkpt lat="45.487596824352444" lon="11.532356248196303"><ele>26.0</ele><time>2026-04-03T14:43:22.999Z</time></trkpt><trkpt lat="45.48757281184696" lon="11.5320239240332"><ele>30.0</ele><time>2026-04-03T14:43:23.999Z</time></trkpt><trkpt lat="45.487566191739866" lon="11.531708923107704"><ele>30.0</ele><time>2026-04-03T14:43:24.999Z</time></trkpt><trkpt lat="45.48756965149006" lon="11.531411229612056"><ele>30.0</ele><time>2026-04-03T14:43:25.999Z</time></trkpt><trkpt lat="45.48756271632764" lon="11.531145078244188"><ele>30.0</ele><time>2026-04-03T14:43:26.999Z</time></trkpt><trkpt lat="45.48754675896777" lon="11.530885741324417"><ele>31.666666666666664</ele><time>2026-04-03T14:43:27.999Z</time></trkpt><trkpt lat="45.487506690468116" lon="11.530623926455927"><ele>33.33333333333333</ele><time>2026-04-03T14:43:28.999Z</time></trkpt><trkpt lat="45.48744316814845" lon="11.530384179085521"><ele>35.0</ele><time>2026-04-03T14:43:29.999Z</time></trkpt><trkpt lat="45.487368840871476" lon="11.530162380415408"><ele>37.33333333333333</ele><time>2026-04-03T14:43:30.999Z</time></trkpt><trkpt lat="45.487288716869315" lon="11.529940321683075"><ele>39.666666666666664</ele><time>2026-04-03T14:43:31.999Z</time></trkpt><trkpt lat="45.487219604284554" lon="11.529704214039823"><ele>42.0</ele><time>2026-04-03T14:43:32.999Z</time></trkpt><trkpt lat="45.48716373308307" lon="11.529446043846345"><ele>45.0</ele><time>2026-04-03T14:43:33.999Z</time></trkpt><trkpt lat="45.48711657978221" lon="11.529185917106926"><ele>48.0</ele><time>2026-04-03T14:43:34.999Z</time></trkpt><trkpt lat="45.48706353980595" lon="11.528937976143986"><ele>51.0</ele><time>2026-04-03T14:43:35.999Z</time></trkpt><trkpt lat="45.48701012795129" lon="11.528731978364375"><ele>46.0</ele><time>2026-04-03T14:43:36.999Z</time></trkpt><trkpt lat="45.486946939633455" lon="11.52855538187205"><ele>41.0</ele><time>2026-04-03T14:43:37.999Z</time></trkpt><trkpt lat="45.486905948531934" lon="11.52838613663469"><ele>36.0</ele><time>2026-04-03T14:43:38.999Z</time></trkpt><trkpt lat="45.486883327005216" lon="11.528203121749575"><ele>31.0</ele><time>2026-04-03T14:43:39.999Z</time></trkpt><trkpt lat="45.48687579065671" lon="11.527982036843566"><ele>32.333333333333336</ele><time>2026-04-03T14:43:40.999Z</time></trkpt><trkpt lat="45.48684812351267" lon="11.527732050371217"><ele>33.666666666666664</ele><time>2026-04-03T14:43:41.999Z</time></trkpt><trkpt lat="45.48679954440638" lon="11.527451361571813"><ele>35.0</ele><time>2026-04-03T14:43:42.999Z</time></trkpt><trkpt lat="45.486767450007704" lon="11.52715009594478"><ele>37.0</ele><time>2026-04-03T14:43:43.999Z</time></trkpt><trkpt lat="45.48678125816249" lon="11.526816403113788"><ele>39.0</ele><time>2026-04-03T14:43:44.999Z</time></trkpt><trkpt lat="45.486766907555456" lon="11.526454407050954"><ele>40.0</ele><time>2026-04-03T14:43:45.999Z</time></trkpt><trkpt lat="45.48670335373682" lon="11.526099539049579"><ele>41.0</ele><time>2026-04-03T14:43:46.999Z</time></trkpt><trkpt lat="45.48665345678689" lon="11.525726130539502"><ele>45.5</ele><time>2026-04-03T14:43:47.999Z</time></trkpt><trkpt lat="45.48659899654961" lon="11.525351182193074"><ele>50.0</ele><time>2026-04-03T14:43:48.999Z</time></trkpt><trkpt lat="45.48651870170266" lon="11.524985577861939"><ele>50.0</ele><time>2026-04-03T14:43:49.999Z</time></trkpt><trkpt lat="45.48643714865914" lon="11.524643616388783"><ele>50.0</ele><time>2026-04-03T14:43:50.999Z</time></trkpt><trkpt lat="45.48636741160811" lon="11.524317533650537"><ele>52.0</ele><time>2026-04-03T14:43:51.999Z</time></trkpt><trkpt lat="45.48629565292038" lon="11.524024466291507"><ele>54.0</ele><time>2026-04-03T14:43:52.999Z</time></trkpt><trkpt lat="45.486226703834426" lon="11.523748854980044"><ele>56.0</ele><time>2026-04-03T14:43:53.999Z</time></trkpt><trkpt lat="45.48613334096446" lon="11.523488709325536"><ele>48.66666666666667</ele><time>2026-04-03T14:43:54.999Z</time></trkpt><trkpt lat="45.48607128545867" lon="11.523215087204532"><ele>41.333333333333336</ele><time>2026-04-03T14:43:55.999Z</time></trkpt><trkpt lat="45.48601503571582" lon="11.522920746449358"><ele>34.0</ele><time>2026-04-03T14:43:56.999Z</time></trkpt><trkpt lat="45.48596694449545" lon="11.522633225587523"><ele>34.0</ele><time>2026-04-03T14:43:57.999Z</time></trkpt><trkpt lat="45.485926252474414" lon="11.52235681758006"><ele>34.0</ele><time>2026-04-03T14:43:58.999Z</time></trkpt><trkpt lat="45.485895092284814" lon="11.522093699523204"><ele>34.0</ele><time>2026-04-03T14:43:59.999Z</time></trkpt><trkpt lat="45.48585950731286" lon="11.52185844805061"><ele>35.25</ele><time>2026-04-03T14:44:00.999Z</time></trkpt><trkpt lat="45.48579563768856" lon="11.521667847952601"><ele>36.5</ele><time>2026-04-03T14:44:01.999Z</time></trkpt><trkpt lat="45.48570891317152" lon="11.521489808317824"><ele>37.75</ele><time>2026-04-03T14:44:02.999Z</time></trkpt><trkpt lat="45.48564217367072" lon="11.52131879586557"><ele>39.0</ele><time>2026-04-03T14:44:03.999Z</time></trkpt><trkpt lat="45.48561373410624" lon="11.521119586365426"><ele>40.5</ele><time>2026-04-03T14:44:04.999Z</time></trkpt><trkpt lat="45.485615586282535" lon="11.520915229285132"><ele>42.0</ele><time>2026-04-03T14:44:05.999Z</time></trkpt><trkpt lat="45.48562400716044" lon="11.52073333827104"><ele>43.5</ele><time>2026-04-03T14:44:06.999Z</time></trkpt><trkpt lat="45.48560918599125" lon="11.520576614370434"><ele>45.0</ele><time>2026-04-03T14:44:07.999Z</time></trkpt><trkpt lat="45.48554548252895" lon="11.52040496611078"><ele>40.333333333333336</ele><time>2026-04-03T14:44:08.999Z</time></trkpt><trkpt lat="45.4854605950137" lon="11.52024478276991"><ele>35.66666666666667</ele><time>2026-04-03T14:44:09.999Z</time></trkpt><trkpt lat="45.485347782091935" lon="11.520077791026196"><ele>31.0</ele><time>2026-04-03T14:44:10.999Z</time></trkpt><trkpt lat="45.48522882198023" lon="11.519917657512892"><ele>31.0</ele><time>2026-04-03T14:44:11.999Z</time></trkpt><trkpt lat="45.485101439780074" lon="11.51976300711842"><ele>31.0</ele><time>2026-04-03T14:44:12.999Z</time></trkpt><trkpt lat="45.48497274160544" lon="11.519619226789223"><ele>31.0</ele><time>2026-04-03T14:44:13.999Z</time></trkpt><trkpt lat="45.48487962722432" lon="11.519458325707499"><ele>34.66666666666667</ele><time>2026-04-03T14:44:14.999Z</time></trkpt><trkpt lat="45.48479076541544" lon="11.519252053710286"><ele>38.333333333333336</ele><time>2026-04-03T14:44:15.999Z</time></trkpt><trkpt lat="45.48471872079704" lon="11.519014862640159"><ele>42.0</ele><time>2026-04-03T14:44:16.999Z</time></trkpt><trkpt lat="45.48460863344384" lon="11.518781247426162"><ele>40.666666666666664</ele><time>2026-04-03T14:44:18Z</time></trkpt><trkpt lat="45.484452862031546" lon="11.518587541192986"><ele>39.33333333333333</ele><time>2026-04-03T14:44:19Z</time></trkpt><trkpt lat="45.484277332973264" lon="11.518412409820073"><ele>38.0</ele><time>2026-04-03T14:44:20Z</time></trkpt><trkpt lat="45.48410815847516" lon="11.518249605764685"><ele>38.0</ele><time>2026-04-03T14:44:21Z</time></trkpt><trkpt lat="45.48394516235356" lon="11.518107821011503"><ele>38.0</ele><time>2026-04-03T14:44:22Z</time></trkpt><trkpt lat="45.483805587116635" lon="11.517959502399721"><ele>38.0</ele><time>2026-04-03T14:44:23Z</time></trkpt><trkpt lat="45.483678332031054" lon="11.517783792560843"><ele>35.666666666666664</ele><time>2026-04-03T14:44:24Z</time></trkpt><trkpt lat="45.48355615779352" lon="11.517572065420048"><ele>33.333333333333336</ele><time>2026-04-03T14:44:25Z</time></trkpt><trkpt lat="45.48343055713778" lon="11.517353570382431"><ele>31.0</ele><time>2026-04-03T14:44:26Z</time></trkpt><trkpt lat="45.48330025695991" lon="11.517142962715356"><ele>30.666666666666668</ele><time>2026-04-03T14:44:27Z</time></trkpt><trkpt lat="45.483177360237356" lon="11.516951692387686"><ele>30.333333333333336</ele><time>2026-04-03T14:44:28Z</time></trkpt><trkpt lat="45.48305639699186" lon="11.516792491634915"><ele>30.0</ele><time>2026-04-03T14:44:29Z</time></trkpt><trkpt lat="45.482925877288864" lon="11.516675720686395"><ele>30.0</ele><time>2026-04-03T14:44:30Z</time></trkpt><trkpt lat="45.48279691367552" lon="11.516591198683034"><ele>30.0</ele><time>2026-04-03T14:44:31Z</time></trkpt><trkpt lat="45.48267497676387" lon="11.516504203828315"><ele>30.0</ele><time>2026-04-03T14:44:32Z</time></trkpt><trkpt lat="45.48255848339524" lon="11.516389601165162"><ele>30.0</ele><time>2026-04-03T14:44:33Z</time></trkpt><trkpt lat="45.48245435456322" lon="11.516247121382621"><ele>34.25</ele><time>2026-04-03T14:44:34Z</time></trkpt><trkpt lat="45.48237246316066" lon="11.516072247024413"><ele>38.5</ele><time>2026-04-03T14:44:35Z</time></trkpt><trkpt lat="45.48230958753993" lon="11.515889079267602"><ele>42.75</ele><time>2026-04-03T14:44:36Z</time></trkpt><trkpt lat="45.482244489936235" lon="11.515709875822253"><ele>47.0</ele><time>2026-04-03T14:44:37Z</time></trkpt><trkpt lat="45.482162251799814" lon="11.515573817613218"><ele>45.5</ele><time>2026-04-03T14:44:38Z</time></trkpt><trkpt lat="45.48205689506039" lon="11.515479764941325"><ele>44.0</ele><time>2026-04-03T14:44:39Z</time></trkpt><trkpt lat="45.48193325335778" lon="11.515406576791088"><ele>42.5</ele><time>2026-04-03T14:44:40Z</time></trkpt><trkpt lat="45.481805293731384" lon="11.515340414771249"><ele>41.0</ele><time>2026-04-03T14:44:41Z</time></trkpt><trkpt lat="45.48167941598632" lon="11.515276308831579"><ele>41.0</ele><time>2026-04-03T14:44:42Z</time></trkpt><trkpt lat="45.48155397945155" lon="11.515200048331094"><ele>41.0</ele><time>2026-04-03T14:44:43Z</time></trkpt><trkpt lat="45.481437379273636" lon="11.515123594390149"><ele>41.0</ele><time>2026-04-03T14:44:44Z</time></trkpt><trkpt lat="45.48131779646808" lon="11.515046475777574"><ele>41.0</ele><time>2026-04-03T14:44:45Z</time></trkpt><trkpt lat="45.4811976427918" lon="11.51496674688546"><ele>40.25</ele><time>2026-04-03T14:44:46Z</time></trkpt><trkpt lat="45.48108532894861" lon="11.514868801835009"><ele>39.5</ele><time>2026-04-03T14:44:47Z</time></trkpt><trkpt lat="45.48098043189017" lon="11.514759550224998"><ele>38.75</ele><time>2026-04-03T14:44:48Z</time></trkpt><trkpt lat="45.480876893792654" lon="11.514659080421705"><ele>38.0</ele><time>2026-04-03T14:44:49Z</time></trkpt><trkpt lat="45.48077770573405" lon="11.514557594531663"><ele>38.0</ele><time>2026-04-03T14:44:50Z</time></trkpt><trkpt lat="45.48068237833582" lon="11.514450497233726"><ele>38.0</ele><time>2026-04-03T14:44:51Z</time></trkpt><trkpt lat="45.480579639917586" lon="11.5143286219995"><ele>38.0</ele><time>2026-04-03T14:44:52Z</time></trkpt><trkpt lat="45.48047866537428" lon="11.514187379638662"><ele>38.0</ele><time>2026-04-03T14:44:53Z</time></trkpt><trkpt lat="45.48036982615232" lon="11.514034394756644"><ele>36.666666666666664</ele><time>2026-04-03T14:44:54Z</time></trkpt><trkpt lat="45.48023066638116" lon="11.513857181380903"><ele>35.333333333333336</ele><time>2026-04-03T14:44:55Z</time></trkpt><trkpt lat="45.48010158456668" lon="11.513681276595412"><ele>34.0</ele><time>2026-04-03T14:44:56Z</time></trkpt><trkpt lat="45.479984725119046" lon="11.513544501417226"><ele>34.0</ele><time>2026-04-03T14:44:57Z</time></trkpt><trkpt lat="45.479863262188424" lon="11.513455581908692"><ele>34.0</ele><time>2026-04-03T14:44:58Z</time></trkpt><trkpt lat="45.47974299684936" lon="11.51339657428469"><ele>34.0</ele><time>2026-04-03T14:44:59Z</time></trkpt><trkpt lat="45.47961969666955" lon="11.513359298233766"><ele>34.0</ele><time>2026-04-03T14:45:00Z</time></trkpt><trkpt lat="45.479499842098924" lon="11.513312272097998"><ele>33.25</ele><time>2026-04-03T14:45:01Z</time></trkpt><trkpt lat="45.4793808987666" lon="11.513274078980995"><ele>32.5</ele><time>2026-04-03T14:45:02Z</time></trkpt><trkpt lat="45.479264943851064" lon="11.513229407102381"><ele>31.75</ele><time>2026-04-03T14:45:03Z</time></trkpt><trkpt lat="45.47915758878202" lon="11.513175671859512"><ele>31.0</ele><time>2026-04-03T14:45:04Z</time></trkpt><trkpt lat="45.479060090576255" lon="11.513093586827479"><ele>31.0</ele><time>2026-04-03T14:45:05Z</time></trkpt><trkpt lat="45.478956157831824" lon="11.512980010974015"><ele>31.0</ele><time>2026-04-03T14:45:06Z</time></trkpt><trkpt lat="45.47882370228064" lon="11.51283123761452"><ele>31.0</ele><time>2026-04-03T14:45:07Z</time></trkpt><trkpt lat="45.47863851991216" lon="11.51267463127844"><ele>31.5</ele><time>2026-04-03T14:45:08Z</time></trkpt><trkpt lat="45.47843102350251" lon="11.512545811051185"><ele>32.0</ele><time>2026-04-03T14:45:09Z</time></trkpt><trkpt lat="45.4782141638261" lon="11.512400010769191"><ele>32.0</ele><time>2026-04-03T14:45:10Z</time></trkpt><trkpt lat="45.4780072854113" lon="11.512230124466152"><ele>32.0</ele><time>2026-04-03T14:45:11Z</time></trkpt><trkpt lat="45.47782617458148" lon="11.512080396084222"><ele>32.0</ele><time>2026-04-03T14:45:12Z</time></trkpt><trkpt lat="45.4776730580144" lon="11.51194376031065"><ele>34.0</ele><time>2026-04-03T14:45:13Z</time></trkpt><trkpt lat="45.47753622481304" lon="11.51181718959992"><ele>36.0</ele><time>2026-04-03T14:45:14Z</time></trkpt><trkpt lat="45.47738187898018" lon="11.511726382126033"><ele>38.0</ele><time>2026-04-03T14:45:15Z</time></trkpt><trkpt lat="45.477215175348135" lon="11.511626854437514"><ele>36.0</ele><time>2026-04-03T14:45:16Z</time></trkpt><trkpt lat="45.47702239147732" lon="11.511573599684803"><ele>34.0</ele><time>2026-04-03T14:45:17Z</time></trkpt><trkpt lat="45.47684791107544" lon="11.511552344249454"><ele>32.0</ele><time>2026-04-03T14:45:18Z</time></trkpt><trkpt lat="45.47668146175336" lon="11.511493764780608"><ele>32.0</ele><time>2026-04-03T14:45:19Z</time></trkpt><trkpt lat="45.47651833068936" lon="11.511434646831114"><ele>32.0</ele><time>2026-04-03T14:45:20Z</time></trkpt><trkpt lat="45.47634321057998" lon="11.511337403334343"><ele>32.0</ele><time>2026-04-03T14:45:21Z</time></trkpt><trkpt lat="45.47614748142505" lon="11.511229873742108"><ele>34.0</ele><time>2026-04-03T14:45:22Z</time></trkpt><trkpt lat="45.47593676754252" lon="11.5111115467956"><ele>36.0</ele><time>2026-04-03T14:45:23Z</time></trkpt><trkpt lat="45.475729309633664" lon="11.510993080352693"><ele>36.0</ele><time>2026-04-03T14:45:24Z</time></trkpt><trkpt lat="45.4755161622112" lon="11.510872705579322"><ele>36.0</ele><time>2026-04-03T14:45:25Z</time></trkpt><trkpt lat="45.47529828874333" lon="11.510754936647288"><ele>34.0</ele><time>2026-04-03T14:45:26Z</time></trkpt><trkpt lat="45.47508298949811" lon="11.510638961674779"><ele>32.0</ele><time>2026-04-03T14:45:27Z</time></trkpt><trkpt lat="45.474869583892286" lon="11.510526272220098"><ele>32.0</ele><time>2026-04-03T14:45:28Z</time></trkpt><trkpt lat="45.4746596766753" lon="11.510414828094254"><ele>32.0</ele><time>2026-04-03T14:45:29Z</time></trkpt><trkpt lat="45.47445015374382" lon="11.51029753330497"><ele>32.0</ele><time>2026-04-03T14:45:30Z</time></trkpt><trkpt lat="45.47423924137368" lon="11.510176033671259"><ele>32.0</ele><time>2026-04-03T14:45:31Z</time></trkpt><trkpt lat="45.47402961463222" lon="11.510056248232573"><ele>32.0</ele><time>2026-04-03T14:45:32Z</time></trkpt><trkpt lat="45.47382384199609" lon="11.509939470786897"><ele>32.0</ele><time>2026-04-03T14:45:33Z</time></trkpt><trkpt lat="45.4736281419409" lon="11.509827988500353"><ele>32.0</ele><time>2026-04-03T14:45:34Z</time></trkpt><trkpt lat="45.473440902170424" lon="11.509718693023247"><ele>32.0</ele><time>2026-04-03T14:45:35Z</time></trkpt><trkpt lat="45.473255853551315" lon="11.509609960843852"><ele>32.0</ele><time>2026-04-03T14:45:36Z</time></trkpt><trkpt lat="45.47307967233064" lon="11.509506438840443"><ele>31.666666666666664</ele><time>2026-04-03T14:45:37Z</time></trkpt><trkpt lat="45.47291728616409" lon="11.50940760112913"><ele>31.333333333333336</ele><time>2026-04-03T14:45:38Z</time></trkpt><trkpt lat="45.47277595144558" lon="11.509307732453491"><ele>31.0</ele><time>2026-04-03T14:45:39Z</time></trkpt><trkpt lat="45.47264485046283" lon="11.5092032007335"><ele>31.0</ele><time>2026-04-03T14:45:40Z</time></trkpt><trkpt lat="45.472515796952756" lon="11.509099762053731"><ele>31.0</ele><time>2026-04-03T14:45:41Z</time></trkpt><trkpt lat="45.472398537157574" lon="11.509006847769811"><ele>31.0</ele><time>2026-04-03T14:45:42Z</time></trkpt><trkpt lat="45.472275691823" lon="11.508909507370522"><ele>31.0</ele><time>2026-04-03T14:45:43Z</time></trkpt><trkpt lat="45.472140800072616" lon="11.508799362241097"><ele>33.0</ele><time>2026-04-03T14:45:44Z</time></trkpt><trkpt lat="45.47201225971003" lon="11.508682492794476"><ele>35.0</ele><time>2026-04-03T14:45:45Z</time></trkpt><trkpt lat="45.47188047350574" lon="11.508630997328883"><ele>37.0</ele><time>2026-04-03T14:45:46Z</time></trkpt><trkpt lat="45.47177131063128" lon="11.508592750819226"><ele>39.0</ele><time>2026-04-03T14:45:47Z</time></trkpt><trkpt lat="45.47164880724416" lon="11.508610726568243"><ele>39.0</ele><time>2026-04-03T14:45:48Z</time></trkpt><trkpt lat="45.471518198668846" lon="11.50867527173495"><ele>39.0</ele><time>2026-04-03T14:45:49Z</time></trkpt><trkpt lat="45.471380109805175" lon="11.508767748451945"><ele>39.0</ele><time>2026-04-03T14:45:50Z</time></trkpt><trkpt lat="45.47122762986366" lon="11.508846470434548"><ele>38.333333333333336</ele><time>2026-04-03T14:45:51Z</time></trkpt><trkpt lat="45.47107294526692" lon="11.508944864730486"><ele>37.66666666666667</ele><time>2026-04-03T14:45:52Z</time></trkpt><trkpt lat="45.47092208697174" lon="11.509032658931053"><ele>37.0</ele><time>2026-04-03T14:45:53Z</time></trkpt><trkpt lat="45.4707814255824" lon="11.509138948843656"><ele>37.0</ele><time>2026-04-03T14:45:54Z</time></trkpt><trkpt lat="45.47065799651581" lon="11.50923693919351"><ele>37.0</ele><time>2026-04-03T14:45:55Z</time></trkpt><trkpt lat="45.47054951532314" lon="11.50933695104035"><ele>37.0</ele><time>2026-04-03T14:45:56Z</time></trkpt><trkpt lat="45.47046071646268" lon="11.509454553797104"><ele>37.0</ele><time>2026-04-03T14:45:57Z</time></trkpt><trkpt lat="45.47040155048208" lon="11.509574066081411"><ele>37.0</ele><time>2026-04-03T14:45:58Z</time></trkpt><trkpt lat="45.470346880705094" lon="11.509697057565827"><ele>37.0</ele><time>2026-04-03T14:45:59Z</time></trkpt><trkpt lat="45.47028098917171" lon="11.509797504724052"><ele>37.0</ele><time>2026-04-03T14:46:00Z</time></trkpt><trkpt lat="45.47018676041332" lon="11.509841517400412"><ele>37.0</ele><time>2026-04-03T14:46:01Z</time></trkpt><trkpt lat="45.47009623011189" lon="11.509854661471543"><ele>37.0</ele><time>2026-04-03T14:46:02Z</time></trkpt><trkpt lat="45.4699949301981" lon="11.509863211676683"><ele>37.0</ele><time>2026-04-03T14:46:03Z</time></trkpt><trkpt lat="45.469889174276716" lon="11.509854860965223"><ele>37.0</ele><time>2026-04-03T14:46:04Z</time></trkpt><trkpt lat="45.46977418487274" lon="11.509832777492441"><ele>37.0</ele><time>2026-04-03T14:46:05Z</time></trkpt><trkpt lat="45.469660908555916" lon="11.50978536842643"><ele>37.0</ele><time>2026-04-03T14:46:06Z</time></trkpt><trkpt lat="45.46954656895923" lon="11.509727135422711"><ele>37.0</ele><time>2026-04-03T14:46:07Z</time></trkpt><trkpt lat="45.46943341894591" lon="11.509663375257503"><ele>37.0</ele><time>2026-04-03T14:46:08Z</time></trkpt><trkpt lat="45.469326553246" lon="11.509597994083286"><ele>37.0</ele><time>2026-04-03T14:46:09Z</time></trkpt><trkpt lat="45.469218947897154" lon="11.509522239636084"><ele>37.0</ele><time>2026-04-03T14:46:10Z</time></trkpt><trkpt lat="45.46911701773389" lon="11.509415956137978"><ele>38.5</ele><time>2026-04-03T14:46:11Z</time></trkpt><trkpt lat="45.469008414941776" lon="11.509295805340768"><ele>40.0</ele><time>2026-04-03T14:46:12Z</time></trkpt><trkpt lat="45.46889460356512" lon="11.509181003191816"><ele>41.5</ele><time>2026-04-03T14:46:13Z</time></trkpt><trkpt lat="45.46876725772591" lon="11.509095552922544"><ele>43.0</ele><time>2026-04-03T14:46:14Z</time></trkpt><trkpt lat="45.46865070746572" lon="11.508980980388067"><ele>44.0</ele><time>2026-04-03T14:46:15Z</time></trkpt><trkpt lat="45.46853498534172" lon="11.508886627771963"><ele>45.0</ele><time>2026-04-03T14:46:16Z</time></trkpt><trkpt lat="45.46842573734492" lon="11.508778949834648"><ele>46.0</ele><time>2026-04-03T14:46:17Z</time></trkpt><trkpt lat="45.46831750185882" lon="11.50862690290883"><ele>47.0</ele><time>2026-04-03T14:46:18Z</time></trkpt><trkpt lat="45.46819207730153" lon="11.508463114041557"><ele>47.0</ele><time>2026-04-03T14:46:19Z</time></trkpt><trkpt lat="45.468033892355514" lon="11.508292614702409"><ele>47.0</ele><time>2026-04-03T14:46:20Z</time></trkpt><trkpt lat="45.4678657682884" lon="11.508132156604837"><ele>47.0</ele><time>2026-04-03T14:46:21Z</time></trkpt><trkpt lat="45.467698242640346" lon="11.507948923714308"><ele>50.0</ele><time>2026-04-03T14:46:22Z</time></trkpt><trkpt lat="45.467544272584234" lon="11.507766786097116"><ele>53.0</ele><time>2026-04-03T14:46:23Z</time></trkpt><trkpt lat="45.46740516333579" lon="11.507595114603891"><ele>56.0</ele><time>2026-04-03T14:46:24.001Z</time></trkpt><trkpt lat="45.467284559060296" lon="11.507440685928037"><ele>56.0</ele><time>2026-04-03T14:46:25.001Z</time></trkpt><trkpt lat="45.467178414507075" lon="11.507300041511982"><ele>55.99999999999999</ele><time>2026-04-03T14:46:26.001Z</time></trkpt><trkpt lat="45.46708658716915" lon="11.507177835449527"><ele>55.99999999999999</ele><time>2026-04-03T14:46:27.001Z</time></trkpt><trkpt lat="45.46701687818421" lon="11.507083045642542"><ele>56.0</ele><time>2026-04-03T14:46:28.001Z</time></trkpt><trkpt lat="45.46696432221983" lon="11.507009078204769"><ele>56.0</ele><time>2026-04-03T14:46:29.001Z</time></trkpt><trkpt lat="45.466981302600566" lon="11.506872129324707"><ele>56.0</ele><time>2026-04-03T14:46:32.001Z</time></trkpt><trkpt lat="45.46706062096091" lon="11.50690491292448"><ele>55.99999999999999</ele><time>2026-04-03T14:46:33.001Z</time></trkpt><trkpt lat="45.46712651025108" lon="11.506965978040542"><ele>55.99999999999999</ele><time>2026-04-03T14:46:34.001Z</time></trkpt><trkpt lat="45.46721604560576" lon="11.507065792949248"><ele>56.0</ele><time>2026-04-03T14:46:35.001Z</time></trkpt><trkpt lat="45.46732884248175" lon="11.507179892019202"><ele>56.0</ele><time>2026-04-03T14:46:36.001Z</time></trkpt><trkpt lat="45.467439770498636" lon="11.507279391120392"><ele>56.0</ele><time>2026-04-03T14:46:37.001Z</time></trkpt><trkpt lat="45.46754238682338" lon="11.50737095392961"><ele>56.0</ele><time>2026-04-03T14:46:38.001Z</time></trkpt><trkpt lat="45.46765198612764" lon="11.507440928508501"><ele>56.0</ele><time>2026-04-03T14:46:39.001Z</time></trkpt><trkpt lat="45.467788430652476" lon="11.507461641217157"><ele>56.0</ele><time>2026-04-03T14:46:40.001Z</time></trkpt><trkpt lat="45.46793471877528" lon="11.507460301252552"><ele>58.75</ele><time>2026-04-03T14:46:41.001Z</time></trkpt><trkpt lat="45.46807452674735" lon="11.507545105177156"><ele>61.5</ele><time>2026-04-03T14:46:42.001Z</time></trkpt><trkpt lat="45.46820606991449" lon="11.507642279611138"><ele>64.25</ele><time>2026-04-03T14:46:43.001Z</time></trkpt><trkpt lat="45.46833340307984" lon="11.507722231103012"><ele>67.0</ele><time>2026-04-03T14:46:44.001Z</time></trkpt><trkpt lat="45.468430816767224" lon="11.507809358443607"><ele>67.0</ele><time>2026-04-03T14:46:45.001Z</time></trkpt><trkpt lat="45.46852154560142" lon="11.50786312594727"><ele>67.0</ele><time>2026-04-03T14:46:46.001Z</time></trkpt><trkpt lat="45.46862717349308" lon="11.507883844832813"><ele>67.0</ele><time>2026-04-03T14:46:47.001Z</time></trkpt><trkpt lat="45.468763026127064" lon="11.507884938270736"><ele>67.0</ele><time>2026-04-03T14:46:48.001Z</time></trkpt><trkpt lat="45.46891560401323" lon="11.50789104889661"><ele>65.5</ele><time>2026-04-03T14:46:49.001Z</time></trkpt><trkpt lat="45.46907836842967" lon="11.507909554605817"><ele>64.0</ele><time>2026-04-03T14:46:50.001Z</time></trkpt><trkpt lat="45.46922074715157" lon="11.507921427104613"><ele>62.5</ele><time>2026-04-03T14:46:51.001Z</time></trkpt><trkpt lat="45.469340970364215" lon="11.507933088008532"><ele>61.0</ele><time>2026-04-03T14:46:52.001Z</time></trkpt><trkpt lat="45.46945293433864" lon="11.507939171580427"><ele>64.2</ele><time>2026-04-03T14:46:53.001Z</time></trkpt><trkpt lat="45.46957490057492" lon="11.507909275954459"><ele>67.39999999999999</ele><time>2026-04-03T14:46:54.001Z</time></trkpt><trkpt lat="45.46969094271462" lon="11.507853551756016"><ele>70.6</ele><time>2026-04-03T14:46:55.001Z</time></trkpt><trkpt lat="45.46978196019045" lon="11.50779420029953"><ele>73.8</ele><time>2026-04-03T14:46:56.001Z</time></trkpt><trkpt lat="45.46984031079003" lon="11.507745800359215"><ele>77.0</ele><time>2026-04-03T14:46:57.001Z</time></trkpt><trkpt lat="45.46988223751383" lon="11.507612621892594"><ele>77.0</ele><time>2026-04-03T14:46:59.001Z</time></trkpt><trkpt lat="45.46983475684132" lon="11.5075161336396"><ele>77.0</ele><time>2026-04-03T14:47:00.001Z</time></trkpt><trkpt lat="45.46972655606398" lon="11.507464832457082"><ele>77.0</ele><time>2026-04-03T14:47:01Z</time></trkpt><trkpt lat="45.469611152117636" lon="11.507361865211728"><ele>77.0</ele><time>2026-04-03T14:47:02Z</time></trkpt><trkpt lat="45.469485371615335" lon="11.507258125216339"><ele>77.0</ele><time>2026-04-03T14:47:03Z</time></trkpt><trkpt lat="45.4693402368862" lon="11.50713842247297"><ele>77.0</ele><time>2026-04-03T14:47:04Z</time></trkpt><trkpt lat="45.46917311048956" lon="11.506997982826185"><ele>77.0</ele><time>2026-04-03T14:47:05Z</time></trkpt><trkpt lat="45.46901755576296" lon="11.506866998768514"><ele>82.66666666666667</ele><time>2026-04-03T14:47:06Z</time></trkpt><trkpt lat="45.46887498788939" lon="11.5067498799807"><ele>88.33333333333333</ele><time>2026-04-03T14:47:07Z</time></trkpt><trkpt lat="45.468731705677015" lon="11.506640778061657"><ele>94.0</ele><time>2026-04-03T14:47:08Z</time></trkpt><trkpt lat="45.46855862622791" lon="11.506577234423466"><ele>94.0</ele><time>2026-04-03T14:47:09Z</time></trkpt><trkpt lat="45.46837365786096" lon="11.506499275653832"><ele>94.0</ele><time>2026-04-03T14:47:10Z</time></trkpt><trkpt lat="45.468172901278486" lon="11.506423959412887"><ele>94.0</ele><time>2026-04-03T14:47:11Z</time></trkpt><trkpt lat="45.46797149508989" lon="11.506343522431232"><ele>91.0</ele><time>2026-04-03T14:47:12Z</time></trkpt><trkpt lat="45.467792139645105" lon="11.506252439806705"><ele>88.0</ele><time>2026-04-03T14:47:13Z</time></trkpt><trkpt lat="45.467646156802985" lon="11.506195437311098"><ele>85.0</ele><time>2026-04-03T14:47:14Z</time></trkpt><trkpt lat="45.46753677176859" lon="11.50615564675067"><ele>89.8</ele><time>2026-04-03T14:47:15Z</time></trkpt><trkpt lat="45.46745603348552" lon="11.506127841826949"><ele>94.6</ele><time>2026-04-03T14:47:16Z</time></trkpt><trkpt lat="45.467367083976455" lon="11.50607032684116"><ele>99.4</ele><time>2026-04-03T14:47:18Z</time></trkpt><trkpt lat="45.46740956232549" lon="11.505937745974354"><ele>104.2</ele><time>2026-04-03T14:47:20Z</time></trkpt><trkpt lat="45.46750105067198" lon="11.50592265372552"><ele>109.0</ele><time>2026-04-03T14:47:21Z</time></trkpt><trkpt lat="45.46761389155926" lon="11.505948167535912"><ele>109.0</ele><time>2026-04-03T14:47:22Z</time></trkpt><trkpt lat="45.4677592482541" lon="11.505971178947965"><ele>109.0</ele><time>2026-04-03T14:47:23Z</time></trkpt><trkpt lat="45.467921625113625" lon="11.50596482862903"><ele>109.0</ele><time>2026-04-03T14:47:24Z</time></trkpt><trkpt lat="45.468096407912036" lon="11.505928512890968"><ele>111.0</ele><time>2026-04-03T14:47:25Z</time></trkpt><trkpt lat="45.468277985038114" lon="11.505849352059908"><ele>113.0</ele><time>2026-04-03T14:47:26Z</time></trkpt><trkpt lat="45.46844593740893" lon="11.505769353590559"><ele>115.0</ele><time>2026-04-03T14:47:27Z</time></trkpt><trkpt lat="45.4685904336335" lon="11.505715881615442"><ele>115.0</ele><time>2026-04-03T14:47:28Z</time></trkpt><trkpt lat="45.46871326186761" lon="11.505676380455656"><ele>115.0</ele><time>2026-04-03T14:47:29Z</time></trkpt><trkpt lat="45.468818538368076" lon="11.5056549862517"><ele>115.0</ele><time>2026-04-03T14:47:30Z</time></trkpt><trkpt lat="45.46891584535753" lon="11.505648886245215"><ele>115.0</ele><time>2026-04-03T14:47:31Z</time></trkpt><trkpt lat="45.46901860173988" lon="11.505647023381156"><ele>115.0</ele><time>2026-04-03T14:47:32Z</time></trkpt><trkpt lat="45.46913789256549" lon="11.505646092117164"><ele>116.0</ele><time>2026-04-03T14:47:33Z</time></trkpt><trkpt lat="45.46927831484182" lon="11.505639717261372"><ele>117.0</ele><time>2026-04-03T14:47:34Z</time></trkpt><trkpt lat="45.46940287842675" lon="11.505629076511946"><ele>118.0</ele><time>2026-04-03T14:47:35Z</time></trkpt><trkpt lat="45.46952913510418" lon="11.505616736249673"><ele>119.0</ele><time>2026-04-03T14:47:36Z</time></trkpt><trkpt lat="45.469662727775024" lon="11.505605116321286"><ele>122.33333333333333</ele><time>2026-04-03T14:47:37Z</time></trkpt><trkpt lat="45.46981599994763" lon="11.50560905703325"><ele>125.66666666666666</ele><time>2026-04-03T14:47:38Z</time></trkpt><trkpt lat="45.47000482598207" lon="11.505619930249358"><ele>129.0</ele><time>2026-04-03T14:47:39Z</time></trkpt><trkpt lat="45.47020657484901" lon="11.505633523382427"><ele>129.0</ele><time>2026-04-03T14:47:40Z</time></trkpt><trkpt lat="45.47041099252438" lon="11.505621024636293"><ele>129.0</ele><time>2026-04-03T14:47:41Z</time></trkpt><trkpt lat="45.470611954601225" lon="11.50561234842677"><ele>129.0</ele><time>2026-04-03T14:47:42Z</time></trkpt><trkpt lat="45.470779790775126" lon="11.505610175973297"><ele>130.6</ele><time>2026-04-03T14:47:43Z</time></trkpt><trkpt lat="45.47092379655356" lon="11.505637836366331"><ele>132.2</ele><time>2026-04-03T14:47:44Z</time></trkpt><trkpt lat="45.471028030491134" lon="11.505667957396144"><ele>133.79999999999998</ele><time>2026-04-03T14:47:45Z</time></trkpt><trkpt lat="45.47111425936827" lon="11.505683792100594"><ele>135.4</ele><time>2026-04-03T14:47:46Z</time></trkpt><trkpt lat="45.47120507237233" lon="11.505635394979095"><ele>137.0</ele><time>2026-04-03T14:47:48Z</time></trkpt><trkpt lat="45.47119700225783" lon="11.505485933461614"><ele>137.0</ele><time>2026-04-03T14:47:50Z</time></trkpt><trkpt lat="45.47110808913436" lon="11.505417995874957"><ele>137.0</ele><time>2026-04-03T14:47:51Z</time></trkpt><trkpt lat="45.470968184436536" lon="11.50541585561469"><ele>137.0</ele><time>2026-04-03T14:47:52Z</time></trkpt><trkpt lat="45.47082321891033" lon="11.505336362807435"><ele>137.0</ele><time>2026-04-03T14:47:53Z</time></trkpt><trkpt lat="45.47065951389759" lon="11.505242171810332"><ele>143.0</ele><time>2026-04-03T14:47:54Z</time></trkpt><trkpt lat="45.47048370009537" lon="11.505125318800348"><ele>149.0</ele><time>2026-04-03T14:47:55Z</time></trkpt><trkpt lat="45.47030259954938" lon="11.504992535443057"><ele>155.0</ele><time>2026-04-03T14:47:56Z</time></trkpt><trkpt lat="45.470121676070235" lon="11.504849552543956"><ele>155.0</ele><time>2026-04-03T14:47:57Z</time></trkpt><trkpt lat="45.46992875265158" lon="11.504695877086567"><ele>155.0</ele><time>2026-04-03T14:47:58Z</time></trkpt><trkpt lat="45.46974477297771" lon="11.504561022320996"><ele>155.0</ele><time>2026-04-03T14:47:59Z</time></trkpt><trkpt lat="45.46959288613652" lon="11.504450379796054"><ele>160.0</ele><time>2026-04-03T14:48:00Z</time></trkpt><trkpt lat="45.469444836979896" lon="11.504333762794886"><ele>165.0</ele><time>2026-04-03T14:48:01Z</time></trkpt><trkpt lat="45.46929735679085" lon="11.504207053412655"><ele>170.0</ele><time>2026-04-03T14:48:02Z</time></trkpt><trkpt lat="45.46915538646602" lon="11.504073904835476"><ele>170.0</ele><time>2026-04-03T14:48:03Z</time></trkpt><trkpt lat="45.469009044989185" lon="11.503923883123667"><ele>170.0</ele><time>2026-04-03T14:48:04Z</time></trkpt><trkpt lat="45.46885210046636" lon="11.503814642935904"><ele>170.0</ele><time>2026-04-03T14:48:05Z</time></trkpt><trkpt lat="45.46870704493037" lon="11.503719848481285"><ele>174.0</ele><time>2026-04-03T14:48:06Z</time></trkpt><trkpt lat="45.468580132884945" lon="11.503639225781816"><ele>178.0</ele><time>2026-04-03T14:48:07Z</time></trkpt><trkpt lat="45.46847840698255" lon="11.503595591176982"><ele>182.0</ele><time>2026-04-03T14:48:08Z</time></trkpt><trkpt lat="45.46839938851573" lon="11.50356253903834"><ele>186.0</ele><time>2026-04-03T14:48:09Z</time></trkpt><trkpt lat="45.468327672567824" lon="11.503497980643736"><ele>190.0</ele><time>2026-04-03T14:48:11Z</time></trkpt><trkpt lat="45.46838604934333" lon="11.503402317625891"><ele>190.0</ele><time>2026-04-03T14:48:13Z</time></trkpt><trkpt lat="45.468475615431785" lon="11.503423190952468"><ele>190.0</ele><time>2026-04-03T14:48:14Z</time></trkpt><trkpt lat="45.46858108998842" lon="11.503463052992572"><ele>190.0</ele><time>2026-04-03T14:48:15Z</time></trkpt><trkpt lat="45.46871140778196" lon="11.503508504220996"><ele>190.0</ele><time>2026-04-03T14:48:16Z</time></trkpt><trkpt lat="45.468870915995815" lon="11.503533626828869"><ele>193.0</ele><time>2026-04-03T14:48:17Z</time></trkpt><trkpt lat="45.46904795133815" lon="11.503562410692625"><ele>196.0</ele><time>2026-04-03T14:48:18Z</time></trkpt><trkpt lat="45.46923160778943" lon="11.503588271939986"><ele>199.0</ele><time>2026-04-03T14:48:19Z</time></trkpt><trkpt lat="45.469441676133556" lon="11.503640309769562"><ele>202.33333333333331</ele><time>2026-04-03T14:48:20Z</time></trkpt><trkpt lat="45.469646529394424" lon="11.50366844841356"><ele>205.66666666666669</ele><time>2026-04-03T14:48:21Z</time></trkpt><trkpt lat="45.46986642520842" lon="11.503695415265359"><ele>209.0</ele><time>2026-04-03T14:48:22Z</time></trkpt><trkpt lat="45.470089629196856" lon="11.503720391491644"><ele>209.0</ele><time>2026-04-03T14:48:23Z</time></trkpt><trkpt lat="45.47032028473045" lon="11.503721310605211"><ele>209.0</ele><time>2026-04-03T14:48:24Z</time></trkpt><trkpt lat="45.47054956836534" lon="11.50371036471659"><ele>203.0</ele><time>2026-04-03T14:48:25Z</time></trkpt><trkpt lat="45.4707727334689" lon="11.503750691946731"><ele>197.0</ele><time>2026-04-03T14:48:26Z</time></trkpt><trkpt lat="45.47098900109514" lon="11.503817760700615"><ele>191.0</ele><time>2026-04-03T14:48:27Z</time></trkpt><trkpt lat="45.47118698987926" lon="11.50388531775816"><ele>194.0</ele><time>2026-04-03T14:48:28Z</time></trkpt><trkpt lat="45.47137266057932" lon="11.503917032094202"><ele>197.0</ele><time>2026-04-03T14:48:29Z</time></trkpt><trkpt lat="45.47156387235266" lon="11.503923488728388"><ele>200.0</ele><time>2026-04-03T14:48:30.002Z</time></trkpt><trkpt lat="45.47176048562037" lon="11.503923288799827"><ele>200.0</ele><time>2026-04-03T14:48:31.002Z</time></trkpt><trkpt lat="45.471939339697215" lon="11.503931628011335"><ele>200.0</ele><time>2026-04-03T14:48:32.002Z</time></trkpt><trkpt lat="45.4721058021418" lon="11.503940836116982"><ele>200.0</ele><time>2026-04-03T14:48:33.002Z</time></trkpt><trkpt lat="45.47224627963468" lon="11.503922801597763"><ele>201.33333333333334</ele><time>2026-04-03T14:48:34.002Z</time></trkpt><trkpt lat="45.47239513816918" lon="11.503856602519283"><ele>202.66666666666669</ele><time>2026-04-03T14:48:35.001Z</time></trkpt><trkpt lat="45.47255484022992" lon="11.503742519560369"><ele>204.0</ele><time>2026-04-03T14:48:36.001Z</time></trkpt><trkpt lat="45.47271582226477" lon="11.5036128729654"><ele>212.66666666666669</ele><time>2026-04-03T14:48:37.001Z</time></trkpt><trkpt lat="45.4728958190067" lon="11.503491374856733"><ele>221.33333333333334</ele><time>2026-04-03T14:48:38.001Z</time></trkpt><trkpt lat="45.47309405508159" lon="11.503410448648621"><ele>230.0</ele><time>2026-04-03T14:48:39.001Z</time></trkpt><trkpt lat="45.47328325244204" lon="11.50336589639882"><ele>230.0</ele><time>2026-04-03T14:48:40.001Z</time></trkpt><trkpt lat="45.473449182115935" lon="11.503332670491591"><ele>230.0</ele><time>2026-04-03T14:48:41.001Z</time></trkpt><trkpt lat="45.47361860617816" lon="11.503318911972928"><ele>230.0</ele><time>2026-04-03T14:48:42.001Z</time></trkpt><trkpt lat="45.47378684499922" lon="11.503347487896232"><ele>233.0</ele><time>2026-04-03T14:48:43.001Z</time></trkpt><trkpt lat="45.47395597880373" lon="11.503402142796478"><ele>236.0</ele><time>2026-04-03T14:48:44.001Z</time></trkpt><trkpt lat="45.47413289995283" lon="11.503488895761375"><ele>239.0</ele><time>2026-04-03T14:48:45.001Z</time></trkpt><trkpt lat="45.47431255086973" lon="11.503601420720925"><ele>239.0</ele><time>2026-04-03T14:48:46.001Z</time></trkpt><trkpt lat="45.474497694066685" lon="11.503729520961084"><ele>239.0</ele><time>2026-04-03T14:48:47.001Z</time></trkpt><trkpt lat="45.47467596208291" lon="11.503878620444793"><ele>239.0</ele><time>2026-04-03T14:48:48.001Z</time></trkpt><trkpt lat="45.47483426906937" lon="11.504022331591335"><ele>235.75</ele><time>2026-04-03T14:48:49.001Z</time></trkpt><trkpt lat="45.4749676582556" lon="11.504157954171703"><ele>232.5</ele><time>2026-04-03T14:48:50.001Z</time></trkpt><trkpt lat="45.475082946805145" lon="11.504279496522326"><ele>229.25</ele><time>2026-04-03T14:48:51.001Z</time></trkpt><trkpt lat="45.47517544642045" lon="11.50436983873529"><ele>226.0</ele><time>2026-04-03T14:48:52.001Z</time></trkpt><trkpt lat="45.47527410669656" lon="11.504433838151545"><ele>226.0</ele><time>2026-04-03T14:48:53.001Z</time></trkpt><trkpt lat="45.47535615508252" lon="11.504457155949234"><ele>226.00000000000003</ele><time>2026-04-03T14:48:54.001Z</time></trkpt><trkpt lat="45.47543495560678" lon="11.504425007170743"><ele>226.00000000000003</ele><time>2026-04-03T14:48:55.001Z</time></trkpt><trkpt lat="45.475513175826485" lon="11.504323531411078"><ele>226.0</ele><time>2026-04-03T14:48:56.001Z</time></trkpt><trkpt lat="45.47560392207387" lon="11.504193810410401"><ele>226.0</ele><time>2026-04-03T14:48:57.001Z</time></trkpt><trkpt lat="45.475704685179416" lon="11.504033777459554"><ele>226.4</ele><time>2026-04-03T14:48:58.001Z</time></trkpt><trkpt lat="45.47580547207651" lon="11.503899625990204"><ele>226.8</ele><time>2026-04-03T14:48:59.001Z</time></trkpt><trkpt lat="45.47588810203828" lon="11.503803098302699"><ele>227.20000000000002</ele><time>2026-04-03T14:49:00.001Z</time></trkpt><trkpt lat="45.47595508677326" lon="11.503743360135056"><ele>227.60000000000002</ele><time>2026-04-03T14:49:01.001Z</time></trkpt><trkpt lat="45.476036615842915" lon="11.503707294934557"><ele>228.0</ele><time>2026-04-03T14:49:04.001Z</time></trkpt><trkpt lat="45.47602910250249" lon="11.503567158832237"><ele>228.0</ele><time>2026-04-03T14:49:05Z</time></trkpt><trkpt lat="45.47601932015692" lon="11.503406377441724"><ele>228.0</ele><time>2026-04-03T14:49:06Z</time></trkpt><trkpt lat="45.4759944316216" lon="11.503221260759277"><ele>228.0</ele><time>2026-04-03T14:49:07Z</time></trkpt><trkpt lat="45.47596648525107" lon="11.503001640639162"><ele>228.0</ele><time>2026-04-03T14:49:08Z</time></trkpt><trkpt lat="45.47594949977721" lon="11.502760129808065"><ele>229.33333333333331</ele><time>2026-04-03T14:49:09Z</time></trkpt><trkpt lat="45.47592757516299" lon="11.502503015864086"><ele>230.66666666666666</ele><time>2026-04-03T14:49:10Z</time></trkpt><trkpt lat="45.47593169544571" lon="11.502234908701572"><ele>232.0</ele><time>2026-04-03T14:49:11Z</time></trkpt><trkpt lat="45.475937562611186" lon="11.501970891173114"><ele>232.33333333333331</ele><time>2026-04-03T14:49:12Z</time></trkpt><trkpt lat="45.47594748337449" lon="11.501681615709831"><ele>232.66666666666669</ele><time>2026-04-03T14:49:13Z</time></trkpt><trkpt lat="45.475956838599906" lon="11.501374949000555"><ele>233.0</ele><time>2026-04-03T14:49:14Z</time></trkpt><trkpt lat="45.47595568967423" lon="11.501067125795009"><ele>233.33333333333334</ele><time>2026-04-03T14:49:15Z</time></trkpt><trkpt lat="45.47593714240831" lon="11.50078713710758"><ele>233.66666666666669</ele><time>2026-04-03T14:49:16Z</time></trkpt><trkpt lat="45.4759251586072" lon="11.500519455641795"><ele>234.0</ele><time>2026-04-03T14:49:17Z</time></trkpt><trkpt lat="45.47591221589442" lon="11.500274842999971"><ele>235.66666666666669</ele><time>2026-04-03T14:49:18Z</time></trkpt><trkpt lat="45.47589047348311" lon="11.500014684376936"><ele>237.33333333333334</ele><time>2026-04-03T14:49:19Z</time></trkpt><trkpt lat="45.47586586571312" lon="11.499760458530602"><ele>239.0</ele><time>2026-04-03T14:49:20Z</time></trkpt><trkpt lat="45.47583672027167" lon="11.499541976304004"><ele>239.2</ele><time>2026-04-03T14:49:21Z</time></trkpt><trkpt lat="45.47580639539714" lon="11.49936843615215"><ele>239.39999999999998</ele><time>2026-04-03T14:49:22Z</time></trkpt><trkpt lat="45.4757768929722" lon="11.499219769773072"><ele>239.6</ele><time>2026-04-03T14:49:23Z</time></trkpt><trkpt lat="45.475747940853665" lon="11.499104570231571"><ele>239.8</ele><time>2026-04-03T14:49:24Z</time></trkpt><trkpt lat="45.47573923064979" lon="11.49895153911378"><ele>240.0</ele><time>2026-04-03T14:49:25Z</time></trkpt><trkpt lat="45.47569104346945" lon="11.498737108991005"><ele>240.75</ele><time>2026-04-03T14:49:26Z</time></trkpt><trkpt lat="45.47564551411122" lon="11.49852674541922"><ele>241.5</ele><time>2026-04-03T14:49:27Z</time></trkpt><trkpt lat="45.4756075509354" lon="11.498336970974163"><ele>242.25</ele><time>2026-04-03T14:49:28Z</time></trkpt><trkpt lat="45.475568173579695" lon="11.498139363241336"><ele>243.0</ele><time>2026-04-03T14:49:29Z</time></trkpt><trkpt lat="45.475527339185064" lon="11.497927667709595"><ele>243.33333333333331</ele><time>2026-04-03T14:49:30Z</time></trkpt><trkpt lat="45.47546542910905" lon="11.497727111797715"><ele>243.66666666666666</ele><time>2026-04-03T14:49:31Z</time></trkpt><trkpt lat="45.475424278594566" lon="11.497486046301185"><ele>244.0</ele><time>2026-04-03T14:49:32Z</time></trkpt><trkpt lat="45.47541699543554" lon="11.497225653844643"><ele>245.66666666666666</ele><time>2026-04-03T14:49:33Z</time></trkpt><trkpt lat="45.47538726274686" lon="11.496945675137777"><ele>247.33333333333331</ele><time>2026-04-03T14:49:34Z</time></trkpt><trkpt lat="45.47536492076859" lon="11.496664320225486"><ele>249.0</ele><time>2026-04-03T14:49:35Z</time></trkpt><trkpt lat="45.475344101414144" lon="11.4963679101535"><ele>248.33333333333331</ele><time>2026-04-03T14:49:36Z</time></trkpt><trkpt lat="45.475327877912605" lon="11.496089275864698"><ele>247.66666666666666</ele><time>2026-04-03T14:49:37Z</time></trkpt><trkpt lat="45.47531629833615" lon="11.495835400099331"><ele>247.0</ele><time>2026-04-03T14:49:38Z</time></trkpt><trkpt lat="45.47530694575759" lon="11.495591560558632"><ele>249.33333333333331</ele><time>2026-04-03T14:49:39Z</time></trkpt><trkpt lat="45.47528586164325" lon="11.495356420157979"><ele>251.66666666666669</ele><time>2026-04-03T14:49:40Z</time></trkpt><trkpt lat="45.47528435590484" lon="11.495144487224035"><ele>254.0</ele><time>2026-04-03T14:49:41Z</time></trkpt><trkpt lat="45.475298916121346" lon="11.494953012313747"><ele>254.0</ele><time>2026-04-03T14:49:42Z</time></trkpt><trkpt lat="45.47531862588201" lon="11.494788457862654"><ele>254.0</ele><time>2026-04-03T14:49:43Z</time></trkpt><trkpt lat="45.475369289796284" lon="11.494660453047958"><ele>254.0</ele><time>2026-04-03T14:49:44Z</time></trkpt><trkpt lat="45.475457680032385" lon="11.494536094355029"><ele>254.0</ele><time>2026-04-03T14:49:45Z</time></trkpt><trkpt lat="45.475590916403014" lon="11.494383588038023"><ele>253.0</ele><time>2026-04-03T14:49:46Z</time></trkpt><trkpt lat="45.4757345808093" lon="11.494201198916283"><ele>252.0</ele><time>2026-04-03T14:49:47Z</time></trkpt><trkpt lat="45.47590123926726" lon="11.494039429334533"><ele>251.0</ele><time>2026-04-03T14:49:48Z</time></trkpt><trkpt lat="45.47606906212523" lon="11.49386329312581"><ele>250.33333333333334</ele><time>2026-04-03T14:49:49Z</time></trkpt><trkpt lat="45.47624466573044" lon="11.493698979909155"><ele>249.66666666666669</ele><time>2026-04-03T14:49:50Z</time></trkpt><trkpt lat="45.476432349322074" lon="11.493554220634806"><ele>249.0</ele><time>2026-04-03T14:49:51Z</time></trkpt><trkpt lat="45.476608103186344" lon="11.493452979183802"><ele>249.0</ele><time>2026-04-03T14:49:52Z</time></trkpt><trkpt lat="45.47678087373668" lon="11.493356666447543"><ele>249.0</ele><time>2026-04-03T14:49:53Z</time></trkpt><trkpt lat="45.476950338838236" lon="11.493292664045528"><ele>249.0</ele><time>2026-04-03T14:49:54Z</time></trkpt><trkpt lat="45.47711306030157" lon="11.493252704698028"><ele>246.0</ele><time>2026-04-03T14:49:55Z</time></trkpt><trkpt lat="45.47726528130887" lon="11.493188465624943"><ele>243.0</ele><time>2026-04-03T14:49:56Z</time></trkpt><trkpt lat="45.47740782279424" lon="11.493099558822545"><ele>240.0</ele><time>2026-04-03T14:49:57Z</time></trkpt><trkpt lat="45.4775486623741" lon="11.492973996618966"><ele>239.25</ele><time>2026-04-03T14:49:58Z</time></trkpt><trkpt lat="45.477672992796364" lon="11.492867557453676"><ele>238.5</ele><time>2026-04-03T14:49:59Z</time></trkpt><trkpt lat="45.47778204576836" lon="11.49277747849824"><ele>237.75</ele><time>2026-04-03T14:50:00Z</time></trkpt><trkpt lat="45.477883020824954" lon="11.492677960800416"><ele>237.0</ele><time>2026-04-03T14:50:01Z</time></trkpt><trkpt lat="45.477969945578856" lon="11.4925270742622"><ele>237.0</ele><time>2026-04-03T14:50:02Z</time></trkpt><trkpt lat="45.47803534507535" lon="11.49232713177202"><ele>237.0</ele><time>2026-04-03T14:50:03Z</time></trkpt><trkpt lat="45.478095047781935" lon="11.492094769592207"><ele>237.0</ele><time>2026-04-03T14:50:04Z</time></trkpt><trkpt lat="45.478183719746646" lon="11.49186115145693"><ele>239.0</ele><time>2026-04-03T14:50:05Z</time></trkpt><trkpt lat="45.47825775851563" lon="11.491620385790354"><ele>241.0</ele><time>2026-04-03T14:50:06Z</time></trkpt><trkpt lat="45.47832033433899" lon="11.491408896556333"><ele>243.0</ele><time>2026-04-03T14:50:07Z</time></trkpt><trkpt lat="45.47835185128397" lon="11.491194401677102"><ele>245.33333333333331</ele><time>2026-04-03T14:50:08Z</time></trkpt><trkpt lat="45.47838037676335" lon="11.49096997653824"><ele>247.66666666666666</ele><time>2026-04-03T14:50:09Z</time></trkpt><trkpt lat="45.47837759551806" lon="11.49070735489259"><ele>250.0</ele><time>2026-04-03T14:50:10Z</time></trkpt><trkpt lat="45.478394322946066" lon="11.490453676052027"><ele>249.66666666666666</ele><time>2026-04-03T14:50:11Z</time></trkpt><trkpt lat="45.478400204186066" lon="11.49020125418661"><ele>249.33333333333331</ele><time>2026-04-03T14:50:12Z</time></trkpt><trkpt lat="45.47839302818212" lon="11.489977769909304"><ele>249.0</ele><time>2026-04-03T14:50:13Z</time></trkpt><trkpt lat="45.47834817550835" lon="11.489788072758214"><ele>247.66666666666669</ele><time>2026-04-03T14:50:14Z</time></trkpt><trkpt lat="45.47828886957687" lon="11.48957997325427"><ele>246.33333333333334</ele><time>2026-04-03T14:50:15Z</time></trkpt><trkpt lat="45.47823378895302" lon="11.489341313501173"><ele>245.0</ele><time>2026-04-03T14:50:16Z</time></trkpt><trkpt lat="45.47817729515049" lon="11.489088252181416"><ele>245.0</ele><time>2026-04-03T14:50:17Z</time></trkpt><trkpt lat="45.478125926104184" lon="11.488802538654552"><ele>245.0</ele><time>2026-04-03T14:50:17.999Z</time></trkpt><trkpt lat="45.47808057468844" lon="11.488534293828488"><ele>245.0</ele><time>2026-04-03T14:50:18.999Z</time></trkpt><trkpt lat="45.478041383995794" lon="11.488292827368364"><ele>245.5</ele><time>2026-04-03T14:50:19.999Z</time></trkpt><trkpt lat="45.47801066086044" lon="11.488079676403618"><ele>246.0</ele><time>2026-04-03T14:50:20.999Z</time></trkpt><trkpt lat="45.4779924348324" lon="11.487890988270546"><ele>246.5</ele><time>2026-04-03T14:50:21.999Z</time></trkpt><trkpt lat="45.47799162904605" lon="11.487701810342429"><ele>247.0</ele><time>2026-04-03T14:50:22.999Z</time></trkpt><trkpt lat="45.47801280046888" lon="11.487480524376807"><ele>248.66666666666666</ele><time>2026-04-03T14:50:23.999Z</time></trkpt><trkpt lat="45.478039910728675" lon="11.487228525665923"><ele>250.33333333333331</ele><time>2026-04-03T14:50:24.999Z</time></trkpt><trkpt lat="45.47806579014243" lon="11.486956533674894"><ele>252.0</ele><time>2026-04-03T14:50:25.999Z</time></trkpt><trkpt lat="45.478099046718256" lon="11.486670589153347"><ele>252.0</ele><time>2026-04-03T14:50:26.999Z</time></trkpt><trkpt lat="45.47814838129546" lon="11.48637222384481"><ele>252.0</ele><time>2026-04-03T14:50:27.999Z</time></trkpt><trkpt lat="45.47821887751381" lon="11.486070043424107"><ele>252.0</ele><time>2026-04-03T14:50:28.999Z</time></trkpt><trkpt lat="45.478291035260206" lon="11.485776732334488"><ele>250.66666666666669</ele><time>2026-04-03T14:50:29.999Z</time></trkpt><trkpt lat="45.47835947592024" lon="11.485493361537738"><ele>249.33333333333334</ele><time>2026-04-03T14:50:30.999Z</time></trkpt><trkpt lat="45.47840924524197" lon="11.48522963076978"><ele>248.0</ele><time>2026-04-03T14:50:31.999Z</time></trkpt><trkpt lat="45.47847459555934" lon="11.484972424530973"><ele>246.0</ele><time>2026-04-03T14:50:32.999Z</time></trkpt><trkpt lat="45.478540361604104" lon="11.484716761021135"><ele>244.0</ele><time>2026-04-03T14:50:33.999Z</time></trkpt><trkpt lat="45.47859016780073" lon="11.48445565672907"><ele>242.0</ele><time>2026-04-03T14:50:34.999Z</time></trkpt><trkpt lat="45.478634725636" lon="11.484195537589468"><ele>240.33333333333334</ele><time>2026-04-03T14:50:36.001Z</time></trkpt><trkpt lat="45.47866303906072" lon="11.483932579264893"><ele>238.66666666666669</ele><time>2026-04-03T14:50:37.001Z</time></trkpt><trkpt lat="45.47868067451305" lon="11.483695154392926"><ele>237.0</ele><time>2026-04-03T14:50:38.001Z</time></trkpt><trkpt lat="45.47870209179499" lon="11.483473811990244"><ele>236.33333333333331</ele><time>2026-04-03T14:50:39.001Z</time></trkpt><trkpt lat="45.4787190774543" lon="11.483262401642689"><ele>235.66666666666666</ele><time>2026-04-03T14:50:40.001Z</time></trkpt><trkpt lat="45.47869865270316" lon="11.483040713049295"><ele>235.0</ele><time>2026-04-03T14:50:41.001Z</time></trkpt><trkpt lat="45.47865500701405" lon="11.482808855542068"><ele>237.0</ele><time>2026-04-03T14:50:42.001Z</time></trkpt><trkpt lat="45.47857771876435" lon="11.482561572826231"><ele>239.0</ele><time>2026-04-03T14:50:43.001Z</time></trkpt><trkpt lat="45.47853298528879" lon="11.482341876549532"><ele>241.0</ele><time>2026-04-03T14:50:44.001Z</time></trkpt><trkpt lat="45.47849252258651" lon="11.482162777135581"><ele>242.0</ele><time>2026-04-03T14:50:45.001Z</time></trkpt><trkpt lat="45.4784573210281" lon="11.482020354597502"><ele>243.00000000000003</ele><time>2026-04-03T14:50:46.001Z</time></trkpt><trkpt lat="45.47839502418853" lon="11.48191805490546"><ele>244.00000000000003</ele><time>2026-04-03T14:50:47.001Z</time></trkpt><trkpt lat="45.47830282232557" lon="11.48185979095465"><ele>245.0</ele><time>2026-04-03T14:50:48.001Z</time></trkpt><trkpt lat="45.47819127575368" lon="11.481877292919371"><ele>246.0</ele><time>2026-04-03T14:50:49.001Z</time></trkpt><trkpt lat="45.478090584121134" lon="11.481957334655519"><ele>244.75</ele><time>2026-04-03T14:50:50.001Z</time></trkpt><trkpt lat="45.478030903872344" lon="11.482107262654484"><ele>243.5</ele><time>2026-04-03T14:50:51.001Z</time></trkpt><trkpt lat="45.47798299487297" lon="11.482295504255186"><ele>242.25</ele><time>2026-04-03T14:50:52.001Z</time></trkpt><trkpt lat="45.47792383264929" lon="11.482543401624435"><ele>241.0</ele><time>2026-04-03T14:50:53.001Z</time></trkpt><trkpt lat="45.47783716315052" lon="11.482791132899948"><ele>242.66666666666666</ele><time>2026-04-03T14:50:54.001Z</time></trkpt><trkpt lat="45.47773875863517" lon="11.48306364461146"><ele>244.33333333333331</ele><time>2026-04-03T14:50:55.001Z</time></trkpt><trkpt lat="45.47765419093724" lon="11.483318333019051"><ele>246.0</ele><time>2026-04-03T14:50:56.001Z</time></trkpt><trkpt lat="45.47754204692806" lon="11.483525451859105"><ele>246.0</ele><time>2026-04-03T14:50:57.001Z</time></trkpt><trkpt lat="45.47745206156931" lon="11.483729188774833"><ele>246.0</ele><time>2026-04-03T14:50:58.001Z</time></trkpt><trkpt lat="45.47736899012291" lon="11.483894614631133"><ele>246.0</ele><time>2026-04-03T14:50:59.001Z</time></trkpt><trkpt lat="45.47728404270139" lon="11.484020247099375"><ele>246.0</ele><time>2026-04-03T14:51:00.001Z</time></trkpt><trkpt lat="45.47717741432335" lon="11.484106865383575"><ele>242.25</ele><time>2026-04-03T14:51:01.001Z</time></trkpt><trkpt lat="45.47704758043669" lon="11.48417495834087"><ele>238.5</ele><time>2026-04-03T14:51:02.001Z</time></trkpt><trkpt lat="45.47692055147215" lon="11.484229772945175"><ele>234.75</ele><time>2026-04-03T14:51:03.001Z</time></trkpt><trkpt lat="45.47680934296544" lon="11.48425227823313"><ele>231.0</ele><time>2026-04-03T14:51:04.001Z</time></trkpt><trkpt lat="45.476700737327924" lon="11.48422007334321"><ele>231.0</ele><time>2026-04-03T14:51:05.001Z</time></trkpt><trkpt lat="45.47657509973498" lon="11.484163020566836"><ele>231.00000000000003</ele><time>2026-04-03T14:51:06.001Z</time></trkpt><trkpt lat="45.476473023474185" lon="11.484105915415247"><ele>231.00000000000003</ele><time>2026-04-03T14:51:07Z</time></trkpt><trkpt lat="45.47638970135319" lon="11.484058825303427"><ele>231.0</ele><time>2026-04-03T14:51:08Z</time></trkpt><trkpt lat="45.476341143462385" lon="11.483952277560434"><ele>231.0</ele><time>2026-04-03T14:51:09Z</time></trkpt><trkpt lat="45.476337528035565" lon="11.483822553851729"><ele>231.75</ele><time>2026-04-03T14:51:10Z</time></trkpt><trkpt lat="45.476349461210894" lon="11.483698737518962"><ele>232.5</ele><time>2026-04-03T14:51:11Z</time></trkpt><trkpt lat="45.47632168130025" lon="11.483592253656461"><ele>233.25</ele><time>2026-04-03T14:51:12Z</time></trkpt><trkpt lat="45.47629241748706" lon="11.483455800401872"><ele>234.0</ele><time>2026-04-03T14:51:13Z</time></trkpt><trkpt lat="45.47659291012043" lon="11.483097089713564"><ele>231.0</ele><time>2026-04-03T14:51:14Z</time></trkpt><trkpt lat="45.476665587886444" lon="11.482823596037212"><ele>228.0</ele><time>2026-04-03T14:51:15Z</time></trkpt><trkpt lat="45.47671698319963" lon="11.482511394645565"><ele>225.0</ele><time>2026-04-03T14:51:16Z</time></trkpt><trkpt lat="45.47673568850963" lon="11.482179701517618"><ele>223.0</ele><time>2026-04-03T14:51:17Z</time></trkpt><trkpt lat="45.47673118744469" lon="11.481842988671515"><ele>221.0</ele><time>2026-04-03T14:51:18Z</time></trkpt><trkpt lat="45.47675467499259" lon="11.481513496000684"><ele>215.5</ele><time>2026-04-03T14:51:19Z</time></trkpt><trkpt lat="45.476806089971895" lon="11.481187698120138"><ele>210.0</ele><time>2026-04-03T14:51:20Z</time></trkpt><trkpt lat="45.476868231316324" lon="11.480876108223628"><ele>210.0</ele><time>2026-04-03T14:51:21Z</time></trkpt><trkpt lat="45.476917273501016" lon="11.480587471156833"><ele>210.0</ele><time>2026-04-03T14:51:22Z</time></trkpt><trkpt lat="45.47696584848166" lon="11.480317932667564"><ele>210.0</ele><time>2026-04-03T14:51:23Z</time></trkpt><trkpt lat="45.47701540049856" lon="11.48006561029809"><ele>206.33333333333331</ele><time>2026-04-03T14:51:24Z</time></trkpt><trkpt lat="45.47706469576846" lon="11.479828722732977"><ele>202.66666666666666</ele><time>2026-04-03T14:51:25Z</time></trkpt><trkpt lat="45.47710527453575" lon="11.479597284591454"><ele>199.0</ele><time>2026-04-03T14:51:26Z</time></trkpt><trkpt lat="45.47713330337968" lon="11.479367524194622"><ele>214.66666666666666</ele><time>2026-04-03T14:51:27Z</time></trkpt><trkpt lat="45.47714411986647" lon="11.47911545475008"><ele>230.33333333333331</ele><time>2026-04-03T14:51:28Z</time></trkpt><trkpt lat="45.47713113372841" lon="11.478853140495564"><ele>246.0</ele><time>2026-04-03T14:51:29Z</time></trkpt><trkpt lat="45.477121150607296" lon="11.478604093233042"><ele>247.0</ele><time>2026-04-03T14:51:30Z</time></trkpt><trkpt lat="45.47710698663408" lon="11.478340614015274"><ele>248.0</ele><time>2026-04-03T14:51:31Z</time></trkpt><trkpt lat="45.47709706124687" lon="11.478101784129866"><ele>249.0</ele><time>2026-04-03T14:51:32Z</time></trkpt><trkpt lat="45.47708391140047" lon="11.477869381647755"><ele>229.66666666666666</ele><time>2026-04-03T14:51:33Z</time></trkpt><trkpt lat="45.47707377944605" lon="11.477656036409085"><ele>210.33333333333331</ele><time>2026-04-03T14:51:34Z</time></trkpt><trkpt lat="45.47708155469666" lon="11.477435846062935"><ele>191.0</ele><time>2026-04-03T14:51:35Z</time></trkpt><trkpt lat="45.47709789219388" lon="11.477211773110534"><ele>208.33333333333331</ele><time>2026-04-03T14:51:36Z</time></trkpt><trkpt lat="45.47712519205232" lon="11.477000118891892"><ele>225.66666666666666</ele><time>2026-04-03T14:51:37Z</time></trkpt><trkpt lat="45.477142094177104" lon="11.476791744337005"><ele>243.0</ele><time>2026-04-03T14:51:38Z</time></trkpt><trkpt lat="45.47715254125499" lon="11.47656894958668"><ele>243.0</ele><time>2026-04-03T14:51:39Z</time></trkpt><trkpt lat="45.47715624992856" lon="11.476343106830875"><ele>243.0</ele><time>2026-04-03T14:51:40Z</time></trkpt><trkpt lat="45.477143565303855" lon="11.476111808685888"><ele>243.0</ele><time>2026-04-03T14:51:41Z</time></trkpt><trkpt lat="45.47711995894692" lon="11.475875566021902"><ele>226.0</ele><time>2026-04-03T14:51:42Z</time></trkpt><trkpt lat="45.4770936040106" lon="11.475647872066784"><ele>209.0</ele><time>2026-04-03T14:51:43Z</time></trkpt><trkpt lat="45.47708303844131" lon="11.475422344301332"><ele>192.0</ele><time>2026-04-03T14:51:44Z</time></trkpt><trkpt lat="45.47709320907805" lon="11.475192552724392"><ele>192.0</ele><time>2026-04-03T14:51:45Z</time></trkpt><trkpt lat="45.47709209381041" lon="11.474947663374953"><ele>192.0</ele><time>2026-04-03T14:51:46Z</time></trkpt><trkpt lat="45.47707822695702" lon="11.47471459977977"><ele>192.0</ele><time>2026-04-03T14:51:47Z</time></trkpt><trkpt lat="45.4770836118362" lon="11.474489942940652"><ele>198.25</ele><time>2026-04-03T14:51:48Z</time></trkpt><trkpt lat="45.47711710270304" lon="11.474279230455002"><ele>204.5</ele><time>2026-04-03T14:51:49Z</time></trkpt><trkpt lat="45.47714694591405" lon="11.474074867457192"><ele>210.75</ele><time>2026-04-03T14:51:50Z</time></trkpt><trkpt lat="45.47718071670288" lon="11.473874856650685"><ele>217.0</ele><time>2026-04-03T14:51:51Z</time></trkpt><trkpt lat="45.47721351449696" lon="11.473673055229767"><ele>217.0</ele><time>2026-04-03T14:51:52Z</time></trkpt><trkpt lat="45.47723867624194" lon="11.473471253309127"><ele>217.0</ele><time>2026-04-03T14:51:53Z</time></trkpt><trkpt lat="45.47722632229735" lon="11.473271134063458"><ele>217.0</ele><time>2026-04-03T14:51:54Z</time></trkpt><trkpt lat="45.47721320982339" lon="11.473079326009067"><ele>217.0</ele><time>2026-04-03T14:51:55Z</time></trkpt><trkpt lat="45.47718609106867" lon="11.472903357073543"><ele>216.25</ele><time>2026-04-03T14:51:56Z</time></trkpt><trkpt lat="45.47714471235588" lon="11.472735609307183"><ele>215.5</ele><time>2026-04-03T14:51:57Z</time></trkpt><trkpt lat="45.477074195472426" lon="11.472579175470628"><ele>214.75</ele><time>2026-04-03T14:51:58Z</time></trkpt><trkpt lat="45.47698028642642" lon="11.472453819551742"><ele>214.0</ele><time>2026-04-03T14:51:59Z</time></trkpt><trkpt lat="45.476902418364645" lon="11.47232705269676"><ele>208.2</ele><time>2026-04-03T14:51:59.999Z</time></trkpt><trkpt lat="45.47683362794526" lon="11.472225414588596"><ele>202.39999999999998</ele><time>2026-04-03T14:52:00.999Z</time></trkpt><trkpt lat="45.47679101597677" lon="11.472121657693016"><ele>196.6</ele><time>2026-04-03T14:52:01.999Z</time></trkpt><trkpt lat="45.476759137880784" lon="11.471987957463403"><ele>190.8</ele><time>2026-04-03T14:52:02.999Z</time></trkpt><trkpt lat="45.47673098014545" lon="11.471838252175255"><ele>185.0</ele><time>2026-04-03T14:52:03.999Z</time></trkpt><trkpt lat="45.47673116065594" lon="11.471649375616009"><ele>184.75</ele><time>2026-04-03T14:52:04.999Z</time></trkpt><trkpt lat="45.4767214774265" lon="11.471456951231216"><ele>184.5</ele><time>2026-04-03T14:52:05.999Z</time></trkpt><trkpt lat="45.476704692684386" lon="11.471255692580451"><ele>184.25</ele><time>2026-04-03T14:52:06.999Z</time></trkpt><trkpt lat="45.47671789688224" lon="11.471047307148586"><ele>184.0</ele><time>2026-04-03T14:52:07.999Z</time></trkpt><trkpt lat="45.47670203248034" lon="11.470844289518961"><ele>184.0</ele><time>2026-04-03T14:52:08.999Z</time></trkpt><trkpt lat="45.476682531583954" lon="11.470654443365248"><ele>184.0</ele><time>2026-04-03T14:52:09.999Z</time></trkpt><trkpt lat="45.476636492906344" lon="11.470469021301792"><ele>184.0</ele><time>2026-04-03T14:52:10.999Z</time></trkpt><trkpt lat="45.476598786867484" lon="11.470284708343527"><ele>184.0</ele><time>2026-04-03T14:52:11.999Z</time></trkpt><trkpt lat="45.47658175616014" lon="11.470123868037518"><ele>184.0</ele><time>2026-04-03T14:52:12.999Z</time></trkpt><trkpt lat="45.476556345407964" lon="11.469986003144895"><ele>184.0</ele><time>2026-04-03T14:52:13.999Z</time></trkpt><trkpt lat="45.476525444848384" lon="11.469863181468737"><ele>184.0</ele><time>2026-04-03T14:52:14.999Z</time></trkpt><trkpt lat="45.47653057001671" lon="11.469716140152848"><ele>184.0</ele><time>2026-04-03T14:52:15.999Z</time></trkpt><trkpt lat="45.476508895981524" lon="11.469573799768547"><ele>184.0</ele><time>2026-04-03T14:52:16.999Z</time></trkpt><trkpt lat="45.476489155977895" lon="11.469429298220964"><ele>185.5</ele><time>2026-04-03T14:52:17.999Z</time></trkpt><trkpt lat="45.47646519627207" lon="11.469285182714444"><ele>187.0</ele><time>2026-04-03T14:52:18.999Z</time></trkpt><trkpt lat="45.476343327621905" lon="11.469183624976491"><ele>188.5</ele><time>2026-04-03T14:52:19.999Z</time></trkpt><trkpt lat="45.47624410348686" lon="11.469092149164464"><ele>190.0</ele><time>2026-04-03T14:52:20.999Z</time></trkpt><trkpt lat="45.476160228031404" lon="11.468969319536997"><ele>187.75</ele><time>2026-04-03T14:52:21.999Z</time></trkpt><trkpt lat="45.47606910234416" lon="11.46884662326795"><ele>185.5</ele><time>2026-04-03T14:52:22.999Z</time></trkpt><trkpt lat="45.47598154026386" lon="11.468710947394305"><ele>183.25</ele><time>2026-04-03T14:52:23.999Z</time></trkpt><trkpt lat="45.475882985951415" lon="11.468585819005622"><ele>181.0</ele><time>2026-04-03T14:52:24.999Z</time></trkpt><trkpt lat="45.47580008631648" lon="11.468444637090434"><ele>181.0</ele><time>2026-04-03T14:52:25.999Z</time></trkpt><trkpt lat="45.475724096754284" lon="11.46830233068629"><ele>181.0</ele><time>2026-04-03T14:52:26.999Z</time></trkpt><trkpt lat="45.475646672423395" lon="11.46814637247579"><ele>181.0</ele><time>2026-04-03T14:52:27.999Z</time></trkpt><trkpt lat="45.4755819719704" lon="11.467989254825744"><ele>181.0</ele><time>2026-04-03T14:52:28.999Z</time></trkpt><trkpt lat="45.475515091973264" lon="11.467831823909192"><ele>185.0</ele><time>2026-04-03T14:52:29.999Z</time></trkpt><trkpt lat="45.47544604780077" lon="11.46767316839131"><ele>189.0</ele><time>2026-04-03T14:52:30.999Z</time></trkpt><trkpt lat="45.4753851389566" lon="11.46752076041122"><ele>193.0</ele><time>2026-04-03T14:52:31.999Z</time></trkpt><trkpt lat="45.475312801529974" lon="11.467387237172314"><ele>197.0</ele><time>2026-04-03T14:52:32.999Z</time></trkpt><trkpt lat="45.47524985922595" lon="11.467239344387231"><ele>190.5</ele><time>2026-04-03T14:52:33.999Z</time></trkpt><trkpt lat="45.475187650040525" lon="11.467085836229064"><ele>184.0</ele><time>2026-04-03T14:52:34.999Z</time></trkpt><trkpt lat="45.475121984023126" lon="11.46693517644297"><ele>177.5</ele><time>2026-04-03T14:52:35.999Z</time></trkpt><trkpt lat="45.475059187443726" lon="11.466782459354935"><ele>171.0</ele><time>2026-04-03T14:52:36.999Z</time></trkpt><trkpt lat="45.47501939797016" lon="11.466626650086905"><ele>171.0</ele><time>2026-04-03T14:52:37.999Z</time></trkpt><trkpt lat="45.4749903760562" lon="11.466469241367983"><ele>171.0</ele><time>2026-04-03T14:52:38.999Z</time></trkpt><trkpt lat="45.47496796433781" lon="11.466324244627968"><ele>171.0</ele><time>2026-04-03T14:52:39.999Z</time></trkpt><trkpt lat="45.47493754168508" lon="11.46618793885193"><ele>171.0</ele><time>2026-04-03T14:52:40.999Z</time></trkpt><trkpt lat="45.47490797807643" lon="11.466053644624145"><ele>171.0</ele><time>2026-04-03T14:52:42.001Z</time></trkpt><trkpt lat="45.47480099603153" lon="11.465958737260898"><ele>172.75</ele><time>2026-04-03T14:52:43.001Z</time></trkpt><trkpt lat="45.474694288129385" lon="11.465864454015135"><ele>174.5</ele><time>2026-04-03T14:52:44.001Z</time></trkpt><trkpt lat="45.47460571518379" lon="11.465762468212038"><ele>176.25</ele><time>2026-04-03T14:52:45.001Z</time></trkpt><trkpt lat="45.474524523116024" lon="11.465665649004652"><ele>178.0</ele><time>2026-04-03T14:52:46.001Z</time></trkpt><trkpt lat="45.47445874136173" lon="11.465535957396842"><ele>172.75</ele><time>2026-04-03T14:52:47.001Z</time></trkpt><trkpt lat="45.4743888953793" lon="11.46538924860882"><ele>167.5</ele><time>2026-04-03T14:52:48.001Z</time></trkpt><trkpt lat="45.47430168785336" lon="11.46524892063851"><ele>162.25</ele><time>2026-04-03T14:52:49.001Z</time></trkpt><trkpt lat="45.474228467899074" lon="11.465111394315942"><ele>157.0</ele><time>2026-04-03T14:52:50.001Z</time></trkpt><trkpt lat="45.47414921106309" lon="11.464988837375378"><ele>157.0</ele><time>2026-04-03T14:52:51.001Z</time></trkpt><trkpt lat="45.474072254856296" lon="11.464872989249116"><ele>157.0</ele><time>2026-04-03T14:52:52.001Z</time></trkpt><trkpt lat="45.473988250822224" lon="11.464743279599437"><ele>157.0</ele><time>2026-04-03T14:52:53.001Z</time></trkpt><trkpt lat="45.47389521738944" lon="11.464608572227165"><ele>157.0</ele><time>2026-04-03T14:52:54.001Z</time></trkpt><trkpt lat="45.47379568662596" lon="11.464471738092465"><ele>154.75</ele><time>2026-04-03T14:52:55.001Z</time></trkpt><trkpt lat="45.47367658797233" lon="11.464368251741691"><ele>152.5</ele><time>2026-04-03T14:52:56.001Z</time></trkpt><trkpt lat="45.47355090814313" lon="11.464294329808249"><ele>150.25</ele><time>2026-04-03T14:52:57.001Z</time></trkpt><trkpt lat="45.47342578022165" lon="11.464210090075067"><ele>148.0</ele><time>2026-04-03T14:52:58.001Z</time></trkpt><trkpt lat="45.473309540914336" lon="11.46413406302909"><ele>148.0</ele><time>2026-04-03T14:52:59.001Z</time></trkpt><trkpt lat="45.47319062362869" lon="11.464089110927443"><ele>148.0</ele><time>2026-04-03T14:53:00.001Z</time></trkpt><trkpt lat="45.473063853986275" lon="11.464083336944338"><ele>148.0</ele><time>2026-04-03T14:53:01.001Z</time></trkpt><trkpt lat="45.472940158954096" lon="11.46407754867217"><ele>148.0</ele><time>2026-04-03T14:53:02.001Z</time></trkpt><trkpt lat="45.472832746643256" lon="11.46408480428091"><ele>145.20000000000002</ele><time>2026-04-03T14:53:03Z</time></trkpt><trkpt lat="45.47273187564025" lon="11.464085585236578"><ele>142.4</ele><time>2026-04-03T14:53:04Z</time></trkpt><trkpt lat="45.472630959911555" lon="11.46406810800841"><ele>139.60000000000002</ele><time>2026-04-03T14:53:05Z</time></trkpt><trkpt lat="45.47255165895817" lon="11.464023851669623"><ele>136.8</ele><time>2026-04-03T14:53:06Z</time></trkpt><trkpt lat="45.472461513774306" lon="11.463942844181672"><ele>134.0</ele><time>2026-04-03T14:53:07Z</time></trkpt><trkpt lat="45.472359990651775" lon="11.463842988310653"><ele>130.75</ele><time>2026-04-03T14:53:08Z</time></trkpt><trkpt lat="45.472266186415666" lon="11.463749533588368"><ele>127.5</ele><time>2026-04-03T14:53:09Z</time></trkpt><trkpt lat="45.47217123820086" lon="11.463672626445263"><ele>124.25</ele><time>2026-04-03T14:53:10Z</time></trkpt><trkpt lat="45.4721199536653" lon="11.463530104555955"><ele>121.0</ele><time>2026-04-03T14:53:11Z</time></trkpt><trkpt lat="45.4720502048018" lon="11.463376420502586"><ele>121.0</ele><time>2026-04-03T14:53:12Z</time></trkpt><trkpt lat="45.47196336514055" lon="11.463213426215315"><ele>121.0</ele><time>2026-04-03T14:53:13Z</time></trkpt><trkpt lat="45.47188432576884" lon="11.46303351819263"><ele>121.0</ele><time>2026-04-03T14:53:14Z</time></trkpt><trkpt lat="45.471806872538465" lon="11.46286098594806"><ele>121.0</ele><time>2026-04-03T14:53:15Z</time></trkpt><trkpt lat="45.47173560184376" lon="11.462694968387554"><ele>122.5</ele><time>2026-04-03T14:53:16Z</time></trkpt><trkpt lat="45.471682472336255" lon="11.462538991094572"><ele>124.0</ele><time>2026-04-03T14:53:17Z</time></trkpt><trkpt lat="45.4716269817365" lon="11.462388807897737"><ele>125.5</ele><time>2026-04-03T14:53:18Z</time></trkpt><trkpt lat="45.47163096147465" lon="11.46220546381928"><ele>127.0</ele><time>2026-04-03T14:53:19Z</time></trkpt><trkpt lat="45.47162914518733" lon="11.461999794790776"><ele>127.0</ele><time>2026-04-03T14:53:20Z</time></trkpt><trkpt lat="45.47162118863111" lon="11.461778831657986"><ele>127.0</ele><time>2026-04-03T14:53:21Z</time></trkpt><trkpt lat="45.471627999222385" lon="11.461572018113568"><ele>127.0</ele><time>2026-04-03T14:53:22Z</time></trkpt><trkpt lat="45.47162636110605" lon="11.461372877539228"><ele>127.0</ele><time>2026-04-03T14:53:23Z</time></trkpt><trkpt lat="45.47162288103878" lon="11.46117696398463"><ele>126.5</ele><time>2026-04-03T14:53:24Z</time></trkpt><trkpt lat="45.4716100308776" lon="11.460983174991688"><ele>126.0</ele><time>2026-04-03T14:53:25Z</time></trkpt><trkpt lat="45.471570350273225" lon="11.460800027607998"><ele>125.5</ele><time>2026-04-03T14:53:26Z</time></trkpt><trkpt lat="45.471489599422206" lon="11.460651503127194"><ele>125.0</ele><time>2026-04-03T14:53:27Z</time></trkpt><trkpt lat="45.47138977843943" lon="11.460535137125936"><ele>126.75</ele><time>2026-04-03T14:53:28Z</time></trkpt><trkpt lat="45.471293840871525" lon="11.460420636108593"><ele>128.5</ele><time>2026-04-03T14:53:29Z</time></trkpt><trkpt lat="45.47121548689208" lon="11.460303141670016"><ele>130.25</ele><time>2026-04-03T14:53:30Z</time></trkpt><trkpt lat="45.471181781811985" lon="11.460145879309373"><ele>132.0</ele><time>2026-04-03T14:53:31Z</time></trkpt><trkpt lat="45.47113677480242" lon="11.46000459773645"><ele>131.0</ele><time>2026-04-03T14:53:32Z</time></trkpt><trkpt lat="45.47107191083066" lon="11.45986944600358"><ele>130.0</ele><time>2026-04-03T14:53:33Z</time></trkpt><trkpt lat="45.470998090320606" lon="11.459728491955467"><ele>129.0</ele><time>2026-04-03T14:53:34Z</time></trkpt><trkpt lat="45.47089327370448" lon="11.459618386802598"><ele>128.0</ele><time>2026-04-03T14:53:35Z</time></trkpt><trkpt lat="45.47077767946131" lon="11.45952690219121"><ele>128.0</ele><time>2026-04-03T14:53:36Z</time></trkpt><trkpt lat="45.47067166518423" lon="11.459412763119348"><ele>128.0</ele><time>2026-04-03T14:53:37Z</time></trkpt><trkpt lat="45.47055871621075" lon="11.459310027395567"><ele>128.0</ele><time>2026-04-03T14:53:38Z</time></trkpt><trkpt lat="45.470432070491974" lon="11.45922713297983"><ele>128.0</ele><time>2026-04-03T14:53:39Z</time></trkpt><trkpt lat="45.47031717432314" lon="11.459146838326182"><ele>123.0</ele><time>2026-04-03T14:53:40Z</time></trkpt><trkpt lat="45.470202005941445" lon="11.459080039413797"><ele>118.0</ele><time>2026-04-03T14:53:41Z</time></trkpt><trkpt lat="45.470087255578115" lon="11.459040937359104"><ele>113.0</ele><time>2026-04-03T14:53:41.999Z</time></trkpt><trkpt lat="45.46996713839037" lon="11.459022538147135"><ele>108.0</ele><time>2026-04-03T14:53:42.999Z</time></trkpt><trkpt lat="45.46986129170433" lon="11.458952937474068"><ele>108.0</ele><time>2026-04-03T14:53:43.999Z</time></trkpt><trkpt lat="45.469764806641386" lon="11.458863251559263"><ele>108.0</ele><time>2026-04-03T14:53:44.999Z</time></trkpt><trkpt lat="45.469704368291175" lon="11.458739955275542"><ele>108.0</ele><time>2026-04-03T14:53:45.999Z</time></trkpt><trkpt lat="45.46964973208118" lon="11.45860923304439"><ele>108.0</ele><time>2026-04-03T14:53:46.999Z</time></trkpt><trkpt lat="45.469590579459606" lon="11.458452439480446"><ele>102.25</ele><time>2026-04-03T14:53:47.999Z</time></trkpt><trkpt lat="45.46951694171606" lon="11.458293283623846"><ele>96.5</ele><time>2026-04-03T14:53:48.999Z</time></trkpt><trkpt lat="45.46945873350043" lon="11.45813164190405"><ele>90.75</ele><time>2026-04-03T14:53:49.999Z</time></trkpt><trkpt lat="45.469411840734885" lon="11.457986951121327"><ele>85.0</ele><time>2026-04-03T14:53:50.999Z</time></trkpt><trkpt lat="45.46937566702008" lon="11.45786738553628"><ele>84.6</ele><time>2026-04-03T14:53:51.999Z</time></trkpt><trkpt lat="45.46935072917549" lon="11.457760204699849"><ele>84.2</ele><time>2026-04-03T14:53:52.999Z</time></trkpt><trkpt lat="45.46934644295422" lon="11.457631824336296"><ele>83.80000000000001</ele><time>2026-04-03T14:53:53.999Z</time></trkpt><trkpt lat="45.46938139105929" lon="11.457489857542312"><ele>83.4</ele><time>2026-04-03T14:53:54.999Z</time></trkpt><trkpt lat="45.4694146901135" lon="11.457338856255394"><ele>83.0</ele><time>2026-04-03T14:53:55.999Z</time></trkpt><trkpt lat="45.46944194814984" lon="11.457179549975342"><ele>81.75</ele><time>2026-04-03T14:53:56.999Z</time></trkpt><trkpt lat="45.469480675835975" lon="11.457021370818703"><ele>80.5</ele><time>2026-04-03T14:53:57.999Z</time></trkpt><trkpt lat="45.46952194446626" lon="11.456855146725472"><ele>79.25</ele><time>2026-04-03T14:53:58.999Z</time></trkpt><trkpt lat="45.469582383204646" lon="11.456679292071447"><ele>78.0</ele><time>2026-04-03T14:53:59.999Z</time></trkpt><trkpt lat="45.4696349388366" lon="11.456501028256774"><ele>82.75</ele><time>2026-04-03T14:54:00.999Z</time></trkpt><trkpt lat="45.469686916643944" lon="11.456311432221987"><ele>87.5</ele><time>2026-04-03T14:54:01.999Z</time></trkpt><trkpt lat="45.46974410840073" lon="11.45611850481588"><ele>92.25</ele><time>2026-04-03T14:54:02.999Z</time></trkpt><trkpt lat="45.46979173364351" lon="11.455941912024358"><ele>97.0</ele><time>2026-04-03T14:54:03.999Z</time></trkpt><trkpt lat="45.46981900983723" lon="11.455756352285894"><ele>97.0</ele><time>2026-04-03T14:54:04.999Z</time></trkpt><trkpt lat="45.46983298391602" lon="11.455560900372262"><ele>97.0</ele><time>2026-04-03T14:54:05.999Z</time></trkpt><trkpt lat="45.469835697289454" lon="11.455364538131958"><ele>97.0</ele><time>2026-04-03T14:54:06.999Z</time></trkpt><trkpt lat="45.46984051200906" lon="11.455169001281833"><ele>97.0</ele><time>2026-04-03T14:54:07.999Z</time></trkpt><trkpt lat="45.469845075316435" lon="11.454995097584813"><ele>96.75</ele><time>2026-04-03T14:54:08.999Z</time></trkpt><trkpt lat="45.46983878687667" lon="11.454819440271885"><ele>96.5</ele><time>2026-04-03T14:54:09.999Z</time></trkpt><trkpt lat="45.46980915099187" lon="11.454639274884078"><ele>96.25</ele><time>2026-04-03T14:54:10.999Z</time></trkpt><trkpt lat="45.469754609699685" lon="11.454461268157091"><ele>96.0</ele><time>2026-04-03T14:54:11.999Z</time></trkpt><trkpt lat="45.46969232475267" lon="11.45428975188175"><ele>95.75</ele><time>2026-04-03T14:54:12.999Z</time></trkpt><trkpt lat="45.46965310794405" lon="11.454121420089642"><ele>95.5</ele><time>2026-04-03T14:54:13.999Z</time></trkpt><trkpt lat="45.469608046030125" lon="11.453978512123813"><ele>95.25</ele><time>2026-04-03T14:54:14.999Z</time></trkpt><trkpt lat="45.469571526206714" lon="11.453832743064215"><ele>95.0</ele><time>2026-04-03T14:54:15.999Z</time></trkpt><trkpt lat="45.46953933301131" lon="11.45368639524908"><ele>92.8</ele><time>2026-04-03T14:54:16.999Z</time></trkpt><trkpt lat="45.469549532884706" lon="11.453543136128879"><ele>90.6</ele><time>2026-04-03T14:54:17.999Z</time></trkpt><trkpt lat="45.46954452627454" lon="11.453410012126769"><ele>88.4</ele><time>2026-04-03T14:54:18.999Z</time></trkpt><trkpt lat="45.4695489019315" lon="11.453267019483656"><ele>86.2</ele><time>2026-04-03T14:54:19.999Z</time></trkpt><trkpt lat="45.469564528825494" lon="11.453118205635334"><ele>84.0</ele><time>2026-04-03T14:54:20.999Z</time></trkpt><trkpt lat="45.469589261490114" lon="11.452988503167992"><ele>85.4</ele><time>2026-04-03T14:54:21.999Z</time></trkpt><trkpt lat="45.46962383819938" lon="11.452869970270333"><ele>86.80000000000001</ele><time>2026-04-03T14:54:22.999Z</time></trkpt><trkpt lat="45.469671055643104" lon="11.45274203159144"><ele>88.19999999999999</ele><time>2026-04-03T14:54:23.999Z</time></trkpt><trkpt lat="45.469726552522665" lon="11.452585268920854"><ele>89.6</ele><time>2026-04-03T14:54:24.999Z</time></trkpt><trkpt lat="45.469782070382564" lon="11.452424721317094"><ele>91.0</ele><time>2026-04-03T14:54:25.999Z</time></trkpt><trkpt lat="45.46982867187311" lon="11.452262644924444"><ele>87.25</ele><time>2026-04-03T14:54:26.999Z</time></trkpt><trkpt lat="45.46987781293075" lon="11.45210939432092"><ele>83.5</ele><time>2026-04-03T14:54:27.999Z</time></trkpt><trkpt lat="45.46992949246433" lon="11.45195703152885"><ele>79.75</ele><time>2026-04-03T14:54:28.999Z</time></trkpt><trkpt lat="45.469974929316436" lon="11.451808109021094"><ele>76.0</ele><time>2026-04-03T14:54:29.999Z</time></trkpt><trkpt lat="45.47002252023175" lon="11.45166259838662"><ele>76.0</ele><time>2026-04-03T14:54:30.999Z</time></trkpt><trkpt lat="45.470073874320185" lon="11.451508879298794"><ele>76.0</ele><time>2026-04-03T14:54:31.999Z</time></trkpt><trkpt lat="45.470125810306826" lon="11.451345262902324"><ele>76.0</ele><time>2026-04-03T14:54:32.999Z</time></trkpt><trkpt lat="45.470177871575" lon="11.451187357133184"><ele>76.0</ele><time>2026-04-03T14:54:33.999Z</time></trkpt><trkpt lat="45.47022762556183" lon="11.451028247618709"><ele>73.0</ele><time>2026-04-03T14:54:34.998Z</time></trkpt><trkpt lat="45.47028112026394" lon="11.450867666710204"><ele>70.0</ele><time>2026-04-03T14:54:35.998Z</time></trkpt><trkpt lat="45.470350944199026" lon="11.450717510101889"><ele>67.0</ele><time>2026-04-03T14:54:36.998Z</time></trkpt><trkpt lat="45.47043494832918" lon="11.450576938103335"><ele>64.0</ele><time>2026-04-03T14:54:37.998Z</time></trkpt><trkpt lat="45.47052708111106" lon="11.450456146568904"><ele>63.25</ele><time>2026-04-03T14:54:38.998Z</time></trkpt><trkpt lat="45.47062241564303" lon="11.450344286109262"><ele>62.5</ele><time>2026-04-03T14:54:39.998Z</time></trkpt><trkpt lat="45.470713765174246" lon="11.450232276457319"><ele>61.75</ele><time>2026-04-03T14:54:40.998Z</time></trkpt><trkpt lat="45.47080260546572" lon="11.45012564926837"><ele>61.0</ele><time>2026-04-03T14:54:41.998Z</time></trkpt><trkpt lat="45.47088617499082" lon="11.45002211692695"><ele>61.0</ele><time>2026-04-03T14:54:42.998Z</time></trkpt><trkpt lat="45.47097079565553" lon="11.449911128445514"><ele>61.0</ele><time>2026-04-03T14:54:43.998Z</time></trkpt><trkpt lat="45.47105259971577" lon="11.449782633667231"><ele>61.0</ele><time>2026-04-03T14:54:44.998Z</time></trkpt><trkpt lat="45.471122013947316" lon="11.449639350642665"><ele>61.0</ele><time>2026-04-03T14:54:45.998Z</time></trkpt><trkpt lat="45.471182014895625" lon="11.44947636820157"><ele>60.0</ele><time>2026-04-03T14:54:46.998Z</time></trkpt><trkpt lat="45.471234543414205" lon="11.449304995142047"><ele>59.0</ele><time>2026-04-03T14:54:48Z</time></trkpt><trkpt lat="45.47126621418146" lon="11.449136925348428"><ele>58.0</ele><time>2026-04-03T14:54:49Z</time></trkpt><trkpt lat="45.471277363709625" lon="11.448979718439048"><ele>57.0</ele><time>2026-04-03T14:54:50Z</time></trkpt><trkpt lat="45.4712885452264" lon="11.448843959564082"><ele>56.166666666666664</ele><time>2026-04-03T14:54:51Z</time></trkpt><trkpt lat="45.471285902628935" lon="11.448724994041791"><ele>55.33333333333333</ele><time>2026-04-03T14:54:52Z</time></trkpt><trkpt lat="45.47128520101892" lon="11.44860832305896"><ele>54.5</ele><time>2026-04-03T14:54:53Z</time></trkpt><trkpt lat="45.47129585747594" lon="11.448484067499233"><ele>53.666666666666664</ele><time>2026-04-03T14:54:54Z</time></trkpt><trkpt lat="45.47131327443636" lon="11.44837362814008"><ele>52.83333333333333</ele><time>2026-04-03T14:54:55Z</time></trkpt><trkpt lat="45.47133985138086" lon="11.448280240708932"><ele>52.0</ele><time>2026-04-03T14:54:56Z</time></trkpt><trkpt lat="45.471390868642175" lon="11.448181191135962"><ele>52.0</ele><time>2026-04-03T14:54:57Z</time></trkpt><trkpt lat="45.4714502328113" lon="11.44809602691875"><ele>52.0</ele><time>2026-04-03T14:54:58Z</time></trkpt><trkpt lat="45.4715170174267" lon="11.447987697528918"><ele>52.0</ele><time>2026-04-03T14:54:59Z</time></trkpt><trkpt lat="45.471586911255116" lon="11.447869980293541"><ele>52.0</ele><time>2026-04-03T14:55:00Z</time></trkpt><trkpt lat="45.471646825094275" lon="11.447758478029405"><ele>52.0</ele><time>2026-04-03T14:55:01Z</time></trkpt><trkpt lat="45.47170309413049" lon="11.447670179909505"><ele>51.49999999999999</ele><time>2026-04-03T14:55:02Z</time></trkpt><trkpt lat="45.47175681877462" lon="11.447591321882374"><ele>51.0</ele><time>2026-04-03T14:55:03Z</time></trkpt><trkpt lat="45.47180894361403" lon="11.447494742657417"><ele>50.5</ele><time>2026-04-03T14:55:04Z</time></trkpt><trkpt lat="45.471861240082056" lon="11.44739513309624"><ele>50.0</ele><time>2026-04-03T14:55:05Z</time></trkpt><trkpt lat="45.47191559545446" lon="11.447287369678968"><ele>49.49999999999999</ele><time>2026-04-03T14:55:06Z</time></trkpt><trkpt lat="45.4719627036439" lon="11.447161871440526"><ele>49.0</ele><time>2026-04-03T14:55:07Z</time></trkpt><trkpt lat="45.47201075049043" lon="11.447046182006817"><ele>49.0</ele><time>2026-04-03T14:55:08Z</time></trkpt><trkpt lat="45.47206253415561" lon="11.446937927132854"><ele>49.0</ele><time>2026-04-03T14:55:09Z</time></trkpt><trkpt lat="45.47210888935822" lon="11.446821785068355"><ele>49.0</ele><time>2026-04-03T14:55:10Z</time></trkpt><trkpt lat="45.472166090799654" lon="11.446701449310009"><ele>49.0</ele><time>2026-04-03T14:55:11Z</time></trkpt><trkpt lat="45.47220140350266" lon="11.446600783933825"><ele>49.0</ele><time>2026-04-03T14:55:12Z</time></trkpt><trkpt lat="45.47224985500251" lon="11.446493937710505"><ele>49.0</ele><time>2026-04-03T14:55:13Z</time></trkpt><trkpt lat="45.47229685117318" lon="11.446388555325285"><ele>49.0</ele><time>2026-04-03T14:55:14Z</time></trkpt><trkpt lat="45.472345771201056" lon="11.44628045568293"><ele>49.0</ele><time>2026-04-03T14:55:15Z</time></trkpt><trkpt lat="45.47239964070991" lon="11.446172018335938"><ele>49.0</ele><time>2026-04-03T14:55:16Z</time></trkpt><trkpt lat="45.472454257734825" lon="11.446066978151451"><ele>49.0</ele><time>2026-04-03T14:55:17Z</time></trkpt><trkpt lat="45.472508138481324" lon="11.445955927462624"><ele>49.0</ele><time>2026-04-03T14:55:18Z</time></trkpt><trkpt lat="45.47256575966261" lon="11.44585060016822"><ele>49.0</ele><time>2026-04-03T14:55:19Z</time></trkpt><trkpt lat="45.47262190936311" lon="11.44573954310767"><ele>49.0</ele><time>2026-04-03T14:55:20Z</time></trkpt><trkpt lat="45.47268471158135" lon="11.445624903204314"><ele>49.0</ele><time>2026-04-03T14:55:21Z</time></trkpt><trkpt lat="45.4727427099739" lon="11.445513713704264"><ele>49.0</ele><time>2026-04-03T14:55:22Z</time></trkpt><trkpt lat="45.4728009423635" lon="11.445398638735043"><ele>49.0</ele><time>2026-04-03T14:55:23Z</time></trkpt><trkpt lat="45.47286162990939" lon="11.445281381052007"><ele>49.0</ele><time>2026-04-03T14:55:24Z</time></trkpt><trkpt lat="45.472927194384326" lon="11.445161467623816"><ele>49.0</ele><time>2026-04-03T14:55:25Z</time></trkpt><trkpt lat="45.47299616441077" lon="11.445041742665847"><ele>49.0</ele><time>2026-04-03T14:55:26Z</time></trkpt><trkpt lat="45.47306625233984" lon="11.444914354553406"><ele>49.0</ele><time>2026-04-03T14:55:27Z</time></trkpt><trkpt lat="45.47313531007118" lon="11.444791962520819"><ele>49.0</ele><time>2026-04-03T14:55:28Z</time></trkpt><trkpt lat="45.47320867877226" lon="11.444682676241431"><ele>49.0</ele><time>2026-04-03T14:55:29Z</time></trkpt><trkpt lat="45.47328342949775" lon="11.444566070505493"><ele>49.0</ele><time>2026-04-03T14:55:30Z</time></trkpt><trkpt lat="45.473364974795636" lon="11.444437836984818"><ele>49.0</ele><time>2026-04-03T14:55:31Z</time></trkpt><trkpt lat="45.47344631781423" lon="11.444309180912532"><ele>48.75</ele><time>2026-04-03T14:55:32Z</time></trkpt><trkpt lat="45.47353067876997" lon="11.444176871137907"><ele>48.5</ele><time>2026-04-03T14:55:32.999Z</time></trkpt><trkpt lat="45.47361667507995" lon="11.44404847213263"><ele>48.25</ele><time>2026-04-03T14:55:33.999Z</time></trkpt><trkpt lat="45.47370037814817" lon="11.443918605419324"><ele>48.0</ele><time>2026-04-03T14:55:34.999Z</time></trkpt><trkpt lat="45.47378697789495" lon="11.44378927898201"><ele>47.75</ele><time>2026-04-03T14:55:35.999Z</time></trkpt><trkpt lat="45.473873570123786" lon="11.44365548365429"><ele>47.5</ele><time>2026-04-03T14:55:36.999Z</time></trkpt><trkpt lat="45.473957578377494" lon="11.443526778116087"><ele>47.25</ele><time>2026-04-03T14:55:37.999Z</time></trkpt><trkpt lat="45.47404556918497" lon="11.443397448082361"><ele>47.0</ele><time>2026-04-03T14:55:38.999Z</time></trkpt><trkpt lat="45.47413625306377" lon="11.443269208347767"><ele>47.0</ele><time>2026-04-03T14:55:39.999Z</time></trkpt><trkpt lat="45.47422426278836" lon="11.443141940404677"><ele>47.0</ele><time>2026-04-03T14:55:40.999Z</time></trkpt><trkpt lat="45.47431260813988" lon="11.443017337698343"><ele>47.0</ele><time>2026-04-03T14:55:41.999Z</time></trkpt><trkpt lat="45.47439882963126" lon="11.442896215871958"><ele>47.0</ele><time>2026-04-03T14:55:42.999Z</time></trkpt><trkpt lat="45.474485186447865" lon="11.442776929445602"><ele>47.0</ele><time>2026-04-03T14:55:43.999Z</time></trkpt><trkpt lat="45.474573872028046" lon="11.442652346182038"><ele>47.0</ele><time>2026-04-03T14:55:44.999Z</time></trkpt><trkpt lat="45.47466462623892" lon="11.44252509309407"><ele>47.0</ele><time>2026-04-03T14:55:45.999Z</time></trkpt><trkpt lat="45.47475844682805" lon="11.44239956027657"><ele>47.0</ele><time>2026-04-03T14:55:46.999Z</time></trkpt><trkpt lat="45.474851468283106" lon="11.442276688976541"><ele>47.0</ele><time>2026-04-03T14:55:47.999Z</time></trkpt><trkpt lat="45.47494318293325" lon="11.442158581322404"><ele>47.0</ele><time>2026-04-03T14:55:48.999Z</time></trkpt><trkpt lat="45.475021764166065" lon="11.442040236071657"><ele>47.0</ele><time>2026-04-03T14:55:49.999Z</time></trkpt><trkpt lat="45.4751124098981" lon="11.4419267590722"><ele>47.0</ele><time>2026-04-03T14:55:50.999Z</time></trkpt><trkpt lat="45.475188348557744" lon="11.441802906515145"><ele>47.0</ele><time>2026-04-03T14:55:51.999Z</time></trkpt><trkpt lat="45.47527146859553" lon="11.441682947835183"><ele>47.0</ele><time>2026-04-03T14:55:52.999Z</time></trkpt><trkpt lat="45.475354669278275" lon="11.441563151632456"><ele>47.0</ele><time>2026-04-03T14:55:53.999Z</time></trkpt><trkpt lat="45.47543082122051" lon="11.441448483946697"><ele>47.0</ele><time>2026-04-03T14:55:54.999Z</time></trkpt><trkpt lat="45.475498851559834" lon="11.441346988137663"><ele>47.0</ele><time>2026-04-03T14:55:55.999Z</time></trkpt><trkpt lat="45.47556532463239" lon="11.441250772446276"><ele>46.6</ele><time>2026-04-03T14:55:56.999Z</time></trkpt><trkpt lat="45.475640423021346" lon="11.441169392016237"><ele>46.2</ele><time>2026-04-03T14:55:57.999Z</time></trkpt><trkpt lat="45.47572877760507" lon="11.441101735967091"><ele>45.8</ele><time>2026-04-03T14:55:58.999Z</time></trkpt><trkpt lat="45.475792954108684" lon="11.44099220258862"><ele>45.4</ele><time>2026-04-03T14:55:59.999Z</time></trkpt><trkpt lat="45.4758592924122" lon="11.440890746670112"><ele>45.0</ele><time>2026-04-03T14:56:00.999Z</time></trkpt><trkpt lat="45.475920607005335" lon="11.440774398131435"><ele>45.0</ele><time>2026-04-03T14:56:01.999Z</time></trkpt><trkpt lat="45.47596964854234" lon="11.440614501264097"><ele>45.0</ele><time>2026-04-03T14:56:02.999Z</time></trkpt><trkpt lat="45.476044910561036" lon="11.440475643057837"><ele>45.0</ele><time>2026-04-03T14:56:03.999Z</time></trkpt><trkpt lat="45.47613047343316" lon="11.440346197123997"><ele>45.0</ele><time>2026-04-03T14:56:04.999Z</time></trkpt><trkpt lat="45.47621275544018" lon="11.440217766554177"><ele>45.75</ele><time>2026-04-03T14:56:05.999Z</time></trkpt><trkpt lat="45.47629371512592" lon="11.440085489319358"><ele>46.5</ele><time>2026-04-03T14:56:06.999Z</time></trkpt><trkpt lat="45.47637779926016" lon="11.439965960083024"><ele>47.25</ele><time>2026-04-03T14:56:07.999Z</time></trkpt><trkpt lat="45.476458288966185" lon="11.439843202723791"><ele>48.0</ele><time>2026-04-03T14:56:08.999Z</time></trkpt><trkpt lat="45.476536020857736" lon="11.43971212393547"><ele>47.75</ele><time>2026-04-03T14:56:09.999Z</time></trkpt><trkpt lat="45.47661737136259" lon="11.439587467995686"><ele>47.5</ele><time>2026-04-03T14:56:10.999Z</time></trkpt><trkpt lat="45.47669959643503" lon="11.439464285040675"><ele>47.25</ele><time>2026-04-03T14:56:11.999Z</time></trkpt><trkpt lat="45.47678113363287" lon="11.439336066606044"><ele>47.0</ele><time>2026-04-03T14:56:12.999Z</time></trkpt><trkpt lat="45.4768639630482" lon="11.43921025978076"><ele>47.0</ele><time>2026-04-03T14:56:13.999Z</time></trkpt><trkpt lat="45.47694352538132" lon="11.439086486296805"><ele>47.0</ele><time>2026-04-03T14:56:14.999Z</time></trkpt><trkpt lat="45.477020491751524" lon="11.438964331690977"><ele>47.0</ele><time>2026-04-03T14:56:15.999Z</time></trkpt><trkpt lat="45.47709965610017" lon="11.438840716676726"><ele>47.0</ele><time>2026-04-03T14:56:16.999Z</time></trkpt><trkpt lat="45.4771759651011" lon="11.438720494710964"><ele>47.2</ele><time>2026-04-03T14:56:17.999Z</time></trkpt><trkpt lat="45.47725071030956" lon="11.438606121689686"><ele>47.400000000000006</ele><time>2026-04-03T14:56:18.999Z</time></trkpt><trkpt lat="45.477320771188154" lon="11.438493454107482"><ele>47.599999999999994</ele><time>2026-04-03T14:56:19.999Z</time></trkpt><trkpt lat="45.477394477702205" lon="11.438381278528471"><ele>47.8</ele><time>2026-04-03T14:56:20.999Z</time></trkpt><trkpt lat="45.47746986822284" lon="11.43827502634966"><ele>48.0</ele><time>2026-04-03T14:56:21.999Z</time></trkpt><trkpt lat="45.47754455997666" lon="11.438159427178674"><ele>48.0</ele><time>2026-04-03T14:56:22.999Z</time></trkpt><trkpt lat="45.477610194646864" lon="11.438060918910516"><ele>48.0</ele><time>2026-04-03T14:56:23.998Z</time></trkpt><trkpt lat="45.47767218563035" lon="11.43796514405913"><ele>48.0</ele><time>2026-04-03T14:56:24.998Z</time></trkpt><trkpt lat="45.47773933473744" lon="11.437859758582043"><ele>48.0</ele><time>2026-04-03T14:56:25.998Z</time></trkpt><trkpt lat="45.47780679935744" lon="11.437754445805641"><ele>48.0</ele><time>2026-04-03T14:56:26.998Z</time></trkpt><trkpt lat="45.477866742559286" lon="11.437656077750116"><ele>48.0</ele><time>2026-04-03T14:56:27.998Z</time></trkpt><trkpt lat="45.47792177639953" lon="11.437572078531211"><ele>48.0</ele><time>2026-04-03T14:56:28.998Z</time></trkpt><trkpt lat="45.477966023229165" lon="11.437506789969921"><ele>48.0</ele><time>2026-04-03T14:56:29.998Z</time></trkpt><trkpt lat="45.47803410655134" lon="11.437399278415784"><ele>48.0</ele><time>2026-04-03T14:56:31.998Z</time></trkpt><trkpt lat="45.478092819391" lon="11.437303331026213"><ele>48.0</ele><time>2026-04-03T14:56:33.998Z</time></trkpt><trkpt lat="45.47814956679389" lon="11.437212804318749"><ele>48.0</ele><time>2026-04-03T14:56:35.998Z</time></trkpt><trkpt lat="45.478209650843226" lon="11.437121315105891"><ele>48.0</ele><time>2026-04-03T14:56:37.998Z</time></trkpt><trkpt lat="45.4782844048722" lon="11.437012312236838"><ele>48.0</ele><time>2026-04-03T14:56:39.998Z</time></trkpt><trkpt lat="45.478333677285065" lon="11.436943524686772"><ele>48.0</ele><time>2026-04-03T14:56:40.998Z</time></trkpt><trkpt lat="45.47838535395086" lon="11.436864681330835"><ele>48.0</ele><time>2026-04-03T14:56:41.998Z</time></trkpt><trkpt lat="45.4784351493563" lon="11.436781525429065"><ele>48.0</ele><time>2026-04-03T14:56:42.998Z</time></trkpt><trkpt lat="45.47848369326541" lon="11.436702346438974"><ele>48.0</ele><time>2026-04-03T14:56:43.998Z</time></trkpt><trkpt lat="45.478532296594956" lon="11.436624568064076"><ele>48.0</ele><time>2026-04-03T14:56:44.998Z</time></trkpt><trkpt lat="45.47859226626119" lon="11.43653561562967"><ele>48.0</ele><time>2026-04-03T14:56:45.998Z</time></trkpt><trkpt lat="45.47865622086911" lon="11.436438945176056"><ele>48.0</ele><time>2026-04-03T14:56:46.998Z</time></trkpt><trkpt lat="45.47872218601681" lon="11.436337344207507"><ele>48.0</ele><time>2026-04-03T14:56:47.998Z</time></trkpt><trkpt lat="45.47878943919355" lon="11.436226927013195"><ele>48.0</ele><time>2026-04-03T14:56:48.998Z</time></trkpt><trkpt lat="45.47886074483675" lon="11.436110632045105"><ele>48.4</ele><time>2026-04-03T14:56:49.998Z</time></trkpt><trkpt lat="45.47893674159398" lon="11.435992815240075"><ele>48.8</ele><time>2026-04-03T14:56:50.998Z</time></trkpt><trkpt lat="45.479013160871624" lon="11.435875215707181"><ele>49.2</ele><time>2026-04-03T14:56:51.998Z</time></trkpt><trkpt lat="45.479090865744205" lon="11.4357572726034"><ele>49.6</ele><time>2026-04-03T14:56:52.998Z</time></trkpt><trkpt lat="45.47916235336582" lon="11.435642972586496"><ele>50.0</ele><time>2026-04-03T14:56:54Z</time></trkpt><trkpt lat="45.47923376696366" lon="11.435528176348319"><ele>50.0</ele><time>2026-04-03T14:56:55Z</time></trkpt><trkpt lat="45.47931131464145" lon="11.435409171374578"><ele>50.0</ele><time>2026-04-03T14:56:56Z</time></trkpt><trkpt lat="45.47939411243595" lon="11.43528651530289"><ele>50.0</ele><time>2026-04-03T14:56:57Z</time></trkpt><trkpt lat="45.479483613816726" lon="11.435158447489476"><ele>50.0</ele><time>2026-04-03T14:56:58Z</time></trkpt><trkpt lat="45.479576098527374" lon="11.435032110505507"><ele>49.8</ele><time>2026-04-03T14:56:59Z</time></trkpt><trkpt lat="45.47965790120777" lon="11.434919144972305"><ele>49.6</ele><time>2026-04-03T14:57:00Z</time></trkpt><trkpt lat="45.479740682646614" lon="11.434810487490843"><ele>49.400000000000006</ele><time>2026-04-03T14:57:01Z</time></trkpt><trkpt lat="45.47981245642136" lon="11.434713764301447"><ele>49.2</ele><time>2026-04-03T14:57:02Z</time></trkpt><trkpt lat="45.47987036909532" lon="11.434625645456592"><ele>49.0</ele><time>2026-04-03T14:57:03Z</time></trkpt><trkpt lat="45.479911988487466" lon="11.434550284177133"><ele>49.33333333333333</ele><time>2026-04-03T14:57:04Z</time></trkpt><trkpt lat="45.479992522083485" lon="11.434440363179643"><ele>49.666666666666664</ele><time>2026-04-03T14:57:06Z</time></trkpt><trkpt lat="45.48008754108249" lon="11.434473382655442"><ele>50.0</ele><time>2026-04-03T14:57:08Z</time></trkpt><trkpt lat="45.480131816507196" lon="11.434550416806204"><ele>50.33333333333333</ele><time>2026-04-03T14:57:10Z</time></trkpt><trkpt lat="45.48019063024404" lon="11.434476422367828"><ele>50.666666666666664</ele><time>2026-04-03T14:57:14Z</time></trkpt><trkpt lat="45.48023620954756" lon="11.43437552201401"><ele>51.0</ele><time>2026-04-03T14:57:17Z</time></trkpt><trkpt lat="45.48023786539004" lon="11.434284507362213"><ele>51.0</ele><time>2026-04-03T14:57:19Z</time></trkpt><trkpt lat="45.480285055884174" lon="11.434212586503454"><ele>51.0</ele><time>2026-04-03T14:57:22Z</time></trkpt><trkpt lat="45.480331428200714" lon="11.434130483987436"><ele>51.0</ele><time>2026-04-03T14:57:28Z</time></trkpt><trkpt lat="45.48041247731113" lon="11.434041912601176"><ele>51.0</ele><time>2026-04-03T14:57:30Z</time></trkpt><trkpt lat="45.48044705427235" lon="11.43396554223841"><ele>51.0</ele><time>2026-04-03T14:57:31Z</time></trkpt><trkpt lat="45.480503825036294" lon="11.433833159985317"><ele>51.0</ele><time>2026-04-03T14:57:33Z</time></trkpt><trkpt lat="45.480571604514864" lon="11.43373761531551"><ele>50.0</ele><time>2026-04-03T14:57:35Z</time></trkpt><trkpt lat="45.48063445558301" lon="11.433655940542112"><ele>50.0</ele><time>2026-04-03T14:57:36.999Z</time></trkpt><trkpt lat="45.48068415519888" lon="11.433590542685119"><ele>50.0</ele><time>2026-04-03T14:57:38.999Z</time></trkpt><trkpt lat="45.48071967550906" lon="11.433501260633282"><ele>50.0</ele><time>2026-04-03T14:57:41.999Z</time></trkpt></trkseg></trk></gpx>